
Distance (Route):
Temperature : 32°C
Humidity : 31.7%
Pressure : 0hPa| Receiver | Frames | First received | Last received |
|---|---|---|---|
| IW2NTF | 1496 | 2026-09-04 11:02:00 | 2026-09-04 14:09:21 |
| DO3MHA-11 | 458 | 2026-09-04 11:51:09 | 2026-09-04 13:23:30 |
| DB0UT-7 | 161 | 2026-09-04 11:46:36 | 2026-09-04 13:22:17 |
| NBG1-10 | 94 | 2026-09-04 12:03:32 | 2026-09-04 13:15:30 |
| OE5DRO-10 | 75 | 2026-09-04 12:31:45 | 2026-09-04 13:06:34 |
| S52SK | 62 | 2026-09-04 12:44:08 | 2026-09-04 13:02:26 |
| HARRO8 | 32 | 2026-09-04 12:31:54 | 2026-09-04 13:05:32 |
| DK5PH-5 | 28 | 2026-09-04 12:43:34 | 2026-09-04 13:02:11 |
| DF1GD-15 | 22 | 2026-09-04 13:08:10 | 2026-09-04 13:18:30 |
| DF7PN | 7 | 2026-09-04 12:50:15 | 2026-09-04 12:56:59 |
| PG1ADW-2 | 2 | 2026-09-04 12:54:26 | 2026-09-04 12:54:54 |
| OE3JTB-15 | 2 | 2026-09-04 12:57:42 | 2026-09-04 12:59:09 |
| DL1ZP-14 | 1 | 2026-09-04 13:00:02 | 2026-09-04 13:00:02 |
| Receiver | Date | Latitude | Longitude | Direction | Speed | Altitude | Climb | Temperature | Humidity | Pressure | Voltage | Killtimer | Uptime | BKT | XDATA |
|---|---|---|---|---|---|---|---|---|---|---|---|---|---|---|---|
| IW2NTF | 2026-09-04 14:09:21 | 45.19207 | 9.48412 | 189° | 13km/h | 213m | -2.9m/s | 32°C | 31.7% | 0hPa | 2.8V | 07:21:16 | 03:34:29 | 00:00:00 | |
| IW2NTF | 2026-09-04 14:09:14 | 45.19212 | 9.48413 | 189° | 7km/h | 219m | -3.6m/s | 32°C | 31.8% | 0hPa | 2.8V | 07:21:18 | 03:34:27 | 00:00:00 | |
| IW2NTF | 2026-09-04 14:09:14 | 45.19215 | 9.48412 | 131° | 5km/h | 227m | -3.9m/s | 31.9°C | 31.8% | 0hPa | 2.8V | 07:21:20 | 03:34:25 | 00:00:00 | |
| IW2NTF | 2026-09-04 14:09:14 | 45.19217 | 9.48407 | 123° | 11km/h | 234m | -3.5m/s | 31.9°C | 31.9% | 0hPa | 2.8V | 07:21:22 | 03:34:23 | 00:00:00 | |
| IW2NTF | 2026-09-04 14:09:08 | 45.19231 | 9.48393 | 155° | 20km/h | 248m | -3.9m/s | 31.7°C | 32.1% | 0hPa | 2.8V | 07:21:26 | 03:34:19 | 00:00:00 | |
| IW2NTF | 2026-09-04 14:09:08 | 45.19240 | 9.48388 | 165° | 18km/h | 255m | -4.1m/s | 31.7°C | 32.1% | 0hPa | 2.8V | 07:21:28 | 03:34:17 | 00:00:00 | |
| IW2NTF | 2026-09-04 14:09:03 | 45.19247 | 9.48387 | 182° | 11km/h | 263m | -6.3m/s | 31.6°C | 32.3% | 0hPa | 2.8V | 07:21:30 | 03:34:15 | 00:00:00 | |
| IW2NTF | 2026-09-04 14:09:03 | 45.19252 | 9.48387 | 180° | 7km/h | 274m | -4.5m/s | 31.5°C | 32.3% | 0hPa | 2.8V | 07:21:32 | 03:34:13 | 00:00:00 | |
| IW2NTF | 2026-09-04 14:09:03 | 45.19254 | 9.48386 | 114° | 5km/h | 282m | -3.7m/s | 31.5°C | 32.4% | 0hPa | 2.8V | 07:21:34 | 03:34:11 | 00:00:00 | |
| IW2NTF | 2026-09-04 14:08:56 | 45.19255 | 9.48382 | 86° | 7km/h | 290m | -4.6m/s | 31.4°C | 32.4% | 0hPa | 2.8V | 07:21:36 | 03:34:09 | 00:00:00 | |
| IW2NTF | 2026-09-04 14:08:56 | 45.19256 | 9.48374 | 104° | 13km/h | 298m | -4.1m/s | 31.4°C | 32.6% | 0hPa | 2.8V | 07:21:38 | 03:34:07 | 00:00:00 | |
| IW2NTF | 2026-09-04 14:08:56 | 45.19260 | 9.48364 | 131° | 18km/h | 306m | -3.9m/s | 31.2°C | 32.8% | 0hPa | 2.8V | 07:21:40 | 03:34:05 | 00:00:00 | |
| IW2NTF | 2026-09-04 14:08:50 | 45.19267 | 9.48355 | 144° | 18km/h | 313m | -3.9m/s | 31.1°C | 32.9% | 0hPa | 2.8V | 07:21:42 | 03:34:03 | 00:00:00 | |
| IW2NTF | 2026-09-04 14:08:50 | 45.19274 | 9.48351 | 171° | 13km/h | 320m | -3.1m/s | 31°C | 33.1% | 0hPa | 2.8V | 07:21:44 | 03:34:01 | 00:00:00 | |
| IW2NTF | 2026-09-04 14:08:50 | 45.19279 | 9.48351 | 178° | 7km/h | 327m | -3.5m/s | 31°C | 33.2% | 0hPa | 2.8V | 07:21:46 | 03:33:59 | 00:00:00 | |
| IW2NTF | 2026-09-04 14:08:44 | 45.19281 | 9.48349 | 104° | 4km/h | 334m | -3.4m/s | 30.9°C | 33.3% | 0hPa | 2.8V | 07:21:48 | 03:33:57 | 00:00:00 | |
| IW2NTF | 2026-09-04 14:08:44 | 45.19281 | 9.48345 | 90° | 9km/h | 340m | -3.4m/s | 30.8°C | 33.4% | 0hPa | 2.8V | 07:21:50 | 03:33:55 | 00:00:00 | |
| IW2NTF | 2026-09-04 14:08:44 | 45.19281 | 9.48336 | 98° | 15km/h | 347m | -3.3m/s | 30.7°C | 33.5% | 0hPa | 2.8V | 07:21:52 | 03:33:53 | 00:00:00 | |
| IW2NTF | 2026-09-04 14:08:38 | 45.19284 | 9.48325 | 117° | 16km/h | 354m | -3.2m/s | 30.7°C | 33.6% | 0hPa | 2.8V | 07:21:54 | 03:33:51 | 00:00:00 | |
| IW2NTF | 2026-09-04 14:08:38 | 45.19289 | 9.48314 | 135° | 18km/h | 361m | -3.1m/s | 30.6°C | 33.8% | 0hPa | 2.8V | 07:21:56 | 03:33:49 | 00:00:00 | |
| IW2NTF | 2026-09-04 14:08:38 | 45.19295 | 9.48307 | 153° | 16km/h | 369m | -3.4m/s | 30.5°C | 34% | 0hPa | 2.8V | 07:21:58 | 03:33:47 | 00:00:00 | |
| IW2NTF | 2026-09-04 14:08:32 | 45.19302 | 9.48303 | 159° | 13km/h | 376m | -3.5m/s | 30.4°C | 34.1% | 0hPa | 2.8V | 07:22:00 | 03:33:45 | 00:00:00 | |
| IW2NTF | 2026-09-04 14:08:32 | 45.19307 | 9.48301 | 167° | 9km/h | 383m | -3.5m/s | 30.4°C | 34.1% | 0hPa | 2.8V | 07:22:02 | 03:33:43 | 00:00:00 | |
| IW2NTF | 2026-09-04 14:08:32 | 45.19308 | 9.48300 | 125° | 2km/h | 388m | -3.4m/s | 30.3°C | 34.2% | 0hPa | 2.8V | 07:22:04 | 03:33:41 | 00:00:00 | |
| IW2NTF | 2026-09-04 14:08:26 | 45.19308 | 9.48296 | 82° | 11km/h | 394m | -2.5m/s | 30.3°C | 34.2% | 0hPa | 2.8V | 07:22:06 | 03:33:39 | 00:00:00 | |
| IW2NTF | 2026-09-04 14:08:26 | 45.19308 | 9.48286 | 88° | 16km/h | 399m | -2.4m/s | 30.2°C | 34.3% | 0hPa | 2.8V | 07:22:08 | 03:33:37 | 00:00:00 | |
| IW2NTF | 2026-09-04 14:08:26 | 45.19309 | 9.48275 | 111° | 18km/h | 403m | -1.7m/s | 30.2°C | 34.4% | 0hPa | 2.8V | 07:22:10 | 03:33:35 | 00:00:00 | |
| IW2NTF | 2026-09-04 14:08:20 | 45.19313 | 9.48265 | 127° | 15km/h | 407m | -2.7m/s | 30.2°C | 34.4% | 0hPa | 2.8V | 07:22:12 | 03:33:33 | 00:00:00 | |
| IW2NTF | 2026-09-04 14:08:20 | 45.19318 | 9.48259 | 148° | 11km/h | 413m | -3m/s | 30.1°C | 34.7% | 0hPa | 2.8V | 07:22:14 | 03:33:31 | 00:00:00 | |
| IW2NTF | 2026-09-04 14:08:20 | 45.19321 | 9.48258 | 191° | 4km/h | 420m | -2.8m/s | 30°C | 34.7% | 0hPa | 2.8V | 07:22:16 | 03:33:29 | 00:00:00 | |
| IW2NTF | 2026-09-04 14:08:14 | 45.19323 | 9.48258 | 130° | 0km/h | 426m | -2.6m/s | 30°C | 34.7% | 0hPa | 2.8V | 07:22:18 | 03:33:27 | 00:00:00 | |
| IW2NTF | 2026-09-04 14:08:14 | 45.19322 | 9.48257 | 64° | 4km/h | 431m | -2.5m/s | 29.9°C | 34.8% | 0hPa | 2.8V | 07:22:20 | 03:33:25 | 00:00:00 | |
| IW2NTF | 2026-09-04 14:08:14 | 45.19323 | 9.48253 | 120° | 9km/h | 436m | -2.4m/s | 29.9°C | 35% | 0hPa | 2.8V | 07:22:22 | 03:33:23 | 00:00:00 | |
| IW2NTF | 2026-09-04 14:08:08 | 45.19327 | 9.48248 | 143° | 15km/h | 440m | -3.4m/s | 29.8°C | 35.1% | 0hPa | 2.8V | 07:22:24 | 03:33:21 | 00:00:00 | |
| IW2NTF | 2026-09-04 14:08:08 | 45.19333 | 9.48242 | 150° | 15km/h | 447m | -3m/s | 29.8°C | 35.2% | 0hPa | 2.8V | 07:22:26 | 03:33:19 | 00:00:00 | |
| IW2NTF | 2026-09-04 14:08:08 | 45.19339 | 9.48238 | 167° | 11km/h | 453m | -3.5m/s | 29.7°C | 35.3% | 0hPa | 2.8V | 07:22:28 | 03:33:17 | 00:00:00 | |
| IW2NTF | 2026-09-04 14:08:02 | 45.19344 | 9.48236 | 182° | 7km/h | 460m | -3.1m/s | 29.6°C | 35.4% | 0hPa | 2.8V | 07:22:30 | 03:33:15 | 00:00:00 | |
| IW2NTF | 2026-09-04 14:08:02 | 45.19346 | 9.48237 | 194° | 2km/h | 466m | -2.3m/s | 29.6°C | 35.4% | 0hPa | 2.8V | 07:22:32 | 03:33:13 | 00:00:00 | |
| IW2NTF | 2026-09-04 14:08:02 | 45.19346 | 9.48236 | 56° | 4km/h | 470m | -2.6m/s | 29.6°C | 35.5% | 0hPa | 2.8V | 07:22:34 | 03:33:11 | 00:00:00 | |
| IW2NTF | 2026-09-04 14:07:56 | 45.19345 | 9.48232 | 79° | 9km/h | 475m | -1.8m/s | 29.5°C | 35.5% | 0hPa | 2.8V | 07:22:36 | 03:33:09 | 00:00:00 | |
| IW2NTF | 2026-09-04 14:07:56 | 45.19345 | 9.48224 | 98° | 13km/h | 479m | -2.1m/s | 29.4°C | 35.6% | 0hPa | 2.8V | 07:22:38 | 03:33:07 | 00:00:00 | |
| IW2NTF | 2026-09-04 14:07:56 | 45.19347 | 9.48215 | 120° | 11km/h | 483m | -2.2m/s | 29.4°C | 35.7% | 0hPa | 2.8V | 07:22:40 | 03:33:05 | 00:00:00 | |
| IW2NTF | 2026-09-04 14:07:50 | 45.19350 | 9.48210 | 146° | 9km/h | 488m | -1.9m/s | 29.4°C | 35.8% | 0hPa | 2.8V | 07:22:42 | 03:33:03 | 00:00:00 | |
| IW2NTF | 2026-09-04 14:07:50 | 45.19352 | 9.48209 | 187° | 2km/h | 493m | -2.6m/s | 29.3°C | 35.9% | 0hPa | 2.8V | 07:22:44 | 03:33:01 | 00:00:00 | |
| IW2NTF | 2026-09-04 14:07:50 | 45.19352 | 9.48209 | 46° | 2km/h | 499m | -3.3m/s | 29.2°C | 36.1% | 0hPa | 2.8V | 07:22:46 | 03:32:59 | 00:00:00 | |
| IW2NTF | 2026-09-04 14:07:44 | 45.19352 | 9.48207 | 44° | 5km/h | 506m | -3.4m/s | 29.2°C | 36.2% | 0hPa | 2.8V | 07:22:48 | 03:32:57 | 00:00:00 | |
| IW2NTF | 2026-09-04 14:07:44 | 45.19350 | 9.48203 | 83° | 7km/h | 512m | -3.5m/s | 29.1°C | 36.3% | 0hPa | 2.8V | 07:22:50 | 03:32:55 | 00:00:00 | |
| IW2NTF | 2026-09-04 14:07:44 | 45.19351 | 9.48196 | 107° | 11km/h | 519m | -3.5m/s | 29°C | 36.4% | 0hPa | 2.8V | 07:22:52 | 03:32:53 | 00:00:00 | |
| IW2NTF | 2026-09-04 14:07:38 | 45.19354 | 9.48189 | 137° | 13km/h | 525m | -3.3m/s | 29°C | 36.4% | 0hPa | 2.8V | 07:22:54 | 03:32:51 | 00:00:00 | |
| IW2NTF | 2026-09-04 14:07:38 | 45.19360 | 9.48184 | 161° | 13km/h | 532m | -3.6m/s | 29°C | 36.5% | 0hPa | 2.8V | 07:22:56 | 03:32:49 | 00:00:00 | |
| IW2NTF | 2026-09-04 14:07:38 | 45.19365 | 9.48182 | 169° | 7km/h | 539m | -3.6m/s | 28.9°C | 36.6% | 0hPa | 2.8V | 07:22:58 | 03:32:47 | 00:00:00 | |
| IW2NTF | 2026-09-04 14:07:32 | 45.19367 | 9.48182 | 234° | 2km/h | 547m | -3.5m/s | 28.8°C | 36.8% | 0hPa | 2.8V | 07:23:00 | 03:32:45 | 00:00:00 | |
| IW2NTF | 2026-09-04 14:07:32 | 45.19367 | 9.48183 | 347° | 2km/h | 553m | -3.4m/s | 28.8°C | 36.9% | 0hPa | 2.8V | 07:23:02 | 03:32:43 | 00:00:00 | |
| IW2NTF | 2026-09-04 14:07:32 | 45.19365 | 9.48181 | 58° | 7km/h | 559m | -3.1m/s | 28.7°C | 37% | 0hPa | 2.8V | 07:23:04 | 03:32:41 | 00:00:00 | |
| IW2NTF | 2026-09-04 14:07:26 | 45.19365 | 9.48175 | 96° | 11km/h | 566m | -3m/s | 28.6°C | 37.1% | 0hPa | 2.8V | 07:23:06 | 03:32:39 | 00:00:00 | |
| IW2NTF | 2026-09-04 14:07:26 | 45.19367 | 9.48167 | 129° | 13km/h | 572m | -3.3m/s | 28.6°C | 37.2% | 0hPa | 2.8V | 07:23:08 | 03:32:37 | 00:00:00 | |
| IW2NTF | 2026-09-04 14:07:26 | 45.19373 | 9.48161 | 155° | 13km/h | 579m | -3.4m/s | 28.5°C | 37.3% | 0hPa | 2.8V | 07:23:10 | 03:32:35 | 00:00:00 | |
| IW2NTF | 2026-09-04 14:07:20 | 45.19378 | 9.48159 | 176° | 11km/h | 585m | -3.6m/s | 28.5°C | 37.4% | 0hPa | 2.8V | 07:23:12 | 03:32:33 | 00:00:00 | |
| IW2NTF | 2026-09-04 14:07:20 | 45.19383 | 9.48160 | 199° | 9km/h | 592m | -3.2m/s | 28.4°C | 37.5% | 0hPa | 2.8V | 07:23:14 | 03:32:31 | 00:00:00 | |
| IW2NTF | 2026-09-04 14:07:20 | 45.19387 | 9.48162 | 217° | 5km/h | 597m | -2.9m/s | 28.3°C | 37.7% | 0hPa | 2.8V | 07:23:16 | 03:32:29 | 00:00:00 | |
| IW2NTF | 2026-09-04 14:07:14 | 45.19388 | 9.48164 | 319° | 2km/h | 602m | -2.2m/s | 28.2°C | 37.8% | 0hPa | 2.8V | 07:23:18 | 03:32:27 | 00:00:00 | |
| IW2NTF | 2026-09-04 14:07:14 | 45.19386 | 9.48162 | 58° | 7km/h | 607m | -2.4m/s | 28.2°C | 37.9% | 0hPa | 2.8V | 07:23:20 | 03:32:25 | 00:00:00 | |
| IW2NTF | 2026-09-04 14:07:14 | 45.19385 | 9.48155 | 85° | 11km/h | 612m | -3.5m/s | 28.1°C | 38% | 0hPa | 2.8V | 07:23:22 | 03:32:23 | 00:00:00 | |
| IW2NTF | 2026-09-04 14:07:08 | 45.19386 | 9.48147 | 115° | 11km/h | 618m | -2.8m/s | 28.1°C | 38.1% | 0hPa | 2.8V | 07:23:24 | 03:32:21 | 00:00:00 | |
| IW2NTF | 2026-09-04 14:07:08 | 45.19390 | 9.48141 | 148° | 11km/h | 624m | -2.4m/s | 28°C | 38.3% | 0hPa | 2.8V | 07:23:26 | 03:32:19 | 00:00:00 | |
| IW2NTF | 2026-09-04 14:07:08 | 45.19394 | 9.48140 | 189° | 5km/h | 629m | -3.3m/s | 28°C | 38.3% | 0hPa | 2.8V | 07:23:28 | 03:32:17 | 00:00:00 | |
| IW2NTF | 2026-09-04 14:07:02 | 45.19396 | 9.48141 | 225° | 2km/h | 636m | -3.7m/s | 27.9°C | 38.5% | 0hPa | 2.8V | 07:23:30 | 03:32:15 | 00:00:00 | |
| IW2NTF | 2026-09-04 14:07:02 | 45.19396 | 9.48141 | 30° | 4km/h | 643m | -3.2m/s | 27.8°C | 38.7% | 0hPa | 2.8V | 07:23:32 | 03:32:13 | 00:00:00 | |
| IW2NTF | 2026-09-04 14:07:02 | 45.19394 | 9.48138 | 61° | 7km/h | 650m | -3.2m/s | 27.8°C | 38.8% | 0hPa | 2.8V | 07:23:34 | 03:32:11 | 00:00:00 | |
| IW2NTF | 2026-09-04 14:06:56 | 45.19393 | 9.48132 | 98° | 9km/h | 656m | -2.5m/s | 27.7°C | 38.8% | 0hPa | 2.8V | 07:23:36 | 03:32:09 | 00:00:00 | |
| IW2NTF | 2026-09-04 14:06:56 | 45.19395 | 9.48126 | 140° | 9km/h | 661m | -3m/s | 27.6°C | 39% | 0hPa | 2.8V | 07:23:38 | 03:32:07 | 00:00:00 | |
| IW2NTF | 2026-09-04 14:06:56 | 45.19399 | 9.48123 | 168° | 7km/h | 668m | -3.2m/s | 27.6°C | 39% | 0hPa | 2.8V | 07:23:40 | 03:32:05 | 00:00:00 | |
| IW2NTF | 2026-09-04 14:06:50 | 45.19402 | 9.48124 | 216° | 5km/h | 674m | -3.3m/s | 27.5°C | 39.2% | 0hPa | 2.8V | 07:23:42 | 03:32:03 | 00:00:00 | |
| IW2NTF | 2026-09-04 14:06:50 | 45.19403 | 9.48126 | 283° | 4km/h | 680m | -2.9m/s | 27.5°C | 39.3% | 0hPa | 2.8V | 07:23:44 | 03:32:01 | 00:00:00 | |
| IW2NTF | 2026-09-04 14:06:50 | 45.19401 | 9.48128 | 355° | 5km/h | 686m | -3.2m/s | 27.4°C | 39.5% | 0hPa | 2.8V | 07:23:46 | 03:31:59 | 00:00:00 | |
| IW2NTF | 2026-09-04 14:06:44 | 45.19398 | 9.48125 | 56° | 7km/h | 692m | -2.7m/s | 27.4°C | 39.6% | 0hPa | 2.8V | 07:23:48 | 03:31:57 | 00:00:00 | |
| IW2NTF | 2026-09-04 14:06:44 | 45.19397 | 9.48119 | 91° | 11km/h | 698m | -2.5m/s | 27.3°C | 39.7% | 0hPa | 2.8V | 07:23:50 | 03:31:55 | 00:00:00 | |
| IW2NTF | 2026-09-04 14:06:44 | 45.19400 | 9.48112 | 122° | 13km/h | 703m | -3m/s | 27.3°C | 39.8% | 0hPa | 2.8V | 07:23:52 | 03:31:53 | 00:00:00 | |
| IW2NTF | 2026-09-04 14:06:38 | 45.19404 | 9.48108 | 163° | 7km/h | 710m | -3.3m/s | 27.2°C | 39.9% | 0hPa | 2.8V | 07:23:54 | 03:31:51 | 00:00:00 | |
| IW2NTF | 2026-09-04 14:06:38 | 45.19407 | 9.48108 | 227° | 7km/h | 716m | -3m/s | 27.1°C | 40.1% | 0hPa | 2.8V | 07:23:56 | 03:31:49 | 00:00:00 | |
| IW2NTF | 2026-09-04 14:06:38 | 45.19410 | 9.48113 | 243° | 7km/h | 723m | -4.2m/s | 27.1°C | 40.1% | 0hPa | 2.8V | 07:23:58 | 03:31:47 | 00:00:00 | |
| IW2NTF | 2026-09-04 14:06:33 | 45.19410 | 9.48118 | 291° | 7km/h | 731m | -3.3m/s | 27°C | 40.2% | 0hPa | 2.8V | 07:24:00 | 03:31:45 | 00:00:00 | |
| IW2NTF | 2026-09-04 14:06:33 | 45.19408 | 9.48123 | 319° | 9km/h | 738m | -2.7m/s | 27°C | 40.3% | 0hPa | 2.8V | 07:24:02 | 03:31:43 | 00:00:00 | |
| IW2NTF | 2026-09-04 14:06:33 | 45.19404 | 9.48126 | 342° | 9km/h | 743m | -2.3m/s | 26.9°C | 40.4% | 0hPa | 2.8V | 07:24:04 | 03:31:41 | 00:00:00 | |
| IW2NTF | 2026-09-04 14:06:26 | 45.19399 | 9.48126 | 23° | 9km/h | 747m | -2m/s | 26.9°C | 40.4% | 0hPa | 2.8V | 07:24:06 | 03:31:39 | 00:00:00 | |
| IW2NTF | 2026-09-04 14:06:26 | 45.19396 | 9.48122 | 64° | 9km/h | 751m | -2.7m/s | 26.8°C | 40.5% | 0hPa | 2.8V | 07:24:08 | 03:31:37 | 00:00:00 | |
| IW2NTF | 2026-09-04 14:06:26 | 45.19396 | 9.48114 | 93° | 9km/h | 755m | -1.8m/s | 26.8°C | 40.8% | 0hPa | 2.8V | 07:24:10 | 03:31:35 | 00:00:00 | |
| IW2NTF | 2026-09-04 14:06:20 | 45.19398 | 9.48108 | 131° | 11km/h | 761m | -2.8m/s | 26.7°C | 40.7% | 0hPa | 2.8V | 07:24:12 | 03:31:33 | 00:00:00 | |
| IW2NTF | 2026-09-04 14:06:20 | 45.19402 | 9.48103 | 151° | 9km/h | 767m | -3.4m/s | 26.6°C | 40.9% | 0hPa | 2.8V | 07:24:14 | 03:31:31 | 00:00:00 | |
| IW2NTF | 2026-09-04 14:06:20 | 45.19406 | 9.48102 | 187° | 9km/h | 774m | -3.9m/s | 26.6°C | 41% | 0hPa | 2.8V | 07:24:16 | 03:31:29 | 00:00:00 | |
| IW2NTF | 2026-09-04 14:06:14 | 45.19410 | 9.48105 | 225° | 7km/h | 782m | -3.5m/s | 26.5°C | 41.2% | 0hPa | 2.8V | 07:24:18 | 03:31:27 | 00:00:00 | |
| IW2NTF | 2026-09-04 14:06:14 | 45.19411 | 9.48110 | 269° | 7km/h | 789m | -3.2m/s | 26.4°C | 41.3% | 0hPa | 2.8V | 07:24:20 | 03:31:25 | 00:00:00 | |
| IW2NTF | 2026-09-04 14:06:14 | 45.19410 | 9.48114 | 321° | 7km/h | 795m | -3.3m/s | 26.4°C | 41.5% | 0hPa | 2.8V | 07:24:22 | 03:31:23 | 00:00:00 | |
| IW2NTF | 2026-09-04 14:06:08 | 45.19408 | 9.48115 | 28° | 5km/h | 801m | -3.6m/s | 26.3°C | 41.6% | 0hPa | 2.8V | 07:24:24 | 03:31:21 | 00:00:00 | |
| IW2NTF | 2026-09-04 14:06:08 | 45.19407 | 9.48112 | 94° | 4km/h | 808m | -3.7m/s | 26.2°C | 41.8% | 0hPa | 2.8V | 07:24:26 | 03:31:19 | 00:00:00 | |
| IW2NTF | 2026-09-04 14:06:08 | 45.19408 | 9.48109 | 147° | 5km/h | 815m | -3.4m/s | 26.2°C | 41.8% | 0hPa | 2.8V | 07:24:28 | 03:31:17 | 00:00:00 | |
| IW2NTF | 2026-09-04 14:06:02 | 45.19411 | 9.48108 | 196° | 7km/h | 822m | -3.1m/s | 26.1°C | 41.8% | 0hPa | 2.8V | 07:24:30 | 03:31:15 | 00:00:00 | |
| IW2NTF | 2026-09-04 14:06:02 | 45.19414 | 9.48112 | 244° | 7km/h | 828m | -2.9m/s | 26.1°C | 41.9% | 0hPa | 2.8V | 07:24:32 | 03:31:13 | 00:00:00 | |
| IW2NTF | 2026-09-04 14:06:02 | 45.19415 | 9.48117 | 278° | 9km/h | 834m | -3.1m/s | 26.1°C | 42.2% | 0hPa | 2.8V | 07:24:34 | 03:31:11 | 00:00:00 | |
| IW2NTF | 2026-09-04 14:05:56 | 45.19413 | 9.48123 | 305° | 7km/h | 840m | -2.9m/s | 26°C | 42.3% | 0hPa | 2.8V | 07:24:36 | 03:31:09 | 00:00:00 | |
| IW2NTF | 2026-09-04 14:05:56 | 45.19410 | 9.48126 | 337° | 7km/h | 846m | -3m/s | 25.9°C | 42.5% | 0hPa | 2.8V | 07:24:38 | 03:31:07 | 00:00:00 | |
| IW2NTF | 2026-09-04 14:05:56 | 45.19407 | 9.48127 | 13° | 7km/h | 852m | -3m/s | 25.9°C | 42.7% | 0hPa | 2.8V | 07:24:40 | 03:31:05 | 00:00:00 | |
| IW2NTF | 2026-09-04 14:05:50 | 45.19403 | 9.48123 | 54° | 7km/h | 858m | -3.3m/s | 25.8°C | 42.9% | 0hPa | 2.8V | 07:24:42 | 03:31:03 | 00:00:00 | |
| IW2NTF | 2026-09-04 14:05:50 | 45.19402 | 9.48118 | 89° | 7km/h | 864m | -2.6m/s | 25.7°C | 42.9% | 0hPa | 2.8V | 07:24:44 | 03:31:01 | 00:00:00 | |
| IW2NTF | 2026-09-04 14:05:50 | 45.19403 | 9.48114 | 135° | 4km/h | 869m | -2m/s | 25.8°C | 42.9% | 0hPa | 2.8V | 07:24:46 | 03:30:59 | 00:00:00 | |
| IW2NTF | 2026-09-04 14:05:44 | 45.19405 | 9.48115 | 257° | 5km/h | 872m | -2.1m/s | 25.7°C | 43.1% | 0hPa | 2.8V | 07:24:48 | 03:30:57 | 00:00:00 | |
| IW2NTF | 2026-09-04 14:05:44 | 45.19404 | 9.48120 | 296° | 9km/h | 877m | -3m/s | 25.6°C | 43.3% | 0hPa | 2.8V | 07:24:50 | 03:30:55 | 00:00:00 | |
| IW2NTF | 2026-09-04 14:05:44 | 45.19401 | 9.48125 | 324° | 11km/h | 884m | -3.4m/s | 25.5°C | 43.7% | 0hPa | 2.8V | 07:24:52 | 03:30:53 | 00:00:00 | |
| IW2NTF | 2026-09-04 14:05:38 | 45.19396 | 9.48128 | 345° | 11km/h | 889m | -2.7m/s | 25.5°C | 43.7% | 0hPa | 2.8V | 07:24:54 | 03:30:51 | 00:00:00 | |
| IW2NTF | 2026-09-04 14:05:38 | 45.19390 | 9.48129 | 2° | 11km/h | 895m | -2.9m/s | 25.4°C | 43.7% | 0hPa | 2.8V | 07:24:56 | 03:30:49 | 00:00:00 | |
| IW2NTF | 2026-09-04 14:05:38 | 45.19384 | 9.48127 | 19° | 13km/h | 899m | -1.6m/s | 25.4°C | 43.7% | 0hPa | 2.8V | 07:24:58 | 03:30:47 | 00:00:00 | |
| IW2NTF | 2026-09-04 14:05:33 | 45.19379 | 9.48123 | 47° | 11km/h | 902m | -1.5m/s | 25.3°C | 43.6% | 0hPa | 2.8V | 07:25:00 | 03:30:45 | 00:00:00 | |
| IW2NTF | 2026-09-04 14:05:33 | 45.19378 | 9.48117 | 81° | 7km/h | 904m | -0.5m/s | 25.3°C | 43.6% | 0hPa | 2.8V | 07:25:02 | 03:30:43 | 00:00:00 | |
| IW2NTF | 2026-09-04 14:05:33 | 45.19378 | 9.48114 | 47° | 2km/h | 906m | -1.8m/s | 25.3°C | 43.7% | 0hPa | 2.8V | 07:25:04 | 03:30:41 | 00:00:00 | |
| IW2NTF | 2026-09-04 14:05:26 | 45.19376 | 9.48115 | 340° | 7km/h | 910m | -2.1m/s | 25.2°C | 43.8% | 0hPa | 2.8V | 07:25:06 | 03:30:39 | 00:00:00 | |
| IW2NTF | 2026-09-04 14:05:26 | 45.19371 | 9.48115 | 17° | 11km/h | 915m | -1.9m/s | 25.2°C | 43.9% | 0hPa | 2.8V | 07:25:08 | 03:30:37 | 00:00:00 | |
| IW2NTF | 2026-09-04 14:05:26 | 45.19366 | 9.48111 | 48° | 11km/h | 919m | -2.7m/s | 25.1°C | 44% | 0hPa | 2.8V | 07:25:10 | 03:30:35 | 00:00:00 | |
| IW2NTF | 2026-09-04 14:05:20 | 45.19363 | 9.48105 | 46° | 9km/h | 925m | -3m/s | 25.1°C | 44% | 0hPa | 2.8V | 07:25:12 | 03:30:33 | 00:00:00 | |
| IW2NTF | 2026-09-04 14:05:20 | 45.19360 | 9.48101 | 80° | 5km/h | 930m | -1.8m/s | 25.1°C | 44.2% | 0hPa | 2.8V | 07:25:14 | 03:30:31 | 00:00:00 | |
| IW2NTF | 2026-09-04 14:05:20 | 45.19360 | 9.48098 | 150° | 2km/h | 934m | -2.9m/s | 25°C | 44.3% | 0hPa | 2.8V | 07:25:16 | 03:30:29 | 00:00:00 | |
| IW2NTF | 2026-09-04 14:05:14 | 45.19361 | 9.48099 | 250° | 4km/h | 940m | -3.8m/s | 24.9°C | 44.5% | 0hPa | 2.8V | 07:25:18 | 03:30:27 | 00:00:00 | |
| IW2NTF | 2026-09-04 14:05:14 | 45.19361 | 9.48102 | 289° | 5km/h | 949m | -4.5m/s | 24.9°C | 44.5% | 0hPa | 2.8V | 07:25:20 | 03:30:25 | 00:00:00 | |
| IW2NTF | 2026-09-04 14:05:14 | 45.19359 | 9.48106 | 322° | 9km/h | 957m | -3.3m/s | 24.8°C | 44.7% | 0hPa | 2.8V | 07:25:22 | 03:30:23 | 00:00:00 | |
| IW2NTF | 2026-09-04 14:05:08 | 45.19355 | 9.48110 | 330° | 11km/h | 964m | -3.2m/s | 24.7°C | 44.9% | 0hPa | 2.8V | 07:25:24 | 03:30:21 | 00:00:00 | |
| IW2NTF | 2026-09-04 14:05:08 | 45.19349 | 9.48113 | 344° | 13km/h | 971m | -3.6m/s | 24.7°C | 45% | 0hPa | 2.8V | 07:25:26 | 03:30:19 | 00:00:00 | |
| IW2NTF | 2026-09-04 14:05:08 | 45.19344 | 9.48113 | 14° | 13km/h | 977m | -2.8m/s | 24.7°C | 45.3% | 0hPa | 2.8V | 07:25:28 | 03:30:17 | 00:00:00 | |
| IW2NTF | 2026-09-04 14:05:02 | 45.19338 | 9.48109 | 48° | 13km/h | 983m | -2.5m/s | 24.6°C | 45.3% | 0hPa | 2.8V | 07:25:30 | 03:30:15 | 00:00:00 | |
| IW2NTF | 2026-09-04 14:05:02 | 45.19334 | 9.48101 | 68° | 13km/h | 990m | -4m/s | 24.6°C | 45.5% | 0hPa | 2.8V | 07:25:32 | 03:30:13 | 00:00:00 | |
| IW2NTF | 2026-09-04 14:05:02 | 45.19334 | 9.48094 | 92° | 9km/h | 998m | -4m/s | 24.5°C | 45.7% | 0hPa | 2.8V | 07:25:34 | 03:30:11 | 00:00:00 | |
| IW2NTF | 2026-09-04 14:04:56 | 45.19334 | 9.48088 | 111° | 7km/h | 1005m | -3.8m/s | 24.4°C | 46% | 0hPa | 2.8V | 07:25:36 | 03:30:09 | 00:00:00 | |
| IW2NTF | 2026-09-04 14:04:56 | 45.19336 | 9.48086 | 169° | 4km/h | 1013m | -3.5m/s | 24.4°C | 46% | 0hPa | 2.8V | 07:25:38 | 03:30:07 | 00:00:00 | |
| IW2NTF | 2026-09-04 14:04:56 | 45.19337 | 9.48088 | 255° | 7km/h | 1020m | -3.6m/s | 24.3°C | 46.1% | 0hPa | 2.8V | 07:25:40 | 03:30:05 | 00:00:00 | |
| IW2NTF | 2026-09-04 14:04:51 | 45.19336 | 9.48093 | 309° | 9km/h | 1027m | -3.7m/s | 24.2°C | 46.2% | 0hPa | 2.8V | 07:25:42 | 03:30:03 | 00:00:00 | |
| IW2NTF | 2026-09-04 14:04:51 | 45.19332 | 9.48097 | 344° | 11km/h | 1034m | -3.4m/s | 24.2°C | 46.5% | 0hPa | 2.8V | 07:25:44 | 03:30:01 | 00:00:00 | |
| IW2NTF | 2026-09-04 14:04:51 | 45.19328 | 9.48096 | 28° | 7km/h | 1041m | -4m/s | 24.1°C | 46.5% | 0hPa | 2.8V | 07:25:46 | 03:29:59 | 00:00:00 | |
| IW2NTF | 2026-09-04 14:04:44 | 45.19325 | 9.48093 | 94° | 2km/h | 1049m | -3.9m/s | 24°C | 46.6% | 0hPa | 2.8V | 07:25:48 | 03:29:57 | 00:00:00 | |
| IW2NTF | 2026-09-04 14:04:44 | 45.19326 | 9.48094 | 237° | 5km/h | 1056m | -3.6m/s | 24°C | 46.8% | 0hPa | 2.8V | 07:25:50 | 03:29:55 | 00:00:00 | |
| IW2NTF | 2026-09-04 14:04:44 | 45.19327 | 9.48099 | 272° | 7km/h | 1063m | -3.7m/s | 23.9°C | 47% | 0hPa | 2.8V | 07:25:52 | 03:29:53 | 00:00:00 | |
| IW2NTF | 2026-09-04 14:04:38 | 45.19326 | 9.48104 | 319° | 9km/h | 1070m | -3.6m/s | 23.8°C | 47.4% | 0hPa | 2.8V | 07:25:54 | 03:29:51 | 00:00:00 | |
| IW2NTF | 2026-09-04 14:04:38 | 45.19321 | 9.48106 | 1° | 11km/h | 1077m | -3.6m/s | 23.7°C | 47.6% | 0hPa | 2.8V | 07:25:56 | 03:29:49 | 00:00:00 | |
| IW2NTF | 2026-09-04 14:04:38 | 45.19316 | 9.48104 | 34° | 9km/h | 1084m | -3.5m/s | 23.6°C | 47.9% | 0hPa | 2.8V | 07:25:58 | 03:29:47 | 00:00:00 | |
| IW2NTF | 2026-09-04 14:04:32 | 45.19314 | 9.48100 | 63° | 7km/h | 1091m | -3.5m/s | 23.6°C | 47.9% | 0hPa | 2.8V | 07:26:00 | 03:29:45 | 00:00:00 | |
| IW2NTF | 2026-09-04 14:04:32 | 45.19313 | 9.48097 | 138° | 2km/h | 1098m | -3.1m/s | 23.5°C | 48.3% | 0hPa | 2.8V | 07:26:02 | 03:29:43 | 00:00:00 | |
| IW2NTF | 2026-09-04 14:04:32 | 45.19313 | 9.48099 | 282° | 5km/h | 1106m | -4.4m/s | 23.4°C | 48.4% | 0hPa | 2.8V | 07:26:04 | 03:29:41 | 00:00:00 | |
| IW2NTF | 2026-09-04 14:04:26 | 45.19312 | 9.48104 | 307° | 11km/h | 1114m | -3.4m/s | 23.3°C | 48.6% | 0hPa | 2.8V | 07:26:06 | 03:29:39 | 00:00:00 | |
| IW2NTF | 2026-09-04 14:04:26 | 45.19307 | 9.48108 | 339° | 11km/h | 1120m | -3.3m/s | 23.2°C | 48.8% | 0hPa | 2.8V | 07:26:08 | 03:29:37 | 00:00:00 | |
| IW2NTF | 2026-09-04 14:04:26 | 45.19301 | 9.48109 | 13° | 13km/h | 1127m | -3.6m/s | 23.2°C | 49% | 0hPa | 2.8V | 07:26:10 | 03:29:35 | 00:00:00 | |
| IW2NTF | 2026-09-04 14:04:20 | 45.19296 | 9.48105 | 33° | 13km/h | 1135m | -4.5m/s | 23.1°C | 49.2% | 0hPa | 2.8V | 07:26:12 | 03:29:33 | 00:00:00 | |
| IW2NTF | 2026-09-04 14:04:20 | 45.19291 | 9.48100 | 48° | 11km/h | 1145m | -5.2m/s | 23°C | 49.2% | 0hPa | 2.8V | 07:26:14 | 03:29:31 | 00:00:00 | |
| IW2NTF | 2026-09-04 14:04:20 | 45.19289 | 9.48094 | 66° | 9km/h | 1154m | -4.2m/s | 23°C | 49.4% | 0hPa | 2.8V | 07:26:16 | 03:29:29 | 00:00:00 | |
| IW2NTF | 2026-09-04 14:04:14 | 45.19288 | 9.48090 | 103° | 4km/h | 1162m | -3.7m/s | 23°C | 49.3% | 0hPa | 2.8V | 07:26:18 | 03:29:27 | 00:00:00 | |
| IW2NTF | 2026-09-04 14:04:14 | 45.19289 | 9.48089 | 226° | 2km/h | 1169m | -3m/s | 22.9°C | 49.5% | 0hPa | 2.8V | 07:26:20 | 03:29:25 | 00:00:00 | |
| IW2NTF | 2026-09-04 14:04:14 | 45.19288 | 9.48091 | 324° | 7km/h | 1175m | -2.9m/s | 22.9°C | 49.7% | 0hPa | 2.8V | 07:26:22 | 03:29:23 | 00:00:00 | |
| IW2NTF | 2026-09-04 14:04:08 | 45.19283 | 9.48094 | 349° | 11km/h | 1182m | -3.6m/s | 22.8°C | 49.7% | 0hPa | 2.8V | 07:26:24 | 03:29:21 | 00:00:00 | |
| IW2NTF | 2026-09-04 14:04:08 | 45.19277 | 9.48093 | 14° | 15km/h | 1189m | -3.5m/s | 22.7°C | 49.9% | 0hPa | 2.8V | 07:26:26 | 03:29:19 | 00:00:00 | |
| IW2NTF | 2026-09-04 14:04:08 | 45.19270 | 9.48089 | 25° | 16km/h | 1197m | -3.6m/s | 22.6°C | 50.1% | 0hPa | 2.8V | 07:26:28 | 03:29:17 | 00:00:00 | |
| IW2NTF | 2026-09-04 14:04:02 | 45.19258 | 9.48073 | 59° | 13km/h | 1208m | -2.9m/s | 22.5°C | 50.4% | 0hPa | 2.8V | 07:26:32 | 03:29:13 | 00:00:00 | |
| IW2NTF | 2026-09-04 14:04:02 | 45.19255 | 9.48067 | 45° | 7km/h | 1214m | -2.3m/s | 22.5°C | 50.6% | 0hPa | 2.8V | 07:26:34 | 03:29:11 | 00:00:00 | |
| IW2NTF | 2026-09-04 14:03:56 | 45.19253 | 9.48065 | 352° | 7km/h | 1220m | -2.8m/s | 22.4°C | 50.7% | 0hPa | 2.8V | 07:26:36 | 03:29:09 | 00:00:00 | |
| IW2NTF | 2026-09-04 14:03:56 | 45.19248 | 9.48066 | 352° | 13km/h | 1226m | -3.5m/s | 22.3°C | 50.9% | 0hPa | 2.8V | 07:26:38 | 03:29:07 | 00:00:00 | |
| IW2NTF | 2026-09-04 14:03:56 | 45.19241 | 9.48067 | 357° | 13km/h | 1234m | -4.3m/s | 22.3°C | 51% | 0hPa | 2.7V | 07:26:40 | 03:29:05 | 00:00:00 | |
| IW2NTF | 2026-09-04 14:03:50 | 45.19234 | 9.48066 | 10° | 15km/h | 1243m | -4.1m/s | 22.2°C | 51.2% | 0hPa | 2.8V | 07:26:42 | 03:29:03 | 00:00:00 | |
| IW2NTF | 2026-09-04 14:03:50 | 45.19226 | 9.48063 | 19° | 15km/h | 1251m | -2.7m/s | 22.1°C | 51.4% | 0hPa | 2.8V | 07:26:44 | 03:29:01 | 00:00:00 | |
| IW2NTF | 2026-09-04 14:03:50 | 45.19220 | 9.48058 | 40° | 16km/h | 1256m | -2.8m/s | 22.1°C | 51.5% | 0hPa | 2.8V | 07:26:46 | 03:28:59 | 00:00:00 | |
| IW2NTF | 2026-09-04 14:03:44 | 45.19215 | 9.48049 | 69° | 15km/h | 1262m | -3.1m/s | 22.1°C | 51.6% | 0hPa | 2.8V | 07:26:48 | 03:28:57 | 00:00:00 | |
| IW2NTF | 2026-09-04 14:03:44 | 45.19214 | 9.48041 | 79° | 9km/h | 1269m | -3.4m/s | 22°C | 51.7% | 0hPa | 2.8V | 07:26:50 | 03:28:55 | 00:00:00 | |
| IW2NTF | 2026-09-04 14:03:44 | 45.19213 | 9.48035 | 66° | 7km/h | 1277m | -3.4m/s | 22.1°C | 52.7% | 0hPa | 2.8V | 07:26:52 | 03:28:53 | 00:00:00 | |
| IW2NTF | 2026-09-04 14:03:38 | 45.19211 | 9.48034 | 352° | 7km/h | 1284m | -2.5m/s | 22°C | 52.7% | 0hPa | 2.8V | 07:26:54 | 03:28:51 | 00:00:00 | |
| IW2NTF | 2026-09-04 14:03:38 | 45.19206 | 9.48036 | 340° | 13km/h | 1290m | -2.9m/s | 21.9°C | 53.1% | 0hPa | 2.8V | 07:26:56 | 03:28:49 | 00:00:00 | |
| IW2NTF | 2026-09-04 14:03:38 | 45.19199 | 9.48039 | 346° | 16km/h | 1296m | -3.5m/s | 21.9°C | 53.2% | 0hPa | 2.8V | 07:26:58 | 03:28:47 | 00:00:00 | |
| IW2NTF | 2026-09-04 14:03:32 | 45.19190 | 9.48039 | 1° | 18km/h | 1304m | -4.1m/s | 21.7°C | 53.4% | 0hPa | 2.8V | 07:27:00 | 03:28:45 | 00:00:00 | |
| IW2NTF | 2026-09-04 14:03:32 | 45.19181 | 9.48037 | 18° | 20km/h | 1312m | -3.8m/s | 21.6°C | 53.3% | 0hPa | 2.8V | 07:27:02 | 03:28:43 | 00:00:00 | |
| IW2NTF | 2026-09-04 14:03:32 | 45.19172 | 9.48031 | 31° | 18km/h | 1320m | -4.7m/s | 21.6°C | 53.5% | 0hPa | 2.8V | 07:27:04 | 03:28:41 | 00:00:00 | |
| IW2NTF | 2026-09-04 14:03:26 | 45.19164 | 9.48024 | 39° | 18km/h | 1329m | -4.3m/s | 21.6°C | 54.1% | 0hPa | 2.8V | 07:27:06 | 03:28:39 | 00:00:00 | |
| IW2NTF | 2026-09-04 14:03:26 | 45.19157 | 9.48015 | 47° | 16km/h | 1338m | -4.5m/s | 21.5°C | 54.5% | 0hPa | 2.8V | 07:27:08 | 03:28:37 | 00:00:00 | |
| IW2NTF | 2026-09-04 14:03:26 | 45.19152 | 9.48008 | 42° | 13km/h | 1347m | -3.9m/s | 21.4°C | 54.5% | 0hPa | 2.8V | 07:27:10 | 03:28:35 | 00:00:00 | |
| IW2NTF | 2026-09-04 14:03:20 | 45.19147 | 9.48004 | 8° | 11km/h | 1355m | -3.3m/s | 21.3°C | 55% | 0hPa | 2.8V | 07:27:12 | 03:28:33 | 00:00:00 | |
| IW2NTF | 2026-09-04 14:03:20 | 45.19140 | 9.48004 | 0° | 16km/h | 1363m | -4.4m/s | 21.1°C | 54.6% | 0hPa | 2.8V | 07:27:14 | 03:28:31 | 00:00:00 | |
| IW2NTF | 2026-09-04 14:03:20 | 45.19131 | 9.48003 | 10° | 18km/h | 1373m | -5.3m/s | 21.1°C | 54.8% | 0hPa | 2.8V | 07:27:16 | 03:28:29 | 00:00:00 | |
| IW2NTF | 2026-09-04 14:03:14 | 45.19122 | 9.48000 | 20° | 22km/h | 1384m | -4.9m/s | 21.1°C | 55.8% | 0hPa | 2.8V | 07:27:18 | 03:28:27 | 00:00:00 | |
| IW2NTF | 2026-09-04 14:03:14 | 45.19112 | 9.47994 | 22° | 20km/h | 1393m | -4.4m/s | 21.1°C | 56.3% | 0hPa | 2.8V | 07:27:20 | 03:28:25 | 00:00:00 | |
| IW2NTF | 2026-09-04 14:03:14 | 45.19103 | 9.47990 | 16° | 18km/h | 1401m | -3.8m/s | 21.1°C | 56.4% | 0hPa | 2.8V | 07:27:22 | 03:28:23 | 00:00:00 | |
| IW2NTF | 2026-09-04 14:03:08 | 45.19094 | 9.47987 | 9° | 20km/h | 1410m | -4.7m/s | 20.9°C | 57% | 0hPa | 2.8V | 07:27:24 | 03:28:21 | 00:00:00 | |
| IW2NTF | 2026-09-04 14:03:08 | 45.19083 | 9.47984 | 17° | 22km/h | 1420m | -4.7m/s | 20.8°C | 57.2% | 0hPa | 2.8V | 07:27:26 | 03:28:19 | 00:00:00 | |
| IW2NTF | 2026-09-04 14:03:08 | 45.19074 | 9.47977 | 31° | 20km/h | 1429m | -4.4m/s | 20.7°C | 57.5% | 0hPa | 2.8V | 07:27:28 | 03:28:17 | 00:00:00 | |
| IW2NTF | 2026-09-04 14:03:02 | 45.19059 | 9.47968 | 2° | 18km/h | 1446m | -4m/s | 20.4°C | 57.3% | 0hPa | 2.8V | 07:27:32 | 03:28:13 | 00:00:00 | |
| IW2NTF | 2026-09-04 14:03:02 | 45.19048 | 9.47968 | 2° | 26km/h | 1454m | -4m/s | 20.3°C | 57.5% | 0hPa | 2.8V | 07:27:34 | 03:28:11 | 00:00:00 | |
| IW2NTF | 2026-09-04 14:02:56 | 45.19035 | 9.47964 | 18° | 27km/h | 1462m | -4m/s | 20°C | 56.8% | 0hPa | 2.8V | 07:27:36 | 03:28:09 | 00:00:00 | |
| IW2NTF | 2026-09-04 14:02:56 | 45.19023 | 9.47956 | 30° | 24km/h | 1471m | -4.2m/s | 20°C | 56.8% | 0hPa | 2.8V | 07:27:38 | 03:28:07 | 00:00:00 | |
| IW2NTF | 2026-09-04 14:02:56 | 45.19013 | 9.47949 | 21° | 20km/h | 1479m | -3.9m/s | 20°C | 56.6% | 0hPa | 2.8V | 07:27:40 | 03:28:05 | 00:00:00 | |
| IW2NTF | 2026-09-04 14:02:50 | 45.19002 | 9.47945 | 9° | 26km/h | 1486m | -3.7m/s | 20.4°C | 59.6% | 0hPa | 2.8V | 07:27:42 | 03:28:03 | 00:00:00 | |
| IW2NTF | 2026-09-04 14:02:50 | 45.18988 | 9.47941 | 16° | 29km/h | 1494m | -4m/s | 20.3°C | 59.9% | 0hPa | 2.8V | 07:27:44 | 03:28:01 | 00:00:00 | |
| IW2NTF | 2026-09-04 14:02:50 | 45.18975 | 9.47933 | 30° | 29km/h | 1502m | -3.8m/s | 20.3°C | 60% | 0hPa | 2.8V | 07:27:46 | 03:27:59 | 00:00:00 | |
| IW2NTF | 2026-09-04 14:02:44 | 45.18964 | 9.47922 | 38° | 24km/h | 1509m | -3.6m/s | 20.2°C | 59.9% | 0hPa | 2.8V | 07:27:48 | 03:27:57 | 00:00:00 | |
| IW2NTF | 2026-09-04 14:02:44 | 45.18955 | 9.47914 | 26° | 18km/h | 1516m | -3.6m/s | 20.3°C | 59.8% | 0hPa | 2.8V | 07:27:50 | 03:27:55 | 00:00:00 | |
| IW2NTF | 2026-09-04 14:02:44 | 45.18946 | 9.47910 | 6° | 22km/h | 1523m | -3.4m/s | 20.2°C | 59.8% | 0hPa | 2.8V | 07:27:52 | 03:27:53 | 00:00:00 | |
| IW2NTF | 2026-09-04 14:02:38 | 45.18933 | 9.47908 | 8° | 29km/h | 1530m | -3.8m/s | 20.1°C | 59.9% | 0hPa | 2.7V | 07:27:54 | 03:27:51 | 00:00:00 | |
| IW2NTF | 2026-09-04 14:02:38 | 45.18918 | 9.47904 | 17° | 33km/h | 1538m | -3.8m/s | 20.1°C | 60.1% | 0hPa | 2.8V | 07:27:56 | 03:27:49 | 00:00:00 | |
| IW2NTF | 2026-09-04 14:02:38 | 45.18903 | 9.47894 | 28° | 31km/h | 1546m | -3.5m/s | 20.1°C | 60.3% | 0hPa | 2.8V | 07:27:58 | 03:27:47 | 00:00:00 | |
| IW2NTF | 2026-09-04 14:02:32 | 45.18890 | 9.47883 | 32° | 27km/h | 1553m | -3.5m/s | 20°C | 60.3% | 0hPa | 2.8V | 07:28:00 | 03:27:45 | 00:00:00 | |
| IW2NTF | 2026-09-04 14:02:32 | 45.18879 | 9.47875 | 19° | 24km/h | 1560m | -3.3m/s | 20°C | 60.4% | 0hPa | 2.8V | 07:28:02 | 03:27:43 | 00:00:00 | |
| IW2NTF | 2026-09-04 14:02:32 | 45.18850 | 9.47863 | 22° | 33km/h | 1573m | -3.3m/s | 19.8°C | 61% | 0hPa | 2.8V | 07:28:06 | 03:27:39 | 00:00:00 | |
| IW2NTF | 2026-09-04 14:02:27 | 45.18836 | 9.47853 | 32° | 31km/h | 1580m | -3.6m/s | 19.8°C | 61.2% | 0hPa | 2.8V | 07:28:08 | 03:27:37 | 00:00:00 | |
| IW2NTF | 2026-09-04 14:02:27 | 45.18823 | 9.47842 | 28° | 26km/h | 1588m | -3.4m/s | 19.7°C | 61.3% | 0hPa | 2.8V | 07:28:10 | 03:27:35 | 00:00:00 | |
| IW2NTF | 2026-09-04 14:02:27 | 45.18811 | 9.47835 | 14° | 29km/h | 1594m | -3.4m/s | 19.6°C | 61.5% | 0hPa | 2.8V | 07:28:12 | 03:27:33 | 00:00:00 | |
| IW2NTF | 2026-09-04 14:02:19 | 45.18795 | 9.47829 | 16° | 35km/h | 1601m | -3.3m/s | 19.6°C | 61.5% | 0hPa | 2.8V | 07:28:14 | 03:27:31 | 00:00:00 | |
| IW2NTF | 2026-09-04 14:02:19 | 45.18778 | 9.47820 | 26° | 37km/h | 1608m | -3.6m/s | 19.6°C | 61.5% | 0hPa | 2.8V | 07:28:16 | 03:27:29 | 00:00:00 | |
| IW2NTF | 2026-09-04 14:02:19 | 45.18762 | 9.47807 | 34° | 35km/h | 1615m | -3.3m/s | 19.6°C | 61.6% | 0hPa | 2.8V | 07:28:18 | 03:27:27 | 00:00:00 | |
| IW2NTF | 2026-09-04 14:02:13 | 45.18748 | 9.47793 | 34° | 29km/h | 1622m | -2.9m/s | 19.6°C | 61.4% | 0hPa | 2.8V | 07:28:20 | 03:27:25 | 00:00:00 | |
| IW2NTF | 2026-09-04 14:02:13 | 45.18736 | 9.47784 | 19° | 27km/h | 1628m | -3.2m/s | 19.6°C | 61.4% | 0hPa | 2.8V | 07:28:22 | 03:27:23 | 00:00:00 | |
| IW2NTF | 2026-09-04 14:02:13 | 45.18722 | 9.47778 | 12° | 33km/h | 1634m | -3.4m/s | 19.5°C | 61.5% | 0hPa | 2.8V | 07:28:24 | 03:27:21 | 00:00:00 | |
| IW2NTF | 2026-09-04 14:02:07 | 45.18704 | 9.47771 | 19° | 38km/h | 1641m | -3.4m/s | 19.5°C | 61.3% | 0hPa | 2.8V | 07:28:26 | 03:27:19 | 00:00:00 | |
| IW2NTF | 2026-09-04 14:02:07 | 45.18687 | 9.47760 | 29° | 38km/h | 1648m | -3.5m/s | 19.7°C | 59.6% | 0hPa | 2.8V | 07:28:28 | 03:27:17 | 00:00:00 | |
| IW2NTF | 2026-09-04 14:02:07 | 45.18672 | 9.47747 | 29° | 31km/h | 1655m | -3.2m/s | 19.6°C | 59.6% | 0hPa | 2.8V | 07:28:30 | 03:27:15 | 00:00:00 | |
| IW2NTF | 2026-09-04 14:02:01 | 45.18658 | 9.47738 | 18° | 29km/h | 1662m | -3.6m/s | 19.6°C | 59.7% | 0hPa | 2.8V | 07:28:32 | 03:27:13 | 00:00:00 | |
| IW2NTF | 2026-09-04 14:02:01 | 45.18642 | 9.47732 | 16° | 35km/h | 1669m | -3.5m/s | 19.5°C | 59.6% | 0hPa | 2.8V | 07:28:34 | 03:27:11 | 00:00:00 | |
| IW2NTF | 2026-09-04 14:02:01 | 45.18625 | 9.47723 | 23° | 37km/h | 1676m | -3.6m/s | 19.5°C | 59.5% | 0hPa | 2.8V | 07:28:36 | 03:27:09 | 00:00:00 | |
| IW2NTF | 2026-09-04 14:01:54 | 45.18609 | 9.47711 | 29° | 31km/h | 1683m | -3.2m/s | 19.5°C | 59% | 0hPa | 2.8V | 07:28:38 | 03:27:07 | 00:00:00 | |
| IW2NTF | 2026-09-04 14:01:54 | 45.18596 | 9.47702 | 19° | 27km/h | 1690m | -3.6m/s | 19.5°C | 58.8% | 0hPa | 2.8V | 07:28:40 | 03:27:05 | 00:00:00 | |
| IW2NTF | 2026-09-04 14:01:54 | 45.18581 | 9.47697 | 10° | 31km/h | 1697m | -3.5m/s | 19.5°C | 58.3% | 0hPa | 2.8V | 07:28:42 | 03:27:03 | 00:00:00 | |
| IW2NTF | 2026-09-04 14:01:48 | 45.18563 | 9.47692 | 14° | 38km/h | 1704m | -3.7m/s | 19.4°C | 58.4% | 0hPa | 2.8V | 07:28:44 | 03:27:01 | 00:00:00 | |
| IW2NTF | 2026-09-04 14:01:48 | 45.18544 | 9.47682 | 22° | 40km/h | 1711m | -3.5m/s | 19.4°C | 58% | 0hPa | 2.8V | 07:28:46 | 03:26:59 | 00:00:00 | |
| IW2NTF | 2026-09-04 14:01:48 | 45.18527 | 9.47669 | 31° | 37km/h | 1718m | -3.6m/s | 19.4°C | 57.6% | 0hPa | 2.8V | 07:28:48 | 03:26:57 | 00:00:00 | |
| IW2NTF | 2026-09-04 14:01:43 | 45.18512 | 9.47657 | 26° | 31km/h | 1726m | -3.6m/s | 19.4°C | 57.3% | 0hPa | 2.8V | 07:28:50 | 03:26:55 | 00:00:00 | |
| IW2NTF | 2026-09-04 14:01:43 | 45.18497 | 9.47650 | 14° | 33km/h | 1733m | -3.8m/s | 19.4°C | 56% | 0hPa | 2.8V | 07:28:52 | 03:26:53 | 00:00:00 | |
| IW2NTF | 2026-09-04 14:01:43 | 45.18480 | 9.47644 | 13° | 38km/h | 1741m | -3.8m/s | 19.3°C | 55.3% | 0hPa | 2.8V | 07:28:54 | 03:26:51 | 00:00:00 | |
| IW2NTF | 2026-09-04 14:01:36 | 45.18460 | 9.47635 | 21° | 40km/h | 1749m | -4m/s | 19.3°C | 54.8% | 0hPa | 2.8V | 07:28:56 | 03:26:49 | 00:00:00 | |
| IW2NTF | 2026-09-04 14:01:36 | 45.18442 | 9.47624 | 26° | 37km/h | 1757m | -3.8m/s | 19.3°C | 53% | 0hPa | 2.8V | 07:28:58 | 03:26:47 | 00:00:00 | |
| IW2NTF | 2026-09-04 14:01:36 | 45.18426 | 9.47614 | 18° | 33km/h | 1764m | -3.9m/s | 19.3°C | 52.2% | 0hPa | 2.8V | 07:29:00 | 03:26:45 | 00:00:00 | |
| IW2NTF | 2026-09-04 14:01:31 | 45.18409 | 9.47608 | 13° | 37km/h | 1772m | -4.2m/s | 19.2°C | 52% | 0hPa | 2.7V | 07:29:02 | 03:26:43 | 00:00:00 | |
| IW2NTF | 2026-09-04 14:01:31 | 45.18390 | 9.47600 | 21° | 42km/h | 1781m | -4.1m/s | 19.2°C | 51.8% | 0hPa | 2.8V | 07:29:04 | 03:26:41 | 00:00:00 | |
| IW2NTF | 2026-09-04 14:01:31 | 45.18371 | 9.47587 | 30° | 38km/h | 1789m | -3.8m/s | 19.1°C | 51.9% | 0hPa | 2.8V | 07:29:06 | 03:26:39 | 00:00:00 | |
| IW2NTF | 2026-09-04 14:01:24 | 45.18356 | 9.47573 | 32° | 31km/h | 1797m | -4.2m/s | 19.1°C | 51.8% | 0hPa | 2.8V | 07:29:08 | 03:26:37 | 00:00:00 | |
| IW2NTF | 2026-09-04 14:01:24 | 45.18343 | 9.47563 | 24° | 29km/h | 1805m | -3.9m/s | 19.1°C | 52.3% | 0hPa | 2.8V | 07:29:10 | 03:26:35 | 00:00:00 | |
| IW2NTF | 2026-09-04 14:01:24 | 45.18329 | 9.47555 | 20° | 29km/h | 1813m | -4m/s | 19°C | 52.5% | 0hPa | 2.8V | 07:29:12 | 03:26:33 | 00:00:00 | |
| IW2NTF | 2026-09-04 14:01:18 | 45.18314 | 9.47546 | 27° | 35km/h | 1820m | -3.6m/s | 18.9°C | 52.9% | 0hPa | 2.8V | 07:29:14 | 03:26:31 | 00:00:00 | |
| IW2NTF | 2026-09-04 14:01:18 | 45.18298 | 9.47533 | 33° | 35km/h | 1828m | -4.1m/s | 18.9°C | 53.2% | 0hPa | 2.7V | 07:29:16 | 03:26:29 | 00:00:00 | |
| IW2NTF | 2026-09-04 14:01:18 | 45.18284 | 9.47520 | 34° | 31km/h | 1837m | -4.8m/s | 18.8°C | 53.5% | 0hPa | 2.8V | 07:29:18 | 03:26:27 | 00:00:00 | |
| IW2NTF | 2026-09-04 14:01:12 | 45.18271 | 9.47509 | 29° | 29km/h | 1846m | -4m/s | 18.8°C | 53.7% | 0hPa | 2.8V | 07:29:20 | 03:26:25 | 00:00:00 | |
| IW2NTF | 2026-09-04 14:01:12 | 45.18257 | 9.47497 | 30° | 35km/h | 1854m | -4m/s | 18.7°C | 53.7% | 0hPa | 2.8V | 07:29:22 | 03:26:23 | 00:00:00 | |
| IW2NTF | 2026-09-04 14:01:12 | 45.18242 | 9.47483 | 38° | 35km/h | 1862m | -4.1m/s | 19.2°C | 48.5% | 0hPa | 2.8V | 07:29:24 | 03:26:21 | 00:00:00 | |
| IW2NTF | 2026-09-04 14:01:07 | 45.18230 | 9.47467 | 44° | 29km/h | 1871m | -4.4m/s | 19.3°C | 44.3% | 0hPa | 2.8V | 07:29:26 | 03:26:19 | 00:00:00 | |
| IW2NTF | 2026-09-04 14:01:07 | 45.18220 | 9.47455 | 35° | 24km/h | 1879m | -4.2m/s | 19.6°C | 37.8% | 0hPa | 2.8V | 07:29:28 | 03:26:17 | 00:00:00 | |
| IW2NTF | 2026-09-04 14:01:07 | 45.18209 | 9.47447 | 24° | 27km/h | 1887m | -3.9m/s | 19.8°C | 34% | 0hPa | 2.7V | 07:29:30 | 03:26:15 | 00:00:00 | |
| IW2NTF | 2026-09-04 14:01:01 | 45.18195 | 9.47437 | 30° | 33km/h | 1895m | -4.3m/s | 19.7°C | 33.1% | 0hPa | 2.8V | 07:29:32 | 03:26:13 | 00:00:00 | |
| IW2NTF | 2026-09-04 14:01:01 | 45.18181 | 9.47422 | 43° | 35km/h | 1903m | -3.8m/s | 19.7°C | 32.9% | 0hPa | 2.8V | 07:29:34 | 03:26:11 | 00:00:00 | |
| IW2NTF | 2026-09-04 14:01:01 | 45.18170 | 9.47405 | 50° | 29km/h | 1911m | -3.8m/s | 19.6°C | 33% | 0hPa | 2.8V | 07:29:36 | 03:26:09 | 00:00:00 | |
| IW2NTF | 2026-09-04 14:00:54 | 45.18161 | 9.47391 | 43° | 26km/h | 1919m | -3.7m/s | 19.5°C | 33.3% | 0hPa | 2.8V | 07:29:38 | 03:26:07 | 00:00:00 | |
| IW2NTF | 2026-09-04 14:00:54 | 45.18150 | 9.47380 | 26° | 29km/h | 1927m | -3.9m/s | 19.5°C | 32.6% | 0hPa | 2.8V | 07:29:40 | 03:26:05 | 00:00:00 | |
| IW2NTF | 2026-09-04 14:00:54 | 45.18135 | 9.47369 | 32° | 35km/h | 1934m | -3.8m/s | 19.4°C | 32.8% | 0hPa | 2.8V | 07:29:42 | 03:26:03 | 00:00:00 | |
| IW2NTF | 2026-09-04 14:00:48 | 45.18121 | 9.47353 | 44° | 37km/h | 1942m | -3.6m/s | 19.3°C | 33.1% | 0hPa | 2.8V | 07:29:44 | 03:26:01 | 00:00:00 | |
| IW2NTF | 2026-09-04 14:00:48 | 45.18110 | 9.47335 | 52° | 29km/h | 1949m | -3.9m/s | 19.3°C | 33.2% | 0hPa | 2.8V | 07:29:46 | 03:25:59 | 00:00:00 | |
| IW2NTF | 2026-09-04 14:00:48 | 45.18102 | 9.47321 | 46° | 22km/h | 1957m | -4m/s | 19.3°C | 31.9% | 0hPa | 2.8V | 07:29:48 | 03:25:57 | 00:00:00 | |
| IW2NTF | 2026-09-04 14:00:42 | 45.18093 | 9.47311 | 35° | 24km/h | 1964m | -3.3m/s | 19.1°C | 31.6% | 0hPa | 2.8V | 07:29:50 | 03:25:55 | 00:00:00 | |
| IW2NTF | 2026-09-04 14:00:42 | 45.18082 | 9.47299 | 38° | 29km/h | 1971m | -3.9m/s | 19.1°C | 32% | 0hPa | 2.8V | 07:29:52 | 03:25:53 | 00:00:00 | |
| IW2NTF | 2026-09-04 14:00:42 | 45.18071 | 9.47285 | 46° | 29km/h | 1979m | -3.9m/s | 19.1°C | 30.4% | 0hPa | 2.8V | 07:29:54 | 03:25:51 | 00:00:00 | |
| IW2NTF | 2026-09-04 14:00:36 | 45.18061 | 9.47270 | 44° | 26km/h | 1987m | -4.5m/s | 18.9°C | 31.7% | 0hPa | 2.8V | 07:29:56 | 03:25:49 | 00:00:00 | |
| IW2NTF | 2026-09-04 14:00:36 | 45.18052 | 9.47259 | 34° | 24km/h | 1996m | -4m/s | 18.9°C | 30.6% | 0hPa | 2.8V | 07:29:58 | 03:25:47 | 00:00:00 | |
| IW2NTF | 2026-09-04 14:00:36 | 45.18040 | 9.47249 | 32° | 29km/h | 2003m | -3.9m/s | 18.9°C | 30.4% | 0hPa | 2.8V | 07:30:00 | 03:25:45 | 00:00:00 | |
| IW2NTF | 2026-09-04 14:00:30 | 45.18011 | 9.47211 | 40° | 24km/h | 2030m | -4.8m/s | 18.6°C | 31.7% | 0hPa | 2.8V | 07:30:06 | 03:25:39 | 00:00:00 | |
| IW2NTF | 2026-09-04 14:00:25 | 45.17986 | 9.47173 | 44° | 22km/h | 2056m | -4.6m/s | 18.4°C | 32.6% | 0hPa | 2.8V | 07:30:12 | 03:25:33 | 00:00:00 | |
| IW2NTF | 2026-09-04 14:00:18 | 45.17962 | 9.47135 | 44° | 22km/h | 2084m | -4.8m/s | 18.3°C | 28.3% | 0hPa | 2.8V | 07:30:18 | 03:25:27 | 00:00:00 | |
| IW2NTF | 2026-09-04 14:00:12 | 45.17941 | 9.47100 | 44° | 22km/h | 2113m | -4.9m/s | 18.2°C | 25.6% | 0hPa | 2.8V | 07:30:24 | 03:25:21 | 00:00:00 | |
| IW2NTF | 2026-09-04 14:00:07 | 45.17918 | 9.47060 | 50° | 22km/h | 2141m | -4.8m/s | 18°C | 25.8% | 0hPa | 2.7V | 07:30:30 | 03:25:15 | 00:00:00 | |
| IW2NTF | 2026-09-04 14:00:00 | 45.17899 | 9.47017 | 59° | 22km/h | 2168m | -4.4m/s | 17.6°C | 26.4% | 0hPa | 2.8V | 07:30:36 | 03:25:09 | 00:00:00 | |
| IW2NTF | 2026-09-04 13:59:54 | 45.17882 | 9.46973 | 57° | 22km/h | 2194m | -4.3m/s | 17.4°C | 26.5% | 0hPa | 2.8V | 07:30:42 | 03:25:03 | 00:00:00 | |
| IW2NTF | 2026-09-04 13:59:48 | 45.17862 | 9.46929 | 55° | 22km/h | 2219m | -4m/s | 17.3°C | 26.2% | 0hPa | 2.8V | 07:30:48 | 03:24:57 | 00:00:00 | |
| IW2NTF | 2026-09-04 13:59:42 | 45.17842 | 9.46884 | 58° | 22km/h | 2245m | -4.2m/s | 17.1°C | 25.7% | 0hPa | 2.8V | 07:30:54 | 03:24:51 | 00:00:00 | |
| IW2NTF | 2026-09-04 13:59:36 | 45.17823 | 9.46838 | 61° | 24km/h | 2272m | -4.3m/s | 16.8°C | 26.1% | 0hPa | 2.8V | 07:31:00 | 03:24:45 | 00:00:00 | |
| IW2NTF | 2026-09-04 13:59:31 | 45.17805 | 9.46790 | 60° | 24km/h | 2298m | -4.2m/s | 16.6°C | 26.4% | 0hPa | 2.8V | 07:31:06 | 03:24:39 | 00:00:00 | |
| IW2NTF | 2026-09-04 13:59:24 | 45.17786 | 9.46739 | 62° | 24km/h | 2323m | -4.4m/s | 16.4°C | 26.4% | 0hPa | 2.8V | 07:31:12 | 03:24:33 | 00:00:00 | |
| IW2NTF | 2026-09-04 13:59:18 | 45.17767 | 9.46688 | 63° | 26km/h | 2349m | -4m/s | 16.2°C | 26.6% | 0hPa | 2.8V | 07:31:18 | 03:24:27 | 00:00:00 | |
| IW2NTF | 2026-09-04 13:59:12 | 45.17748 | 9.46639 | 60° | 22km/h | 2373m | -3.9m/s | 15.9°C | 27.1% | 0hPa | 2.8V | 07:31:24 | 03:24:21 | 00:00:00 | |
| IW2NTF | 2026-09-04 13:59:06 | 45.17730 | 9.46594 | 59° | 22km/h | 2398m | -4.2m/s | 15.7°C | 27.5% | 0hPa | 2.7V | 07:31:30 | 03:24:15 | 00:00:00 | |
| IW2NTF | 2026-09-04 13:59:00 | 45.17714 | 9.46550 | 57° | 22km/h | 2422m | -4.1m/s | 15.6°C | 26.2% | 0hPa | 2.8V | 07:31:36 | 03:24:09 | 00:00:00 | |
| IW2NTF | 2026-09-04 13:58:54 | 45.17698 | 9.46507 | 55° | 20km/h | 2446m | -4m/s | 15.6°C | 28.2% | 0hPa | 2.8V | 07:31:42 | 03:24:03 | 00:00:00 | |
| IW2NTF | 2026-09-04 13:58:48 | 45.17682 | 9.46465 | 63° | 24km/h | 2470m | -4.1m/s | 15.4°C | 31.2% | 0hPa | 2.7V | 07:31:48 | 03:23:57 | 00:00:00 | |
| IW2NTF | 2026-09-04 13:58:42 | 45.17668 | 9.46421 | 56° | 22km/h | 2495m | -3.9m/s | 15.2°C | 32.7% | 0hPa | 2.8V | 07:31:54 | 03:23:51 | 00:00:00 | |
| IW2NTF | 2026-09-04 13:58:36 | 45.17652 | 9.46381 | 56° | 22km/h | 2520m | -4.3m/s | 15°C | 33.3% | 0hPa | 2.8V | 07:32:00 | 03:23:45 | 00:00:00 | |
| IW2NTF | 2026-09-04 13:58:30 | 45.17637 | 9.46341 | 60° | 24km/h | 2544m | -3.9m/s | 14.8°C | 33.8% | 0hPa | 2.8V | 07:32:06 | 03:23:39 | 00:00:00 | |
| IW2NTF | 2026-09-04 13:58:24 | 45.17624 | 9.46299 | 60° | 22km/h | 2569m | -4.2m/s | 14.6°C | 34.2% | 0hPa | 2.8V | 07:32:12 | 03:23:33 | 00:00:00 | |
| IW2NTF | 2026-09-04 13:58:18 | 45.17611 | 9.46262 | 64° | 20km/h | 2594m | -4.2m/s | 14.3°C | 34.6% | 0hPa | 2.8V | 07:32:18 | 03:23:27 | 00:00:00 | |
| IW2NTF | 2026-09-04 13:58:12 | 45.17603 | 9.46224 | 75° | 20km/h | 2617m | -3.7m/s | 14.1°C | 34.6% | 0hPa | 2.8V | 07:32:24 | 03:23:21 | 00:00:00 | |
| IW2NTF | 2026-09-04 13:58:06 | 45.17601 | 9.46186 | 87° | 20km/h | 2641m | -3.6m/s | 13.9°C | 34.8% | 0hPa | 2.7V | 07:32:30 | 03:23:15 | 00:00:00 | |
| IW2NTF | 2026-09-04 13:58:00 | 45.17602 | 9.46148 | 90° | 18km/h | 2662m | -3.8m/s | 13.9°C | 34.5% | 0hPa | 2.8V | 07:32:36 | 03:23:09 | 00:00:00 | |
| IW2NTF | 2026-09-04 13:57:54 | 45.17604 | 9.46113 | 96° | 16km/h | 2686m | -3.9m/s | 13.8°C | 32.7% | 0hPa | 2.8V | 07:32:42 | 03:23:03 | 00:00:00 | |
| IW2NTF | 2026-09-04 13:57:46 | 45.17616 | 9.46064 | 118° | 20km/h | 2718m | -4.1m/s | 14.1°C | 28.1% | 0hPa | 2.8V | 07:32:50 | 03:22:55 | 00:00:00 | |
| IW2NTF | 2026-09-04 13:57:40 | 45.17629 | 9.46023 | 117° | 20km/h | 2742m | -4.1m/s | 13.9°C | 28.1% | 0hPa | 2.8V | 07:32:56 | 03:22:49 | 00:00:00 | |
| IW2NTF | 2026-09-04 13:57:34 | 45.17638 | 9.45982 | 106° | 18km/h | 2767m | -4.2m/s | 13.8°C | 27.8% | 0hPa | 2.7V | 07:33:02 | 03:22:43 | 00:00:00 | |
| IW2NTF | 2026-09-04 13:57:28 | 45.17646 | 9.45939 | 105° | 20km/h | 2793m | -4.2m/s | 13.8°C | 27.1% | 0hPa | 2.8V | 07:33:08 | 03:22:37 | 00:00:00 | |
| IW2NTF | 2026-09-04 13:57:22 | 45.17651 | 9.45894 | 94° | 20km/h | 2818m | -4.2m/s | 13.8°C | 26.4% | 0hPa | 2.8V | 07:33:14 | 03:22:31 | 00:00:00 | |
| IW2NTF | 2026-09-04 13:57:17 | 45.17655 | 9.45845 | 95° | 22km/h | 2845m | -4.2m/s | 13.7°C | 25.7% | 0hPa | 2.8V | 07:33:20 | 03:22:25 | 00:00:00 | |
| IW2NTF | 2026-09-04 13:57:10 | 45.17660 | 9.45797 | 96° | 22km/h | 2871m | -4.2m/s | 13.6°C | 25.4% | 0hPa | 2.8V | 07:33:26 | 03:22:19 | 00:00:00 | |
| IW2NTF | 2026-09-04 13:57:04 | 45.17666 | 9.45748 | 94° | 24km/h | 2898m | -4.5m/s | 13.4°C | 25.3% | 0hPa | 2.8V | 07:33:32 | 03:22:13 | 00:00:00 | |
| IW2NTF | 2026-09-04 13:56:58 | 45.17672 | 9.45697 | 95° | 24km/h | 2924m | -4.5m/s | 13.4°C | 25.2% | 0hPa | 2.7V | 07:33:38 | 03:22:07 | 00:00:00 | |
| IW2NTF | 2026-09-04 13:56:52 | 45.17679 | 9.45647 | 99° | 26km/h | 2950m | -4.1m/s | 13.1°C | 25.6% | 0hPa | 2.8V | 07:33:44 | 03:22:01 | 00:00:00 | |
| IW2NTF | 2026-09-04 13:56:46 | 45.17690 | 9.45595 | 105° | 27km/h | 2977m | -4.2m/s | 12.9°C | 25.8% | 0hPa | 2.8V | 07:33:50 | 03:21:55 | 00:00:00 | |
| IW2NTF | 2026-09-04 13:56:40 | 45.17702 | 9.45545 | 105° | 26km/h | 3004m | -4.5m/s | 12.6°C | 26.1% | 0hPa | 2.8V | 07:33:56 | 03:21:49 | 00:00:00 | |
| IW2NTF | 2026-09-04 13:56:34 | 45.17713 | 9.45498 | 101° | 24km/h | 3030m | -4.6m/s | 12.4°C | 26.4% | 0hPa | 2.7V | 07:34:02 | 03:21:43 | 00:00:00 | |
| IW2NTF | 2026-09-04 13:56:28 | 45.17722 | 9.45453 | 99° | 22km/h | 3058m | -4.6m/s | 12.1°C | 26.6% | 0hPa | 2.8V | 07:34:08 | 03:21:37 | 00:00:00 | |
| IW2NTF | 2026-09-04 13:56:22 | 45.17729 | 9.45409 | 101° | 22km/h | 3085m | -4.5m/s | 12.1°C | 26.4% | 0hPa | 2.7V | 07:34:14 | 03:21:31 | 00:00:00 | |
| IW2NTF | 2026-09-04 13:56:16 | 45.17736 | 9.45368 | 100° | 20km/h | 3112m | -4.7m/s | 11.8°C | 26.6% | 0hPa | 2.8V | 07:34:20 | 03:21:25 | 00:00:00 | |
| IW2NTF | 2026-09-04 13:56:10 | 45.17741 | 9.45330 | 96° | 20km/h | 3140m | -4.6m/s | 11.7°C | 26.5% | 0hPa | 2.7V | 07:34:26 | 03:21:19 | 00:00:00 | |
| IW2NTF | 2026-09-04 13:56:04 | 45.17743 | 9.45292 | 94° | 20km/h | 3167m | -4.6m/s | 11.5°C | 26.2% | 0hPa | 2.7V | 07:34:32 | 03:21:13 | 00:00:00 | |
| IW2NTF | 2026-09-04 13:55:58 | 45.17743 | 9.45254 | 88° | 18km/h | 3195m | -4.6m/s | 11.3°C | 25.9% | 0hPa | 2.8V | 07:34:38 | 03:21:07 | 00:00:00 | |
| IW2NTF | 2026-09-04 13:55:52 | 45.17741 | 9.45221 | 84° | 15km/h | 3222m | -4.6m/s | 11.2°C | 25.7% | 0hPa | 2.7V | 07:34:44 | 03:21:01 | 00:00:00 | |
| IW2NTF | 2026-09-04 13:55:46 | 45.17738 | 9.45191 | 85° | 15km/h | 3250m | -4.5m/s | 11°C | 25.6% | 0hPa | 2.7V | 07:34:50 | 03:20:55 | 00:00:00 | |
| IW2NTF | 2026-09-04 13:55:40 | 45.17733 | 9.45162 | 83° | 15km/h | 3277m | -4.3m/s | 11°C | 24.6% | 0hPa | 2.7V | 07:34:56 | 03:20:49 | 00:00:00 | |
| IW2NTF | 2026-09-04 13:55:34 | 45.17728 | 9.45136 | 76° | 11km/h | 3304m | -4.4m/s | 11°C | 23.6% | 0hPa | 2.7V | 07:35:02 | 03:20:43 | 00:00:00 | |
| IW2NTF | 2026-09-04 13:55:28 | 45.17721 | 9.45111 | 81° | 11km/h | 3331m | -4.5m/s | 11°C | 23.1% | 0hPa | 2.6V | 07:35:08 | 03:20:37 | 00:00:00 | |
| IW2NTF | 2026-09-04 13:55:22 | 45.17715 | 9.45085 | 81° | 13km/h | 3358m | -4.4m/s | 10.9°C | 23.9% | 0hPa | 2.7V | 07:35:14 | 03:20:31 | 00:00:00 | |
| IW2NTF | 2026-09-04 13:55:16 | 45.17711 | 9.45058 | 86° | 11km/h | 3384m | -4.2m/s | 10.6°C | 24.4% | 0hPa | 2.6V | 07:35:20 | 03:20:25 | 00:00:00 | |
| IW2NTF | 2026-09-04 13:55:10 | 45.17708 | 9.45032 | 82° | 11km/h | 3411m | -4.5m/s | 10.4°C | 24.7% | 0hPa | 2.6V | 07:35:26 | 03:20:19 | 00:00:00 | |
| IW2NTF | 2026-09-04 13:55:04 | 45.17706 | 9.45002 | 77° | 13km/h | 3437m | -4.2m/s | 10.2°C | 24.3% | 0hPa | 2.7V | 07:35:32 | 03:20:13 | 00:00:00 | |
| IW2NTF | 2026-09-04 13:54:58 | 45.17703 | 9.44971 | 79° | 13km/h | 3463m | -4.3m/s | 10°C | 24.4% | 0hPa | 2.7V | 07:35:38 | 03:20:07 | 00:00:00 | |
| IW2NTF | 2026-09-04 13:54:52 | 45.17700 | 9.44939 | 77° | 15km/h | 3488m | -4.5m/s | 9.9°C | 24.4% | 0hPa | 2.7V | 07:35:44 | 03:20:01 | 00:00:00 | |
| IW2NTF | 2026-09-04 13:54:46 | 45.17698 | 9.44906 | 75° | 15km/h | 3515m | -4.2m/s | 9.6°C | 24.8% | 0hPa | 2.7V | 07:35:50 | 03:19:55 | 00:00:00 | |
| IW2NTF | 2026-09-04 13:54:40 | 45.17695 | 9.44873 | 76° | 16km/h | 3541m | -4.4m/s | 9.5°C | 23.3% | 0hPa | 2.7V | 07:35:56 | 03:19:49 | 00:00:00 | |
| IW2NTF | 2026-09-04 13:54:34 | 45.17692 | 9.44836 | 78° | 18km/h | 3567m | -4.4m/s | 9.3°C | 23% | 0hPa | 2.6V | 07:36:02 | 03:19:43 | 00:00:00 | |
| IW2NTF | 2026-09-04 13:54:28 | 45.17690 | 9.44799 | 78° | 18km/h | 3593m | -4.3m/s | 9°C | 22.7% | 0hPa | 2.7V | 07:36:08 | 03:19:37 | 00:00:00 | |
| IW2NTF | 2026-09-04 13:54:22 | 45.17685 | 9.44760 | 79° | 20km/h | 3619m | -4.3m/s | 8.8°C | 22.4% | 0hPa | 2.7V | 07:36:14 | 03:19:31 | 00:00:00 | |
| IW2NTF | 2026-09-04 13:54:16 | 45.17681 | 9.44720 | 78° | 20km/h | 3645m | -4.2m/s | 8.6°C | 22% | 0hPa | 2.7V | 07:36:20 | 03:19:25 | 00:00:00 | |
| IW2NTF | 2026-09-04 13:54:11 | 45.17676 | 9.44679 | 78° | 22km/h | 3672m | -4.3m/s | 8.4°C | 21.8% | 0hPa | 2.7V | 07:36:26 | 03:19:19 | 00:00:00 | |
| IW2NTF | 2026-09-04 13:54:04 | 45.17671 | 9.44631 | 88° | 26km/h | 3699m | -4.3m/s | 8.3°C | 19.1% | 0hPa | 2.7V | 07:36:32 | 03:19:13 | 00:00:00 | |
| IW2NTF | 2026-09-04 13:53:58 | 45.17671 | 9.44583 | 89° | 24km/h | 3725m | -4.8m/s | 8.1°C | 17.9% | 0hPa | 2.6V | 07:36:38 | 03:19:07 | 00:00:00 | |
| IW2NTF | 2026-09-04 13:53:52 | 45.17670 | 9.44531 | 90° | 27km/h | 3752m | -4.5m/s | 8°C | 20.8% | 0hPa | 2.7V | 07:36:44 | 03:19:01 | 00:00:00 | |
| IW2NTF | 2026-09-04 13:53:46 | 45.17672 | 9.44477 | 96° | 26km/h | 3779m | -4.5m/s | 7.8°C | 20.4% | 0hPa | 2.7V | 07:36:50 | 03:18:55 | 00:00:00 | |
| IW2NTF | 2026-09-04 13:53:40 | 45.17674 | 9.44423 | 96° | 26km/h | 3806m | -4.9m/s | 7.5°C | 20.6% | 0hPa | 2.6V | 07:36:56 | 03:18:49 | 00:00:00 | |
| IW2NTF | 2026-09-04 13:53:34 | 45.17677 | 9.44366 | 99° | 27km/h | 3834m | -4.7m/s | 7.3°C | 20.5% | 0hPa | 2.7V | 07:37:02 | 03:18:43 | 00:00:00 | |
| IW2NTF | 2026-09-04 13:53:28 | 45.17683 | 9.44307 | 100° | 26km/h | 3862m | -4.7m/s | 7.1°C | 20.6% | 0hPa | 2.7V | 07:37:08 | 03:18:37 | 00:00:00 | |
| IW2NTF | 2026-09-04 13:53:22 | 45.17689 | 9.44247 | 100° | 27km/h | 3889m | -4.8m/s | 7°C | 19% | 0hPa | 2.6V | 07:37:14 | 03:18:31 | 00:00:00 | |
| IW2NTF | 2026-09-04 13:53:16 | 45.17697 | 9.44184 | 100° | 27km/h | 3917m | -4.8m/s | 6.9°C | 17.7% | 0hPa | 2.7V | 07:37:20 | 03:18:25 | 00:00:00 | |
| IW2NTF | 2026-09-04 13:53:10 | 45.17705 | 9.44121 | 99° | 29km/h | 3944m | -4.6m/s | 6.7°C | 17.2% | 0hPa | 2.7V | 07:37:26 | 03:18:19 | 00:00:00 | |
| IW2NTF | 2026-09-04 13:53:04 | 45.17713 | 9.44058 | 96° | 29km/h | 3971m | -4.7m/s | 6.5°C | 17.3% | 0hPa | 2.6V | 07:37:32 | 03:18:13 | 00:00:00 | |
| IW2NTF | 2026-09-04 13:52:58 | 45.17720 | 9.43993 | 95° | 31km/h | 3998m | -4.5m/s | 6.2°C | 17.5% | 0hPa | 2.7V | 07:37:38 | 03:18:07 | 00:00:00 | |
| IW2NTF | 2026-09-04 13:52:52 | 45.17728 | 9.43926 | 99° | 33km/h | 4025m | -4.4m/s | 6°C | 17.9% | 0hPa | 2.7V | 07:37:44 | 03:18:01 | 00:00:00 | |
| IW2NTF | 2026-09-04 13:52:46 | 45.17738 | 9.43857 | 100° | 35km/h | 4051m | -4.2m/s | 5.7°C | 18.2% | 0hPa | 2.6V | 07:37:50 | 03:17:55 | 00:00:00 | |
| IW2NTF | 2026-09-04 13:52:40 | 45.17749 | 9.43786 | 102° | 35km/h | 4077m | -4.3m/s | 5.6°C | 18.6% | 0hPa | 2.7V | 07:37:56 | 03:17:49 | 00:00:00 | |
| IW2NTF | 2026-09-04 13:52:34 | 45.17762 | 9.43715 | 106° | 35km/h | 4103m | -4.3m/s | 5.4°C | 19.6% | 0hPa | 2.7V | 07:38:02 | 03:17:43 | 00:00:00 | |
| IW2NTF | 2026-09-04 13:52:28 | 45.17776 | 9.43646 | 107° | 35km/h | 4129m | -4.6m/s | 5.2°C | 20.8% | 0hPa | 2.6V | 07:38:08 | 03:17:37 | 00:00:00 | |
| IW2NTF | 2026-09-04 13:52:22 | 45.17788 | 9.43578 | 107° | 33km/h | 4156m | -4.2m/s | 5°C | 24.4% | 0hPa | 2.7V | 07:38:14 | 03:17:31 | 00:00:00 | |
| IW2NTF | 2026-09-04 13:52:16 | 45.17803 | 9.43509 | 110° | 33km/h | 4181m | -4.3m/s | 4.8°C | 27% | 0hPa | 2.7V | 07:38:20 | 03:17:25 | 00:00:00 | |
| IW2NTF | 2026-09-04 13:52:10 | 45.17817 | 9.43441 | 108° | 33km/h | 4207m | -4.1m/s | 4.6°C | 27.9% | 0hPa | 2.7V | 07:38:26 | 03:17:19 | 00:00:00 | |
| IW2NTF | 2026-09-04 13:52:04 | 45.17830 | 9.43374 | 106° | 31km/h | 4232m | -4.3m/s | 4.3°C | 29.9% | 0hPa | 2.7V | 07:38:32 | 03:17:13 | 00:00:00 | |
| IW2NTF | 2026-09-04 13:51:58 | 45.17841 | 9.43309 | 106° | 29km/h | 4257m | -4.4m/s | 4°C | 33.4% | 0hPa | 2.6V | 07:38:38 | 03:17:07 | 00:00:00 | |
| IW2NTF | 2026-09-04 13:51:52 | 45.17851 | 9.43246 | 102° | 29km/h | 4282m | -4.5m/s | 3.9°C | 34.5% | 0hPa | 2.7V | 07:38:44 | 03:17:01 | 00:00:00 | |
| IW2NTF | 2026-09-04 13:51:46 | 45.17862 | 9.43182 | 102° | 29km/h | 4309m | -4.2m/s | 3.6°C | 34.6% | 0hPa | 2.7V | 07:38:50 | 03:16:55 | 00:00:00 | |
| IW2NTF | 2026-09-04 13:51:40 | 45.17873 | 9.43119 | 101° | 27km/h | 4335m | -4.4m/s | 3.4°C | 34.5% | 0hPa | 2.7V | 07:38:56 | 03:16:49 | 00:00:00 | |
| IW2NTF | 2026-09-04 13:51:34 | 45.17883 | 9.43055 | 101° | 31km/h | 4360m | -4.2m/s | 3.3°C | 34.8% | 0hPa | 2.6V | 07:39:02 | 03:16:43 | 00:00:00 | |
| IW2NTF | 2026-09-04 13:51:28 | 45.17893 | 9.42991 | 99° | 31km/h | 4386m | -4.2m/s | 3°C | 34.6% | 0hPa | 2.7V | 07:39:08 | 03:16:37 | 00:00:00 | |
| IW2NTF | 2026-09-04 13:51:22 | 45.17904 | 9.42926 | 101° | 33km/h | 4412m | -4.2m/s | 2.8°C | 34.6% | 0hPa | 2.7V | 07:39:14 | 03:16:31 | 00:00:00 | |
| IW2NTF | 2026-09-04 13:51:16 | 45.17915 | 9.42861 | 102° | 33km/h | 4438m | -4.2m/s | 2.6°C | 33.6% | 0hPa | 2.7V | 07:39:20 | 03:16:25 | 00:00:00 | |
| IW2NTF | 2026-09-04 13:51:10 | 45.17928 | 9.42794 | 107° | 33km/h | 4463m | -4.2m/s | 2.3°C | 34.7% | 0hPa | 2.6V | 07:39:26 | 03:16:19 | 00:00:00 | |
| IW2NTF | 2026-09-04 13:51:04 | 45.17942 | 9.42727 | 108° | 33km/h | 4489m | -4.5m/s | 2.1°C | 36.2% | 0hPa | 2.7V | 07:39:32 | 03:16:13 | 00:00:00 | |
| IW2NTF | 2026-09-04 13:50:58 | 45.17954 | 9.42659 | 106° | 35km/h | 4515m | -4.6m/s | 1.9°C | 36.5% | 0hPa | 2.6V | 07:39:38 | 03:16:07 | 00:00:00 | |
| IW2NTF | 2026-09-04 13:50:52 | 45.17966 | 9.42586 | 104° | 35km/h | 4541m | -4.4m/s | 1.6°C | 36.9% | 0hPa | 2.6V | 07:39:44 | 03:16:01 | 00:00:00 | |
| IW2NTF | 2026-09-04 13:50:44 | 45.17979 | 9.42485 | 97° | 37km/h | 4576m | -4.4m/s | 1.5°C | 31.7% | 0hPa | 2.6V | 07:39:52 | 03:15:53 | 00:00:00 | |
| IW2NTF | 2026-09-04 13:50:38 | 45.17990 | 9.42407 | 98° | 37km/h | 4602m | -4.4m/s | 1.4°C | 26.6% | 0hPa | 2.7V | 07:39:58 | 03:15:47 | 00:00:00 | |
| IW2NTF | 2026-09-04 13:50:32 | 45.17999 | 9.42331 | 97° | 37km/h | 4628m | -4.3m/s | 1.2°C | 24% | 0hPa | 2.7V | 07:40:04 | 03:15:41 | 00:00:00 | |
| IW2NTF | 2026-09-04 13:50:26 | 45.18008 | 9.42254 | 99° | 37km/h | 4654m | -4.5m/s | 0.9°C | 24.8% | 0hPa | 2.7V | 07:40:10 | 03:15:35 | 00:00:00 | |
| IW2NTF | 2026-09-04 13:50:20 | 45.18018 | 9.42181 | 98° | 37km/h | 4680m | -4.3m/s | 0.7°C | 25.3% | 0hPa | 2.7V | 07:40:16 | 03:15:29 | 00:00:00 | |
| IW2NTF | 2026-09-04 13:50:14 | 45.18029 | 9.42107 | 101° | 37km/h | 4706m | -4.4m/s | 0.5°C | 25.5% | 0hPa | 2.6V | 07:40:22 | 03:15:23 | 00:00:00 | |
| IW2NTF | 2026-09-04 13:50:08 | 45.18040 | 9.42033 | 103° | 37km/h | 4733m | -4.5m/s | 0.3°C | 27.6% | 0hPa | 2.7V | 07:40:28 | 03:15:17 | 00:00:00 | |
| IW2NTF | 2026-09-04 13:50:02 | 45.18051 | 9.41960 | 104° | 37km/h | 4759m | -4.5m/s | 0.1°C | 28.2% | 0hPa | 2.7V | 07:40:34 | 03:15:11 | 00:00:00 | |
| IW2NTF | 2026-09-04 13:49:56 | 45.18063 | 9.41889 | 105° | 35km/h | 4785m | -4.3m/s | -0.1°C | 28.7% | 0hPa | 2.7V | 07:40:40 | 03:15:05 | 00:00:00 | |
| IW2NTF | 2026-09-04 13:49:50 | 45.18073 | 9.41819 | 102° | 35km/h | 4811m | -4.5m/s | -0.3°C | 28.5% | 0hPa | 2.7V | 07:40:46 | 03:14:59 | 00:00:00 | |
| IW2NTF | 2026-09-04 13:49:45 | 45.18082 | 9.41746 | 102° | 35km/h | 4837m | -4.3m/s | -0.6°C | 30.2% | 0hPa | 2.6V | 07:40:52 | 03:14:53 | 00:00:00 | |
| IW2NTF | 2026-09-04 13:49:39 | 45.18092 | 9.41672 | 104° | 37km/h | 4863m | -4.5m/s | -0.8°C | 30.7% | 0hPa | 2.6V | 07:40:58 | 03:14:47 | 00:00:00 | |
| IW2NTF | 2026-09-04 13:49:32 | 45.18103 | 9.41597 | 106° | 37km/h | 4889m | -4.7m/s | -0.9°C | 32.4% | 0hPa | 2.7V | 07:41:04 | 03:14:41 | 00:00:00 | |
| IW2NTF | 2026-09-04 13:49:26 | 45.18116 | 9.41521 | 106° | 37km/h | 4916m | -4.5m/s | -1.1°C | 32.7% | 0hPa | 2.7V | 07:41:10 | 03:14:35 | 00:00:00 | |
| IW2NTF | 2026-09-04 13:49:20 | 45.18131 | 9.41441 | 109° | 38km/h | 4942m | -4.5m/s | -1.3°C | 32.9% | 0hPa | 2.7V | 07:41:16 | 03:14:29 | 00:00:00 | |
| IW2NTF | 2026-09-04 13:49:14 | 45.18147 | 9.41363 | 107° | 38km/h | 4969m | -4.5m/s | -1.6°C | 34.1% | 0hPa | 2.7V | 07:41:22 | 03:14:23 | 00:00:00 | |
| IW2NTF | 2026-09-04 13:49:08 | 45.18162 | 9.41285 | 109° | 37km/h | 4996m | -4.6m/s | -1.8°C | 35.7% | 0hPa | 2.7V | 07:41:28 | 03:14:17 | 00:00:00 | |
| IW2NTF | 2026-09-04 13:49:00 | 45.18186 | 9.41184 | 107° | 37km/h | 5031m | -4.3m/s | -2.1°C | 36.6% | 0hPa | 2.7V | 07:41:36 | 03:14:09 | 00:00:00 | |
| IW2NTF | 2026-09-04 13:48:50 | 45.18215 | 9.41058 | 106° | 35km/h | 5075m | -4.4m/s | -2.5°C | 37.1% | 0hPa | 2.7V | 07:41:46 | 03:13:59 | 00:00:00 | |
| IW2NTF | 2026-09-04 13:48:40 | 45.18241 | 9.40928 | 109° | 38km/h | 5119m | -4.5m/s | -2.7°C | 37.1% | 0hPa | 2.7V | 07:41:56 | 03:13:49 | 00:00:00 | |
| IW2NTF | 2026-09-04 13:48:30 | 45.18265 | 9.40803 | 104° | 38km/h | 5164m | -4.6m/s | -3°C | 35.5% | 0hPa | 2.7V | 07:42:06 | 03:13:39 | 00:00:00 | |
| IW2NTF | 2026-09-04 13:48:20 | 45.18291 | 9.40676 | 101° | 37km/h | 5209m | -4.4m/s | -3.3°C | 35.4% | 0hPa | 2.7V | 07:42:16 | 03:13:29 | 00:00:00 | |
| IW2NTF | 2026-09-04 13:48:08 | 45.18317 | 9.40522 | 101° | 37km/h | 5262m | -4.5m/s | -3.6°C | 35.7% | 0hPa | 2.6V | 07:42:28 | 03:13:17 | 00:00:00 | |
| IW2NTF | 2026-09-04 13:47:58 | 45.18342 | 9.40398 | 106° | 33km/h | 5306m | -4.4m/s | -3.9°C | 36.3% | 0hPa | 2.7V | 07:42:38 | 03:13:07 | 00:00:00 | |
| IW2NTF | 2026-09-04 13:47:48 | 45.18366 | 9.40276 | 107° | 37km/h | 5350m | -4.3m/s | -4.3°C | 36.9% | 0hPa | 2.7V | 07:42:48 | 03:12:57 | 00:00:00 | |
| IW2NTF | 2026-09-04 13:47:38 | 45.18390 | 9.40154 | 106° | 37km/h | 5394m | -4.6m/s | -4.7°C | 37% | 0hPa | 2.7V | 07:42:58 | 03:12:47 | 00:00:00 | |
| IW2NTF | 2026-09-04 13:47:27 | 45.18416 | 9.40023 | 105° | 37km/h | 5443m | -4.4m/s | -5°C | 36.6% | 0hPa | 2.7V | 07:43:09 | 03:12:36 | 00:00:00 | |
| IW2NTF | 2026-09-04 13:47:17 | 45.18447 | 9.39908 | 110° | 35km/h | 5488m | -4.4m/s | -5.4°C | 37.3% | 0hPa | 2.6V | 07:43:19 | 03:12:26 | 00:00:00 | |
| IW2NTF | 2026-09-04 13:47:07 | 45.18483 | 9.39790 | 113° | 35km/h | 5533m | -4.4m/s | -5.5°C | 33.2% | 0hPa | 2.7V | 07:43:29 | 03:12:16 | 00:00:00 | |
| IW2NTF | 2026-09-04 13:46:57 | 45.18519 | 9.39674 | 116° | 35km/h | 5578m | -4.6m/s | -5.8°C | 32.8% | 0hPa | 2.7V | 07:43:39 | 03:12:06 | 00:00:00 | |
| IW2NTF | 2026-09-04 13:46:47 | 45.18554 | 9.39559 | 114° | 35km/h | 5621m | -4.5m/s | -6.2°C | 36.1% | 0hPa | 2.6V | 07:43:49 | 03:11:56 | 00:00:00 | |
| IW2NTF | 2026-09-04 13:46:37 | 45.18587 | 9.39445 | 111° | 37km/h | 5666m | -4.5m/s | -6.6°C | 37.3% | 0hPa | 2.7V | 07:43:59 | 03:11:46 | 00:00:00 | |
| IW2NTF | 2026-09-04 13:46:27 | 45.18620 | 9.39331 | 111° | 35km/h | 5711m | -4.4m/s | -6.9°C | 38.8% | 0hPa | 2.7V | 07:44:09 | 03:11:36 | 00:00:00 | |
| IW2NTF | 2026-09-04 13:46:17 | 45.18657 | 9.39216 | 112° | 35km/h | 5756m | -4.7m/s | -7.2°C | 39.5% | 0hPa | 2.6V | 07:44:19 | 03:11:26 | 00:00:00 | |
| IW2NTF | 2026-09-04 13:46:07 | 45.18697 | 9.39099 | 114° | 35km/h | 5800m | -4.3m/s | -7.6°C | 38.4% | 0hPa | 2.7V | 07:44:29 | 03:11:16 | 00:00:00 | |
| IW2NTF | 2026-09-04 13:45:55 | 45.18752 | 9.38964 | 118° | 38km/h | 5852m | -4.5m/s | -7.8°C | 32.2% | 0hPa | 2.7V | 07:44:41 | 03:11:04 | 00:00:00 | |
| IW2NTF | 2026-09-04 13:45:45 | 45.18804 | 9.38852 | 122° | 38km/h | 5896m | -4.3m/s | -7.9°C | 32.7% | 0hPa | 2.7V | 07:44:51 | 03:10:54 | 00:00:00 | |
| IW2NTF | 2026-09-04 13:45:35 | 45.18861 | 9.38736 | 125° | 38km/h | 5940m | -4.3m/s | -8.3°C | 35.7% | 0hPa | 2.6V | 07:45:01 | 03:10:44 | 00:00:00 | |
| IW2NTF | 2026-09-04 13:45:25 | 45.18924 | 9.38621 | 129° | 40km/h | 5983m | -4.3m/s | -8.7°C | 38.6% | 0hPa | 2.7V | 07:45:11 | 03:10:34 | 00:00:00 | |
| IW2NTF | 2026-09-04 13:45:17 | 45.18985 | 9.38506 | 128° | 40km/h | 6026m | -4.4m/s | -9°C | 40.4% | 0hPa | 2.7V | 07:45:21 | 03:10:24 | 00:00:00 | |
| IW2NTF | 2026-09-04 13:45:03 | 45.19059 | 9.38369 | 128° | 38km/h | 6077m | -4.3m/s | -9.5°C | 40% | 0hPa | 2.7V | 07:45:33 | 03:10:12 | 00:00:00 | |
| IW2NTF | 2026-09-04 13:44:53 | 45.19121 | 9.38253 | 129° | 42km/h | 6120m | -4.4m/s | -9.9°C | 39.8% | 0hPa | 2.7V | 07:45:43 | 03:10:02 | 00:00:00 | |
| IW2NTF | 2026-09-04 13:44:43 | 45.19188 | 9.38143 | 128° | 42km/h | 6163m | -4.7m/s | -10.2°C | 40.8% | 0hPa | 2.6V | 07:45:53 | 03:09:52 | 00:00:00 | |
| IW2NTF | 2026-09-04 13:44:33 | 45.19260 | 9.38034 | 134° | 38km/h | 6206m | -4.2m/s | -10.5°C | 42.3% | 0hPa | 2.6V | 07:46:03 | 03:09:42 | 00:00:00 | |
| IW2NTF | 2026-09-04 13:44:23 | 45.19333 | 9.37925 | 135° | 42km/h | 6249m | -4.3m/s | -10.9°C | 43.8% | 0hPa | 2.7V | 07:46:13 | 03:09:32 | 00:00:00 | |
| IW2NTF | 2026-09-04 13:44:13 | 45.19407 | 9.37815 | 135° | 44km/h | 6293m | -4.3m/s | -11.3°C | 44.4% | 0hPa | 2.7V | 07:46:23 | 03:09:22 | 00:00:00 | |
| IW2NTF | 2026-09-04 13:44:03 | 45.19481 | 9.37707 | 131° | 42km/h | 6336m | -4.4m/s | -11.7°C | 45.6% | 0hPa | 2.7V | 07:46:33 | 03:09:12 | 00:00:00 | |
| IW2NTF | 2026-09-04 13:43:53 | 45.19550 | 9.37603 | 131° | 40km/h | 6380m | -4.7m/s | -12°C | 42.5% | 0hPa | 2.6V | 07:46:43 | 03:09:02 | 00:00:00 | |
| IW2NTF | 2026-09-04 13:43:43 | 45.19619 | 9.37497 | 132° | 38km/h | 6423m | -4.3m/s | -12.3°C | 38% | 0hPa | 2.7V | 07:46:53 | 03:08:52 | 00:00:00 | |
| IW2NTF | 2026-09-04 13:43:33 | 45.19688 | 9.37391 | 132° | 40km/h | 6467m | -4.5m/s | -12.6°C | 36.7% | 0hPa | 2.7V | 07:47:03 | 03:08:42 | 00:00:00 | |
| IW2NTF | 2026-09-04 13:43:23 | 45.19755 | 9.37286 | 135° | 38km/h | 6511m | -4.6m/s | -13.1°C | 37.4% | 0hPa | 2.6V | 07:47:13 | 03:08:32 | 00:00:00 | |
| IW2NTF | 2026-09-04 13:43:12 | 45.19830 | 9.37175 | 134° | 38km/h | 6560m | -4.5m/s | -13.4°C | 37.1% | 0hPa | 2.5V | 07:47:24 | 03:08:21 | 00:00:00 | |
| IW2NTF | 2026-09-04 13:43:02 | 45.19896 | 9.37077 | 135° | 37km/h | 6605m | -4.7m/s | -13.9°C | 37.6% | 0hPa | 2.7V | 07:47:34 | 03:08:11 | 00:00:00 | |
| IW2NTF | 2026-09-04 13:42:52 | 45.19958 | 9.36980 | 130° | 38km/h | 6650m | -4.6m/s | -14.2°C | 36.5% | 0hPa | 2.5V | 07:47:44 | 03:08:01 | 00:00:00 | |
| IW2NTF | 2026-09-04 13:42:42 | 45.20026 | 9.36882 | 131° | 38km/h | 6695m | -4.3m/s | -14.4°C | 32.8% | 0hPa | 2.5V | 07:47:54 | 03:07:51 | 00:00:00 | |
| IW2NTF | 2026-09-04 13:42:32 | 45.20089 | 9.36789 | 134° | 35km/h | 6740m | -4.5m/s | -14.6°C | 29.2% | 0hPa | 2.5V | 07:48:04 | 03:07:41 | 00:00:00 | |
| IW2NTF | 2026-09-04 13:42:22 | 45.20153 | 9.36692 | 130° | 35km/h | 6786m | -4.6m/s | -14.7°C | 24.5% | 0hPa | 2.5V | 07:48:14 | 03:07:31 | 00:00:00 | |
| IW2NTF | 2026-09-04 13:42:12 | 45.20211 | 9.36587 | 127° | 37km/h | 6833m | -4.8m/s | -14.8°C | 22.3% | 0hPa | 2.5V | 07:48:24 | 03:07:21 | 00:00:00 | |
| IW2NTF | 2026-09-04 13:42:02 | 45.20262 | 9.36468 | 120° | 42km/h | 6881m | -4.8m/s | -14.9°C | 18.9% | 0hPa | 2.5V | 07:48:34 | 03:07:11 | 00:00:00 | |
| IW2NTF | 2026-09-04 13:41:50 | 45.20318 | 9.36316 | 119° | 42km/h | 6939m | -5m/s | -14.9°C | 14.7% | 0hPa | 2.7V | 07:48:46 | 03:06:59 | 00:00:00 | |
| IW2NTF | 2026-09-04 13:41:39 | 45.20372 | 9.36172 | 120° | 40km/h | 6993m | -5m/s | -15.1°C | 13.5% | 0hPa | 2.6V | 07:48:57 | 03:06:48 | 00:00:00 | |
| IW2NTF | 2026-09-04 13:41:29 | 45.20425 | 9.36047 | 122° | 44km/h | 7043m | -5.1m/s | -15.4°C | 13.2% | 0hPa | 2.5V | 07:49:07 | 03:06:38 | 00:00:00 | |
| IW2NTF | 2026-09-04 13:41:19 | 45.20477 | 9.35919 | 117° | 44km/h | 7093m | -5m/s | -15.8°C | 13.2% | 0hPa | 2.5V | 07:49:17 | 03:06:28 | 00:00:00 | |
| IW2NTF | 2026-09-04 13:41:09 | 45.20528 | 9.35786 | 116° | 40km/h | 7144m | -5.2m/s | -15.9°C | 13.4% | 0hPa | 2.6V | 07:49:27 | 03:06:18 | 00:00:00 | |
| IW2NTF | 2026-09-04 13:40:59 | 45.20582 | 9.35649 | 121° | 44km/h | 7196m | -5.2m/s | -16.3°C | 14% | 0hPa | 2.5V | 07:49:37 | 03:06:08 | 00:00:00 | |
| IW2NTF | 2026-09-04 13:40:49 | 45.20641 | 9.35514 | 123° | 42km/h | 7247m | -5.3m/s | -16.7°C | 13.9% | 0hPa | 2.6V | 07:49:47 | 03:05:58 | 00:00:00 | |
| IW2NTF | 2026-09-04 13:40:39 | 45.20695 | 9.35386 | 122° | 42km/h | 7298m | -5.2m/s | -17°C | 13.2% | 0hPa | 2.5V | 07:49:57 | 03:05:48 | 00:00:00 | |
| IW2NTF | 2026-09-04 13:40:29 | 45.20755 | 9.35266 | 123° | 42km/h | 7350m | -5m/s | -17.3°C | 13.2% | 0hPa | 2.6V | 07:50:07 | 03:05:38 | 00:00:00 | |
| IW2NTF | 2026-09-04 13:40:19 | 45.20819 | 9.35146 | 127° | 42km/h | 7401m | -4.9m/s | -17.6°C | 13.1% | 0hPa | 2.6V | 07:50:17 | 03:05:28 | 00:00:00 | |
| IW2NTF | 2026-09-04 13:40:09 | 45.20883 | 9.35026 | 129° | 40km/h | 7453m | -5.3m/s | -17.9°C | 13% | 0hPa | 2.5V | 07:50:27 | 03:05:18 | 00:00:00 | |
| IW2NTF | 2026-09-04 13:40:00 | 45.20942 | 9.34908 | 124° | 40km/h | 7504m | -5.1m/s | -18.3°C | 12.7% | 0hPa | 2.6V | 07:50:37 | 03:05:08 | 00:00:00 | |
| IW2NTF | 2026-09-04 13:39:49 | 45.20995 | 9.34793 | 119° | 40km/h | 7555m | -5.2m/s | -18.6°C | 12.5% | 0hPa | 2.6V | 07:50:47 | 03:04:58 | 00:00:00 | |
| IW2NTF | 2026-09-04 13:39:39 | 45.21040 | 9.34680 | 116° | 35km/h | 7606m | -5.3m/s | -18.8°C | 12.3% | 0hPa | 2.5V | 07:50:57 | 03:04:48 | 00:00:00 | |
| IW2NTF | 2026-09-04 13:39:29 | 45.21085 | 9.34571 | 121° | 33km/h | 7657m | -5.3m/s | -19.2°C | 12.5% | 0hPa | 2.6V | 07:51:07 | 03:04:38 | 00:00:00 | |
| IW2NTF | 2026-09-04 13:39:19 | 45.21130 | 9.34468 | 123° | 33km/h | 7707m | -5.1m/s | -19.6°C | 12.7% | 0hPa | 2.5V | 07:51:17 | 03:04:28 | 00:00:00 | |
| IW2NTF | 2026-09-04 13:39:09 | 45.21177 | 9.34364 | 126° | 35km/h | 7758m | -5m/s | -20°C | 12.8% | 0hPa | 2.5V | 07:51:27 | 03:04:18 | 00:00:00 | |
| IW2NTF | 2026-09-04 13:38:59 | 45.21229 | 9.34260 | 124° | 38km/h | 7808m | -5m/s | -20.5°C | 13% | 0hPa | 2.5V | 07:51:37 | 03:04:08 | 00:00:00 | |
| IW2NTF | 2026-09-04 13:38:49 | 45.21285 | 9.34151 | 124° | 38km/h | 7858m | -5.2m/s | -20.9°C | 14.2% | 0hPa | 2.6V | 07:51:47 | 03:03:58 | 00:00:00 | |
| IW2NTF | 2026-09-04 13:38:39 | 45.21341 | 9.34046 | 124° | 33km/h | 7907m | -5m/s | -21.4°C | 15.2% | 0hPa | 2.6V | 07:51:57 | 03:03:48 | 00:00:00 | |
| IW2NTF | 2026-09-04 13:38:29 | 45.21391 | 9.33945 | 126° | 35km/h | 7956m | -5m/s | -21.8°C | 14.7% | 0hPa | 2.6V | 07:52:07 | 03:03:38 | 00:00:00 | |
| IW2NTF | 2026-09-04 13:38:20 | 45.21442 | 9.33842 | 125° | 35km/h | 8006m | -5.1m/s | -22.1°C | 15.9% | 0hPa | 2.6V | 07:52:17 | 03:03:28 | 00:00:00 | |
| IW2NTF | 2026-09-04 13:38:09 | 45.21491 | 9.33735 | 121° | 38km/h | 8056m | -4.8m/s | -22.5°C | 16% | 0hPa | 2.6V | 07:52:27 | 03:03:18 | 00:00:00 | |
| IW2NTF | 2026-09-04 13:37:59 | 45.21540 | 9.33625 | 121° | 35km/h | 8105m | -5m/s | -22.9°C | 16.3% | 0hPa | 2.6V | 07:52:37 | 03:03:08 | 00:00:00 | |
| IW2NTF | 2026-09-04 13:37:49 | 45.21586 | 9.33516 | 120° | 35km/h | 8155m | -5m/s | -23.3°C | 15.9% | 0hPa | 2.6V | 07:52:47 | 03:02:58 | 00:00:00 | |
| IW2NTF | 2026-09-04 13:37:39 | 45.21629 | 9.33404 | 123° | 38km/h | 8203m | -4.8m/s | -23.6°C | 15.4% | 0hPa | 2.5V | 07:52:57 | 03:02:48 | 00:00:00 | |
| IW2NTF | 2026-09-04 13:37:29 | 45.21675 | 9.33299 | 118° | 35km/h | 8253m | -5m/s | -24°C | 15.6% | 0hPa | 2.5V | 07:53:07 | 03:02:38 | 00:00:00 | |
| IW2NTF | 2026-09-04 13:37:19 | 45.21718 | 9.33193 | 118° | 31km/h | 8303m | -4.9m/s | -24.4°C | 15.5% | 0hPa | 2.5V | 07:53:17 | 03:02:28 | 00:00:00 | |
| IW2NTF | 2026-09-04 13:37:07 | 45.21770 | 9.33060 | 116° | 35km/h | 8364m | -5m/s | -24.8°C | 15.3% | 0hPa | 2.6V | 07:53:29 | 03:02:16 | 00:00:00 | |
| IW2NTF | 2026-09-04 13:36:57 | 45.21813 | 9.32949 | 122° | 35km/h | 8413m | -5m/s | -25.3°C | 15.5% | 0hPa | 2.6V | 07:53:39 | 03:02:06 | 00:00:00 | |
| IW2NTF | 2026-09-04 13:36:47 | 45.21854 | 9.32842 | 121° | 35km/h | 8463m | -5m/s | -25.7°C | 15.5% | 0hPa | 2.5V | 07:53:49 | 03:01:56 | 00:00:00 | |
| IW2NTF | 2026-09-04 13:36:37 | 45.21896 | 9.32741 | 118° | 33km/h | 8512m | -5m/s | -26.1°C | 16.5% | 0hPa | 2.6V | 07:53:59 | 03:01:46 | 00:00:00 | |
| IW2NTF | 2026-09-04 13:36:27 | 45.21939 | 9.32642 | 118° | 31km/h | 8560m | -4.9m/s | -26.6°C | 17.4% | 0hPa | 2.6V | 07:54:09 | 03:01:36 | 00:00:00 | |
| IW2NTF | 2026-09-04 13:36:17 | 45.21985 | 9.32542 | 126° | 33km/h | 8609m | -4.9m/s | -27°C | 17.9% | 0hPa | 2.5V | 07:54:19 | 03:01:26 | 00:00:00 | |
| IW2NTF | 2026-09-04 13:36:07 | 45.22034 | 9.32435 | 125° | 37km/h | 8659m | -5m/s | -27.4°C | 18.3% | 0hPa | 2.6V | 07:54:29 | 03:01:16 | 00:00:00 | |
| IW2NTF | 2026-09-04 13:35:57 | 45.22083 | 9.32326 | 119° | 38km/h | 8709m | -5.1m/s | -27.9°C | 18.7% | 0hPa | 2.6V | 07:54:39 | 03:01:06 | 00:00:00 | |
| IW2NTF | 2026-09-04 13:35:48 | 45.22136 | 9.32212 | 120° | 37km/h | 8759m | -5.2m/s | -28.4°C | 19.1% | 0hPa | 2.5V | 07:54:49 | 03:00:56 | 00:00:00 | |
| IW2NTF | 2026-09-04 13:35:38 | 45.22187 | 9.32093 | 123° | 38km/h | 8810m | -5.1m/s | -28.8°C | 19.6% | 0hPa | 2.6V | 07:54:59 | 03:00:46 | 00:00:00 | |
| IW2NTF | 2026-09-04 13:35:27 | 45.22237 | 9.31970 | 120° | 42km/h | 8860m | -4.9m/s | -29.1°C | 18.1% | 0hPa | 2.6V | 07:55:09 | 03:00:36 | 00:00:00 | |
| IW2NTF | 2026-09-04 13:35:17 | 45.22292 | 9.31835 | 119° | 46km/h | 8911m | -5.3m/s | -29.4°C | 17.3% | 0hPa | 2.5V | 07:55:19 | 03:00:26 | 00:00:00 | |
| IW2NTF | 2026-09-04 13:35:07 | 45.22356 | 9.31701 | 124° | 44km/h | 8962m | -5.2m/s | -29.6°C | 15% | 0hPa | 2.6V | 07:55:29 | 03:00:16 | 00:00:00 | |
| IW2NTF | 2026-09-04 13:34:57 | 45.22428 | 9.31566 | 130° | 49km/h | 9015m | -5.3m/s | -30°C | 13.6% | 0hPa | 2.5V | 07:55:39 | 03:00:06 | 00:00:00 | |
| IW2NTF | 2026-09-04 13:34:47 | 45.22504 | 9.31430 | 127° | 49km/h | 9067m | -5.2m/s | -30.3°C | 12.5% | 0hPa | 2.5V | 07:55:49 | 02:59:56 | 00:00:00 | |
| IW2NTF | 2026-09-04 13:34:38 | 45.22579 | 9.31293 | 125° | 49km/h | 9119m | -5.5m/s | -30.6°C | 12.6% | 0hPa | 2.5V | 07:55:59 | 02:59:46 | 00:00:00 | |
| IW2NTF | 2026-09-04 13:34:27 | 45.22650 | 9.31156 | 124° | 46km/h | 9173m | -5.3m/s | -31°C | 12.7% | 0hPa | 2.5V | 07:56:09 | 02:59:36 | 00:00:00 | |
| IW2NTF | 2026-09-04 13:34:17 | 45.22722 | 9.31016 | 128° | 47km/h | 9227m | -5.4m/s | -31.3°C | 12.6% | 0hPa | 2.5V | 07:56:19 | 02:59:26 | 00:00:00 | |
| IW2NTF | 2026-09-04 13:34:07 | 45.22793 | 9.30874 | 126° | 51km/h | 9281m | -5.4m/s | -31.8°C | 12.8% | 0hPa | 2.5V | 07:56:29 | 02:59:16 | 00:00:00 | |
| IW2NTF | 2026-09-04 13:33:57 | 45.22866 | 9.30736 | 123° | 47km/h | 9335m | -5.4m/s | -32.2°C | 12% | 0hPa | 2.5V | 07:56:39 | 02:59:06 | 00:00:00 | |
| IW2NTF | 2026-09-04 13:33:47 | 45.22937 | 9.30597 | 125° | 46km/h | 9391m | -5.7m/s | -32.4°C | 11.1% | 0hPa | 2.5V | 07:56:49 | 02:58:56 | 00:00:00 | |
| IW2NTF | 2026-09-04 13:33:37 | 45.23007 | 9.30459 | 126° | 47km/h | 9446m | -5.8m/s | -33°C | 11.7% | 0hPa | 2.6V | 07:56:59 | 02:58:46 | 00:00:00 | |
| IW2NTF | 2026-09-04 13:33:27 | 45.23079 | 9.30314 | 124° | 51km/h | 9502m | -5.7m/s | -33.4°C | 11.8% | 0hPa | 2.6V | 07:57:09 | 02:58:36 | 00:00:00 | |
| IW2NTF | 2026-09-04 13:33:17 | 45.23152 | 9.30160 | 122° | 53km/h | 9560m | -6m/s | -33.9°C | 11.7% | 0hPa | 2.6V | 07:57:19 | 02:58:26 | 00:00:00 | |
| IW2NTF | 2026-09-04 13:33:07 | 45.23228 | 9.29990 | 120° | 57km/h | 9619m | -5.9m/s | -34.3°C | 11.3% | 0hPa | 2.5V | 07:57:29 | 02:58:16 | 00:00:00 | |
| IW2NTF | 2026-09-04 13:32:57 | 45.23308 | 9.29804 | 123° | 60km/h | 9678m | -6m/s | -34.6°C | 11% | 0hPa | 2.5V | 07:57:39 | 02:58:06 | 00:00:00 | |
| IW2NTF | 2026-09-04 13:32:47 | 45.23384 | 9.29615 | 119° | 62km/h | 9737m | -5.9m/s | -34.9°C | 10.3% | 0hPa | 2.6V | 07:57:49 | 02:57:56 | 00:00:00 | |
| IW2NTF | 2026-09-04 13:32:37 | 45.23460 | 9.29432 | 119° | 58km/h | 9795m | -5.7m/s | -35.3°C | 11.5% | 0hPa | 2.6V | 07:57:59 | 02:57:46 | 00:00:00 | |
| IW2NTF | 2026-09-04 13:32:27 | 45.23533 | 9.29256 | 120° | 55km/h | 9852m | -5.8m/s | -35.7°C | 11.8% | 0hPa | 2.5V | 07:58:09 | 02:57:36 | 00:00:00 | |
| IW2NTF | 2026-09-04 13:32:17 | 45.23604 | 9.29081 | 121° | 57km/h | 9909m | -5.6m/s | -36.2°C | 12.6% | 0hPa | 2.6V | 07:58:19 | 02:57:26 | 00:00:00 | |
| IW2NTF | 2026-09-04 13:32:07 | 45.23672 | 9.28909 | 118° | 57km/h | 9966m | -5.7m/s | -36.7°C | 13.1% | 0hPa | 2.5V | 07:58:29 | 02:57:16 | 00:00:00 | |
| IW2NTF | 2026-09-04 13:31:57 | 45.23742 | 9.28737 | 119° | 53km/h | 10023m | -5.7m/s | -37.1°C | 13.7% | 0hPa | 2.6V | 07:58:39 | 02:57:06 | 00:00:00 | |
| IW2NTF | 2026-09-04 13:31:47 | 45.23812 | 9.28564 | 122° | 57km/h | 10080m | -5.7m/s | -37.7°C | 14.3% | 0hPa | 2.5V | 07:58:49 | 02:56:56 | 00:00:00 | |
| IW2NTF | 2026-09-04 13:31:37 | 45.23883 | 9.28389 | 120° | 58km/h | 10136m | -5.7m/s | -38.1°C | 14.7% | 0hPa | 2.6V | 07:58:59 | 02:56:46 | 00:00:00 | |
| IW2NTF | 2026-09-04 13:31:27 | 45.23961 | 9.28217 | 121° | 57km/h | 10192m | -5.8m/s | -38.7°C | 15% | 0hPa | 2.5V | 07:59:09 | 02:56:36 | 00:00:00 | |
| IW2NTF | 2026-09-04 13:31:17 | 45.24040 | 9.28046 | 124° | 57km/h | 10249m | -5.7m/s | -39.2°C | 16.4% | 0hPa | 2.5V | 07:59:19 | 02:56:26 | 00:00:00 | |
| IW2NTF | 2026-09-04 13:31:07 | 45.24119 | 9.27875 | 124° | 58km/h | 10305m | -5.4m/s | -39.6°C | 17.4% | 0hPa | 2.6V | 07:59:29 | 02:56:16 | 00:00:00 | |
| IW2NTF | 2026-09-04 13:30:57 | 45.24197 | 9.27708 | 122° | 57km/h | 10360m | -5.7m/s | -40.1°C | 17.1% | 0hPa | 2.6V | 07:59:39 | 02:56:06 | 00:00:00 | |
| IW2NTF | 2026-09-04 13:30:48 | 45.24274 | 9.27545 | 122° | 51km/h | 10416m | -5.5m/s | -40.5°C | 17.2% | 0hPa | 2.5V | 07:59:49 | 02:55:56 | 00:00:00 | |
| IW2NTF | 2026-09-04 13:30:37 | 45.24347 | 9.27385 | 125° | 53km/h | 10471m | -5.6m/s | -41°C | 17.5% | 0hPa | 2.5V | 07:59:59 | 02:55:46 | 00:00:00 | |
| IW2NTF | 2026-09-04 13:30:27 | 45.24420 | 9.27224 | 122° | 57km/h | 10527m | -5.4m/s | -41.4°C | 18.7% | 0hPa | 2.6V | 08:00:09 | 02:55:36 | 00:00:00 | |
| IW2NTF | 2026-09-04 13:30:18 | 45.24497 | 9.27058 | 120° | 55km/h | 10583m | -5.6m/s | -41.9°C | 19.6% | 0hPa | 2.6V | 08:00:19 | 02:55:26 | 00:00:00 | |
| IW2NTF | 2026-09-04 13:30:05 | 45.24576 | 9.26893 | 127° | 51km/h | 10638m | -5.6m/s | -42.3°C | 20.5% | 0hPa | 2.6V | 08:00:29 | 02:55:16 | 00:00:00 | |
| IW2NTF | 2026-09-04 13:29:57 | 45.24647 | 9.26736 | 124° | 53km/h | 10695m | -5.7m/s | -42.8°C | 20.6% | 0hPa | 2.6V | 08:00:39 | 02:55:06 | 00:00:00 | |
| IW2NTF | 2026-09-04 13:29:47 | 45.24720 | 9.26589 | 121° | 51km/h | 10752m | -5.7m/s | -43.4°C | 20.5% | 0hPa | 2.6V | 08:00:49 | 02:54:56 | 00:00:00 | |
| IW2NTF | 2026-09-04 13:29:37 | 45.24792 | 9.26436 | 128° | 47km/h | 10809m | -5.7m/s | -43.8°C | 21.5% | 0hPa | 2.6V | 08:00:59 | 02:54:46 | 00:00:00 | |
| IW2NTF | 2026-09-04 13:29:27 | 45.24869 | 9.26294 | 127° | 53km/h | 10867m | -6m/s | -44.2°C | 21.1% | 0hPa | 2.6V | 08:01:09 | 02:54:36 | 00:00:00 | |
| IW2NTF | 2026-09-04 13:29:18 | 45.24951 | 9.26143 | 126° | 55km/h | 10925m | -5.8m/s | -44.5°C | 21.9% | 0hPa | 2.6V | 08:01:19 | 02:54:26 | 00:00:00 | |
| IW2NTF | 2026-09-04 13:29:07 | 45.25034 | 9.25988 | 125° | 53km/h | 10983m | -5.8m/s | -45.1°C | 21.9% | 0hPa | 2.6V | 08:01:29 | 02:54:16 | 00:00:00 | |
| IW2NTF | 2026-09-04 13:28:57 | 45.25118 | 9.25829 | 129° | 55km/h | 11041m | -5.7m/s | -45.6°C | 22.6% | 0hPa | 2.5V | 08:01:39 | 02:54:06 | 00:00:00 | |
| IW2NTF | 2026-09-04 13:28:47 | 45.25198 | 9.25670 | 123° | 57km/h | 11100m | -5.8m/s | -46°C | 23.8% | 0hPa | 2.5V | 08:01:49 | 02:53:56 | 00:00:00 | |
| IW2NTF | 2026-09-04 13:28:37 | 45.25280 | 9.25512 | 124° | 51km/h | 11159m | -5.9m/s | -46.6°C | 24.9% | 0hPa | 2.5V | 08:01:59 | 02:53:46 | 00:00:00 | |
| IW2NTF | 2026-09-04 13:28:27 | 45.25356 | 9.25357 | 126° | 51km/h | 11218m | -5.9m/s | -47.2°C | 26.1% | 0hPa | 2.5V | 08:02:09 | 02:53:36 | 00:00:00 | |
| IW2NTF | 2026-09-04 13:28:17 | 45.25431 | 9.25205 | 125° | 53km/h | 11278m | -6m/s | -47.7°C | 26.9% | 0hPa | 2.5V | 08:02:19 | 02:53:26 | 00:00:00 | |
| IW2NTF | 2026-09-04 13:28:07 | 45.25505 | 9.25055 | 123° | 51km/h | 11337m | -6m/s | -48.2°C | 28.1% | 0hPa | 2.6V | 08:02:29 | 02:53:16 | 00:00:00 | |
| IW2NTF | 2026-09-04 13:27:53 | 45.25617 | 9.24835 | 129° | 55km/h | 11422m | -6.1m/s | -49.1°C | 28.9% | 0hPa | 2.5V | 08:02:43 | 02:53:02 | 00:00:00 | |
| IW2NTF | 2026-09-04 13:27:43 | 45.25698 | 9.24676 | 124° | 58km/h | 11483m | -6.1m/s | -49.5°C | 30.1% | 0hPa | 2.5V | 08:02:53 | 02:52:52 | 00:00:00 | |
| IW2NTF | 2026-09-04 13:27:33 | 45.25783 | 9.24515 | 126° | 55km/h | 11545m | -6.1m/s | -50°C | 32.2% | 0hPa | 2.5V | 08:03:03 | 02:52:42 | 00:00:00 | |
| IW2NTF | 2026-09-04 13:27:23 | 45.25869 | 9.24355 | 129° | 55km/h | 11607m | -6.2m/s | -50.6°C | 33.5% | 0hPa | 2.5V | 08:03:13 | 02:52:32 | 00:00:00 | |
| IW2NTF | 2026-09-04 13:27:10 | 45.25983 | 9.24154 | 129° | 55km/h | 11689m | -6.1m/s | -51.4°C | 34.3% | 0hPa | 2.5V | 08:03:26 | 02:52:19 | 00:00:00 | |
| IW2NTF | 2026-09-04 13:26:57 | 45.26068 | 9.24006 | 132° | 53km/h | 11752m | -6.3m/s | -51.8°C | 34.7% | 0hPa | 2.6V | 08:03:36 | 02:52:09 | 00:00:00 | |
| IW2NTF | 2026-09-04 13:26:50 | 45.26150 | 9.23864 | 127° | 53km/h | 11815m | -6.4m/s | -52.3°C | 35% | 0hPa | 2.5V | 08:03:46 | 02:51:59 | 00:00:00 | |
| IW2NTF | 2026-09-04 13:26:37 | 45.26230 | 9.23732 | 128° | 46km/h | 11879m | -6.4m/s | -52.9°C | 36% | 0hPa | 2.5V | 08:03:56 | 02:51:49 | 00:00:00 | |
| IW2NTF | 2026-09-04 13:26:30 | 45.26306 | 9.23596 | 131° | 47km/h | 11943m | -6.5m/s | -53.5°C | 38% | 0hPa | 2.5V | 08:04:06 | 02:51:39 | 00:00:00 | |
| IW2NTF | 2026-09-04 13:26:17 | 45.26386 | 9.23463 | 133° | 51km/h | 12008m | -6.4m/s | -53.9°C | 36.2% | 0hPa | 2.5V | 08:04:16 | 02:51:29 | 00:00:00 | |
| IW2NTF | 2026-09-04 13:26:08 | 45.26487 | 9.23311 | 135° | 51km/h | 12085m | -6.6m/s | -54.3°C | 37% | 0hPa | 2.5V | 08:04:28 | 02:51:17 | 00:00:00 | |
| IW2NTF | 2026-09-04 13:25:58 | 45.26572 | 9.23187 | 132° | 47km/h | 12151m | -6.5m/s | -54.8°C | 38.1% | 0hPa | 2.6V | 08:04:38 | 02:51:07 | 00:00:00 | |
| IW2NTF | 2026-09-04 13:25:48 | 45.26660 | 9.23070 | 137° | 46km/h | 12215m | -6.6m/s | -55.3°C | 40.7% | 0hPa | 2.5V | 08:04:48 | 02:50:57 | 00:00:00 | |
| IW2NTF | 2026-09-04 13:25:35 | 45.26749 | 9.22953 | 140° | 47km/h | 12280m | -6.6m/s | -55.9°C | 42.4% | 0hPa | 2.5V | 08:04:58 | 02:50:47 | 00:00:00 | |
| IW2NTF | 2026-09-04 13:25:25 | 45.26839 | 9.22837 | 137° | 51km/h | 12346m | -6.5m/s | -56.5°C | 45.5% | 0hPa | 2.6V | 08:05:08 | 02:50:37 | 00:00:00 | |
| IW2NTF | 2026-09-04 13:25:15 | 45.26936 | 9.22720 | 136° | 49km/h | 12412m | -6.6m/s | -57.1°C | 47% | 0hPa | 2.5V | 08:05:18 | 02:50:27 | 00:00:00 | |
| IW2NTF | 2026-09-04 13:25:04 | 45.27034 | 9.22605 | 141° | 46km/h | 12478m | -6.7m/s | -57.8°C | 50.6% | 0hPa | 2.5V | 08:05:28 | 02:50:17 | 00:00:00 | |
| IW2NTF | 2026-09-04 13:24:58 | 45.27126 | 9.22499 | 144° | 47km/h | 12545m | -6.5m/s | -58.3°C | 50.4% | 0hPa | 2.5V | 08:05:38 | 02:50:07 | 00:00:00 | |
| IW2NTF | 2026-09-04 13:24:48 | 45.27216 | 9.22404 | 140° | 46km/h | 12611m | -6.7m/s | -58.8°C | 54.5% | 0hPa | 2.5V | 08:05:48 | 02:49:57 | 00:00:00 | |
| IW2NTF | 2026-09-04 13:24:38 | 45.27307 | 9.22310 | 141° | 42km/h | 12678m | -6.6m/s | -59.5°C | 55.1% | 0hPa | 2.6V | 08:05:58 | 02:49:47 | 00:00:00 | |
| IW2NTF | 2026-09-04 13:24:29 | 45.27396 | 9.22222 | 146° | 40km/h | 12746m | -6.8m/s | -60.1°C | 55.6% | 0hPa | 2.5V | 08:06:08 | 02:49:37 | 00:00:00 | |
| IW2NTF | 2026-09-04 13:24:14 | 45.27497 | 9.22128 | 147° | 38km/h | 12828m | -6.7m/s | -60.8°C | 56.7% | 0hPa | 2.5V | 08:06:20 | 02:49:25 | 00:00:00 | |
| IW2NTF | 2026-09-04 13:24:03 | 45.27585 | 9.22039 | 145° | 44km/h | 12894m | -6.4m/s | -61.2°C | 57.2% | 0hPa | 2.5V | 08:06:30 | 02:49:15 | 00:00:00 | |
| IW2NTF | 2026-09-04 13:23:53 | 45.27675 | 9.21935 | 139° | 51km/h | 12960m | -6.7m/s | -61.5°C | 55.9% | 0hPa | 2.5V | 08:06:40 | 02:49:05 | 00:00:00 | |
| IW2NTF | 2026-09-04 13:23:43 | 45.27773 | 9.21824 | 135° | 49km/h | 13027m | -6.8m/s | -62°C | 55.7% | 0hPa | 2.6V | 08:06:50 | 02:48:55 | 00:00:00 | |
| IW2NTF | 2026-09-04 13:23:32 | 45.27872 | 9.21698 | 141° | 51km/h | 13095m | -6.8m/s | -62.5°C | 57.2% | 0hPa | 2.6V | 08:07:00 | 02:48:45 | 00:00:00 | |
| DO3MHA-11 | 2026-09-04 13:23:30 | 45.27882 | 9.21687 | 140° | 51km/h | 13102m | -6.8m/s | -62.5°C | 57.0% | 0hPa | 2.5V | 08:07:00 | 02:48:44 | 00:00:00 | |
| IW2NTF | 2026-09-04 13:23:22 | 45.27967 | 9.21579 | 139° | 53km/h | 13163m | -6.6m/s | -62.7°C | 54.6% | 0hPa | 2.5V | 08:07:10 | 02:48:35 | 00:00:00 | |
| DO3MHA-11 | 2026-09-04 13:23:20 | 45.27978 | 9.21567 | 142° | 49km/h | 13170m | -6.7m/s | -62.8°C | 54.5% | 0hPa | 2.5V | 00:00:00 | 02:48:34 | 00:00:00 | |
| IW2NTF | 2026-09-04 13:23:12 | 45.28064 | 9.21463 | 136° | 47km/h | 13232m | -6.9m/s | -63.3°C | 57% | 0hPa | 2.5V | 08:07:20 | 02:48:25 | 00:00:00 | |
| DO3MHA-11 | 2026-09-04 13:23:08 | 45.28091 | 9.21427 | 141° | 47km/h | 13252m | -6.7m/s | -63.4°C | 56.8% | 0hPa | 2.6V | 00:00:00 | 02:48:22 | 00:00:00 | |
| IW2NTF | 2026-09-04 13:23:02 | 45.28154 | 9.21346 | 136° | 47km/h | 13300m | -6.9m/s | -63.8°C | 54.5% | 0hPa | 2.6V | 08:07:30 | 02:48:15 | 00:00:00 | |
| IW2NTF | 2026-09-04 13:22:53 | 45.28242 | 9.21229 | 136° | 47km/h | 13368m | -6.8m/s | -64.3°C | 54% | 0hPa | 2.6V | 08:07:40 | 02:48:05 | 00:00:00 | |
| DO3MHA-11 | 2026-09-04 13:22:51 | 45.28242 | 9.21229 | 137° | 49km/h | 13369m | -6.7m/s | -64.3°C | 54.0% | 0hPa | 2.6V | 00:00:00 | 02:48:05 | 00:00:00 | |
| IW2NTF | 2026-09-04 13:22:42 | 45.28350 | 9.21083 | 139° | 49km/h | 13452m | -7m/s | -65°C | 52.1% | 0hPa | 2.5V | 08:07:52 | 02:47:53 | 00:00:00 | |
| DO3MHA-11 | 2026-09-04 13:22:41 | 45.28331 | 9.21106 | 138° | 51km/h | 13438m | -7.0m/s | -64.8°C | 52.8% | 0hPa | 2.6V | 00:00:00 | 02:47:55 | 00:00:00 | |
| IW2NTF | 2026-09-04 13:22:33 | 45.28440 | 9.20949 | 137° | 55km/h | 13522m | -7m/s | -65.5°C | 50.7% | 0hPa | 2.6V | 08:08:02 | 02:47:43 | 00:00:00 | |
| DO3MHA-11 | 2026-09-04 13:22:31 | 45.28420 | 9.20977 | 131° | 53km/h | 13508m | -7.0m/s | -65.3°C | 49.8% | 0hPa | 2.5V | 00:00:00 | 02:47:45 | 00:00:00 | |
| IW2NTF | 2026-09-04 13:22:22 | 45.28542 | 9.20804 | 131° | 58km/h | 13599m | -7.3m/s | -65.6°C | 48.3% | 0hPa | 2.5V | 08:08:13 | 02:47:32 | 00:00:00 | |
| DO3MHA-11 | 2026-09-04 13:22:21 | 45.28516 | 9.20848 | 133° | 55km/h | 13578m | -6.9m/s | -65.6°C | 49.0% | 0hPa | 2.5V | 00:00:00 | 02:47:35 | 00:00:00 | |
| DB0UT-7 | 2026-09-04 13:22:17 | 45.28552 | 9.20788 | 135° | 51km/h | 13607m | -7.0m/s | -65.6°C | 48.3% | 0hPa | 2.5V | 08:08:00 | 00:00:00 | 00:00:00 | |
| IW2NTF | 2026-09-04 13:22:12 | 45.28637 | 9.20669 | 129° | 47km/h | 13670m | -7m/s | -65.7°C | 44.6% | 0hPa | 2.6V | 08:08:23 | 02:47:22 | 00:00:00 | |
| DO3MHA-11 | 2026-09-04 13:22:11 | 45.28611 | 9.20707 | 138° | 47km/h | 13649m | -6.9m/s | -65.5°C | 46.4% | 0hPa | 2.5V | 00:00:00 | 02:47:25 | 00:00:00 | |
| IW2NTF | 2026-09-04 13:22:02 | 45.28720 | 9.20549 | 137° | 44km/h | 13741m | -7m/s | -65.7°C | 43.7% | 0hPa | 2.5V | 08:08:33 | 02:47:12 | 00:00:00 | |
| DO3MHA-11 | 2026-09-04 13:22:01 | 45.28695 | 9.20583 | 134° | 46km/h | 13720m | -7.1m/s | -65.6°C | 43.8% | 0hPa | 2.6V | 00:00:00 | 02:47:15 | 00:00:00 | |
| IW2NTF | 2026-09-04 13:21:52 | 45.28797 | 9.20431 | 135° | 46km/h | 13812m | -7.1m/s | -66.2°C | 43.2% | 0hPa | 2.6V | 08:08:43 | 02:47:02 | 00:00:00 | |
| DO3MHA-11 | 2026-09-04 13:21:51 | 45.28774 | 9.20467 | 131° | 44km/h | 13791m | -7.1m/s | -66.0°C | 43.1% | 0hPa | 2.5V | 08:08:00 | 02:47:05 | 00:00:00 | |
| IW2NTF | 2026-09-04 13:21:41 | 45.28869 | 9.20314 | 127° | 47km/h | 13883m | -7.1m/s | -66.6°C | 42% | 0hPa | 2.5V | 08:08:53 | 02:46:52 | 00:00:00 | |
| DO3MHA-11 | 2026-09-04 13:21:41 | 45.28849 | 9.20352 | 130° | 46km/h | 13862m | -6.8m/s | -66.4°C | 42.5% | 0hPa | 2.5V | 00:00:00 | 02:46:55 | 00:00:00 | |
| IW2NTF | 2026-09-04 13:21:33 | 45.28940 | 9.20179 | 123° | 49km/h | 13954m | -7m/s | -67°C | 41.4% | 0hPa | 2.5V | 08:09:03 | 02:46:42 | 00:00:00 | |
| DB0UT-7 | 2026-09-04 13:21:33 | 45.28904 | 9.20248 | 124° | 53km/h | 13919m | -7.0m/s | -66.8°C | 41.6% | 0hPa | 2.6V | 00:00:00 | 02:46:47 | 00:00:00 | |
| DO3MHA-11 | 2026-09-04 13:21:31 | 45.28919 | 9.20220 | 129° | 49km/h | 13933m | -7.1m/s | -66.9°C | 41.8% | 0hPa | 2.6V | 00:00:00 | 02:46:45 | 00:00:00 | |
| IW2NTF | 2026-09-04 13:21:21 | 45.29011 | 9.20030 | 122° | 49km/h | 14024m | -7m/s | -67.2°C | 40.4% | 0hPa | 2.6V | 08:09:13 | 02:46:32 | 00:00:00 | |
| DO3MHA-11 | 2026-09-04 13:21:21 | 45.28989 | 9.20075 | 124° | 53km/h | 14003m | -6.8m/s | -67.2°C | 41.0% | 0hPa | 2.5V | 00:00:00 | 02:46:35 | 00:00:00 | |
| IW2NTF | 2026-09-04 13:21:11 | 45.29082 | 9.19861 | 119° | 58km/h | 14096m | -7.2m/s | -67.5°C | 38.6% | 0hPa | 2.5V | 08:09:23 | 02:46:22 | 00:00:00 | |
| DO3MHA-11 | 2026-09-04 13:21:11 | 45.29060 | 9.19917 | 117° | 60km/h | 14075m | -7.0m/s | -67.3°C | 38.5% | 0hPa | 2.5V | 00:00:00 | 02:46:25 | 00:00:00 | |
| IW2NTF | 2026-09-04 13:21:04 | 45.29157 | 9.19674 | 121° | 60km/h | 14168m | -7.1m/s | -67.5°C | 36.9% | 0hPa | 2.5V | 08:09:33 | 02:46:12 | 00:00:00 | |
| DB0UT-7 | 2026-09-04 13:21:03 | 45.29119 | 9.19764 | 123° | 53km/h | 14132m | -6.9m/s | -67.6°C | 39.0% | 0hPa | 2.5V | 00:00:00 | 00:00:00 | 00:00:00 | |
| DO3MHA-11 | 2026-09-04 13:21:01 | 45.29134 | 9.19729 | 121° | 58km/h | 14146m | -7.2m/s | -67.6°C | 38.7% | 0hPa | 2.5V | 00:00:00 | 02:46:15 | 00:00:00 | |
| IW2NTF | 2026-09-04 13:20:51 | 45.29230 | 9.19501 | 120° | 53km/h | 14241m | -7.2m/s | -67.8°C | 36.4% | 0hPa | 2.5V | 08:09:43 | 02:46:02 | 00:00:00 | |
| DO3MHA-11 | 2026-09-04 13:20:51 | 45.29209 | 9.19549 | 124° | 51km/h | 14219m | -7.1m/s | -67.6°C | 36.3% | 0hPa | 2.6V | 00:00:00 | 02:46:05 | 00:00:00 | |
| IW2NTF | 2026-09-04 13:20:41 | 45.29301 | 9.19363 | 127° | 42km/h | 14314m | -7.5m/s | -68.1°C | 33.3% | 0hPa | 2.6V | 08:09:53 | 02:45:52 | 00:00:00 | |
| DO3MHA-11 | 2026-09-04 13:20:41 | 45.29280 | 9.19400 | 127° | 44km/h | 14292m | -7.3m/s | -68.2°C | 34.4% | 0hPa | 2.6V | 00:00:00 | 02:45:55 | 00:00:00 | |
| DB0UT-7 | 2026-09-04 13:20:33 | 45.29336 | 9.19301 | 130° | 47km/h | 14350m | -7.2m/s | -67.9°C | 33.3% | 0hPa | 2.6V | 00:00:00 | 02:45:47 | 00:00:00 | |
| IW2NTF | 2026-09-04 13:20:31 | 45.29368 | 9.19237 | 125° | 42km/h | 14387m | -7m/s | -68°C | 33.8% | 0hPa | 2.6V | 08:10:03 | 02:45:42 | 00:00:00 | |
| DO3MHA-11 | 2026-09-04 13:20:31 | 45.29349 | 9.19276 | 123° | 42km/h | 14365m | -7.4m/s | -67.9°C | 33.7% | 0hPa | 2.5V | 00:00:00 | 02:45:45 | 00:00:00 | |
| DO3MHA-11 | 2026-09-04 13:20:21 | 45.29403 | 9.19144 | 112° | 47km/h | 14440m | -7.3m/s | -67.7°C | 29.4% | 0hPa | 2.5V | 08:10:00 | 02:45:35 | 00:00:00 | |
| IW2NTF | 2026-09-04 13:20:20 | 45.29415 | 9.19099 | 112° | 47km/h | 14462m | -7.7m/s | -67.4°C | 27.5% | 0hPa | 2.6V | 08:10:13 | 02:45:32 | 00:00:00 | |
| IW2NTF | 2026-09-04 13:20:13 | 45.29464 | 9.18934 | 115° | 51km/h | 14538m | -7.5m/s | -66.8°C | 23.2% | 0hPa | 2.6V | 08:10:23 | 02:45:22 | 00:00:00 | |
| DO3MHA-11 | 2026-09-04 13:20:11 | 45.29447 | 9.18982 | 117° | 53km/h | 14515m | -7.3m/s | -66.8°C | 24.1% | 0hPa | 2.6V | 00:00:00 | 02:45:25 | 00:00:00 | |
| DB0UT-7 | 2026-09-04 13:20:03 | 45.29496 | 9.18851 | 118° | 58km/h | 14576m | -7.6m/s | -66.6°C | 22.1% | 0hPa | 2.6V | 00:00:00 | 00:00:00 | 00:00:00 | |
| DO3MHA-11 | 2026-09-04 13:20:01 | 45.29510 | 9.18814 | 121° | 60km/h | 14592m | -7.8m/s | -66.5°C | 21.6% | 0hPa | 2.6V | 00:00:00 | 02:45:15 | 00:00:00 | |
| IW2NTF | 2026-09-04 13:20:00 | 45.29537 | 9.18759 | 125° | 58km/h | 14615m | -7.4m/s | -66.4°C | 21.1% | 0hPa | 2.6V | 08:10:33 | 02:45:12 | 00:00:00 | |
| DO3MHA-11 | 2026-09-04 13:19:51 | 45.29601 | 9.18639 | 127° | 60km/h | 14669m | -7.8m/s | -66.4°C | 20.3% | 0hPa | 2.5V | 00:00:00 | 02:45:05 | 00:00:00 | |
| IW2NTF | 2026-09-04 13:19:50 | 45.29631 | 9.18587 | 132° | 62km/h | 14693m | -7.5m/s | -66.2°C | 19.4% | 0hPa | 2.6V | 08:10:43 | 02:45:02 | 00:00:00 | |
| IW2NTF | 2026-09-04 13:19:43 | 45.29736 | 9.18440 | 134° | 57km/h | 14771m | -8.2m/s | -65.9°C | 17.8% | 0hPa | 2.6V | 08:10:53 | 02:44:52 | 00:00:00 | |
| DO3MHA-11 | 2026-09-04 13:19:41 | 45.29707 | 9.18483 | 137° | 53km/h | 14748m | -7.9m/s | -65.9°C | 18.2% | 0hPa | 2.6V | 00:00:00 | 02:44:55 | 00:00:00 | |
| DB0UT-7 | 2026-09-04 13:19:33 | 45.29782 | 9.18373 | 132° | 46km/h | 14811m | -8.0m/s | -65.7°C | 16.7% | 0hPa | 2.6V | 00:00:00 | 02:44:47 | 00:00:00 | |
| DO3MHA-11 | 2026-09-04 13:19:31 | 45.29800 | 9.18346 | 135° | 49km/h | 14827m | -7.8m/s | -65.3°C | 16.0% | 0hPa | 2.6V | 00:00:00 | 02:44:45 | 00:00:00 | |
| IW2NTF | 2026-09-04 13:19:30 | 45.29823 | 9.18305 | 122° | 51km/h | 14851m | -8.1m/s | -65°C | 15.1% | 0hPa | 2.6V | 08:11:03 | 02:44:42 | 00:00:00 | |
| DO3MHA-11 | 2026-09-04 13:19:21 | 45.29873 | 9.18207 | 131° | 42km/h | 14908m | -8.1m/s | -64.6°C | 13.9% | 0hPa | 2.5V | 00:00:00 | 02:44:35 | 00:00:00 | |
| IW2NTF | 2026-09-04 13:19:20 | 45.29895 | 9.18174 | 128° | 38km/h | 14932m | -8.5m/s | -64.3°C | 12.5% | 0hPa | 2.6V | 08:11:13 | 02:44:32 | 00:00:00 | |
| DO3MHA-11 | 2026-09-04 13:19:11 | 45.29939 | 9.18087 | 124° | 47km/h | 14990m | -8.1m/s | -64.5°C | 12.5% | 0hPa | 2.6V | 00:00:00 | 02:44:25 | 00:00:00 | |
| IW2NTF | 2026-09-04 13:19:09 | 45.29961 | 9.18047 | 129° | 46km/h | 15014m | -7.9m/s | -64.1°C | 12.2% | 0hPa | 2.6V | 08:11:23 | 02:44:22 | 00:00:00 | |
| IW2NTF | 2026-09-04 13:19:03 | 45.30033 | 9.17914 | 130° | 47km/h | 15096m | -8.3m/s | -64.5°C | 11.3% | 0hPa | 2.6V | 08:11:33 | 02:44:12 | 00:00:00 | |
| DB0UT-7 | 2026-09-04 13:19:03 | 45.29995 | 9.17979 | 130° | 46km/h | 15056m | -8.3m/s | -64.2°C | 11.6% | 0hPa | 2.6V | 00:00:00 | 00:00:00 | 00:00:00 | |
| DO3MHA-11 | 2026-09-04 13:19:01 | 45.30011 | 9.17953 | 131° | 46km/h | 15072m | -7.8m/s | -64.4°C | 11.4% | 0hPa | 2.6V | 00:00:00 | 02:44:15 | 00:00:00 | |
| IW2NTF | 2026-09-04 13:18:53 | 45.30104 | 9.17790 | 125° | 46km/h | 15179m | -8.3m/s | -64°C | 10.7% | 0hPa | 2.6V | 08:11:43 | 02:44:02 | 00:00:00 | |
| DO3MHA-11 | 2026-09-04 13:18:51 | 45.30084 | 9.17827 | 131° | 44km/h | 15154m | -8.3m/s | -64.0°C | 10.8% | 0hPa | 2.5V | 08:11:00 | 02:44:05 | 00:00:00 | |
| IW2NTF | 2026-09-04 13:18:43 | 45.30175 | 9.17671 | 127° | 47km/h | 15262m | -8.2m/s | -64.2°C | 10.6% | 0hPa | 2.5V | 08:11:53 | 02:43:52 | 00:00:00 | |
| DO3MHA-11 | 2026-09-04 13:18:41 | 45.30153 | 9.17707 | 134° | 47km/h | 15237m | -8.3m/s | -64.2°C | 10.7% | 0hPa | 2.5V | 00:00:00 | 02:43:55 | 00:00:00 | |
| DO3MHA-11 | 2026-09-04 13:18:31 | 45.30229 | 9.17579 | 130° | 46km/h | 15321m | -8.3m/s | -64.0°C | 10.1% | 0hPa | 2.5V | 00:00:00 | 02:43:45 | 00:00:00 | |
| DF1GD-15 | 2026-09-04 13:18:30 | 45.30229 | 9.17579 | 130° | 47km/h | 15321m | -8.3m/s | -64.1°C | 5.6% | 0hPa | 2.5V | 08:12:00 | 00:00:00 | 00:00:00 | |
| IW2NTF | 2026-09-04 13:18:29 | 45.30252 | 9.17543 | 130° | 40km/h | 15346m | -8.4m/s | -63.7°C | 9.7% | 0hPa | 2.5V | 08:12:03 | 02:43:42 | 00:00:00 | |
| DO3MHA-11 | 2026-09-04 13:18:21 | 45.30300 | 9.17453 | 126° | 47km/h | 15405m | -8.3m/s | -63.1°C | 9.3% | 0hPa | 2.5V | 00:00:00 | 02:43:35 | 00:00:00 | |
| IW2NTF | 2026-09-04 13:18:19 | 45.30322 | 9.17413 | 127° | 44km/h | 15430m | -8.5m/s | -63.3°C | 9.2% | 0hPa | 2.5V | 08:12:13 | 02:43:32 | 00:00:00 | |
| IW2NTF | 2026-09-04 13:18:13 | 45.30386 | 9.17256 | 118° | 55km/h | 15516m | -8.6m/s | -63.3°C | 9.1% | 0hPa | 2.6V | 08:12:23 | 02:43:22 | 00:00:00 | |
| DO3MHA-11 | 2026-09-04 13:18:11 | 45.30367 | 9.17308 | 119° | 53km/h | 15491m | -8.5m/s | -63.3°C | 9.0% | 0hPa | 2.5V | 00:00:00 | 02:43:25 | 00:00:00 | |
| DF1GD-15 | 2026-09-04 13:18:06 | 45.30392 | 9.17239 | 120° | 53km/h | 15525m | -8.5m/s | -63.1°C | 4.6% | 0hPa | 2.5V | 08:12:00 | 00:00:00 | 00:00:00 | |
| IW2NTF | 2026-09-04 13:18:03 | 45.30449 | 9.17097 | 121° | 53km/h | 15601m | -8.6m/s | -62.5°C | 8.6% | 0hPa | 2.5V | 08:12:33 | 02:43:12 | 00:00:00 | |
| DB0UT-7 | 2026-09-04 13:18:03 | 45.30416 | 9.17174 | 120° | 44km/h | 15559m | -8.4m/s | -62.5°C | 8.4% | 0hPa | 2.5V | 00:00:00 | 00:00:00 | 00:00:00 | |
| DO3MHA-11 | 2026-09-04 13:18:01 | 45.30430 | 9.17142 | 124° | 47km/h | 15576m | -8.4m/s | -62.5°C | 8.5% | 0hPa | 2.5V | 00:00:00 | 02:43:15 | 00:00:00 | |
| IW2NTF | 2026-09-04 13:17:54 | 45.30515 | 9.16965 | 122° | 37km/h | 15687m | -8.6m/s | -62.1°C | 8% | 0hPa | 2.5V | 08:12:43 | 02:43:02 | 00:00:00 | |
| DO3MHA-11 | 2026-09-04 13:17:50 | 45.30503 | 9.16986 | 131° | 38km/h | 15670m | -8.2m/s | -62.1°C | 8.2% | 0hPa | 2.6V | 00:00:00 | 02:43:04 | 00:00:00 | |
| DF1GD-15 | 2026-09-04 13:17:45 | 45.30525 | 9.16942 | 123° | 38km/h | 15704m | -8.2m/s | -62.0°C | 4.0% | 0hPa | 2.6V | 08:13:00 | 00:00:00 | 00:00:00 | |
| IW2NTF | 2026-09-04 13:17:42 | 45.30561 | 9.16843 | 113° | 38km/h | 15771m | -8.3m/s | -61.5°C | 7.8% | 0hPa | 2.6V | 08:12:53 | 02:42:52 | 00:00:00 | |
| DO3MHA-11 | 2026-09-04 13:17:40 | 45.30551 | 9.16869 | 117° | 40km/h | 15754m | -8.4m/s | -61.5°C | 7.7% | 0hPa | 2.5V | 00:00:00 | 02:42:54 | 00:00:00 | |
| IW2NTF | 2026-09-04 13:17:33 | 45.30598 | 9.16712 | 114° | 35km/h | 15855m | -8.7m/s | -61.3°C | 7.3% | 0hPa | 2.5V | 08:13:03 | 02:42:42 | 00:00:00 | |
| DB0UT-7 | 2026-09-04 13:17:33 | 45.30581 | 9.16777 | 115° | 31km/h | 15813m | -8.4m/s | -61.4°C | 7.6% | 0hPa | 2.7V | 08:12:00 | 02:42:47 | 00:00:00 | |
| DO3MHA-11 | 2026-09-04 13:17:30 | 45.30591 | 9.16738 | 111° | 33km/h | 15839m | -8.4m/s | -61.5°C | 7.5% | 0hPa | 2.5V | 00:00:00 | 02:42:44 | 00:00:00 | |
| DF1GD-15 | 2026-09-04 13:17:24 | 45.30607 | 9.16679 | 108° | 35km/h | 15882m | -8.6m/s | -61.2°C | 3.6% | 0hPa | 2.5V | 08:13:00 | 00:00:00 | 00:00:00 | |
| IW2NTF | 2026-09-04 13:17:23 | 45.30624 | 9.16607 | 113° | 31km/h | 15943m | -9.1m/s | -61.2°C | 7.3% | 0hPa | 2.5V | 08:13:13 | 02:42:32 | 00:00:00 | |
| DO3MHA-11 | 2026-09-04 13:17:20 | 45.30619 | 9.16628 | 104° | 27km/h | 15925m | -8.8m/s | -61.2°C | 7.2% | 0hPa | 2.7V | 08:13:00 | 02:42:34 | 00:00:00 | |
| IW2NTF | 2026-09-04 13:17:13 | 45.30643 | 9.16516 | 95° | 29km/h | 16033m | -8.9m/s | -61.6°C | 7.7% | 0hPa | 2.7V | 08:13:23 | 02:42:22 | 00:00:00 | |
| DO3MHA-11 | 2026-09-04 13:17:10 | 45.30641 | 9.16534 | 104° | 31km/h | 16015m | -9.0m/s | -61.5°C | 7.7% | 0hPa | 2.5V | 00:00:00 | 02:42:24 | 00:00:00 | |
| IW2NTF | 2026-09-04 13:17:03 | 45.30643 | 9.16406 | 72° | 29km/h | 16125m | -9.6m/s | -61.4°C | 7.1% | 0hPa | 2.5V | 08:13:33 | 02:42:12 | 00:00:00 | |
| DB0UT-7 | 2026-09-04 13:17:03 | 45.30647 | 9.16461 | 87° | 37km/h | 16078m | -9.1m/s | -61.7°C | 7.2% | 0hPa | 2.7V | 00:00:00 | 00:00:00 | 00:00:00 | |
| DO3MHA-11 | 2026-09-04 13:17:00 | 45.30646 | 9.16426 | 87° | 35km/h | 16106m | -9.0m/s | -61.4°C | 7.2% | 0hPa | 2.7V | 00:00:00 | 02:42:14 | 00:00:00 | |
| IW2NTF | 2026-09-04 13:16:53 | 45.30636 | 9.16276 | 93° | 35km/h | 16216m | -8.7m/s | -61.6°C | 7.1% | 0hPa | 2.7V | 08:13:43 | 02:42:02 | 00:00:00 | |
| DO3MHA-11 | 2026-09-04 13:16:50 | 45.30634 | 9.16302 | 93° | 35km/h | 16198m | -9.0m/s | -61.5°C | 7.1% | 0hPa | 2.5V | 00:00:00 | 02:42:04 | 00:00:00 | |
| IW2NTF | 2026-09-04 13:16:43 | 45.30650 | 9.16138 | 100° | 38km/h | 16317m | -9.3m/s | -61.9°C | 7.1% | 0hPa | 2.5V | 08:13:54 | 02:41:51 | 00:00:00 | |
| DO3MHA-11 | 2026-09-04 13:16:40 | 45.30643 | 9.16177 | 102° | 40km/h | 16289m | -9.3m/s | -61.8°C | 7.1% | 0hPa | 2.7V | 00:00:00 | 02:41:54 | 00:00:00 | |
| DB0UT-7 | 2026-09-04 13:16:33 | 45.30660 | 9.16080 | 112° | 33km/h | 16355m | -9.1m/s | -62.2°C | 7.6% | 0hPa | 2.7V | 00:00:00 | 02:41:47 | 00:00:00 | |
| DO3MHA-11 | 2026-09-04 13:16:30 | 45.30670 | 9.16041 | 111° | 37km/h | 16383m | -9.4m/s | -62.4°C | 7.7% | 0hPa | 2.7V | 00:00:00 | 02:41:44 | 00:00:00 | |
| IW2NTF | 2026-09-04 13:16:28 | 45.30685 | 9.16003 | 122° | 38km/h | 16411m | -9.5m/s | -62.6°C | 7.8% | 0hPa | 2.7V | 08:14:04 | 02:41:41 | 00:00:00 | |
| DF1GD-15 | 2026-09-04 13:16:23 | 45.30698 | 9.15968 | 119° | 38km/h | 16440m | -9.3m/s | -62.5°C | 3.5% | 0hPa | 2.7V | 08:14:00 | 00:00:00 | 00:00:00 | |
| DO3MHA-11 | 2026-09-04 13:16:20 | 45.30715 | 9.15927 | 115° | 31km/h | 16478m | -9.5m/s | -62.1°C | 7.5% | 0hPa | 2.7V | 00:00:00 | 02:41:34 | 00:00:00 | |
| IW2NTF | 2026-09-04 13:16:18 | 45.30726 | 9.15896 | 120° | 31km/h | 16507m | -9.6m/s | -61°C | 6.7% | 0hPa | 2.5V | 08:14:14 | 02:41:31 | 00:00:00 | |
| DO3MHA-11 | 2026-09-04 13:16:10 | 45.30747 | 9.15826 | 113° | 31km/h | 16575m | -9.5m/s | -60.9°C | 6.6% | 0hPa | 2.6V | 00:00:00 | 02:41:24 | 00:00:00 | |
| IW2NTF | 2026-09-04 13:16:08 | 45.30754 | 9.15795 | 107° | 33km/h | 16605m | -9.7m/s | -61.1°C | 6.5% | 0hPa | 2.6V | 08:14:24 | 02:41:21 | 00:00:00 | |
| DB0UT-7 | 2026-09-04 13:16:03 | 45.30765 | 9.15754 | 107° | 40km/h | 16643m | -9.5m/s | -61.2°C | 6.6% | 0hPa | 2.5V | 00:00:00 | 00:00:00 | 00:00:00 | |
| DF1GD-15 | 2026-09-04 13:16:02 | 45.30765 | 9.15754 | 107° | 29km/h | 16643m | -9.5m/s | -61.3°C | 3.0% | 0hPa | 2.5V | 08:15:00 | 00:00:00 | 00:00:00 | |
| DO3MHA-11 | 2026-09-04 13:16:00 | 45.30772 | 9.15724 | 112° | 33km/h | 16673m | -9.7m/s | -61.2°C | 6.5% | 0hPa | 2.5V | 00:00:00 | 02:41:14 | 00:00:00 | |
| IW2NTF | 2026-09-04 13:15:58 | 45.30780 | 9.15673 | 108° | 35km/h | 16721m | -9.8m/s | -61.3°C | 6.7% | 0hPa | 2.5V | 08:14:36 | 02:41:09 | 00:00:00 | |
| IW2NTF | 2026-09-04 13:15:50 | 45.30811 | 9.15547 | 105° | 42km/h | 16819m | -9.3m/s | -61.4°C | 6.5% | 0hPa | 2.7V | 08:14:46 | 02:40:59 | 00:00:00 | |
| DO3MHA-11 | 2026-09-04 13:15:50 | 45.30796 | 9.15611 | 113° | 40km/h | 16770m | -9.9m/s | -61.5°C | 6.8% | 0hPa | 2.7V | 08:14:00 | 02:41:04 | 00:00:00 | |
| DF1GD-15 | 2026-09-04 13:15:41 | 45.30821 | 9.15502 | 107° | 44km/h | 16849m | -9.9m/s | -61.4°C | 2.9% | 0hPa | 2.5V | 08:15:00 | 00:00:00 | 00:00:00 | |
| IW2NTF | 2026-09-04 13:15:40 | 45.30850 | 9.15385 | 108° | 51km/h | 16918m | -9.8m/s | -61.4°C | 6.6% | 0hPa | 2.5V | 08:14:56 | 02:40:49 | 00:00:00 | |
| DO3MHA-11 | 2026-09-04 13:15:40 | 45.30827 | 9.15469 | 107° | 49km/h | 16869m | -9.9m/s | -61.5°C | 6.7% | 0hPa | 2.5V | 00:00:00 | 02:40:54 | 00:00:00 | |
| DB0UT-7 | 2026-09-04 13:15:33 | 45.30859 | 9.15351 | 114° | 38km/h | 16938m | -10.0m/s | -61.3°C | 6.6% | 0hPa | 2.5V | 00:00:00 | 02:40:47 | 00:00:00 | |
| IW2NTF | 2026-09-04 13:15:30 | 45.30900 | 9.15235 | 119° | 40km/h | 17019m | -9.9m/s | -61.4°C | 6.3% | 0hPa | 2.5V | 08:15:06 | 02:40:39 | 00:00:00 | |
| NBG1-10 | 2026-09-04 13:15:30 | 45.30873 | 9.15305 | 111° | 35km/h | 16968m | -10.3m/s | -61.1°C | 6.3% | 0hPa | 2.7V | 00:00:00 | 02:40:44 | 00:00:00 | |
| DF1GD-15 | 2026-09-04 13:15:21 | 45.30915 | 9.15195 | 120° | 44km/h | 17049m | -10.1m/s | -61.3°C | 2.7% | 0hPa | 2.7V | 08:15:00 | 00:00:00 | 00:00:00 | |
| DO3MHA-11 | 2026-09-04 13:15:20 | 45.30925 | 9.15169 | 117° | 38km/h | 17069m | -10.1m/s | -61.2°C | 6.5% | 0hPa | 2.7V | 00:00:00 | 02:40:34 | 00:00:00 | |
| IW2NTF | 2026-09-04 13:15:19 | 45.30960 | 9.15082 | 126° | 35km/h | 17139m | -10.2m/s | -61.6°C | 6.6% | 0hPa | 2.7V | 08:15:18 | 02:40:27 | 00:00:00 | |
| DO3MHA-11 | 2026-09-04 13:15:10 | 45.30976 | 9.15053 | 135° | 26km/h | 17169m | -10.2m/s | -61.7°C | 6.7% | 0hPa | 2.6V | 00:00:00 | 02:40:24 | 00:00:00 | |
| IW2NTF | 2026-09-04 13:15:04 | 45.31001 | 9.14999 | 108° | 20km/h | 17239m | -10.1m/s | -60.9°C | 6.4% | 0hPa | 2.6V | 08:15:28 | 02:40:17 | 00:00:00 | |
| DO3MHA-11 | 2026-09-04 13:15:00 | 45.31007 | 9.14977 | 121° | 16km/h | 17271m | -10.2m/s | -60.6°C | 6.2% | 0hPa | 2.6V | 00:00:00 | 02:40:14 | 00:00:00 | |
| NBG1-10 | 2026-09-04 13:14:57 | 45.31014 | 9.14962 | 110° | 24km/h | 17302m | -10.5m/s | -60.4°C | 6.1% | 0hPa | 2.6V | 00:00:00 | 02:40:11 | 00:00:00 | |
| IW2NTF | 2026-09-04 13:14:56 | 45.31021 | 9.14941 | 119° | 13km/h | 17343m | -10.4m/s | -60°C | 5.9% | 0hPa | 2.6V | 08:15:38 | 02:40:07 | 00:00:00 | |
| DO3MHA-11 | 2026-09-04 13:14:50 | 45.31023 | 9.14925 | 93° | 20km/h | 17375m | -10.3m/s | -59.8°C | 5.9% | 0hPa | 2.7V | 00:00:00 | 02:40:04 | 00:00:00 | |
| IW2NTF | 2026-09-04 13:14:48 | 45.31021 | 9.14876 | 88° | 24km/h | 17448m | -10.2m/s | -59.7°C | 5.8% | 0hPa | 2.7V | 08:15:48 | 02:39:57 | 00:00:00 | |
| DF1GD-15 | 2026-09-04 13:14:40 | 45.31017 | 9.14852 | 70° | 27km/h | 17480m | -10.5m/s | -59.6°C | 2.2% | 0hPa | 2.6V | 08:15:00 | 00:00:00 | 00:00:00 | |
| IW2NTF | 2026-09-04 13:14:36 | 45.31005 | 9.14781 | 81° | 31km/h | 17554m | -10.8m/s | -59.5°C | 5.5% | 0hPa | 2.6V | 08:15:58 | 02:39:47 | 00:00:00 | |
| DB0UT-7 | 2026-09-04 13:14:33 | 45.31005 | 9.14781 | 82° | 35km/h | 17554m | -10.7m/s | -59.4°C | 5.5% | 0hPa | 2.6V | 00:00:00 | 02:39:47 | 00:00:00 | |
| DO3MHA-11 | 2026-09-04 13:14:30 | 45.31003 | 9.14752 | 80° | 33km/h | 17586m | -10.5m/s | -59.4°C | 5.5% | 0hPa | 2.7V | 00:00:00 | 02:39:44 | 00:00:00 | |
| IW2NTF | 2026-09-04 13:14:24 | 45.30993 | 9.14673 | 80° | 40km/h | 17660m | -10.6m/s | -59.8°C | 5.8% | 0hPa | 2.7V | 08:16:08 | 02:39:37 | 00:00:00 | |
| NBG1-10 | 2026-09-04 13:14:24 | 45.30995 | 9.14686 | 78° | 33km/h | 17649m | -10.3m/s | -59.7°C | 5.8% | 0hPa | 2.6V | 00:00:00 | 02:39:38 | 00:00:00 | |
| DO3MHA-11 | 2026-09-04 13:14:20 | 45.30993 | 9.14631 | 98° | 38km/h | 17692m | -10.4m/s | -60.0°C | 5.9% | 0hPa | 2.6V | 08:16:00 | 02:39:34 | 00:00:00 | |
| DF1GD-15 | 2026-09-04 13:14:19 | 45.30993 | 9.14631 | 98° | 38km/h | 17692m | -10.4m/s | -60.1°C | 2.4% | 0hPa | 2.7V | 08:16:00 | 00:00:00 | 00:00:00 | |
| IW2NTF | 2026-09-04 13:14:18 | 45.31006 | 9.14537 | 101° | 35km/h | 17767m | -10.6m/s | -59.8°C | 5.8% | 0hPa | 2.7V | 08:16:18 | 02:39:27 | 00:00:00 | |
| DO3MHA-11 | 2026-09-04 13:14:10 | 45.31013 | 9.14497 | 110° | 31km/h | 17799m | -10.5m/s | -59.4°C | 5.6% | 0hPa | 2.6V | 00:00:00 | 02:39:24 | 00:00:00 | |
| IW2NTF | 2026-09-04 13:14:08 | 45.31036 | 9.14421 | 119° | 27km/h | 17874m | -10.6m/s | -59.5°C | 5.6% | 0hPa | 2.6V | 08:16:28 | 02:39:17 | 00:00:00 | |
| DO3MHA-11 | 2026-09-04 13:14:00 | 45.31044 | 9.14395 | 116° | 24km/h | 17907m | -10.8m/s | -59.4°C | 5.7% | 0hPa | 2.6V | 00:00:00 | 02:39:14 | 00:00:00 | |
| IW2NTF | 2026-09-04 13:13:58 | 45.31062 | 9.14340 | 123° | 27km/h | 17984m | -10.8m/s | -59.3°C | 5.4% | 0hPa | 2.6V | 08:16:38 | 02:39:07 | 00:00:00 | |
| NBG1-10 | 2026-09-04 13:13:51 | 45.31069 | 9.14324 | 117° | 29km/h | 18005m | -10.8m/s | -59.3°C | 5.4% | 0hPa | 2.6V | 00:00:00 | 02:39:05 | 00:00:00 | |
| DO3MHA-11 | 2026-09-04 13:13:50 | 45.31071 | 9.14316 | 116° | 24km/h | 18016m | -10.8m/s | -59.4°C | 5.5% | 0hPa | 2.6V | 00:00:00 | 02:39:04 | 00:00:00 | |
| IW2NTF | 2026-09-04 13:13:48 | 45.31090 | 9.14263 | 113° | 24km/h | 18093m | -11.2m/s | -59.1°C | 5.3% | 0hPa | 2.7V | 08:16:48 | 02:38:57 | 00:00:00 | |
| DO3MHA-11 | 2026-09-04 13:13:40 | 45.31095 | 9.14241 | 97° | 29km/h | 18127m | -11.1m/s | -59.2°C | 5.4% | 0hPa | 2.6V | 00:00:00 | 02:38:54 | 00:00:00 | |
| DF1GD-15 | 2026-09-04 13:13:38 | 45.31095 | 9.14232 | 101° | 27km/h | 18138m | -11.0m/s | -59.3°C | 2.1% | 0hPa | 2.6V | 08:17:00 | 00:00:00 | 00:00:00 | |
| IW2NTF | 2026-09-04 13:13:37 | 45.31108 | 9.14173 | 111° | 35km/h | 18204m | -11.1m/s | -59.6°C | 5.6% | 0hPa | 2.6V | 08:16:58 | 02:38:47 | 00:00:00 | |
| DB0UT-7 | 2026-09-04 13:13:33 | 45.31108 | 9.14173 | 112° | 27km/h | 18204m | -11.1m/s | -59.5°C | 5.6% | 0hPa | 2.6V | 00:00:00 | 02:38:47 | 00:00:00 | |
| DO3MHA-11 | 2026-09-04 13:13:30 | 45.31120 | 9.14142 | 121° | 33km/h | 18238m | -11.2m/s | -59.4°C | 5.5% | 0hPa | 2.6V | 00:00:00 | 02:38:44 | 00:00:00 | |
| IW2NTF | 2026-09-04 13:13:24 | 45.31151 | 9.14073 | 121° | 35km/h | 18316m | -11.3m/s | -59.8°C | 5.5% | 0hPa | 2.6V | 08:17:08 | 02:38:37 | 00:00:00 | |
| DO3MHA-11 | 2026-09-04 13:13:20 | 45.31166 | 9.14045 | 133° | 27km/h | 18350m | -11.2m/s | -59.7°C | 5.5% | 0hPa | 2.7V | 00:00:00 | 02:38:34 | 00:00:00 | |
| IW2NTF | 2026-09-04 13:13:19 | 45.31198 | 9.13992 | 127° | 27km/h | 18429m | -11.4m/s | -59.9°C | 5.9% | 0hPa | 2.6V | 08:17:18 | 02:38:27 | 00:00:00 | |
| NBG1-10 | 2026-09-04 13:13:17 | 45.31180 | 9.14021 | 129° | 22km/h | 18384m | -11.3m/s | -59.8°C | 5.6% | 0hPa | 2.6V | 08:17:00 | 02:38:31 | 00:00:00 | |
| DO3MHA-11 | 2026-09-04 13:13:10 | 45.31212 | 9.13971 | 138° | 27km/h | 18464m | -11.5m/s | -59.7°C | 5.8% | 0hPa | 2.7V | 00:00:00 | 02:38:24 | 00:00:00 | |
| IW2NTF | 2026-09-04 13:13:08 | 45.31229 | 9.13930 | 107° | 16km/h | 18544m | -11.8m/s | -59.6°C | 5.6% | 0hPa | 2.7V | 08:17:28 | 02:38:17 | 00:00:00 | |
| DB0UT-7 | 2026-09-04 13:13:03 | 45.31229 | 9.13930 | 108° | 16km/h | 18545m | -11.7m/s | -59.5°C | 5.6% | 0hPa | 2.7V | 08:17:00 | 00:00:00 | 00:00:00 | |
| IW2NTF | 2026-09-04 13:12:58 | 45.31263 | 9.13850 | 141° | 22km/h | 18661m | -11.8m/s | -59.2°C | 5.6% | 0hPa | 2.7V | 08:17:38 | 02:38:07 | 00:00:00 | |
| DF1GD-15 | 2026-09-04 13:12:57 | 45.31242 | 9.13891 | 118° | 27km/h | 18602m | -11.5m/s | -59.5°C | 2.2% | 0hPa | 2.7V | 08:17:00 | 00:00:00 | 00:00:00 | |
| DO3MHA-11 | 2026-09-04 13:12:52 | 45.31267 | 9.13845 | 138° | 16km/h | 18673m | -11.8m/s | -59.2°C | 5.6% | 0hPa | 2.7V | 00:00:00 | 02:38:06 | 00:00:00 | |
| IW2NTF | 2026-09-04 13:12:48 | 45.31295 | 9.13804 | 133° | 11km/h | 18778m | -11.5m/s | -58.1°C | 5% | 0hPa | 2.7V | 08:17:48 | 02:37:57 | 00:00:00 | |
| NBG1-10 | 2026-09-04 13:12:44 | 45.31292 | 9.13808 | 129° | 11km/h | 18767m | -11.7m/s | -58.0°C | 5.0% | 0hPa | 2.7V | 00:00:00 | 02:37:58 | 00:00:00 | |
| DO3MHA-11 | 2026-09-04 13:12:42 | 45.31296 | 9.13802 | 113° | 5km/h | 18790m | -11.8m/s | -58.0°C | 5.0% | 0hPa | 2.7V | 08:17:00 | 02:37:56 | 00:00:00 | |
| DF1GD-15 | 2026-09-04 13:12:36 | 45.31297 | 9.13792 | 331° | 2km/h | 18849m | -11.7m/s | -58.2°C | 1.9% | 0hPa | 2.7V | 08:18:00 | 00:00:00 | 00:00:00 | |
| IW2NTF | 2026-09-04 13:12:35 | 45.31292 | 9.13790 | 19° | 5km/h | 18896m | -11.7m/s | -58.3°C | 5.1% | 0hPa | 2.7V | 08:17:58 | 02:37:47 | 00:00:00 | |
| DB0UT-7 | 2026-09-04 13:12:33 | 45.31292 | 9.13790 | 20° | 13km/h | 18896m | -11.6m/s | -58.3°C | 5.1% | 0hPa | 2.6V | 00:00:00 | 02:37:47 | 00:00:00 | |
| DO3MHA-11 | 2026-09-04 13:12:32 | 45.31290 | 9.13789 | 14° | 13km/h | 18908m | -11.8m/s | -58.4°C | 5.1% | 0hPa | 2.6V | 00:00:00 | 02:37:46 | 00:00:00 | |
| IW2NTF | 2026-09-04 13:12:26 | 45.31267 | 9.13761 | 38° | 13km/h | 19014m | -12.1m/s | -58.5°C | 5.1% | 0hPa | 2.6V | 08:18:08 | 02:37:37 | 00:00:00 | |
| DO3MHA-11 | 2026-09-04 13:12:22 | 45.31264 | 9.13758 | 24° | 15km/h | 19027m | -11.9m/s | -58.4°C | 5.1% | 0hPa | 2.6V | 00:00:00 | 02:37:36 | 00:00:00 | |
| IW2NTF | 2026-09-04 13:12:15 | 45.31238 | 9.13729 | 82° | 9km/h | 19134m | -12m/s | -58.7°C | 5.2% | 0hPa | 2.6V | 08:18:18 | 02:37:27 | 00:00:00 | |
| DO3MHA-11 | 2026-09-04 13:12:12 | 45.31238 | 9.13726 | 85° | 13km/h | 19147m | -12.3m/s | -58.8°C | 5.3% | 0hPa | 2.6V | 00:00:00 | 02:37:26 | 00:00:00 | |
| NBG1-10 | 2026-09-04 13:12:11 | 45.31237 | 9.13724 | 53° | 16km/h | 19159m | -11.9m/s | -58.9°C | 5.4% | 0hPa | 2.5V | 00:00:00 | 02:37:25 | 00:00:00 | |
| IW2NTF | 2026-09-04 13:12:05 | 45.31232 | 9.13686 | 103° | 20km/h | 19254m | -12.1m/s | -59°C | 5.4% | 0hPa | 2.5V | 08:18:28 | 02:37:17 | 00:00:00 | |
| DB0UT-7 | 2026-09-04 13:12:03 | 45.31232 | 9.13686 | 104° | 16km/h | 19255m | -12.0m/s | -58.9°C | 5.4% | 0hPa | 2.6V | 00:00:00 | 00:00:00 | 00:00:00 | |
| DO3MHA-11 | 2026-09-04 13:12:02 | 45.31234 | 9.13680 | 121° | 11km/h | 19267m | -12.3m/s | -59.0°C | 5.5% | 0hPa | 2.6V | 00:00:00 | 02:37:16 | 00:00:00 | |
| IW2NTF | 2026-09-04 13:11:55 | 45.31254 | 9.13658 | 103° | 7km/h | 19376m | -12.1m/s | -58.6°C | 5.6% | 0hPa | 2.6V | 08:18:38 | 02:37:07 | 00:00:00 | |
| DO3MHA-11 | 2026-09-04 13:11:52 | 45.31255 | 9.13655 | 107° | 20km/h | 19388m | -12.0m/s | -58.6°C | 5.6% | 0hPa | 2.6V | 00:00:00 | 02:37:06 | 00:00:00 | |
| IW2NTF | 2026-09-04 13:11:45 | 45.31271 | 9.13594 | 107° | 22km/h | 19498m | -12m/s | -58°C | 5.5% | 0hPa | 2.6V | 08:18:48 | 02:36:57 | 00:00:00 | |
| DO3MHA-11 | 2026-09-04 13:11:42 | 45.31272 | 9.13586 | 107° | 20km/h | 19511m | -12.7m/s | -57.9°C | 5.5% | 0hPa | 2.6V | 00:00:00 | 02:36:56 | 00:00:00 | |
| IW2NTF | 2026-09-04 13:11:38 | 45.31304 | 9.13545 | 164° | 15km/h | 19624m | -12.9m/s | -56.6°C | 4.9% | 0hPa | 2.6V | 08:18:58 | 02:36:47 | 00:00:00 | |
| NBG1-10 | 2026-09-04 13:11:38 | 45.31284 | 9.13561 | 139° | 13km/h | 19561m | -12.5m/s | -56.8°C | 5.0% | 0hPa | 2.6V | 00:00:00 | 02:36:52 | 00:00:00 | |
| DF1GD-15 | 2026-09-04 13:11:35 | 45.31290 | 9.13553 | 145° | 20km/h | 19586m | -12.6m/s | -56.8°C | 1.8% | 0hPa | 2.6V | 08:19:00 | 00:00:00 | 00:00:00 | |
| DB0UT-7 | 2026-09-04 13:11:33 | 45.31304 | 9.13545 | 165° | 11km/h | 19624m | -12.9m/s | -56.6°C | 4.9% | 0hPa | 2.6V | 00:00:00 | 02:36:47 | 00:00:00 | |
| DO3MHA-11 | 2026-09-04 13:11:32 | 45.31307 | 9.13543 | 146° | 13km/h | 19637m | -12.6m/s | -56.5°C | 4.9% | 0hPa | 2.7V | 00:00:00 | 02:36:46 | 00:00:00 | |
| IW2NTF | 2026-09-04 13:11:28 | 45.31317 | 9.13505 | 86° | 11km/h | 19751m | -12.5m/s | -56.1°C | 4.7% | 0hPa | 2.7V | 08:19:08 | 02:36:37 | 00:00:00 | |
| DO3MHA-11 | 2026-09-04 13:11:22 | 45.31316 | 9.13501 | 75° | 11km/h | 19764m | -13.1m/s | -56.0°C | 4.7% | 0hPa | 2.7V | 00:00:00 | 02:36:36 | 00:00:00 | |
| IW2NTF | 2026-09-04 13:11:18 | 45.31322 | 9.13467 | 136° | 7km/h | 19881m | -13.2m/s | -55.8°C | 4.4% | 0hPa | 2.7V | 08:19:18 | 02:36:27 | 00:00:00 | |
| DF1GD-15 | 2026-09-04 13:11:14 | 45.31319 | 9.13473 | 104° | 11km/h | 19855m | -12.9m/s | -55.6°C | 1.6% | 0hPa | 2.7V | 08:19:00 | 00:00:00 | 00:00:00 | |
| DO3MHA-11 | 2026-09-04 13:11:12 | 45.31323 | 9.13465 | 144° | 9km/h | 19894m | -12.7m/s | -55.7°C | 4.4% | 0hPa | 2.7V | 08:19:00 | 02:36:26 | 00:00:00 | |
| IW2NTF | 2026-09-04 13:11:05 | 45.31335 | 9.13441 | 136° | 18km/h | 20010m | -13.2m/s | -56.3°C | 4.6% | 0hPa | 2.7V | 08:19:28 | 02:36:17 | 00:00:00 | |
| NBG1-10 | 2026-09-04 13:11:05 | 45.31330 | 9.13451 | 119° | 15km/h | 19985m | -13.0m/s | -56.0°C | 4.5% | 0hPa | 2.6V | 00:00:00 | 02:36:19 | 00:00:00 | |
| DB0UT-7 | 2026-09-04 13:11:03 | 45.31335 | 9.13441 | 137° | 13km/h | 20011m | -13.2m/s | -56.2°C | 4.6% | 0hPa | 2.6V | 00:00:00 | 00:00:00 | 00:00:00 | |
| DO3MHA-11 | 2026-09-04 13:11:02 | 45.31339 | 9.13437 | 140° | 16km/h | 20024m | -13.1m/s | -56.4°C | 4.6% | 0hPa | 2.6V | 00:00:00 | 02:36:16 | 00:00:00 | |
| IW2NTF | 2026-09-04 13:10:58 | 45.31359 | 9.13397 | 118° | 15km/h | 20142m | -13.1m/s | -56.8°C | 4.9% | 0hPa | 2.6V | 08:19:38 | 02:36:07 | 00:00:00 | |
| DF1GD-15 | 2026-09-04 13:10:54 | 45.31357 | 9.13407 | 111° | 13km/h | 20116m | -13.2m/s | -56.8°C | 1.8% | 0hPa | 2.7V | 08:20:00 | 00:00:00 | 00:00:00 | |
| DO3MHA-11 | 2026-09-04 13:10:52 | 45.31361 | 9.13393 | 126° | 11km/h | 20156m | -13.2m/s | -56.8°C | 4.9% | 0hPa | 2.7V | 00:00:00 | 02:36:06 | 00:00:00 | |
| IW2NTF | 2026-09-04 13:10:47 | 45.31381 | 9.13364 | 157° | 13km/h | 20288m | -13.7m/s | -56.5°C | 5% | 0hPa | 2.7V | 08:19:49 | 02:35:56 | 00:00:00 | |
| DO3MHA-11 | 2026-09-04 13:10:42 | 45.31381 | 9.13364 | 158° | 11km/h | 20288m | -13.6m/s | -56.5°C | 5.0% | 0hPa | 2.7V | 00:00:00 | 02:35:56 | 00:00:00 | |
| DB0UT-7 | 2026-09-04 13:10:33 | 45.31400 | 9.13347 | 145° | 11km/h | 20409m | -13.3m/s | -56.4°C | 5.1% | 0hPa | 2.6V | 00:00:00 | 02:35:47 | 00:00:00 | |
| DO3MHA-11 | 2026-09-04 13:10:32 | 45.31402 | 9.13345 | 172° | 9km/h | 20422m | -13.8m/s | -56.3°C | 5.1% | 0hPa | 2.6V | 00:00:00 | 02:35:46 | 00:00:00 | |
| IW2NTF | 2026-09-04 13:10:30 | 45.31406 | 9.13351 | 270° | 4km/h | 20476m | -13.3m/s | -55.7°C | 4.9% | 0hPa | 2.6V | 08:20:03 | 02:35:42 | 00:00:00 | |
| DO3MHA-11 | 2026-09-04 13:10:22 | 45.31405 | 9.13371 | 279° | 15km/h | 20558m | -14.0m/s | -54.3°C | 4.3% | 0hPa | 2.6V | 00:00:00 | 02:35:36 | 00:00:00 | |
| IW2NTF | 2026-09-04 13:10:21 | 45.31397 | 9.13389 | 331° | 15km/h | 20613m | -13.6m/s | -54.2°C | 4.1% | 0hPa | 2.6V | 08:20:13 | 02:35:32 | 00:00:00 | |
| NBG1-10 | 2026-09-04 13:10:20 | 45.31403 | 9.13381 | 301° | 11km/h | 20586m | -14.0m/s | -54.2°C | 4.2% | 0hPa | 2.6V | 00:00:00 | 02:35:34 | 00:00:00 | |
| DF1GD-15 | 2026-09-04 13:10:13 | 45.31384 | 9.13397 | 352° | 18km/h | 20670m | -13.8m/s | -54.4°C | 1.4% | 0hPa | 2.6V | 08:21:00 | 00:00:00 | 00:00:00 | |
| DO3MHA-11 | 2026-09-04 13:10:12 | 45.31375 | 9.13396 | 12° | 9km/h | 20698m | -14.1m/s | -54.6°C | 4.2% | 0hPa | 2.6V | 00:00:00 | 02:35:26 | 00:00:00 | |
| IW2NTF | 2026-09-04 13:10:10 | 45.31360 | 9.13400 | 344° | 4km/h | 20782m | -14.1m/s | -55.2°C | 4.4% | 0hPa | 2.6V | 08:20:25 | 02:35:20 | 00:00:00 | |
| DB0UT-7 | 2026-09-04 13:10:03 | 45.31356 | 9.13401 | 24° | 9km/h | 20824m | -14.1m/s | -55.2°C | 4.5% | 0hPa | 2.7V | 00:00:00 | 00:00:00 | 00:00:00 | |
| DO3MHA-11 | 2026-09-04 13:10:02 | 45.31354 | 9.13399 | 58° | 11km/h | 20838m | -13.6m/s | -55.3°C | 4.5% | 0hPa | 2.6V | 00:00:00 | 02:35:16 | 00:00:00 | |
| IW2NTF | 2026-09-04 13:10:00 | 45.31355 | 9.13369 | 126° | 11km/h | 20937m | -13.7m/s | -55.8°C | 4.7% | 0hPa | 2.6V | 08:20:36 | 02:35:09 | 00:00:00 | |
| DF1GD-15 | 2026-09-04 13:09:53 | 45.31356 | 9.13367 | 131° | 5km/h | 20951m | -13.7m/s | -55.9°C | 1.6% | 0hPa | 2.7V | 08:21:00 | 00:00:00 | 00:00:00 | |
| DO3MHA-11 | 2026-09-04 13:09:52 | 45.31357 | 9.13364 | 118° | 9km/h | 20980m | -14.4m/s | -56.2°C | 4.9% | 0hPa | 2.7V | 00:00:00 | 02:35:06 | 00:00:00 | |
| IW2NTF | 2026-09-04 13:09:50 | 45.31364 | 9.13348 | 118° | 13km/h | 21080m | -14.4m/s | -55.4°C | 4.8% | 0hPa | 2.7V | 08:20:46 | 02:34:59 | 00:00:00 | |
| NBG1-10 | 2026-09-04 13:09:47 | 45.31362 | 9.13356 | 102° | 9km/h | 21052m | -13.6m/s | -55.7°C | 4.9% | 0hPa | 2.6V | 00:00:00 | 02:35:01 | 00:00:00 | |
| IW2NTF | 2026-09-04 13:09:38 | 45.31387 | 9.13335 | 189° | 11km/h | 21224m | -14.8m/s | -54.5°C | 4.3% | 0hPa | 2.6V | 08:20:56 | 02:34:49 | 00:00:00 | |
| DO3MHA-11 | 2026-09-04 13:09:32 | 45.31392 | 9.13338 | 182° | 4km/h | 21268m | -14.3m/s | -54.3°C | 4.4% | 0hPa | 2.6V | 00:00:00 | 02:34:46 | 00:00:00 | |
| IW2NTF | 2026-09-04 13:09:28 | 45.31399 | 9.13335 | 237° | 2km/h | 21385m | -14.6m/s | -54°C | 4.2% | 0hPa | 2.6V | 08:21:07 | 02:34:38 | 00:00:00 | |
| DO3MHA-11 | 2026-09-04 13:09:22 | 45.31397 | 9.13335 | 12° | 11km/h | 21415m | -14.7m/s | -54.0°C | 4.3% | 0hPa | 2.6V | 00:00:00 | 02:34:36 | 00:00:00 | |
| IW2NTF | 2026-09-04 13:09:18 | 45.31374 | 9.13327 | 11° | 11km/h | 21532m | -14.9m/s | -54.7°C | 4.4% | 0hPa | 2.6V | 08:21:17 | 02:34:28 | 00:00:00 | |
| NBG1-10 | 2026-09-04 13:09:14 | 45.31374 | 9.13327 | 12° | 9km/h | 21533m | -14.8m/s | -54.6°C | 4.4% | 0hPa | 2.7V | 00:00:00 | 02:34:28 | 00:00:00 | |
| DO3MHA-11 | 2026-09-04 13:09:12 | 45.31368 | 9.13326 | 10° | 9km/h | 21562m | -14.7m/s | -54.6°C | 4.3% | 0hPa | 2.7V | 00:00:00 | 02:34:26 | 00:00:00 | |
| DF1GD-15 | 2026-09-04 13:09:11 | 45.31368 | 9.13326 | 10° | 13km/h | 21562m | -14.7m/s | -54.6°C | 1.5% | 0hPa | 2.7V | 08:21:00 | 00:00:00 | 00:00:00 | |
| IW2NTF | 2026-09-04 13:09:07 | 45.31351 | 9.13321 | 298° | 4km/h | 21682m | -15.2m/s | -54.6°C | 4.3% | 0hPa | 2.7V | 08:21:27 | 02:34:18 | 00:00:00 | |
| DB0UT-7 | 2026-09-04 13:09:03 | 45.31351 | 9.13323 | 296° | 7km/h | 21697m | -14.5m/s | -54.5°C | 4.4% | 0hPa | 2.6V | 00:00:00 | 00:00:00 | 00:00:00 | |
| DO3MHA-11 | 2026-09-04 13:09:02 | 45.31349 | 9.13326 | 310° | 11km/h | 21712m | -15.1m/s | -54.4°C | 4.4% | 0hPa | 2.6V | 00:00:00 | 02:34:16 | 00:00:00 | |
| IW2NTF | 2026-09-04 13:08:57 | 45.31335 | 9.13326 | 70° | 15km/h | 21833m | -15.3m/s | -54.8°C | 4.4% | 0hPa | 2.6V | 08:21:37 | 02:34:08 | 00:00:00 | |
| DO3MHA-11 | 2026-09-04 13:08:52 | 45.31333 | 9.13317 | 67° | 7km/h | 21864m | -15.1m/s | -54.9°C | 4.4% | 0hPa | 2.7V | 00:00:00 | 02:34:06 | 00:00:00 | |
| DF1GD-15 | 2026-09-04 13:08:51 | 45.31333 | 9.13317 | 68° | 13km/h | 21864m | -15.2m/s | -54.9°C | 0% | 0hPa | 2.7V | 08:21:00 | 00:00:00 | 00:00:00 | |
| IW2NTF | 2026-09-04 13:08:47 | 45.31334 | 9.13305 | 192° | 5km/h | 21988m | -15.3m/s | -54.7°C | 4.6% | 0hPa | 2.7V | 08:21:47 | 02:33:58 | 00:00:00 | |
| DO3MHA-11 | 2026-09-04 13:08:42 | 45.31337 | 9.13307 | 234° | 5km/h | 22019m | -16.0m/s | -54.2°C | 4.4% | 0hPa | 2.6V | 00:00:00 | 02:33:56 | 00:00:00 | |
| NBG1-10 | 2026-09-04 13:08:41 | 45.31337 | 9.13308 | 270° | 9km/h | 22035m | -15.5m/s | -54.2°C | 4.4% | 0hPa | 2.7V | 00:00:00 | 02:33:55 | 00:00:00 | |
| IW2NTF | 2026-09-04 13:08:37 | 45.31335 | 9.13303 | 37° | 7km/h | 22145m | -16.1m/s | -53.8°C | 4.2% | 0hPa | 2.7V | 08:21:57 | 02:33:48 | 00:00:00 | |
| DB0UT-7 | 2026-09-04 13:08:33 | 45.31333 | 9.13302 | 13° | 11km/h | 22161m | -15.8m/s | -53.8°C | 4.2% | 0hPa | 2.7V | 08:21:00 | 02:33:47 | 00:00:00 | |
| DF1GD-15 | 2026-09-04 13:08:32 | 45.31330 | 9.13302 | 349° | 11km/h | 22177m | -15.7m/s | 0°C | 0% | 0hPa | 2.6V | 00:00:00 | 00:00:00 | 00:00:00 | |
| IW2NTF | 2026-09-04 13:08:27 | 45.31300 | 9.13295 | 33° | 15km/h | 22303m | -15.9m/s | -54.4°C | 4.5% | 0hPa | 2.6V | 08:22:07 | 02:33:38 | 00:00:00 | |
| DO3MHA-11 | 2026-09-04 13:08:22 | 45.31296 | 9.13291 | 26° | 9km/h | 22335m | -15.8m/s | -54.1°C | 4.4% | 0hPa | 2.7V | 00:00:00 | 02:33:36 | 00:00:00 | |
| IW2NTF | 2026-09-04 13:08:17 | 45.31280 | 9.13295 | 333° | 11km/h | 22464m | -16.2m/s | -53.9°C | 4.3% | 0hPa | 2.7V | 08:22:17 | 02:33:28 | 00:00:00 | |
| DO3MHA-11 | 2026-09-04 13:08:12 | 45.31277 | 9.13299 | 308° | 11km/h | 22497m | -15.9m/s | -53.8°C | 4.3% | 0hPa | 2.6V | 08:22:00 | 02:33:26 | 00:00:00 | |
| DF1GD-15 | 2026-09-04 13:08:10 | 45.31275 | 9.13302 | 316° | 11km/h | 22513m | -16.3m/s | 0°C | 0% | 0hPa | 2.7V | 00:00:00 | 00:00:00 | 00:00:00 | |
| IW2NTF | 2026-09-04 13:08:09 | 45.31256 | 9.13310 | 6° | 16km/h | 22627m | -16m/s | -53.9°C | 4.3% | 0hPa | 2.7V | 08:22:27 | 02:33:18 | 00:00:00 | |
| NBG1-10 | 2026-09-04 13:08:08 | 45.31268 | 9.13306 | 350° | 16km/h | 22562m | -16.2m/s | -53.6°C | 4.2% | 0hPa | 2.7V | 08:22:00 | 02:33:22 | 00:00:00 | |
| DB0UT-7 | 2026-09-04 13:08:03 | 45.31252 | 9.13309 | 15° | 16km/h | 22644m | -16.5m/s | -54.0°C | 4.3% | 0hPa | 2.6V | 00:00:00 | 00:00:00 | 00:00:00 | |
| DO3MHA-11 | 2026-09-04 13:08:02 | 45.31248 | 9.13308 | 10° | 18km/h | 22660m | -16.2m/s | -53.9°C | 4.4% | 0hPa | 2.6V | 00:00:00 | 02:33:16 | 00:00:00 | |
| IW2NTF | 2026-09-04 13:07:57 | 45.31211 | 9.13290 | 26° | 22km/h | 22791m | -16.9m/s | -53.1°C | 4% | 0hPa | 2.6V | 08:22:37 | 02:33:08 | 00:00:00 | |
| DO3MHA-11 | 2026-09-04 13:07:51 | 45.31201 | 9.13279 | 37° | 18km/h | 22842m | -16.8m/s | -53.1°C | 4.0% | 0hPa | 2.7V | 00:00:00 | 02:33:05 | 00:00:00 | |
| IW2NTF | 2026-09-04 13:07:46 | 45.31186 | 9.13242 | 77° | 20km/h | 22959m | -16.9m/s | -53.7°C | 4.2% | 0hPa | 2.7V | 08:22:47 | 02:32:58 | 00:00:00 | |
| DO3MHA-11 | 2026-09-04 13:07:41 | 45.31187 | 9.13223 | 104° | 9km/h | 23011m | -16.8m/s | -53.8°C | 4.3% | 0hPa | 2.6V | 00:00:00 | 02:32:55 | 00:00:00 | |
| IW2NTF | 2026-09-04 13:07:37 | 45.31190 | 9.13200 | 83° | 5km/h | 23130m | -17.4m/s | -53.9°C | 4.3% | 0hPa | 2.7V | 08:22:57 | 02:32:48 | 00:00:00 | |
| NBG1-10 | 2026-09-04 13:07:34 | 45.31190 | 9.13200 | 84° | 13km/h | 23131m | -17.3m/s | -53.9°C | 4.3% | 0hPa | 2.7V | 00:00:00 | 02:32:48 | 00:00:00 | |
| DB0UT-7 | 2026-09-04 13:07:33 | 45.31190 | 9.13198 | 96° | 11km/h | 23148m | -17.5m/s | -53.9°C | 4.3% | 0hPa | 2.7V | 00:00:00 | 02:32:47 | 00:00:00 | |
| DO3MHA-11 | 2026-09-04 13:07:31 | 45.31192 | 9.13195 | 163° | 5km/h | 23183m | -17.5m/s | -53.8°C | 4.3% | 0hPa | 2.7V | 00:00:00 | 02:32:45 | 00:00:00 | |
| IW2NTF | 2026-09-04 13:07:26 | 45.31182 | 9.13205 | 344° | 7km/h | 23357m | -17.6m/s | -53.5°C | 4.2% | 0hPa | 2.7V | 08:23:10 | 02:32:35 | 00:00:00 | |
| DO3MHA-11 | 2026-09-04 13:07:21 | 45.31182 | 9.13205 | 345° | 11km/h | 23358m | -17.6m/s | -53.5°C | 4.2% | 0hPa | 2.6V | 00:00:00 | 02:32:35 | 00:00:00 | |
| IW2NTF | 2026-09-04 13:07:16 | 45.31160 | 9.13183 | 71° | 15km/h | 23534m | -18m/s | -53.1°C | 4.2% | 0hPa | 2.6V | 08:23:20 | 02:32:25 | 00:00:00 | |
| DO3MHA-11 | 2026-09-04 13:07:11 | 45.31160 | 9.13183 | 72° | 22km/h | 23535m | -18.0m/s | -53.1°C | 4.2% | 0hPa | 2.6V | 00:00:00 | 02:32:25 | 00:00:00 | |
| IW2NTF | 2026-09-04 13:07:06 | 45.31162 | 9.13107 | 118° | 31km/h | 23714m | -18.1m/s | -53.2°C | 4.2% | 0hPa | 2.6V | 08:23:30 | 02:32:15 | 00:00:00 | |
| DB0UT-7 | 2026-09-04 13:07:03 | 45.31157 | 9.13126 | 103° | 18km/h | 23678m | -17.8m/s | -53.1°C | 4.2% | 0hPa | 2.7V | 00:00:00 | 00:00:00 | 00:00:00 | |
| DO3MHA-11 | 2026-09-04 13:07:01 | 45.31162 | 9.13107 | 119° | 26km/h | 23714m | -18.0m/s | -53.2°C | 4.2% | 0hPa | 2.7V | 00:00:00 | 02:32:15 | 00:00:00 | |
| NBG1-10 | 2026-09-04 13:07:00 | 45.31166 | 9.13098 | 126° | 18km/h | 23732m | -17.9m/s | -53.2°C | 4.2% | 0hPa | 2.7V | 00:00:00 | 02:32:14 | 00:00:00 | |
| IW2NTF | 2026-09-04 13:06:56 | 45.31197 | 9.13034 | 142° | 20km/h | 23895m | -18m/s | -53.1°C | 4.2% | 0hPa | 2.7V | 08:23:40 | 02:32:05 | 00:00:00 | |
| DO3MHA-11 | 2026-09-04 13:06:51 | 45.31197 | 9.13034 | 143° | 15km/h | 23895m | -17.9m/s | -53.0°C | 4.2% | 0hPa | 2.6V | 00:00:00 | 02:32:05 | 00:00:00 | |
| IW2NTF | 2026-09-04 13:06:46 | 45.31213 | 9.13048 | 329° | 9km/h | 24080m | -18.5m/s | -53.3°C | 4.4% | 0hPa | 2.6V | 08:23:50 | 02:31:55 | 00:00:00 | |
| DO3MHA-11 | 2026-09-04 13:06:41 | 45.31213 | 9.13048 | 330° | 11km/h | 24080m | -18.4m/s | -53.3°C | 4.4% | 0hPa | 2.6V | 08:23:00 | 02:31:55 | 00:00:00 | |
| IW2NTF | 2026-09-04 13:06:36 | 45.31197 | 9.13029 | 113° | 13km/h | 24266m | -19.3m/s | -52.4°C | 4.1% | 0hPa | 2.7V | 08:24:00 | 02:31:45 | 00:00:00 | |
| OE5DRO-10 | 2026-09-04 13:06:34 | 45.31197 | 9.13041 | 74° | 11km/h | 24210m | -18.5m/s | -52.3°C | 4.1% | 0hPa | 2.7V | 00:00:00 | 00:00:00 | 00:00:00 | |
| DB0UT-7 | 2026-09-04 13:06:33 | 45.31197 | 9.13037 | 76° | 9km/h | 24229m | -18.9m/s | -52.3°C | 4.1% | 0hPa | 2.7V | 00:00:00 | 02:31:47 | 00:00:00 | |
| DO3MHA-11 | 2026-09-04 13:06:31 | 45.31197 | 9.13029 | 114° | 7km/h | 24267m | -19.3m/s | -52.3°C | 4.1% | 0hPa | 2.7V | 00:00:00 | 02:31:45 | 00:00:00 | |
| NBG1-10 | 2026-09-04 13:06:27 | 45.31202 | 9.13023 | 157° | 40km/h | 24342m | -19.1m/s | -52.2°C | 4.1% | 0hPa | 2.7V | 00:00:00 | 02:31:41 | 00:00:00 | |
| IW2NTF | 2026-09-04 13:06:24 | 45.31219 | 9.13028 | 177° | 13km/h | 24494m | -19.8m/s | -51.3°C | 3.7% | 0hPa | 2.7V | 08:24:12 | 02:31:33 | 00:00:00 | |
| DO3MHA-11 | 2026-09-04 13:06:21 | 45.31213 | 9.13028 | 174° | 9km/h | 24456m | -18.0m/s | -51.3°C | 3.8% | 0hPa | 2.6V | 00:00:00 | 02:31:35 | 00:00:00 | |
| OE5DRO-10 | 2026-09-04 13:06:12 | 45.31234 | 9.13019 | 200° | 9km/h | 24627m | -18.9m/s | -51.7°C | 3.8% | 0hPa | 2.6V | 08:24:00 | 00:00:00 | 00:00:00 | |
| IW2NTF | 2026-09-04 13:06:11 | 45.31237 | 9.13021 | 224° | 7km/h | 24684m | -19.2m/s | -51.7°C | 3.8% | 0hPa | 2.7V | 08:24:22 | 02:31:23 | 00:00:00 | |
| DO3MHA-11 | 2026-09-04 13:06:11 | 45.31235 | 9.13020 | 178° | 7km/h | 24646m | -19.2m/s | -51.7°C | 3.9% | 0hPa | 2.6V | 00:00:00 | 02:31:25 | 00:00:00 | |
| IW2NTF | 2026-09-04 13:06:04 | 45.31252 | 9.13002 | 157° | 15km/h | 24878m | -20m/s | -52.3°C | 4.1% | 0hPa | 2.7V | 08:24:32 | 02:31:13 | 00:00:00 | |
| DB0UT-7 | 2026-09-04 13:06:03 | 45.31243 | 9.13015 | 139° | 15km/h | 24800m | -19.1m/s | -51.8°C | 3.9% | 0hPa | 2.6V | 00:00:00 | 00:00:00 | 00:00:00 | |
| DO3MHA-11 | 2026-09-04 13:06:01 | 45.31246 | 9.13008 | 125° | 11km/h | 24839m | -19.8m/s | -52.1°C | 4.0% | 0hPa | 2.6V | 00:00:00 | 02:31:15 | 00:00:00 | |
| IW2NTF | 2026-09-04 13:05:54 | 45.31271 | 9.13008 | 191° | 9km/h | 25070m | -19.6m/s | -52.4°C | 4.2% | 0hPa | 2.6V | 08:24:42 | 02:31:03 | 00:00:00 | |
| OE5DRO-10 | 2026-09-04 13:05:53 | 45.31265 | 9.13001 | 209° | 16km/h | 24994m | -18.5m/s | -52.4°C | 4.2% | 0hPa | 2.7V | 00:00:00 | 00:00:00 | 00:00:00 | |
| DO3MHA-11 | 2026-09-04 13:05:51 | 45.31268 | 9.13006 | 226° | 9km/h | 25032m | -19.6m/s | -52.3°C | 4.2% | 0hPa | 2.7V | 00:00:00 | 02:31:05 | 00:00:00 | |
| IW2NTF | 2026-09-04 13:05:43 | 45.31259 | 9.13059 | 322° | 27km/h | 25288m | -20.6m/s | -51.5°C | 3.9% | 0hPa | 2.7V | 08:24:53 | 02:30:52 | 00:00:00 | |
| DO3MHA-11 | 2026-09-04 13:05:41 | 45.31273 | 9.13039 | 306° | 27km/h | 25229m | -19.8m/s | -51.8°C | 4.1% | 0hPa | 2.6V | 00:00:00 | 02:30:55 | 00:00:00 | |
| IW2NTF | 2026-09-04 13:05:33 | 45.31211 | 9.13063 | 263° | 4km/h | 25489m | -20.6m/s | -51.3°C | 3.8% | 0hPa | 2.6V | 08:25:03 | 02:30:42 | 00:00:00 | |
| DB0UT-7 | 2026-09-04 13:05:33 | 45.31225 | 9.13070 | 16° | 29km/h | 25389m | -19.5m/s | -51.3°C | 3.9% | 0hPa | 2.7V | 00:00:00 | 02:30:47 | 00:00:00 | |
| HARRO8 | 2026-09-04 13:05:32 | 45.31220 | 9.13068 | 15° | 16km/h | 25408m | -19.8m/s | -51.4°C | -1.0% | -1.0hPa | 2.7V | 00:00:00 | 00:00:00 | 00:00:00 | |
| DO3MHA-11 | 2026-09-04 13:05:31 | 45.31216 | 9.13066 | 19° | 13km/h | 25428m | -20.1m/s | -51.3°C | 3.9% | 0hPa | 2.7V | 00:00:00 | 02:30:45 | 00:00:00 | |
| IW2NTF | 2026-09-04 13:05:23 | 45.31198 | 9.13065 | 113° | 37km/h | 25693m | -19.7m/s | -51.6°C | 4.2% | 0hPa | 2.7V | 08:25:13 | 02:30:32 | 00:00:00 | |
| DO3MHA-11 | 2026-09-04 13:05:21 | 45.31199 | 9.13088 | 35° | 33km/h | 25631m | -22.2m/s | -51.3°C | 4.1% | 0hPa | 2.6V | 00:00:00 | 02:30:35 | 00:00:00 | |
| OE5DRO-10 | 2026-09-04 13:05:15 | 45.31222 | 9.13038 | 166° | 47km/h | 25754m | -20.7m/s | -51.4°C | 4.1% | 0hPa | 2.6V | 00:00:00 | 00:00:00 | 00:00:00 | |
| IW2NTF | 2026-09-04 13:05:12 | 45.31262 | 9.13114 | 299° | 46km/h | 25913m | -20.6m/s | -50.1°C | 3.9% | 0hPa | 2.6V | 08:25:24 | 02:30:21 | 00:00:00 | |
| DO3MHA-11 | 2026-09-04 13:05:11 | 45.31260 | 9.13054 | 232° | 47km/h | 25835m | -19.7m/s | -50.7°C | 4.0% | 0hPa | 2.7V | 08:25:00 | 02:30:25 | 00:00:00 | |
| DB0UT-7 | 2026-09-04 13:05:03 | 45.31221 | 9.13142 | 8° | 47km/h | 25994m | -19.4m/s | -49.4°C | 3.7% | 0hPa | 2.7V | 00:00:00 | 00:00:00 | 00:00:00 | |
| IW2NTF | 2026-09-04 13:05:02 | 45.31191 | 9.13060 | 119° | 53km/h | 26117m | -20.4m/s | -49.2°C | 3.5% | 0hPa | 2.7V | 08:25:34 | 02:30:11 | 00:00:00 | |
| DO3MHA-11 | 2026-09-04 13:05:01 | 45.31198 | 9.13126 | 44° | 53km/h | 26034m | -20.9m/s | -49.4°C | 3.6% | 0hPa | 2.6V | 00:00:00 | 02:30:15 | 00:00:00 | |
| OE5DRO-10 | 2026-09-04 13:04:56 | 45.31199 | 9.13046 | 140° | 47km/h | 26137m | -19.5m/s | -49.0°C | 3.4% | 0hPa | 2.6V | 00:00:00 | 00:00:00 | 00:00:00 | |
| NBG1-10 | 2026-09-04 13:04:53 | 45.31239 | 9.13034 | 195° | 47km/h | 26196m | -19.6m/s | -48.6°C | 3.3% | 0hPa | 2.6V | 00:00:00 | 02:30:07 | 00:00:00 | |
| IW2NTF | 2026-09-04 13:04:52 | 45.31277 | 9.13134 | 287° | 53km/h | 26316m | -20m/s | -48.9°C | 3.5% | 0hPa | 2.6V | 08:25:44 | 02:30:01 | 00:00:00 | |
| DO3MHA-11 | 2026-09-04 13:04:50 | 45.31273 | 9.13074 | 241° | 44km/h | 26256m | -20.2m/s | -48.7°C | 3.4% | 0hPa | 2.7V | 00:00:00 | 02:30:04 | 00:00:00 | |
| IW2NTF | 2026-09-04 13:04:40 | 45.31242 | 9.13111 | 139° | 37km/h | 26513m | -20.9m/s | -49.8°C | 3.7% | 0hPa | 2.7V | 08:25:54 | 02:29:51 | 00:00:00 | |
| DO3MHA-11 | 2026-09-04 13:04:39 | 45.31232 | 9.13133 | 106° | 40km/h | 26472m | -21.3m/s | -49.6°C | 3.6% | 0hPa | 2.6V | 00:00:00 | 02:29:53 | 00:00:00 | |
| OE5DRO-10 | 2026-09-04 13:04:37 | 45.31242 | 9.13111 | 140° | 47km/h | 26514m | -20.9m/s | -49.7°C | 3.7% | 0hPa | 2.6V | 00:00:00 | 00:00:00 | 00:00:00 | |
| DB0UT-7 | 2026-09-04 13:04:33 | 45.31275 | 9.13113 | 231° | 49km/h | 26592m | -18.9m/s | -49.6°C | 3.8% | 0hPa | 2.6V | 00:00:00 | 02:29:47 | 00:00:00 | |
| HARRO8 | 2026-09-04 13:04:30 | 45.31280 | 9.13158 | 286° | 46km/h | 26652m | -21.1m/s | -49.4°C | -1.0% | -1.0hPa | 2.6V | 00:00:00 | 00:00:00 | 00:00:00 | |
| IW2NTF | 2026-09-04 13:04:27 | 45.31232 | 9.13191 | 19° | 47km/h | 26756m | -20m/s | -49.1°C | 3.7% | 0hPa | 2.6V | 08:26:06 | 02:29:39 | 00:00:00 | |
| DO3MHA-11 | 2026-09-04 13:04:26 | 45.31243 | 9.13193 | 360° | 60km/h | 26736m | -21.6m/s | -49.0°C | 3.7% | 0hPa | 2.6V | 00:00:00 | 02:29:40 | 00:00:00 | |
| NBG1-10 | 2026-09-04 13:04:20 | 45.31199 | 9.13105 | 93° | 53km/h | 26863m | -22.6m/s | -48.6°C | 3.5% | 0hPa | 2.6V | 00:00:00 | 02:29:34 | 00:00:00 | |
| OE5DRO-10 | 2026-09-04 13:04:18 | 45.31207 | 9.13064 | 122° | 49km/h | 26905m | -19.6m/s | -48.5°C | 3.4% | 0hPa | 2.6V | 00:00:00 | 00:00:00 | 00:00:00 | |
| IW2NTF | 2026-09-04 13:04:17 | 45.31240 | 9.13029 | 169° | 55km/h | 26960m | -20m/s | -48.4°C | 3.4% | 0hPa | 2.7V | 08:26:16 | 02:29:29 | 00:00:00 | |
| IW2NTF | 2026-09-04 13:04:07 | 45.31230 | 9.13061 | 55° | 58km/h | 27218m | -20.9m/s | -48.4°C | 3.6% | 0hPa | 2.7V | 08:26:28 | 02:29:17 | 00:00:00 | |
| DB0UT-7 | 2026-09-04 13:04:03 | 45.31230 | 9.13061 | 56° | 57km/h | 27218m | -20.9m/s | -48.3°C | 3.6% | 0hPa | 2.7V | 08:26:00 | 00:00:00 | 00:00:00 | |
| OE5DRO-10 | 2026-09-04 13:03:59 | 45.31227 | 9.12980 | 115° | 49km/h | 27305m | -19.6m/s | -48.2°C | 3.5% | 0hPa | 2.7V | 00:00:00 | 00:00:00 | 00:00:00 | |
| IW2NTF | 2026-09-04 13:03:58 | 45.31290 | 9.12952 | 212° | 46km/h | 27424m | -23.7m/s | -47.8°C | 3.5% | 0hPa | 2.7V | 08:26:38 | 02:29:07 | 00:00:00 | |
| IW2NTF | 2026-09-04 13:03:47 | 45.31242 | 9.12969 | 70° | 69km/h | 27669m | -26.1m/s | -47°C | 3.2% | 0hPa | 2.6V | 08:26:49 | 02:28:56 | 00:00:00 | |
| NBG1-10 | 2026-09-04 13:03:42 | 45.31241 | 9.12969 | 71° | 71km/h | 27669m | -26.1m/s | -46.9°C | 3.2% | 0hPa | 2.6V | 00:00:00 | 02:28:56 | 00:00:00 | |
| OE5DRO-10 | 2026-09-04 13:03:41 | 45.31238 | 9.12919 | 99° | 68km/h | 27721m | -26.0m/s | -46.9°C | 3.2% | 0hPa | 2.7V | 00:00:00 | 00:00:00 | 00:00:00 | |
| IW2NTF | 2026-09-04 13:03:38 | 45.31330 | 9.12938 | 281° | 77km/h | 27906m | -23.9m/s | -46.8°C | 3.4% | 0hPa | 2.7V | 08:26:59 | 02:28:46 | 00:00:00 | |
| DB0UT-7 | 2026-09-04 13:03:33 | 45.31330 | 9.12910 | 260° | 69km/h | 27885m | -23.2m/s | -46.6°C | 3.3% | 0hPa | 2.7V | 00:00:00 | 02:28:47 | 00:00:00 | |
| IW2NTF | 2026-09-04 13:03:27 | 45.31273 | 9.12914 | 197° | 58km/h | 28140m | -24.2m/s | -46.2°C | 3.3% | 0hPa | 2.7V | 08:27:09 | 02:28:36 | 00:00:00 | |
| IW2NTF | 2026-09-04 13:03:17 | 45.31197 | 9.13023 | 62° | 62km/h | 28376m | -23.7m/s | -45.5°C | 3.1% | 0hPa | 2.7V | 08:27:19 | 02:28:26 | 00:00:00 | |
| IW2NTF | 2026-09-04 13:03:08 | 45.31211 | 9.13086 | 335° | 84km/h | 28611m | -24.2m/s | -44.8°C | 3% | 0hPa | 2.7V | 08:27:29 | 02:28:16 | 00:00:00 | |
| DB0UT-7 | 2026-09-04 13:03:03 | 45.31228 | 9.13069 | 312° | 69km/h | 28587m | -25.0m/s | -44.8°C | 3.1% | 0hPa | 2.6V | 00:00:00 | 00:00:00 | 00:00:00 | |
| IW2NTF | 2026-09-04 13:02:57 | 45.31195 | 9.12993 | 224° | 64km/h | 28855m | -23.5m/s | -44.8°C | 3.2% | 0hPa | 2.6V | 08:27:39 | 02:28:06 | 00:00:00 | |
| IW2NTF | 2026-09-04 13:02:47 | 45.31121 | 9.13016 | 103° | 68km/h | 29105m | -24.6m/s | -43.6°C | 2.8% | 0hPa | 2.7V | 08:27:49 | 02:27:56 | 00:00:00 | |
| NBG1-10 | 2026-09-04 13:02:45 | 45.31139 | 9.13076 | 30° | 35km/h | 29030m | -27.2m/s | -43.8°C | 2.9% | 0hPa | 2.7V | 00:00:00 | 02:27:59 | 00:00:00 | |
| OE5DRO-10 | 2026-09-04 13:02:41 | 45.31128 | 9.12996 | 130° | 62km/h | 29129m | -25.5m/s | -43.5°C | 2.8% | 0hPa | 2.7V | 08:27:00 | 00:00:00 | 00:00:00 | |
| IW2NTF | 2026-09-04 13:02:37 | 45.31127 | 9.13109 | 355° | 95km/h | 29359m | -25.6m/s | -43.4°C | 2.8% | 0hPa | 2.6V | 08:27:59 | 02:27:46 | 00:00:00 | |
| DB0UT-7 | 2026-09-04 13:02:33 | 45.31149 | 9.13101 | 333° | 71km/h | 29335m | -25.3m/s | -43.3°C | 2.8% | 0hPa | 2.6V | 00:00:00 | 02:27:47 | 00:00:00 | |
| IW2NTF | 2026-09-04 13:02:27 | 45.31106 | 9.13032 | 252° | 68km/h | 29616m | -25.8m/s | -43.9°C | 3.1% | 0hPa | 2.6V | 08:28:09 | 02:27:36 | 00:00:00 | |
| S52SK | 2026-09-04 13:02:26 | 45.31062 | 9.13029 | 104° | 57km/h | 29487m | -27.0m/s | -43.6°C | 0.9% | 0hPa | 2.6V | 00:00:00 | 00:00:00 | 00:00:00 | |
| S52SK | 2026-09-04 13:02:20 | 45.31107 | 9.13056 | 279° | 73km/h | 29641m | -25.9m/s | -43.9°C | 0.9% | 0hPa | 2.6V | 00:00:00 | 00:00:00 | 00:00:00 | |
| IW2NTF | 2026-09-04 13:02:18 | 45.30991 | 9.13043 | 112° | 62km/h | 29874m | -26.3m/s | -43°C | 3% | 0hPa | 2.6V | 08:28:19 | 02:27:26 | 00:00:00 | |
| DK5PH-5 | 2026-09-04 13:02:11 | 45.30999 | 9.13026 | 142° | 64km/h | 29900m | -26.2m/s | -42.7°C | 2.9% | 0hPa | 2.6V | 00:00:00 | 02:27:25 | 00:00:00 | |
| IW2NTF | 2026-09-04 13:02:07 | 45.31009 | 9.13113 | 15° | 69km/h | 30133m | -26.1m/s | -41.1°C | 2.6% | 0hPa | 2.6V | 08:28:29 | 02:27:16 | 00:00:00 | |
| DB0UT-7 | 2026-09-04 13:02:03 | 45.31026 | 9.13115 | 354° | 66km/h | 30107m | -28.2m/s | -41.3°C | 2.7% | 0hPa | 2.6V | 00:00:00 | 00:00:00 | 00:00:00 | |
| OE5DRO-10 | 2026-09-04 13:01:59 | 45.30975 | 9.13058 | 80° | 66km/h | 30213m | -28.4m/s | -40.9°C | 2.6% | 0hPa | 2.6V | 00:00:00 | 00:00:00 | 00:00:00 | |
| IW2NTF | 2026-09-04 13:01:56 | 45.31052 | 9.13020 | 262° | 60km/h | 30428m | -28.1m/s | -40.5°C | 2.7% | 0hPa | 2.6V | 08:28:40 | 02:27:05 | 00:00:00 | |
| DO3MHA-11 | 2026-09-04 13:01:53 | 45.31036 | 9.12986 | 213° | 64km/h | 30376m | -26.7m/s | -40.9°C | 2.7% | 0hPa | 2.7V | 00:00:00 | 02:27:07 | 00:00:00 | |
| IW2NTF | 2026-09-04 13:01:46 | 45.30996 | 9.12968 | 139° | 73km/h | 30702m | -29.9m/s | -39.5°C | 2.4% | 0hPa | 2.6V | 08:30:00 | 02:26:55 | 00:00:00 | |
| DO3MHA-11 | 2026-09-04 13:01:41 | 45.30996 | 9.12968 | 140° | 68km/h | 30703m | -29.9m/s | -39.5°C | 2.4% | 0hPa | 2.7V | 00:00:00 | 02:26:55 | 00:00:00 | |
| OE5DRO-10 | 2026-09-04 13:01:40 | 45.31011 | 9.12956 | 164° | 38km/h | 30732m | -30.2m/s | -39.4°C | 2.4% | 0hPa | 2.7V | 00:00:00 | 00:00:00 | 00:00:00 | |
| IW2NTF | 2026-09-04 13:01:36 | 45.30995 | 9.13037 | 25° | 89km/h | 30995m | -29.3m/s | -39.5°C | 2.4% | 0hPa | 2.7V | 08:30:00 | 02:26:45 | 00:00:00 | |
| DB0UT-7 | 2026-09-04 13:01:33 | 45.31035 | 9.13044 | 348° | 71km/h | 30937m | -29.6m/s | -39.4°C | 2.5% | 0hPa | 2.6V | 00:00:00 | 02:26:47 | 00:00:00 | |
| DO3MHA-11 | 2026-09-04 13:01:31 | 45.30995 | 9.13037 | 26° | 77km/h | 30995m | -29.3m/s | -39.5°C | 2.4% | 0hPa | 2.6V | 00:00:00 | 02:26:45 | 00:00:00 | |
| S52SK | 2026-09-04 13:01:28 | 45.30962 | 9.12993 | 62° | 95km/h | 31053m | -29.8m/s | -39.3°C | 0.7% | 0hPa | 2.6V | 00:00:00 | 00:00:00 | 00:00:00 | |
| IW2NTF | 2026-09-04 13:01:24 | 45.31018 | 9.12897 | 283° | 46km/h | 31309m | -28m/s | -39.1°C | 2.5% | 0hPa | 2.6V | 08:30:00 | 02:26:34 | 00:00:00 | |
| DO3MHA-11 | 2026-09-04 13:01:21 | 45.31018 | 9.12882 | 247° | 64km/h | 31281m | -28.6m/s | -39.1°C | 2.5% | 0hPa | 2.6V | 08:29:00 | 02:26:35 | 00:00:00 | |
| IW2NTF | 2026-09-04 13:01:15 | 45.30975 | 9.12794 | 164° | 71km/h | 31609m | -31.5m/s | -38°C | 2.2% | 0hPa | 2.7V | 08:30:00 | 02:26:24 | 00:00:00 | |
| DO3MHA-11 | 2026-09-04 13:01:11 | 45.30959 | 9.12806 | 140° | 73km/h | 31578m | -31.5m/s | -38.0°C | 2.2% | 0hPa | 2.6V | 00:00:00 | 02:26:25 | 00:00:00 | |
| DK5PH-5 | 2026-09-04 13:01:10 | 45.30991 | 9.12793 | 189° | 44km/h | 31640m | -29.8m/s | -38.0°C | 2.2% | 0hPa | 2.6V | 00:00:00 | 02:26:23 | 00:00:00 | |
| S52SK | 2026-09-04 13:01:05 | 45.31027 | 9.12841 | 261° | 73km/h | 31728m | -29.8m/s | -37.9°C | 0.7% | 0hPa | 2.6V | 00:00:00 | 00:00:00 | 00:00:00 | |
| DB0UT-7 | 2026-09-04 13:01:03 | 45.31004 | 9.12906 | 332° | 73km/h | 31821m | -33.4m/s | -38.0°C | 2.2% | 0hPa | 2.6V | 00:00:00 | 00:00:00 | 00:00:00 | |
| DO3MHA-11 | 2026-09-04 13:01:01 | 45.30966 | 9.12914 | 11° | 78km/h | 31885m | -33.4m/s | -38.3°C | 2.2% | 0hPa | 2.6V | 00:00:00 | 02:26:15 | 00:00:00 | |
| IW2NTF | 2026-09-04 13:00:59 | 45.30922 | 9.12825 | 108° | 84km/h | 32007m | -32.7m/s | -39.2°C | 2.4% | 0hPa | 2.6V | 08:30:00 | 02:26:11 | 00:00:00 | |
| IW2NTF | 2026-09-04 13:00:52 | 45.30945 | 9.12903 | 357° | 75km/h | 32323m | -33.1m/s | -38.5°C | 2.4% | 0hPa | 2.7V | 08:30:00 | 02:26:01 | 00:00:00 | |
| DO3MHA-11 | 2026-09-04 13:00:51 | 45.30996 | 9.12835 | 265° | 68km/h | 32196m | -29.7m/s | -39.4°C | 2.7% | 0hPa | 2.6V | 00:00:00 | 02:26:05 | 00:00:00 | |
| S52SK | 2026-09-04 13:00:46 | 45.30945 | 9.12903 | 359° | 75km/h | 32323m | -33.1m/s | -38.5°C | 0.7% | 0hPa | 2.7V | 00:00:00 | 00:00:00 | 00:00:00 | |
| DO3MHA-11 | 2026-09-04 13:00:41 | 45.30926 | 9.12838 | 176° | 66km/h | 32515m | -30.9m/s | -37.8°C | 2.2% | 0hPa | 2.7V | 00:00:00 | 02:25:55 | 00:00:00 | |
| IW2NTF | 2026-09-04 13:00:40 | 45.30976 | 9.12900 | 249° | 80km/h | 32639m | -33m/s | -37.8°C | 2.3% | 0hPa | 2.7V | 08:30:00 | 02:25:51 | 00:00:00 | |
| DB0UT-7 | 2026-09-04 13:00:33 | 45.30965 | 9.12992 | 316° | 31km/h | 32774m | -32.8m/s | -38.1°C | 2.4% | 0hPa | 2.7V | 00:00:00 | 02:25:47 | 00:00:00 | |
| DO3MHA-11 | 2026-09-04 13:00:31 | 45.30946 | 9.13004 | 360° | 33km/h | 32835m | -29.1m/s | -38.2°C | 2.4% | 0hPa | 2.7V | 00:00:00 | 02:25:45 | 00:00:00 | |
| IW2NTF | 2026-09-04 13:00:27 | 45.30950 | 9.12948 | 140° | 33km/h | 33022m | -34.3m/s | -37.5°C | 2.3% | 0hPa | 2.7V | 08:30:00 | 02:25:39 | 00:00:00 | |
| DO3MHA-11 | 2026-09-04 13:00:21 | 45.30979 | 9.12945 | 221° | 31km/h | 33152m | -30.3m/s | -36.6°C | 2.2% | 0hPa | 2.6V | 00:00:00 | 02:25:35 | 00:00:00 | |
| S52SK | 2026-09-04 13:00:19 | 45.30984 | 9.12954 | 243° | 35km/h | 33183m | -32.4m/s | -36.5°C | 0.7% | 0hPa | 2.6V | 00:00:00 | 00:00:00 | 00:00:00 | |
| IW2NTF | 2026-09-04 13:00:18 | 45.30978 | 9.12999 | 339° | 24km/h | 33357m | -37.2m/s | -36.1°C | 2% | 0hPa | 2.6V | 08:30:00 | 02:25:29 | 00:00:00 | |
| S52SK | 2026-09-04 13:00:14 | 45.30978 | 9.12999 | 340° | 24km/h | 33358m | -37.2m/s | -36.1°C | 0.6% | 0hPa | 2.6V | 00:00:00 | 00:00:00 | 00:00:00 | |
| DO3MHA-11 | 2026-09-04 13:00:11 | 45.30947 | 9.12992 | 17° | 27km/h | 33527m | -50.9m/s | -35.6°C | 1.8% | 0hPa | 2.6V | 00:00:00 | 02:25:25 | 00:00:00 | |
| DK5PH-5 | 2026-09-04 13:00:09 | 45.30934 | 9.12996 | 324° | 20km/h | 33644m | -61.7m/s | -35.6°C | 1.9% | 0hPa | 2.6V | 00:00:00 | 02:25:23 | 00:00:00 | |
| IW2NTF | 2026-09-04 13:00:07 | 45.30914 | 9.13019 | 318° | 27km/h | 33836m | -33m/s | -36.7°C | 2.2% | 0hPa | 2.6V | 08:30:00 | 02:25:19 | 00:00:00 | |
| DL1ZP-14 | 2026-09-04 13:00:02 | 45.30882 | 9.13066 | 279° | 18km/h | 33871m | 6.0m/s | 0°C | -1.0% | -1.0hPa | 2.6V | 00:00:00 | 00:00:00 | 00:00:00 | |
| DO3MHA-11 | 2026-09-04 13:00:01 | 45.30893 | 9.13046 | 318° | 20km/h | 33895m | 4.0m/s | -36.6°C | 2.2% | 0hPa | 2.7V | 00:00:00 | 02:25:15 | 00:00:00 | |
| IW2NTF | 2026-09-04 13:00:00 | 45.30882 | 9.13084 | 281° | 15km/h | 33854m | 5.6m/s | -36.7°C | 2.2% | 0hPa | 2.7V | 08:30:00 | 02:25:09 | 00:00:00 | |
| HARRO8 | 2026-09-04 12:59:51 | 45.30861 | 9.13100 | 358° | 22km/h | 33827m | 6.0m/s | -36.7°C | 0.6% | -1.0hPa | 2.6V | 00:00:00 | 00:00:00 | 00:00:00 | |
| IW2NTF | 2026-09-04 12:59:47 | 45.30839 | 9.13103 | 322° | 18km/h | 33797m | 6.2m/s | -36.6°C | 2.2% | 0hPa | 2.6V | 08:30:00 | 02:24:59 | 00:00:00 | |
| S52SK | 2026-09-04 12:59:45 | 45.30842 | 9.13100 | 340° | 15km/h | 33804m | 5.2m/s | -36.6°C | 0.7% | 0hPa | 2.6V | 00:00:00 | 00:00:00 | 00:00:00 | |
| OE5DRO-10 | 2026-09-04 12:59:44 | 45.30835 | 9.13108 | 312° | 22km/h | 33792m | 6.6m/s | -36.6°C | 2.2% | 0hPa | 2.6V | 00:00:00 | 00:00:00 | 00:00:00 | |
| DO3MHA-11 | 2026-09-04 12:59:41 | 45.30823 | 9.13130 | 308° | 22km/h | 33775m | 4.2m/s | -36.4°C | 2.1% | 0hPa | 2.6V | 00:00:00 | 02:24:55 | 00:00:00 | |
| IW2NTF | 2026-09-04 12:59:40 | 45.30803 | 9.13136 | 14° | 22km/h | 33742m | 5.9m/s | -36.4°C | 2.1% | 0hPa | 2.6V | 08:30:00 | 02:24:49 | 00:00:00 | |
| DK5PH-5 | 2026-09-04 12:59:39 | 45.30816 | 9.13141 | 326° | 16km/h | 33765m | 6.7m/s | -36.5°C | 2.1% | 0hPa | 2.7V | 00:00:00 | 02:24:53 | 00:00:00 | |
| DB0UT-7 | 2026-09-04 12:59:33 | 45.30789 | 9.13136 | 348° | 26km/h | 33730m | 5.9m/s | -36.5°C | 2.1% | 0hPa | 2.7V | 00:00:00 | 02:24:47 | 08:30:00 | |
| DO3MHA-11 | 2026-09-04 12:59:31 | 45.30773 | 9.13145 | 329° | 18km/h | 33719m | 4.5m/s | -36.4°C | 2.1% | 0hPa | 2.7V | 00:00:00 | 02:24:45 | 00:00:00 | |
| S52SK | 2026-09-04 12:59:29 | 45.30766 | 9.13152 | 320° | 31km/h | 33715m | 4.3m/s | -36.3°C | 0.6% | 0hPa | 2.7V | 00:00:00 | 00:00:00 | 00:00:00 | |
| IW2NTF | 2026-09-04 12:59:27 | 45.30759 | 9.13173 | 208° | 4km/h | 33685m | 4.3m/s | -36.1°C | 2.1% | 0hPa | 2.7V | 08:30:00 | 02:24:39 | 00:00:00 | |
| OE5DRO-10 | 2026-09-04 12:59:25 | 45.30759 | 9.13173 | 209° | 24km/h | 33686m | 4.3m/s | -36.0°C | 2.1% | 0hPa | 2.6V | 00:00:00 | 00:00:00 | 00:00:00 | |
| NBG1-10 | 2026-09-04 12:59:24 | 45.30759 | 9.13173 | 336° | 26km/h | 33681m | 4.0m/s | -36.1°C | 2.1% | 0hPa | 2.6V | 00:00:00 | 02:24:38 | 08:30:00 | |
| DO3MHA-11 | 2026-09-04 12:59:21 | 45.30745 | 9.13180 | 342° | 26km/h | 33664m | 6.6m/s | -36.3°C | 2.1% | 0hPa | 2.7V | 00:00:00 | 02:24:35 | 00:00:00 | |
| IW2NTF | 2026-09-04 12:59:20 | 45.30693 | 9.13201 | 348° | 13km/h | 33630m | 6.4m/s | -36.1°C | 2.1% | 0hPa | 2.6V | 08:30:00 | 02:24:29 | 00:00:00 | |
| HARRO8 | 2026-09-04 12:59:19 | 45.30725 | 9.13189 | 342° | 46km/h | 33653m | 4.6m/s | -36.3°C | 0.6% | -1.0hPa | 2.7V | 00:00:00 | 00:00:00 | 00:00:00 | |
| DO3MHA-11 | 2026-09-04 12:59:11 | 45.30691 | 9.13211 | 283° | 31km/h | 33608m | 5.7m/s | -35.9°C | 2.1% | 0hPa | 2.7V | 00:00:00 | 02:24:25 | 00:00:00 | |
| S52SK | 2026-09-04 12:59:10 | 45.30691 | 9.13211 | 283° | 16km/h | 33608m | 5.7m/s | -36.0°C | 0.6% | 0hPa | 2.7V | 00:00:00 | 00:00:00 | 00:00:00 | |
| OE3JTB-15 | 2026-09-04 12:59:09 | 45.30685 | 9.13226 | 310° | 35km/h | 33596m | 6.2m/s | 0°C | 0% | 0hPa | 2.7V | 00:00:00 | 00:00:00 | 00:00:00 | |
| DK5PH-5 | 2026-09-04 12:59:08 | 45.30671 | 9.13242 | 331° | 22km/h | 33584m | 5.5m/s | -36.2°C | 2.1% | 0hPa | 2.7V | 00:00:00 | 02:24:21 | 00:00:00 | |
| IW2NTF | 2026-09-04 12:59:08 | 45.30653 | 9.13251 | 349° | 35km/h | 33571m | 6.7m/s | -36.3°C | 2.1% | 0hPa | 2.7V | 08:30:00 | 02:24:19 | 00:00:00 | |
| OE5DRO-10 | 2026-09-04 12:59:06 | 45.30662 | 9.13248 | 340° | 26km/h | 33578m | 6.1m/s | -36.3°C | 2.1% | 0hPa | 2.7V | 00:00:00 | 00:00:00 | 00:00:00 | |
| S52SK | 2026-09-04 12:59:05 | 45.30662 | 9.13248 | 341° | 38km/h | 33578m | 6.1m/s | -36.3°C | 0.6% | 0hPa | 2.6V | 00:00:00 | 00:00:00 | 00:00:00 | |
| DB0UT-7 | 2026-09-04 12:59:03 | 45.30638 | 9.13251 | 11° | 22km/h | 33560m | 5.3m/s | -36.2°C | 2.1% | 0hPa | 2.6V | 00:00:00 | 00:00:00 | 00:00:00 | |
| DO3MHA-11 | 2026-09-04 12:59:01 | 45.30626 | 9.13248 | 9° | 24km/h | 33549m | 5.6m/s | -36.3°C | 2.1% | 0hPa | 2.6V | 00:00:00 | 02:24:15 | 00:00:00 | |
| IW2NTF | 2026-09-04 12:59:00 | 45.30597 | 9.13275 | 305° | 26km/h | 33514m | 6.4m/s | -36.2°C | 2.1% | 0hPa | 2.6V | 08:30:00 | 02:24:09 | 00:00:00 | |
| HARRO8 | 2026-09-04 12:58:48 | 45.30553 | 9.13317 | 338° | 16km/h | 33462m | 5.6m/s | -36.4°C | 0.6% | -1.0hPa | 2.6V | 00:00:00 | 00:00:00 | 00:00:00 | |
| IW2NTF | 2026-09-04 12:58:47 | 45.30550 | 9.13319 | 330° | 9km/h | 33455m | 7m/s | -36.3°C | 2.2% | 0hPa | 2.6V | 08:30:00 | 02:23:59 | 00:00:00 | |
| OE5DRO-10 | 2026-09-04 12:58:47 | 45.30557 | 9.13314 | 341° | 15km/h | 33467m | 4.4m/s | -36.4°C | 2.2% | 0hPa | 2.6V | 00:00:00 | 00:00:00 | 00:00:00 | |
| S52SK | 2026-09-04 12:58:45 | 45.30553 | 9.13317 | 339° | 16km/h | 33462m | 5.6m/s | -36.4°C | 0.6% | 0hPa | 2.6V | 00:00:00 | 00:00:00 | 00:00:00 | |
| DO3MHA-11 | 2026-09-04 12:58:41 | 45.30552 | 9.13331 | 259° | 18km/h | 33431m | 6.4m/s | -36.2°C | 2.2% | 0hPa | 2.6V | 00:00:00 | 02:23:55 | 00:00:00 | |
| IW2NTF | 2026-09-04 12:58:39 | 45.30535 | 9.13377 | 332° | 11km/h | 33390m | 5.6m/s | -36.1°C | 2.1% | 0hPa | 2.6V | 08:30:00 | 02:23:48 | 00:00:00 | |
| DK5PH-5 | 2026-09-04 12:58:36 | 45.30541 | 9.13369 | 311° | 18km/h | 33402m | 6.2m/s | -36.1°C | 2.1% | 0hPa | 2.7V | 00:00:00 | 02:23:50 | 00:00:00 | |
| DB0UT-7 | 2026-09-04 12:58:33 | 45.30533 | 9.13378 | 345° | 18km/h | 33385m | 5.2m/s | -36.1°C | 2.1% | 0hPa | 2.6V | 00:00:00 | 02:23:47 | 00:00:00 | |
| DO3MHA-11 | 2026-09-04 12:58:31 | 45.30529 | 9.13380 | 337° | 15km/h | 33373m | 6.4m/s | -36.1°C | 2.1% | 0hPa | 2.6V | 00:00:00 | 02:23:45 | 00:00:00 | |
| OE5DRO-10 | 2026-09-04 12:58:28 | 45.30523 | 9.13390 | 287° | 18km/h | 33357m | 5.1m/s | -36.3°C | 2.2% | 0hPa | 2.6V | 00:00:00 | 00:00:00 | 00:00:00 | |
| IW2NTF | 2026-09-04 12:58:27 | 45.30526 | 9.13412 | 249° | 16km/h | 33333m | 4.8m/s | -36.1°C | 2.2% | 0hPa | 2.6V | 08:30:00 | 02:23:38 | 00:00:00 | |
| S52SK | 2026-09-04 12:58:24 | 45.30524 | 9.13406 | 249° | 18km/h | 33338m | 6.1m/s | -36.2°C | 0.7% | 0hPa | 2.7V | 00:00:00 | 00:00:00 | 00:00:00 | |
| DO3MHA-11 | 2026-09-04 12:58:21 | 45.30524 | 9.13429 | 313° | 18km/h | 33318m | 6.9m/s | -36.1°C | 2.2% | 0hPa | 2.7V | 00:00:00 | 02:23:35 | 08:30:00 | |
| IW2NTF | 2026-09-04 12:58:19 | 45.30493 | 9.13453 | 231° | 7km/h | 33276m | 5.9m/s | -36.1°C | 2.1% | 0hPa | 2.7V | 08:30:00 | 02:23:28 | 00:00:00 | |
| NBG1-10 | 2026-09-04 12:58:18 | 45.30506 | 9.13444 | 340° | 16km/h | 33299m | 4.6m/s | -35.9°C | 2.2% | 0hPa | 2.7V | 00:00:00 | 02:23:32 | 00:00:00 | |
| DO3MHA-11 | 2026-09-04 12:58:11 | 45.30498 | 9.13464 | 260° | 18km/h | 33261m | 5.1m/s | -36.0°C | 2.1% | 0hPa | 2.7V | 00:00:00 | 02:23:25 | 00:00:00 | |
| OE5DRO-10 | 2026-09-04 12:58:09 | 45.30496 | 9.13477 | 307° | 18km/h | 33250m | 5.9m/s | -36.0°C | 2.1% | 0hPa | 2.7V | 00:00:00 | 00:00:00 | 08:30:00 | |
| IW2NTF | 2026-09-04 12:58:07 | 45.30472 | 9.13499 | 326° | 15km/h | 33220m | 5.8m/s | -36.2°C | 2.1% | 0hPa | 2.7V | 08:30:00 | 02:23:18 | 00:00:00 | |
| DK5PH-5 | 2026-09-04 12:58:06 | 45.30480 | 9.13493 | 336° | 16km/h | 33232m | 6.1m/s | -36.1°C | 2.1% | 0hPa | 2.6V | 00:00:00 | 02:23:20 | 00:00:00 | |
| DB0UT-7 | 2026-09-04 12:58:03 | 45.30469 | 9.13502 | 303° | 15km/h | 33214m | 5.6m/s | -36.2°C | 2.1% | 0hPa | 2.6V | 00:00:00 | 00:00:00 | 00:00:00 | |
| DO3MHA-11 | 2026-09-04 12:58:01 | 45.30469 | 9.13510 | 266° | 18km/h | 33203m | 5.4m/s | -36.3°C | 2.1% | 0hPa | 2.7V | 00:00:00 | 02:23:15 | 00:00:00 | |
| IW2NTF | 2026-09-04 12:57:59 | 45.30468 | 9.13565 | 255° | 18km/h | 33163m | 6.2m/s | -36.6°C | 2.1% | 0hPa | 2.7V | 08:30:00 | 02:23:08 | 00:00:00 | |
| S52SK | 2026-09-04 12:57:58 | 45.30469 | 9.13523 | 273° | 22km/h | 33191m | 6.2m/s | -36.5°C | 0.7% | 0hPa | 2.6V | 00:00:00 | 00:00:00 | 00:00:00 | |
| S52SK | 2026-09-04 12:57:52 | 45.30469 | 9.13570 | 244° | 13km/h | 33157m | 5.5m/s | -36.6°C | 0.6% | 0hPa | 2.6V | 00:00:00 | 00:00:00 | 00:00:00 | |
| DO3MHA-11 | 2026-09-04 12:57:51 | 45.30471 | 9.13575 | 232° | 11km/h | 33147m | 5.4m/s | -36.8°C | 2.1% | 0hPa | 2.6V | 00:00:00 | 02:23:05 | 00:00:00 | |
| OE5DRO-10 | 2026-09-04 12:57:50 | 45.30471 | 9.13574 | 40° | 13km/h | 33141m | 6.8m/s | -36.9°C | 2.1% | 0hPa | 2.7V | 00:00:00 | 00:00:00 | 00:00:00 | |
| IW2NTF | 2026-09-04 12:57:47 | 45.30464 | 9.13569 | 222° | 13km/h | 33107m | 6.3m/s | -36.8°C | 2.1% | 0hPa | 2.7V | 08:30:00 | 02:22:58 | 00:00:00 | |
| NBG1-10 | 2026-09-04 12:57:45 | 45.30462 | 9.13567 | 225° | 18km/h | 33113m | 6.3m/s | -36.8°C | 2.1% | 0hPa | 2.7V | 00:00:00 | 02:22:59 | 00:00:00 | |
| OE3JTB-15 | 2026-09-04 12:57:42 | 45.30470 | 9.13579 | 235° | 16km/h | 33096m | 4.8m/s | 0°C | 0% | 0hPa | 2.6V | 00:00:00 | 02:22:56 | 00:00:00 | |
| DO3MHA-11 | 2026-09-04 12:57:41 | 45.30473 | 9.13585 | 246° | 15km/h | 33091m | 5.6m/s | -36.8°C | 2.1% | 0hPa | 2.6V | 00:00:00 | 02:22:55 | 00:00:00 | |
| IW2NTF | 2026-09-04 12:57:39 | 45.30463 | 9.13619 | 277° | 7km/h | 33049m | 6.1m/s | -37.3°C | 2.1% | 0hPa | 2.6V | 08:30:00 | 02:22:48 | 00:00:00 | |
| DK5PH-5 | 2026-09-04 12:57:36 | 45.30466 | 9.13612 | 318° | 18km/h | 33062m | 5.7m/s | -37.0°C | 2.1% | 0hPa | 2.7V | 00:00:00 | 02:22:50 | 00:00:00 | |
| DO3MHA-11 | 2026-09-04 12:57:31 | 45.30467 | 9.13627 | 232° | 18km/h | 33033m | 4.8m/s | -37.6°C | 2.2% | 0hPa | 2.7V | 00:00:00 | 02:22:45 | 00:00:00 | |
| IW2NTF | 2026-09-04 12:57:26 | 45.30461 | 9.13661 | 276° | 24km/h | 32995m | 6m/s | -37.7°C | 2.2% | 0hPa | 2.7V | 08:30:00 | 02:22:38 | 00:00:00 | |
| DO3MHA-11 | 2026-09-04 12:57:21 | 45.30465 | 9.13691 | 248° | 20km/h | 32977m | 4.9m/s | -37.7°C | 2.2% | 0hPa | 2.6V | 00:00:00 | 02:22:35 | 00:00:00 | |
| IW2NTF | 2026-09-04 12:57:19 | 45.30459 | 9.13733 | 336° | 18km/h | 32939m | 3.9m/s | -38.1°C | 2.3% | 0hPa | 2.6V | 08:30:00 | 02:22:28 | 00:00:00 | |
| NBG1-10 | 2026-09-04 12:57:12 | 45.30454 | 9.13740 | 281° | 13km/h | 32930m | 6.0m/s | -38.1°C | 2.3% | 0hPa | 2.6V | 00:00:00 | 02:22:26 | 00:00:00 | |
| S52SK | 2026-09-04 12:57:11 | 45.30455 | 9.13746 | 250° | 20km/h | 32924m | 6.4m/s | -38.1°C | 0.7% | 0hPa | 2.6V | 00:00:00 | 00:00:00 | 00:00:00 | |
| IW2NTF | 2026-09-04 12:57:07 | 45.30478 | 9.13777 | 56° | 7km/h | 32885m | 6.1m/s | -38°C | 2.3% | 0hPa | 2.6V | 08:30:00 | 02:22:18 | 00:00:00 | |
| DK5PH-5 | 2026-09-04 12:57:06 | 45.30477 | 9.13778 | 206° | 11km/h | 32898m | 6.1m/s | -38.1°C | 2.3% | 0hPa | 2.7V | 00:00:00 | 02:22:20 | 08:30:00 | |
| S52SK | 2026-09-04 12:57:04 | 45.30479 | 9.13779 | 157° | 4km/h | 32892m | 6.6m/s | -38.1°C | 0.7% | 0hPa | 2.6V | 00:00:00 | 00:00:00 | 00:00:00 | |
| DB0UT-7 | 2026-09-04 12:57:03 | 45.30477 | 9.13775 | 42° | 11km/h | 32879m | 5.1m/s | -38.0°C | 2.3% | 0hPa | 2.6V | 00:00:00 | 00:00:00 | 00:00:00 | |
| DO3MHA-11 | 2026-09-04 12:57:01 | 45.30472 | 9.13771 | 12° | 11km/h | 32869m | 5.7m/s | -38.0°C | 2.3% | 0hPa | 2.6V | 00:00:00 | 02:22:15 | 00:00:00 | |
| IW2NTF | 2026-09-04 12:57:00 | 45.30490 | 9.13783 | 175° | 13km/h | 32828m | 5.6m/s | -38°C | 2.3% | 0hPa | 2.6V | 08:30:00 | 02:22:08 | 00:00:00 | |
| DF7PN | 2026-09-04 12:56:59 | 45.30495 | 9.13782 | 174° | 4km/h | 32818m | 4.7m/s | -38.0°C | 0.7% | -1.0hPa | 2.7V | 00:00:00 | 00:00:00 | 00:00:00 | |
| OE5DRO-10 | 2026-09-04 12:56:53 | 45.30493 | 9.13783 | 171° | 11km/h | 32823m | 5.1m/s | -37.9°C | 2.3% | 0hPa | 2.7V | 00:00:00 | 00:00:00 | 00:00:00 | |
| DO3MHA-11 | 2026-09-04 12:56:51 | 45.30496 | 9.13783 | 213° | 7km/h | 32813m | 5.2m/s | -38.0°C | 2.3% | 0hPa | 2.7V | 00:00:00 | 02:22:05 | 08:30:00 | |
| IW2NTF | 2026-09-04 12:56:47 | 45.30499 | 9.13805 | 323° | 4km/h | 32774m | 6.3m/s | -38.2°C | 2.3% | 0hPa | 2.7V | 08:30:00 | 02:21:58 | 00:00:00 | |
| HARRO8 | 2026-09-04 12:56:45 | 45.30499 | 9.13805 | 323° | 4km/h | 32774m | 6.3m/s | -38.2°C | 0.7% | -1.0hPa | 2.7V | 00:00:00 | 00:00:00 | 00:00:00 | |
| DO3MHA-11 | 2026-09-04 12:56:41 | 45.30497 | 9.13806 | 236° | 15km/h | 32758m | 5.5m/s | -37.9°C | 2.3% | 0hPa | 2.7V | 00:00:00 | 02:21:55 | 00:00:00 | |
| IW2NTF | 2026-09-04 12:56:39 | 45.30504 | 9.13838 | 302° | 16km/h | 32718m | 5.2m/s | -38.1°C | 2.3% | 0hPa | 2.7V | 08:30:00 | 02:21:48 | 00:00:00 | |
| NBG1-10 | 2026-09-04 12:56:39 | 45.30500 | 9.13810 | 233° | 18km/h | 32746m | 5.9m/s | -37.8°C | 2.2% | 0hPa | 2.6V | 00:00:00 | 02:21:53 | 00:00:00 | |
| DK5PH-5 | 2026-09-04 12:56:36 | 45.30506 | 9.13827 | 264° | 18km/h | 32729m | 6.0m/s | -38.0°C | 2.3% | 0hPa | 2.6V | 00:00:00 | 02:21:50 | 00:00:00 | |
| DB0UT-7 | 2026-09-04 12:56:34 | 45.30501 | 9.13842 | 309° | 20km/h | 32713m | 4.9m/s | -38.0°C | 2.3% | 0hPa | 2.6V | 00:00:00 | 02:21:47 | 00:00:00 | |
| DO3MHA-11 | 2026-09-04 12:56:31 | 45.30496 | 9.13853 | 302° | 16km/h | 32701m | 6.3m/s | -37.9°C | 2.3% | 0hPa | 2.7V | 00:00:00 | 02:21:45 | 00:00:00 | |
| DF7PN | 2026-09-04 12:56:28 | 45.30488 | 9.13875 | 303° | 11km/h | 32679m | 6.4m/s | -37.9°C | 0.7% | -1.0hPa | 2.7V | 00:00:00 | 00:00:00 | 00:00:00 | |
| IW2NTF | 2026-09-04 12:56:27 | 45.30483 | 9.13883 | 289° | 9km/h | 32662m | 4.2m/s | -37.5°C | 2.2% | 0hPa | 2.7V | 08:30:00 | 02:21:38 | 00:00:00 | |
| DO3MHA-11 | 2026-09-04 12:56:21 | 45.30484 | 9.13900 | 260° | 22km/h | 32646m | 6.9m/s | -37.5°C | 2.2% | 0hPa | 2.6V | 00:00:00 | 02:21:35 | 00:00:00 | |
| IW2NTF | 2026-09-04 12:56:19 | 45.30476 | 9.13952 | 1° | 16km/h | 32607m | 5m/s | -37.8°C | 2.2% | 0hPa | 2.6V | 08:30:00 | 02:21:28 | 00:00:00 | |
| S52SK | 2026-09-04 12:56:17 | 45.30487 | 9.13933 | 274° | 27km/h | 32631m | 3.9m/s | -37.5°C | 0.7% | 0hPa | 2.6V | 00:00:00 | 00:00:00 | 00:00:00 | |
| OE5DRO-10 | 2026-09-04 12:56:15 | 45.30480 | 9.13951 | 343° | 22km/h | 32613m | 6.3m/s | -37.7°C | 2.2% | 0hPa | 2.6V | 00:00:00 | 00:00:00 | 00:00:00 | |
| HARRO8 | 2026-09-04 12:56:13 | 45.30473 | 9.13952 | 1° | 13km/h | 32603m | 4.4m/s | -37.7°C | -1.0% | -1.0hPa | 2.6V | 00:00:00 | 00:00:00 | 00:00:00 | |
| S52SK | 2026-09-04 12:56:12 | 45.30473 | 9.13952 | 3° | 15km/h | 32603m | 4.4m/s | -37.7°C | 0.7% | 0hPa | 2.6V | 00:00:00 | 00:00:00 | 00:00:00 | |
| IW2NTF | 2026-09-04 12:56:07 | 45.30467 | 9.14021 | 285° | 31km/h | 32554m | 4.8m/s | -37.7°C | 2.2% | 0hPa | 2.6V | 08:30:00 | 02:21:18 | 00:00:00 | |
| NBG1-10 | 2026-09-04 12:56:06 | 45.30470 | 9.13998 | 277° | 22km/h | 32564m | 5.4m/s | -37.6°C | 2.2% | 0hPa | 2.6V | 00:00:00 | 02:21:20 | 00:00:00 | |
| DB0UT-7 | 2026-09-04 12:56:03 | 45.30465 | 9.14031 | 287° | 22km/h | 32549m | 5.4m/s | -37.7°C | 2.2% | 0hPa | 2.6V | 00:00:00 | 00:00:00 | 00:00:00 | |
| IW2NTF | 2026-09-04 12:56:00 | 45.30451 | 9.14090 | 272° | 18km/h | 32500m | 4.7m/s | -38°C | 2.2% | 0hPa | 2.6V | 08:30:00 | 02:21:08 | 00:00:00 | |
| DF7PN | 2026-09-04 12:55:57 | 45.30454 | 9.14079 | 310° | 15km/h | 32509m | 4.9m/s | -38.0°C | -1.0% | -1.0hPa | 2.7V | 00:00:00 | 00:00:00 | 00:00:00 | |
| OE5DRO-10 | 2026-09-04 12:55:56 | 45.30454 | 9.14079 | 311° | 22km/h | 32509m | 4.8m/s | -38.0°C | 2.2% | 0hPa | 2.7V | 00:00:00 | 00:00:00 | 00:00:00 | |
| DO3MHA-11 | 2026-09-04 12:55:50 | 45.30461 | 9.14127 | 247° | 24km/h | 32477m | 3.9m/s | -38.1°C | 2.2% | 0hPa | 2.7V | 00:00:00 | 02:21:04 | 00:00:00 | |
| IW2NTF | 2026-09-04 12:55:47 | 45.30453 | 9.14180 | 326° | 20km/h | 32445m | 4.4m/s | -38.4°C | 2.2% | 0hPa | 2.6V | 08:30:00 | 02:20:58 | 00:00:00 | |
| S52SK | 2026-09-04 12:55:45 | 45.30462 | 9.14169 | 307° | 26km/h | 32456m | 6.0m/s | -38.2°C | 0.7% | 0hPa | 2.7V | 00:00:00 | 00:00:00 | 00:00:00 | |
| DO3MHA-11 | 2026-09-04 12:55:40 | 45.30451 | 9.14194 | 219° | 16km/h | 32424m | 5.2m/s | -38.4°C | 2.3% | 0hPa | 2.7V | 00:00:00 | 02:20:54 | 00:00:00 | |
| S52SK | 2026-09-04 12:55:39 | 45.30451 | 9.14194 | 219° | 18km/h | 32424m | 5.2m/s | -38.4°C | 0.7% | 0hPa | 2.7V | 00:00:00 | 00:00:00 | 00:00:00 | |
| IW2NTF | 2026-09-04 12:55:37 | 45.30466 | 9.14225 | 284° | 13km/h | 32382m | 5.5m/s | -38.5°C | 2.2% | 0hPa | 2.7V | 08:30:00 | 02:20:46 | 00:00:00 | |
| OE5DRO-10 | 2026-09-04 12:55:37 | 45.30463 | 9.14207 | 222° | 13km/h | 32408m | 5.7m/s | -38.4°C | 2.3% | 0hPa | 2.7V | 00:00:00 | 00:00:00 | 00:00:00 | |
| DK5PH-5 | 2026-09-04 12:55:36 | 45.30466 | 9.14211 | 234° | 11km/h | 32403m | 5.5m/s | -38.4°C | 2.3% | 0hPa | 2.7V | 00:00:00 | 02:20:50 | 00:00:00 | |
| DB0UT-7 | 2026-09-04 12:55:33 | 45.30467 | 9.14221 | 289° | 11km/h | 32388m | 5.0m/s | -38.4°C | 2.3% | 0hPa | 2.6V | 00:00:00 | 02:20:47 | 00:00:00 | |
| DO3MHA-11 | 2026-09-04 12:55:30 | 45.30464 | 9.14236 | 283° | 15km/h | 32372m | 5.2m/s | -38.6°C | 2.3% | 0hPa | 2.6V | 00:00:00 | 02:20:44 | 00:00:00 | |
| IW2NTF | 2026-09-04 12:55:27 | 45.30454 | 9.14264 | 164° | 11km/h | 32328m | 6.6m/s | -38.9°C | 2.3% | 0hPa | 2.6V | 08:30:00 | 02:20:36 | 00:00:00 | |
| DF7PN | 2026-09-04 12:55:26 | 45.30454 | 9.14263 | 318° | 9km/h | 32344m | 4.3m/s | -38.9°C | -1.0% | -1.0hPa | 2.7V | 00:00:00 | 00:00:00 | 00:00:00 | |
| DO3MHA-11 | 2026-09-04 12:55:20 | 45.30461 | 9.14262 | 164° | 11km/h | 32318m | 3.6m/s | -39.0°C | 2.3% | 0hPa | 2.7V | 00:00:00 | 02:20:34 | 08:30:00 | |
| S52SK | 2026-09-04 12:55:19 | 45.30464 | 9.14260 | 165° | 9km/h | 32314m | 4.2m/s | -39.2°C | 0.7% | 0hPa | 2.7V | 00:00:00 | 00:00:00 | 00:00:00 | |
| OE5DRO-10 | 2026-09-04 12:55:18 | 45.30466 | 9.14260 | 138° | 9km/h | 32309m | 6.2m/s | -39.2°C | 2.3% | 0hPa | 2.7V | 00:00:00 | 00:00:00 | 08:30:00 | |
| IW2NTF | 2026-09-04 12:55:17 | 45.30450 | 9.14264 | 305° | 4km/h | 32274m | 5.8m/s | -39.8°C | 2.5% | 0hPa | 2.6V | 08:30:00 | 02:20:26 | 00:00:00 | |
| S52SK | 2026-09-04 12:55:13 | 45.30454 | 9.14261 | 349° | 15km/h | 32286m | 5.3m/s | -39.7°C | 0.7% | 0hPa | 2.6V | 00:00:00 | 00:00:00 | 00:00:00 | |
| HARRO8 | 2026-09-04 12:55:11 | 45.30450 | 9.14265 | 219° | 4km/h | 32269m | 5.3m/s | 0°C | -1.0% | -1.0hPa | 2.6V | 00:00:00 | 00:00:00 | 00:00:00 | |
| DO3MHA-11 | 2026-09-04 12:55:10 | 45.30451 | 9.14266 | 196° | 7km/h | 32264m | 4.6m/s | -39.8°C | 2.5% | 0hPa | 2.6V | 00:00:00 | 02:20:24 | 00:00:00 | |
| IW2NTF | 2026-09-04 12:55:07 | 45.30444 | 9.14256 | 30° | 9km/h | 32221m | 5.8m/s | -39.9°C | 2.5% | 0hPa | 2.6V | 08:30:00 | 02:20:16 | 00:00:00 | |
| DK5PH-5 | 2026-09-04 12:55:06 | 45.30454 | 9.14264 | 38° | 13km/h | 32243m | 5.6m/s | -39.8°C | 2.5% | 0hPa | 2.6V | 00:00:00 | 02:20:20 | 00:00:00 | |
| DB0UT-7 | 2026-09-04 12:55:03 | 45.30447 | 9.14258 | 26° | 13km/h | 32227m | 5.8m/s | -40.0°C | 2.5% | 0hPa | 2.6V | 00:00:00 | 00:00:00 | 08:30:00 | |
| DO3MHA-11 | 2026-09-04 12:55:00 | 45.30441 | 9.14252 | 48° | 11km/h | 32211m | 4.6m/s | -39.9°C | 2.5% | 0hPa | 2.6V | 00:00:00 | 02:20:14 | 00:00:00 | |
| OE5DRO-10 | 2026-09-04 12:54:59 | 45.30439 | 9.14249 | 49° | 16km/h | 32206m | 5.0m/s | -40.0°C | 2.5% | 0hPa | 2.6V | 00:00:00 | 00:00:00 | 00:00:00 | |
| IW2NTF | 2026-09-04 12:54:56 | 45.30421 | 9.14224 | 78° | 2km/h | 32168m | 6m/s | -40°C | 2.6% | 0hPa | 2.6V | 08:30:00 | 02:20:06 | 00:00:00 | |
| PG1ADW-2 | 2026-09-04 12:54:54 | 45.30424 | 9.14229 | 46° | 15km/h | 32180m | 5.0m/s | 0°C | 0% | 0hPa | 2.6V | 00:00:00 | 00:00:00 | 00:00:00 | |
| S52SK | 2026-09-04 12:54:53 | 45.30424 | 9.14229 | 47° | 13km/h | 32180m | 5.1m/s | -40.2°C | 0.8% | 0hPa | 2.6V | 00:00:00 | 00:00:00 | 00:00:00 | |
| DO3MHA-11 | 2026-09-04 12:54:50 | 45.30422 | 9.14223 | 108° | 20km/h | 32158m | 4.3m/s | -40.0°C | 2.6% | 0hPa | 2.6V | 00:00:00 | 02:20:04 | 00:00:00 | |
| IW2NTF | 2026-09-04 12:54:47 | 45.30393 | 9.14176 | 64° | 15km/h | 32116m | 5.9m/s | -39.7°C | 2.5% | 0hPa | 2.6V | 08:30:00 | 02:19:56 | 00:00:00 | |
| DO3MHA-11 | 2026-09-04 12:54:40 | 45.30393 | 9.14171 | 169° | 11km/h | 32105m | 5.8m/s | -39.7°C | 2.5% | 0hPa | 2.6V | 00:00:00 | 02:19:54 | 00:00:00 | |
| IW2NTF | 2026-09-04 12:54:36 | 45.30378 | 9.14182 | 0° | 22km/h | 32060m | 5.1m/s | -39.4°C | 2.4% | 0hPa | 2.6V | 08:30:00 | 02:19:46 | 00:00:00 | |
| DK5PH-5 | 2026-09-04 12:54:36 | 45.30394 | 9.14176 | 329° | 20km/h | 32083m | 5.0m/s | -39.5°C | 2.5% | 0hPa | 2.6V | 00:00:00 | 02:19:50 | 00:00:00 | |
| DB0UT-7 | 2026-09-04 12:54:33 | 45.30383 | 9.14182 | 350° | 20km/h | 32066m | 5.7m/s | -39.3°C | 2.4% | 0hPa | 2.6V | 00:00:00 | 02:19:47 | 00:00:00 | |
| S52SK | 2026-09-04 12:54:31 | 45.30378 | 9.14182 | 2° | 22km/h | 32060m | 5.1m/s | -39.4°C | 0.7% | 0hPa | 2.6V | 00:00:00 | 00:00:00 | 00:00:00 | |
| DO3MHA-11 | 2026-09-04 12:54:30 | 45.30366 | 9.14178 | 24° | 18km/h | 32049m | 6.2m/s | -39.2°C | 2.4% | 0hPa | 2.6V | 00:00:00 | 02:19:44 | 00:00:00 | |
| NBG1-10 | 2026-09-04 12:54:27 | 45.30351 | 9.14163 | 52° | 16km/h | 32034m | 3.7m/s | -39.2°C | 2.4% | 0hPa | 2.6V | 00:00:00 | 02:19:41 | 08:30:00 | |
| IW2NTF | 2026-09-04 12:54:26 | 45.30355 | 9.14176 | 263° | 24km/h | 32007m | 3.9m/s | -39°C | 2.4% | 0hPa | 2.7V | 08:30:00 | 02:19:36 | 00:00:00 | |
| PG1ADW-2 | 2026-09-04 12:54:26 | 45.30350 | 9.14160 | 70° | 15km/h | 32030m | 5.4m/s | 0°C | 0% | 0hPa | 2.6V | 00:00:00 | 00:00:00 | 00:00:00 | |
| DF7PN | 2026-09-04 12:54:23 | 45.30354 | 9.14168 | 248° | 22km/h | 32011m | 4.6m/s | -39.0°C | -1.0% | -1.0hPa | 2.6V | 00:00:00 | 00:00:00 | 00:00:00 | |
| OE5DRO-10 | 2026-09-04 12:54:21 | 45.30355 | 9.14184 | 285° | 16km/h | 32003m | 4.6m/s | -38.9°C | 2.4% | 0hPa | 2.6V | 00:00:00 | 00:00:00 | 00:00:00 | |
| DO3MHA-11 | 2026-09-04 12:54:20 | 45.30353 | 9.14190 | 317° | 18km/h | 31998m | 5.6m/s | -38.9°C | 2.4% | 0hPa | 2.6V | 00:00:00 | 02:19:34 | 00:00:00 | |
| IW2NTF | 2026-09-04 12:54:17 | 45.30319 | 9.14177 | 255° | 11km/h | 31953m | 5.6m/s | -38.7°C | 2.4% | 0hPa | 2.7V | 08:30:00 | 02:19:26 | 00:00:00 | |
| DO3MHA-11 | 2026-09-04 12:54:10 | 45.30320 | 9.14189 | 276° | 15km/h | 31942m | 5.8m/s | -38.6°C | 2.4% | 0hPa | 2.7V | 00:00:00 | 02:19:24 | 00:00:00 | |
| IW2NTF | 2026-09-04 12:54:06 | 45.30298 | 9.14223 | 346° | 5km/h | 31895m | 5.3m/s | -38.4°C | 2.3% | 0hPa | 2.7V | 08:30:00 | 02:19:16 | 00:00:00 | |
| DK5PH-5 | 2026-09-04 12:54:06 | 45.30309 | 9.14215 | 323° | 16km/h | 31920m | 5.3m/s | -38.5°C | 2.3% | 0hPa | 2.7V | 00:00:00 | 02:19:20 | 00:00:00 | |
| DB0UT-7 | 2026-09-04 12:54:03 | 45.30299 | 9.14223 | 345° | 16km/h | 31902m | 5.8m/s | -38.5°C | 2.4% | 0hPa | 2.6V | 00:00:00 | 00:00:00 | 00:00:00 | |
| OE5DRO-10 | 2026-09-04 12:54:01 | 45.30296 | 9.14224 | 346° | 18km/h | 31891m | 4.8m/s | -38.4°C | 2.3% | 0hPa | 2.6V | 00:00:00 | 00:00:00 | 00:00:00 | |
| DO3MHA-11 | 2026-09-04 12:54:00 | 45.30294 | 9.14225 | 342° | 26km/h | 31886m | 4.6m/s | -38.5°C | 2.3% | 0hPa | 2.6V | 00:00:00 | 02:19:14 | 00:00:00 | |
| S52SK | 2026-09-04 12:53:59 | 45.30294 | 9.14225 | 342° | 9km/h | 31886m | 4.7m/s | -38.6°C | 0.7% | 0hPa | 2.6V | 00:00:00 | 00:00:00 | 00:00:00 | |
| IW2NTF | 2026-09-04 12:53:56 | 45.30278 | 9.14285 | 259° | 35km/h | 31840m | 4.2m/s | -38.5°C | 2.3% | 0hPa | 2.6V | 08:30:00 | 02:19:06 | 00:00:00 | |
| DF7PN | 2026-09-04 12:53:52 | 45.30278 | 9.14285 | 259° | 33km/h | 31840m | 4.2m/s | 0°C | -1.0% | -1.0hPa | 2.6V | 00:00:00 | 00:00:00 | 00:00:00 | |
| DO3MHA-11 | 2026-09-04 12:53:50 | 45.30281 | 9.14303 | 257° | 11km/h | 31831m | 5.9m/s | -38.5°C | 2.3% | 0hPa | 2.6V | 00:00:00 | 02:19:04 | 08:30:00 | |
| IW2NTF | 2026-09-04 12:53:46 | 45.30281 | 9.14319 | 242° | 22km/h | 31785m | 5.5m/s | -38.6°C | 2.3% | 0hPa | 2.7V | 08:30:00 | 02:18:56 | 00:00:00 | |
| OE5DRO-10 | 2026-09-04 12:53:42 | 45.30281 | 9.14319 | 243° | 16km/h | 31785m | 5.5m/s | -38.6°C | 2.3% | 0hPa | 2.6V | 00:00:00 | 00:00:00 | 00:00:00 | |
| DO3MHA-11 | 2026-09-04 12:53:41 | 45.30286 | 9.14334 | 253° | 16km/h | 31774m | 5.7m/s | -38.6°C | 2.3% | 0hPa | 2.6V | 00:00:00 | 02:18:54 | 00:00:00 | |
| HARRO8 | 2026-09-04 12:53:38 | 45.30284 | 9.14360 | 294° | 16km/h | 31751m | 5.3m/s | 0°C | -1.0% | -1.0hPa | 2.6V | 00:00:00 | 00:00:00 | 00:00:00 | |
| IW2NTF | 2026-09-04 12:53:36 | 45.30283 | 9.14378 | 216° | 11km/h | 31728m | 5.4m/s | -38.7°C | 2.3% | 0hPa | 2.6V | 08:30:00 | 02:18:46 | 00:00:00 | |
| DK5PH-5 | 2026-09-04 12:53:36 | 45.30284 | 9.14360 | 295° | 16km/h | 31751m | 5.3m/s | -38.7°C | 2.3% | 0hPa | 2.6V | 00:00:00 | 02:18:50 | 00:00:00 | |
| DB0UT-7 | 2026-09-04 12:53:33 | 45.30282 | 9.14375 | 253° | 15km/h | 31734m | 5.3m/s | -38.6°C | 2.3% | 0hPa | 2.6V | 00:00:00 | 02:18:47 | 00:00:00 | |
| S52SK | 2026-09-04 12:53:32 | 45.30282 | 9.14375 | 253° | 11km/h | 31734m | 5.3m/s | -38.7°C | 0.7% | 0hPa | 2.6V | 00:00:00 | 00:00:00 | 00:00:00 | |
| DO3MHA-11 | 2026-09-04 12:53:30 | 45.30289 | 9.14379 | 159° | 18km/h | 31716m | 7.0m/s | -38.6°C | 2.3% | 0hPa | 2.6V | 00:00:00 | 02:18:44 | 00:00:00 | |
| S52SK | 2026-09-04 12:53:27 | 45.30296 | 9.14373 | 152° | 16km/h | 31704m | 4.6m/s | -38.7°C | 0.7% | 0hPa | 2.6V | 00:00:00 | 00:00:00 | 00:00:00 | |
| IW2NTF | 2026-09-04 12:53:26 | 45.30312 | 9.14399 | 267° | 22km/h | 31672m | 4.1m/s | -38.8°C | 2.3% | 0hPa | 2.6V | 08:30:00 | 02:18:36 | 00:00:00 | |
| OE5DRO-10 | 2026-09-04 12:53:23 | 45.30311 | 9.14390 | 258° | 16km/h | 31677m | 4.6m/s | -38.8°C | 2.3% | 0hPa | 2.7V | 00:00:00 | 00:00:00 | 00:00:00 | |
| NBG1-10 | 2026-09-04 12:53:21 | 45.30312 | 9.14406 | 280° | 20km/h | 31668m | 5.4m/s | -38.9°C | 2.3% | 0hPa | 2.6V | 00:00:00 | 02:18:35 | 00:00:00 | |
| DO3MHA-11 | 2026-09-04 12:53:20 | 45.30311 | 9.14409 | 311° | 15km/h | 31662m | 5.9m/s | -38.9°C | 2.3% | 0hPa | 2.6V | 00:00:00 | 02:18:34 | 00:00:00 | |
| IW2NTF | 2026-09-04 12:53:16 | 45.30333 | 9.14380 | 194° | 18km/h | 31615m | 5.2m/s | -39.1°C | 2.3% | 0hPa | 2.6V | 08:30:00 | 02:18:26 | 00:00:00 | |
| DO3MHA-11 | 2026-09-04 12:53:09 | 45.30338 | 9.14385 | 347° | 13km/h | 31597m | 6.0m/s | -39.3°C | 2.4% | 0hPa | 2.7V | 00:00:00 | 02:18:23 | 00:00:00 | |
| HARRO8 | 2026-09-04 12:53:07 | 45.30332 | 9.14374 | 77° | 11km/h | 31575m | 6.0m/s | 0°C | -1.0% | -1.0hPa | 2.7V | 00:00:00 | 00:00:00 | 00:00:00 | |
| IW2NTF | 2026-09-04 12:53:06 | 45.30334 | 9.14361 | 116° | 16km/h | 31558m | 4.9m/s | -39.7°C | 2.4% | 0hPa | 2.7V | 08:30:00 | 02:18:16 | 00:00:00 | |
| DK5PH-5 | 2026-09-04 12:53:06 | 45.30333 | 9.14379 | 60° | 22km/h | 31581m | 5.4m/s | -39.5°C | 2.4% | 0hPa | 2.7V | 00:00:00 | 02:18:20 | 00:00:00 | |
| OE5DRO-10 | 2026-09-04 12:53:03 | 45.30332 | 9.14366 | 113° | 18km/h | 31564m | 5.1m/s | -39.6°C | 2.4% | 0hPa | 2.7V | 00:00:00 | 00:00:00 | 00:00:00 | |
| S52SK | 2026-09-04 12:53:00 | 45.30336 | 9.14355 | 116° | 20km/h | 31554m | 5.6m/s | -39.8°C | 0.7% | 0hPa | 2.7V | 00:00:00 | 00:00:00 | 00:00:00 | |
| DO3MHA-11 | 2026-09-04 12:52:59 | 45.30340 | 9.14340 | 107° | 18km/h | 31541m | 6.2m/s | -39.8°C | 2.5% | 0hPa | 2.7V | 00:00:00 | 02:18:13 | 00:00:00 | |
| IW2NTF | 2026-09-04 12:52:56 | 45.30346 | 9.14297 | 69° | 15km/h | 31501m | 5.9m/s | -39.9°C | 2.5% | 0hPa | 2.7V | 08:30:00 | 02:18:06 | 00:00:00 | |
| DO3MHA-11 | 2026-09-04 12:52:49 | 45.30338 | 9.14276 | 62° | 27km/h | 31482m | 5.1m/s | -39.9°C | 2.5% | 0hPa | 2.6V | 00:00:00 | 02:18:03 | 00:00:00 | |
| IW2NTF | 2026-09-04 12:52:45 | 45.30328 | 9.14212 | 84° | 31km/h | 31440m | 6.3m/s | -40.1°C | 2.5% | 0hPa | 2.6V | 08:30:00 | 02:17:56 | 00:00:00 | |
| NBG1-10 | 2026-09-04 12:52:45 | 45.30329 | 9.14241 | 86° | 26km/h | 31459m | 5.5m/s | -40.0°C | 2.5% | 0hPa | 2.7V | 00:00:00 | 02:17:59 | 00:00:00 | |
| OE5DRO-10 | 2026-09-04 12:52:44 | 45.30329 | 9.14232 | 88° | 27km/h | 31453m | 5.4m/s | -40.1°C | 2.5% | 0hPa | 2.6V | 00:00:00 | 00:00:00 | 00:00:00 | |
| DO3MHA-11 | 2026-09-04 12:52:39 | 45.30325 | 9.14179 | 81° | 29km/h | 31423m | 6.6m/s | -40.0°C | 2.5% | 0hPa | 2.6V | 00:00:00 | 02:17:53 | 00:00:00 | |
| S52SK | 2026-09-04 12:52:38 | 45.30325 | 9.14179 | 82° | 27km/h | 31423m | 6.6m/s | -40.0°C | 0.8% | 0hPa | 2.6V | 00:00:00 | 00:00:00 | 00:00:00 | |
| IW2NTF | 2026-09-04 12:52:37 | 45.30295 | 9.14094 | 61° | 27km/h | 31369m | 6.9m/s | -40°C | 2.5% | 0hPa | 2.6V | 08:30:00 | 02:17:44 | 00:00:00 | |
| DK5PH-5 | 2026-09-04 12:52:36 | 45.30320 | 9.14153 | 68° | 26km/h | 31406m | 5.1m/s | -39.9°C | 2.5% | 0hPa | 2.6V | 00:00:00 | 02:17:50 | 08:30:00 | |
| DB0UT-7 | 2026-09-04 12:52:33 | 45.30308 | 9.14124 | 56° | 26km/h | 31387m | 5.5m/s | -39.9°C | 2.5% | 0hPa | 2.6V | 00:00:00 | 02:17:47 | 00:00:00 | |
| DO3MHA-11 | 2026-09-04 12:52:29 | 45.30292 | 9.14087 | 68° | 27km/h | 31363m | 6.3m/s | -39.8°C | 2.5% | 0hPa | 2.6V | 00:00:00 | 02:17:43 | 00:00:00 | |
| OE5DRO-10 | 2026-09-04 12:52:25 | 45.30286 | 9.14060 | 67° | 26km/h | 31341m | 6.5m/s | -39.7°C | 2.5% | 0hPa | 2.6V | 00:00:00 | 00:00:00 | 08:30:00 | |
| IW2NTF | 2026-09-04 12:52:23 | 45.30259 | 9.13991 | 51° | 22km/h | 31298m | 5.7m/s | -39.5°C | 2.3% | 0hPa | 2.6V | 08:30:00 | 02:17:32 | 00:00:00 | |
| DO3MHA-11 | 2026-09-04 12:52:19 | 45.30262 | 9.13998 | 58° | 22km/h | 31305m | 5.7m/s | -39.5°C | 2.4% | 0hPa | 2.6V | 00:00:00 | 02:17:33 | 08:30:00 | |
| S52SK | 2026-09-04 12:52:13 | 45.30240 | 9.13969 | 34° | 26km/h | 31274m | 5.3m/s | -39.6°C | 0.7% | 0hPa | 2.7V | 00:00:00 | 00:00:00 | 00:00:00 | |
| NBG1-10 | 2026-09-04 12:52:12 | 45.30231 | 9.13960 | 38° | 20km/h | 31262m | 7.0m/s | -39.5°C | 2.3% | 0hPa | 2.7V | 00:00:00 | 02:17:26 | 00:00:00 | |
| IW2NTF | 2026-09-04 12:52:10 | 45.30219 | 9.13939 | 55° | 26km/h | 31237m | 6.9m/s | -39.7°C | 2.3% | 0hPa | 2.7V | 08:30:00 | 02:17:22 | 00:00:00 | |
| DO3MHA-11 | 2026-09-04 12:52:09 | 45.30222 | 9.13946 | 57° | 24km/h | 31244m | 5.8m/s | -39.7°C | 2.4% | 0hPa | 2.7V | 00:00:00 | 02:17:23 | 00:00:00 | |
| S52SK | 2026-09-04 12:52:07 | 45.30219 | 9.13939 | 56° | 26km/h | 31238m | 6.9m/s | -39.7°C | 0.7% | 0hPa | 2.7V | 00:00:00 | 00:00:00 | 00:00:00 | |
| DK5PH-5 | 2026-09-04 12:52:06 | 45.30210 | 9.13923 | 47° | 20km/h | 31226m | 5.0m/s | -39.8°C | 2.4% | 0hPa | 2.7V | 00:00:00 | 02:17:20 | 00:00:00 | |
| DB0UT-7 | 2026-09-04 12:52:03 | 45.30194 | 9.13906 | 17° | 18km/h | 31208m | 6.7m/s | -40.0°C | 2.4% | 0hPa | 2.7V | 00:00:00 | 00:00:00 | 00:00:00 | |
| IW2NTF | 2026-09-04 12:52:02 | 45.30157 | 9.13900 | 32° | 20km/h | 31165m | 5.9m/s | -40.5°C | 2.5% | 0hPa | 2.7V | 08:30:00 | 02:17:10 | 00:00:00 | |
| DO3MHA-11 | 2026-09-04 12:51:59 | 45.30173 | 9.13906 | 2° | 18km/h | 31183m | 6.7m/s | -40.3°C | 2.5% | 0hPa | 2.7V | 00:00:00 | 02:17:13 | 00:00:00 | |
| S52SK | 2026-09-04 12:51:51 | 45.30146 | 9.13884 | 60° | 16km/h | 31141m | 5.4m/s | -40.5°C | 0.8% | 0hPa | 2.7V | 00:00:00 | 00:00:00 | 00:00:00 | |
| IW2NTF | 2026-09-04 12:51:50 | 45.30127 | 9.13850 | 35° | 16km/h | 31103m | 7m/s | -40.5°C | 2.6% | 0hPa | 2.7V | 08:30:00 | 02:17:00 | 00:00:00 | |
| DO3MHA-11 | 2026-09-04 12:51:49 | 45.30138 | 9.13866 | 53° | 18km/h | 31122m | 5.7m/s | -40.4°C | 2.6% | 0hPa | 2.6V | 00:00:00 | 02:17:03 | 00:00:00 | |
| OE5DRO-10 | 2026-09-04 12:51:47 | 45.30130 | 9.13854 | 44° | 16km/h | 31110m | 6.5m/s | -40.5°C | 2.6% | 0hPa | 2.7V | 00:00:00 | 00:00:00 | 00:00:00 | |
| S52SK | 2026-09-04 12:51:46 | 45.30130 | 9.13854 | 44° | 20km/h | 31110m | 6.5m/s | -40.5°C | 0.8% | 0hPa | 2.7V | 00:00:00 | 00:00:00 | 00:00:00 | |
| S52SK | 2026-09-04 12:51:40 | 45.30110 | 9.13834 | 44° | 20km/h | 31072m | 5.6m/s | -40.7°C | 0.8% | 0hPa | 2.7V | 00:00:00 | 00:00:00 | 00:00:00 | |
| DO3MHA-11 | 2026-09-04 12:51:39 | 45.30102 | 9.13825 | 42° | 16km/h | 31061m | 6.7m/s | -40.6°C | 2.5% | 0hPa | 2.7V | 00:00:00 | 02:16:53 | 00:00:00 | |
| IW2NTF | 2026-09-04 12:51:36 | 45.30084 | 9.13812 | 16° | 20km/h | 31030m | 6.5m/s | -40.4°C | 2.5% | 0hPa | 2.7V | 08:30:00 | 02:16:48 | 00:00:00 | |
| DK5PH-5 | 2026-09-04 12:51:36 | 45.30092 | 9.13816 | 21° | 13km/h | 31042m | 5.4m/s | -40.4°C | 2.5% | 0hPa | 2.6V | 00:00:00 | 02:16:50 | 00:00:00 | |
| DB0UT-7 | 2026-09-04 12:51:33 | 45.30079 | 9.13810 | 15° | 11km/h | 31024m | 5.5m/s | -40.2°C | 2.5% | 0hPa | 2.6V | 00:00:00 | 02:16:47 | 00:00:00 | |
| IW2NTF | 2026-09-04 12:51:29 | 45.30063 | 9.13794 | 84° | 18km/h | 30969m | 5.5m/s | -40.3°C | 2.5% | 0hPa | 2.6V | 08:30:00 | 02:16:38 | 00:00:00 | |
| DO3MHA-11 | 2026-09-04 12:51:29 | 45.30064 | 9.13807 | 344° | 9km/h | 31000m | 6.0m/s | -40.0°C | 2.4% | 0hPa | 2.7V | 00:00:00 | 02:16:43 | 00:00:00 | |
| OE5DRO-10 | 2026-09-04 12:51:28 | 45.30063 | 9.13808 | 8° | 11km/h | 30994m | 5.4m/s | -40.0°C | 2.5% | 0hPa | 2.7V | 00:00:00 | 00:00:00 | 00:00:00 | |
| S52SK | 2026-09-04 12:51:24 | 45.30063 | 9.13799 | 91° | 16km/h | 30975m | 6.6m/s | -40.2°C | 0.8% | 0hPa | 2.6V | 00:00:00 | 00:00:00 | 00:00:00 | |
| DO3MHA-11 | 2026-09-04 12:51:19 | 45.30056 | 9.13782 | 329° | 13km/h | 30939m | 6.0m/s | -40.2°C | 2.5% | 0hPa | 2.6V | 00:00:00 | 02:16:33 | 00:00:00 | |
| IW2NTF | 2026-09-04 12:51:16 | 45.30042 | 9.13795 | 300° | 11km/h | 30910m | 6.2m/s | -40.4°C | 2.5% | 0hPa | 2.7V | 08:30:00 | 02:16:28 | 00:00:00 | |
| S52SK | 2026-09-04 12:51:13 | 45.30042 | 9.13795 | 301° | 11km/h | 30910m | 6.3m/s | -40.4°C | 0% | 0hPa | 2.7V | 00:00:00 | 00:00:00 | 00:00:00 | |
| DO3MHA-11 | 2026-09-04 12:51:09 | 45.30049 | 9.13800 | 138° | 11km/h | 30880m | 7.0m/s | -40.6°C | 2.5% | 0hPa | 2.7V | 00:00:00 | 02:16:23 | 00:00:00 | |
| IW2NTF | 2026-09-04 12:51:06 | 45.30054 | 9.13789 | 275° | 7km/h | 30850m | 6.5m/s | -40.4°C | 2.5% | 0hPa | 2.7V | 08:30:00 | 02:16:18 | 00:00:00 | |
| NBG1-10 | 2026-09-04 12:51:06 | 45.30053 | 9.13788 | 104° | 15km/h | 30863m | 4.9m/s | -40.3°C | 2.5% | 0hPa | 2.6V | 00:00:00 | 02:16:20 | 00:00:00 | |
| DB0UT-7 | 2026-09-04 12:51:04 | 45.30053 | 9.13793 | 279° | 13km/h | 30845m | 5.5m/s | -40.4°C | 2.5% | 0hPa | 2.6V | 00:00:00 | 00:00:00 | 00:00:00 | |
| DO3MHA-11 | 2026-09-04 12:50:59 | 45.30048 | 9.13810 | 350° | 13km/h | 30823m | 6.0m/s | -40.6°C | 2.6% | 0hPa | 2.6V | 00:00:00 | 02:16:13 | 00:00:00 | |
| IW2NTF | 2026-09-04 12:50:56 | 45.30053 | 9.13798 | 170° | 18km/h | 30794m | 6.2m/s | -40.6°C | 2.5% | 0hPa | 2.6V | 08:30:00 | 02:16:08 | 00:00:00 | |
| S52SK | 2026-09-04 12:50:53 | 45.30053 | 9.13798 | 172° | 18km/h | 30794m | 6.2m/s | -40.6°C | 0% | 0hPa | 2.7V | 00:00:00 | 00:00:00 | 00:00:00 | |
| OE5DRO-10 | 2026-09-04 12:50:50 | 45.30070 | 9.13802 | 212° | 13km/h | 30773m | 6.3m/s | -40.5°C | 2.5% | 0hPa | 2.7V | 00:00:00 | 00:00:00 | 00:00:00 | |
| IW2NTF | 2026-09-04 12:50:49 | 45.30063 | 9.13820 | 250° | 11km/h | 30739m | 5.5m/s | -40.6°C | 2.5% | 0hPa | 2.7V | 08:30:00 | 02:15:58 | 00:00:00 | |
| DO3MHA-11 | 2026-09-04 12:50:49 | 45.30071 | 9.13804 | 283° | 15km/h | 30767m | 6.1m/s | -40.5°C | 2.5% | 0hPa | 2.6V | 00:00:00 | 02:16:03 | 08:30:00 | |
| S52SK | 2026-09-04 12:50:47 | 45.30070 | 9.13806 | 320° | 11km/h | 30761m | 5.6m/s | -40.5°C | 0% | 0hPa | 2.7V | 00:00:00 | 00:00:00 | 00:00:00 | |
| DO3MHA-11 | 2026-09-04 12:50:39 | 45.30082 | 9.13816 | 130° | 11km/h | 30711m | 5.2m/s | -40.7°C | 2.6% | 0hPa | 2.7V | 00:00:00 | 02:15:53 | 00:00:00 | |
| IW2NTF | 2026-09-04 12:50:36 | 45.30083 | 9.13811 | 277° | 13km/h | 30684m | 6m/s | -40.7°C | 2.4% | 0hPa | 2.7V | 08:30:00 | 02:15:48 | 00:00:00 | |
| DK5PH-5 | 2026-09-04 12:50:36 | 45.30084 | 9.13806 | 19° | 9km/h | 30696m | 5.9m/s | -40.6°C | 2.5% | 0hPa | 2.7V | 00:00:00 | 02:15:50 | 00:00:00 | |
| DB0UT-7 | 2026-09-04 12:50:33 | 45.30082 | 9.13816 | 271° | 9km/h | 30678m | 5.0m/s | -40.7°C | 2.5% | 0hPa | 2.7V | 00:00:00 | 02:15:47 | 08:30:00 | |
| NBG1-10 | 2026-09-04 12:50:31 | 45.30083 | 9.13825 | 256° | 11km/h | 30669m | 5.0m/s | -40.7°C | 2.5% | 0hPa | 2.6V | 00:00:00 | 02:15:45 | 00:00:00 | |
| DO3MHA-11 | 2026-09-04 12:50:29 | 45.30084 | 9.13826 | 114° | 9km/h | 30657m | 6.1m/s | -40.8°C | 2.4% | 0hPa | 2.6V | 00:00:00 | 02:15:43 | 00:00:00 | |
| IW2NTF | 2026-09-04 12:50:27 | 45.30092 | 9.13808 | 154° | 11km/h | 30628m | 5.4m/s | -41.2°C | 2.6% | 0hPa | 2.6V | 08:30:00 | 02:15:38 | 00:00:00 | |
| S52SK | 2026-09-04 12:50:21 | 45.30096 | 9.13806 | 180° | 7km/h | 30619m | 5.1m/s | -41.3°C | 0% | 0hPa | 2.6V | 00:00:00 | 00:00:00 | 00:00:00 | |
| DO3MHA-11 | 2026-09-04 12:50:19 | 45.30096 | 9.13804 | 31° | 11km/h | 30601m | 5.7m/s | -41.2°C | 2.6% | 0hPa | 2.6V | 00:00:00 | 02:15:33 | 00:00:00 | |
| IW2NTF | 2026-09-04 12:50:16 | 45.30087 | 9.13800 | 47° | 5km/h | 30573m | 4.4m/s | -41.5°C | 2.6% | 0hPa | 2.7V | 08:30:00 | 02:15:28 | 00:00:00 | |
| DF7PN | 2026-09-04 12:50:15 | 45.30087 | 9.13800 | 47° | 4km/h | 30574m | 4.4m/s | 0°C | -1.0% | -1.0hPa | 2.7V | 00:00:00 | 00:00:00 | 00:00:00 | |
| OE5DRO-10 | 2026-09-04 12:50:12 | 45.30086 | 9.13794 | 85° | 11km/h | 30563m | 6.7m/s | -41.7°C | 2.6% | 0hPa | 2.7V | 00:00:00 | 00:00:00 | 00:00:00 | |
| DO3MHA-11 | 2026-09-04 12:50:09 | 45.30087 | 9.13777 | 111° | 9km/h | 30546m | 5.2m/s | -41.8°C | 2.6% | 0hPa | 2.7V | 00:00:00 | 02:15:23 | 00:00:00 | |
| IW2NTF | 2026-09-04 12:50:06 | 45.30095 | 9.13773 | 207° | 2km/h | 30518m | 6m/s | -42.1°C | 2.7% | 0hPa | 2.7V | 08:30:00 | 02:15:18 | 00:00:00 | |
| DK5PH-5 | 2026-09-04 12:50:06 | 45.30092 | 9.13772 | 198° | 11km/h | 30529m | 4.9m/s | 0°C | 0% | 0hPa | 2.6V | 00:00:00 | 02:15:20 | 00:00:00 | |
| HARRO8 | 2026-09-04 12:50:01 | 45.30072 | 9.13735 | 54° | 11km/h | 30453m | 4.2m/s | -41.7°C | 0.8% | -1.0hPa | 2.6V | 00:00:00 | 00:00:00 | 00:00:00 | |
| DO3MHA-11 | 2026-09-04 12:49:59 | 45.30085 | 9.13759 | 47° | 11km/h | 30490m | 6.2m/s | -42.1°C | 2.7% | 0hPa | 2.6V | 00:00:00 | 02:15:13 | 00:00:00 | |
| IW2NTF | 2026-09-04 12:49:55 | 45.30076 | 9.13743 | 53° | 15km/h | 30462m | 5.7m/s | -41.8°C | 2.7% | 0hPa | 2.6V | 08:30:00 | 02:15:08 | 00:00:00 | |
| OE5DRO-10 | 2026-09-04 12:49:53 | 45.30074 | 9.13739 | 55° | 11km/h | 30457m | 4.6m/s | -41.7°C | 2.7% | 0hPa | 2.6V | 00:00:00 | 00:00:00 | 00:00:00 | |
| DO3MHA-11 | 2026-09-04 12:49:49 | 45.30070 | 9.13730 | 101° | 15km/h | 30436m | 5.1m/s | -41.6°C | 2.7% | 0hPa | 2.6V | 00:00:00 | 02:15:03 | 00:00:00 | |
| IW2NTF | 2026-09-04 12:49:47 | 45.30059 | 9.13714 | 42° | 26km/h | 30409m | 4.7m/s | -41.8°C | 2.6% | 0hPa | 2.7V | 08:30:00 | 02:14:58 | 00:00:00 | |
| NBG1-10 | 2026-09-04 12:49:39 | 45.30043 | 9.13700 | 302° | 9km/h | 30382m | 5.1m/s | -41.8°C | 2.7% | 0hPa | 2.7V | 00:00:00 | 02:14:53 | 00:00:00 | |
| IW2NTF | 2026-09-04 12:49:35 | 45.30041 | 9.13695 | 51° | 11km/h | 30355m | 4.7m/s | -41.8°C | 2.6% | 0hPa | 2.7V | 08:30:00 | 02:14:48 | 00:00:00 | |
| OE5DRO-10 | 2026-09-04 12:49:34 | 45.30041 | 9.13695 | 52° | 11km/h | 30355m | 4.6m/s | -41.8°C | 2.6% | 0hPa | 2.7V | 00:00:00 | 00:00:00 | 08:30:00 | |
| DB0UT-7 | 2026-09-04 12:49:33 | 45.30039 | 9.13692 | 36° | 11km/h | 30350m | 5.0m/s | -41.9°C | 2.6% | 0hPa | 2.6V | 00:00:00 | 02:14:47 | 00:00:00 | |
| IW2NTF | 2026-09-04 12:49:30 | 45.30026 | 9.13690 | 142° | 9km/h | 30299m | 6.4m/s | -41.9°C | 2.6% | 0hPa | 2.6V | 08:30:00 | 02:14:38 | 00:00:00 | |
| DO3MHA-11 | 2026-09-04 12:49:30 | 45.30030 | 9.13695 | 332° | 9km/h | 30327m | 5.4m/s | -41.7°C | 2.5% | 0hPa | 2.6V | 00:00:00 | 02:14:43 | 00:00:00 | |
| DO3MHA-11 | 2026-09-04 12:49:19 | 45.30037 | 9.13682 | 99° | 7km/h | 30272m | 5.6m/s | -42.0°C | 2.6% | 0hPa | 2.6V | 00:00:00 | 02:14:33 | 08:30:00 | |
| IW2NTF | 2026-09-04 12:49:15 | 45.30031 | 9.13676 | 309° | 5km/h | 30244m | 5.5m/s | -42.7°C | 2.7% | 0hPa | 2.7V | 08:30:00 | 02:14:28 | 00:00:00 | |
| S52SK | 2026-09-04 12:49:13 | 45.30031 | 9.13676 | 310° | 5km/h | 30245m | 5.5m/s | -42.7°C | 0% | 0hPa | 2.7V | 00:00:00 | 00:00:00 | 00:00:00 | |
| IW2NTF | 2026-09-04 12:49:09 | 45.30046 | 9.13633 | 147° | 13km/h | 30190m | 5m/s | -42.9°C | 2.7% | 0hPa | 2.7V | 08:30:00 | 02:14:18 | 00:00:00 | |
| DO3MHA-11 | 2026-09-04 12:49:09 | 45.30032 | 9.13664 | 105° | 15km/h | 30218m | 5.0m/s | -43.0°C | 2.8% | 0hPa | 2.6V | 00:00:00 | 02:14:23 | 00:00:00 | |
| S52SK | 2026-09-04 12:49:08 | 45.30032 | 9.13664 | 106° | 24km/h | 30218m | 5.0m/s | 0°C | 0% | 0hPa | 2.6V | 00:00:00 | 00:00:00 | 00:00:00 | |
| NBG1-10 | 2026-09-04 12:49:06 | 45.30040 | 9.13641 | 130° | 15km/h | 30201m | 5.6m/s | -42.8°C | 2.7% | 0hPa | 2.6V | 00:00:00 | 02:14:20 | 08:30:00 | |
| DB0UT-7 | 2026-09-04 12:49:03 | 45.30048 | 9.13631 | 149° | 13km/h | 30186m | 5.8m/s | -42.8°C | 2.7% | 0hPa | 2.7V | 00:00:00 | 00:00:00 | 00:00:00 | |
| S52SK | 2026-09-04 12:49:02 | 45.30048 | 9.13631 | 149° | 7km/h | 30186m | 5.8m/s | 0°C | 0% | 0hPa | 2.6V | 00:00:00 | 00:00:00 | 00:00:00 | |
| DO3MHA-11 | 2026-09-04 12:48:59 | 45.30047 | 9.13627 | 8° | 11km/h | 30162m | 4.7m/s | -42.8°C | 2.7% | 0hPa | 2.6V | 00:00:00 | 02:14:13 | 00:00:00 | |
| IW2NTF | 2026-09-04 12:48:55 | 45.30046 | 9.13624 | 96° | 11km/h | 30135m | 6.4m/s | -43°C | 2.7% | 0hPa | 2.6V | 08:30:00 | 02:14:08 | 00:00:00 | |
| DO3MHA-11 | 2026-09-04 12:48:49 | 45.30043 | 9.13595 | 64° | 15km/h | 30108m | 5.6m/s | -43.2°C | 2.7% | 0hPa | 2.6V | 00:00:00 | 02:14:03 | 00:00:00 | |
| IW2NTF | 2026-09-04 12:48:48 | 45.30030 | 9.13596 | 356° | 18km/h | 30079m | 5.3m/s | -43.6°C | 2.8% | 0hPa | 2.7V | 08:30:00 | 02:13:58 | 00:00:00 | |
| S52SK | 2026-09-04 12:48:41 | 45.30021 | 9.13596 | 356° | 18km/h | 30069m | 6.1m/s | 0°C | 0% | 0hPa | 2.7V | 00:00:00 | 00:00:00 | 00:00:00 | |
| DO3MHA-11 | 2026-09-04 12:48:39 | 45.30008 | 9.13596 | 15° | 24km/h | 30053m | 4.4m/s | -43.7°C | 2.8% | 0hPa | 2.7V | 00:00:00 | 02:13:53 | 00:00:00 | |
| IW2NTF | 2026-09-04 12:48:35 | 45.29982 | 9.13574 | 22° | 24km/h | 30026m | 4.4m/s | -44°C | 2.8% | 0hPa | 2.7V | 08:30:00 | 02:13:48 | 00:00:00 | |
| S52SK | 2026-09-04 12:48:35 | 45.29993 | 9.13584 | 39° | 27km/h | 30036m | 5.2m/s | 0°C | 0% | 0hPa | 2.6V | 00:00:00 | 00:00:00 | 00:00:00 | |
| DB0UT-7 | 2026-09-04 12:48:33 | 45.29976 | 9.13572 | 5° | 22km/h | 30022m | 6.2m/s | -43.9°C | 2.7% | 0hPa | 2.6V | 00:00:00 | 02:13:47 | 00:00:00 | |
| DO3MHA-11 | 2026-09-04 12:48:29 | 45.29956 | 9.13592 | 317° | 26km/h | 29999m | 5.3m/s | -44.2°C | 2.8% | 0hPa | 2.6V | 00:00:00 | 02:13:43 | 00:00:00 | |
| IW2NTF | 2026-09-04 12:48:28 | 45.29912 | 9.13606 | 9° | 26km/h | 29964m | 6.1m/s | -44.6°C | 3% | 0hPa | 2.6V | 08:30:00 | 02:13:37 | 00:00:00 | |
| HARRO8 | 2026-09-04 12:48:27 | 45.29912 | 9.13606 | 9° | 24km/h | 29964m | 6.1m/s | -44.6°C | 0.9% | -1.0hPa | 2.6V | 00:00:00 | 00:00:00 | 00:00:00 | |
| DO3MHA-11 | 2026-09-04 12:48:19 | 45.29894 | 9.13604 | 356° | 15km/h | 29943m | 5.9m/s | -44.6°C | 3.0% | 0hPa | 2.6V | 00:00:00 | 02:13:33 | 00:00:00 | |
| IW2NTF | 2026-09-04 12:48:15 | 45.29871 | 9.13606 | 359° | 11km/h | 29908m | 6.3m/s | -44.9°C | 3.1% | 0hPa | 2.6V | 08:30:00 | 02:13:27 | 00:00:00 | |
| S52SK | 2026-09-04 12:48:14 | 45.29878 | 9.13605 | 358° | 16km/h | 29920m | 4.9m/s | 0°C | 0% | 0hPa | 2.7V | 00:00:00 | 00:00:00 | 00:00:00 | |
| DO3MHA-11 | 2026-09-04 12:48:09 | 45.29856 | 9.13606 | 356° | 16km/h | 29885m | 6.8m/s | -44.8°C | 3.1% | 0hPa | 2.7V | 00:00:00 | 02:13:23 | 00:00:00 | |
| IW2NTF | 2026-09-04 12:48:08 | 45.29829 | 9.13624 | 298° | 13km/h | 29849m | 5.2m/s | -44.7°C | 3% | 0hPa | 2.7V | 08:30:00 | 02:13:17 | 00:00:00 | |
| DK5PH-5 | 2026-09-04 12:48:06 | 45.29839 | 9.13612 | 337° | 15km/h | 29868m | 6.1m/s | -44.7°C | 3.0% | 0hPa | 2.6V | 00:00:00 | 02:13:20 | 08:30:00 | |
| DB0UT-7 | 2026-09-04 12:48:03 | 45.29829 | 9.13624 | 299° | 15km/h | 29850m | 5.2m/s | -44.7°C | 3.0% | 0hPa | 2.6V | 00:00:00 | 00:00:00 | 00:00:00 | |
| HARRO8 | 2026-09-04 12:47:56 | 45.29808 | 9.13626 | 42° | 13km/h | 29808m | 6.2m/s | -45.1°C | 0.9% | -1.0hPa | 2.6V | 00:00:00 | 00:00:00 | 00:00:00 | |
| IW2NTF | 2026-09-04 12:47:55 | 45.29802 | 9.13620 | 4° | 11km/h | 29792m | 6.1m/s | -45°C | 3.1% | 0hPa | 2.6V | 08:30:00 | 02:13:07 | 00:00:00 | |
| IW2NTF | 2026-09-04 12:47:48 | 45.29770 | 9.13627 | 10° | 18km/h | 29733m | 6.3m/s | -44.8°C | 3.1% | 0hPa | 2.7V | 08:30:00 | 02:12:57 | 00:00:00 | |
| S52SK | 2026-09-04 12:47:48 | 45.29786 | 9.13628 | 331° | 16km/h | 29768m | 6.1m/s | 0°C | 0% | 0hPa | 2.6V | 00:00:00 | 00:00:00 | 00:00:00 | |
| S52SK | 2026-09-04 12:47:43 | 45.29774 | 9.13628 | 20° | 15km/h | 29740m | 6.8m/s | 0°C | 0% | 0hPa | 2.6V | 00:00:00 | 00:00:00 | 00:00:00 | |
| DK5PH-5 | 2026-09-04 12:47:36 | 45.29745 | 9.13634 | 339° | 20km/h | 29692m | 5.4m/s | -44.7°C | 3.0% | 0hPa | 2.6V | 00:00:00 | 02:12:50 | 00:00:00 | |
| IW2NTF | 2026-09-04 12:47:35 | 45.29731 | 9.13636 | 5° | 24km/h | 29673m | 5.1m/s | -44.7°C | 3% | 0hPa | 2.6V | 08:30:00 | 02:12:47 | 00:00:00 | |
| DB0UT-7 | 2026-09-04 12:47:33 | 45.29731 | 9.13636 | 6° | 20km/h | 29674m | 5.1m/s | -44.6°C | 3.0% | 0hPa | 2.6V | 00:00:00 | 02:12:47 | 00:00:00 | |
| IW2NTF | 2026-09-04 12:47:28 | 45.29685 | 9.13641 | 341° | 18km/h | 29615m | 6m/s | -44.5°C | 3.1% | 0hPa | 2.7V | 08:30:00 | 02:12:37 | 00:00:00 | |
| NBG1-10 | 2026-09-04 12:47:27 | 45.29705 | 9.13634 | 349° | 20km/h | 29638m | 6.4m/s | -44.6°C | 3.0% | 0hPa | 2.6V | 00:00:00 | 02:12:41 | 00:00:00 | |
| HARRO8 | 2026-09-04 12:47:25 | 45.29695 | 9.13637 | 344° | 22km/h | 29626m | 5.8m/s | -44.7°C | 0.9% | -1.0hPa | 2.7V | 00:00:00 | 00:00:00 | 00:00:00 | |
| S52SK | 2026-09-04 12:47:23 | 45.29690 | 9.13639 | 345° | 22km/h | 29621m | 5.0m/s | 0°C | 0% | 0hPa | 2.7V | 00:00:00 | 00:00:00 | 00:00:00 | |
| S52SK | 2026-09-04 12:47:17 | 45.29666 | 9.13647 | 353° | 20km/h | 29584m | 6.3m/s | 0°C | 0% | 0hPa | 2.7V | 00:00:00 | 00:00:00 | 00:00:00 | |
| IW2NTF | 2026-09-04 12:47:15 | 45.29638 | 9.13659 | 328° | 20km/h | 29554m | 6.2m/s | -44.4°C | 3% | 0hPa | 2.7V | 08:30:00 | 02:12:27 | 00:00:00 | |
| DK5PH-5 | 2026-09-04 12:47:06 | 45.29599 | 9.13684 | 349° | 16km/h | 29513m | 6.9m/s | -44.1°C | 2.9% | 0hPa | 2.6V | 00:00:00 | 02:12:20 | 00:00:00 | |
| IW2NTF | 2026-09-04 12:47:04 | 45.29589 | 9.13684 | 13° | 9km/h | 29494m | 5.2m/s | -44.1°C | 2.9% | 0hPa | 2.6V | 08:30:00 | 02:12:17 | 00:00:00 | |
| DB0UT-7 | 2026-09-04 12:47:04 | 45.29589 | 9.13684 | 14° | 16km/h | 29495m | 5.2m/s | -44.1°C | 2.9% | 0hPa | 2.7V | 00:00:00 | 00:00:00 | 00:00:00 | |
| IW2NTF | 2026-09-04 12:46:58 | 45.29548 | 9.13717 | 335° | 26km/h | 29434m | 6.2m/s | -44°C | 2.9% | 0hPa | 2.7V | 08:30:00 | 02:12:07 | 00:00:00 | |
| S52SK | 2026-09-04 12:46:56 | 45.29567 | 9.13695 | 315° | 20km/h | 29458m | 6.1m/s | 0°C | 0% | 0hPa | 2.7V | 00:00:00 | 00:00:00 | 00:00:00 | |
| NBG1-10 | 2026-09-04 12:46:54 | 45.29554 | 9.13712 | 325° | 15km/h | 29441m | 6.5m/s | -44.0°C | 2.9% | 0hPa | 2.7V | 00:00:00 | 02:12:08 | 00:00:00 | |
| S52SK | 2026-09-04 12:46:50 | 45.29537 | 9.13721 | 359° | 20km/h | 29423m | 5.2m/s | 0°C | 0% | 0hPa | 2.7V | 00:00:00 | 00:00:00 | 00:00:00 | |
| IW2NTF | 2026-09-04 12:46:44 | 45.29517 | 9.13720 | 317° | 20km/h | 29375m | 5.9m/s | -44.2°C | 2.9% | 0hPa | 2.7V | 08:30:00 | 02:11:57 | 00:00:00 | |
| IW2NTF | 2026-09-04 12:46:38 | 45.29498 | 9.13754 | 128° | 5km/h | 29314m | 7.2m/s | -44.4°C | 3% | 0hPa | 2.6V | 08:30:00 | 02:11:47 | 00:00:00 | |
| DB0UT-7 | 2026-09-04 12:46:33 | 45.29497 | 9.13754 | 129° | 11km/h | 29315m | 7.1m/s | -44.3°C | 3.0% | 0hPa | 2.6V | 00:00:00 | 02:11:47 | 00:00:00 | |
| S52SK | 2026-09-04 12:46:29 | 45.29502 | 9.13751 | 186° | 5km/h | 29298m | 6.0m/s | 0°C | 0% | 0hPa | 2.6V | 00:00:00 | 00:00:00 | 00:00:00 | |
| IW2NTF | 2026-09-04 12:46:28 | 45.29501 | 9.13778 | 243° | 16km/h | 29256m | 5.8m/s | -44.3°C | 3% | 0hPa | 2.6V | 08:30:00 | 02:11:37 | 00:00:00 | |
| S52SK | 2026-09-04 12:46:23 | 45.29499 | 9.13773 | 259° | 16km/h | 29262m | 6.3m/s | 0°C | 0% | 0hPa | 2.7V | 00:00:00 | 00:00:00 | 00:00:00 | |
| NBG1-10 | 2026-09-04 12:46:21 | 45.29505 | 9.13787 | 225° | 11km/h | 29245m | 5.4m/s | -44.2°C | 3.0% | 0hPa | 2.7V | 00:00:00 | 02:11:35 | 00:00:00 | |
| IW2NTF | 2026-09-04 12:46:14 | 45.29515 | 9.13778 | 166° | 11km/h | 29197m | 5.6m/s | -44.7°C | 2.9% | 0hPa | 2.7V | 08:30:00 | 02:11:27 | 00:00:00 | |
| IW2NTF | 2026-09-04 12:46:08 | 45.29547 | 9.13789 | 102° | 7km/h | 29140m | 6.8m/s | -44.6°C | 3% | 0hPa | 2.6V | 08:30:00 | 02:11:17 | 00:00:00 | |
| DK5PH-5 | 2026-09-04 12:46:06 | 45.29539 | 9.13792 | 182° | 11km/h | 29158m | 4.7m/s | -44.5°C | 3.0% | 0hPa | 2.6V | 00:00:00 | 02:11:20 | 00:00:00 | |
| DB0UT-7 | 2026-09-04 12:46:03 | 45.29547 | 9.13789 | 103° | 11km/h | 29140m | 6.7m/s | -44.5°C | 3.0% | 0hPa | 2.6V | 00:00:00 | 00:00:00 | 08:30:00 | |
| S52SK | 2026-09-04 12:46:02 | 45.29547 | 9.13789 | 103° | 7km/h | 29140m | 6.8m/s | 0°C | 0% | 0hPa | 2.6V | 00:00:00 | 00:00:00 | 00:00:00 | |
| S52SK | 2026-09-04 12:45:57 | 45.29542 | 9.13771 | 112° | 13km/h | 29112m | 5.9m/s | 0°C | 0% | 0hPa | 2.6V | 00:00:00 | 00:00:00 | 00:00:00 | |
| IW2NTF | 2026-09-04 12:45:54 | 45.29557 | 9.13771 | 217° | 9km/h | 29071m | 6.2m/s | -44.9°C | 3% | 0hPa | 2.6V | 08:30:00 | 02:11:05 | 00:00:00 | |
| HARRO8 | 2026-09-04 12:45:52 | 45.29555 | 9.13768 | 229° | 9km/h | 29077m | 5.6m/s | -44.9°C | 0.9% | -1.0hPa | 2.6V | 00:00:00 | 00:00:00 | 00:00:00 | |
| NBG1-10 | 2026-09-04 12:45:48 | 45.29559 | 9.13768 | 70° | 9km/h | 29056m | 5.4m/s | -45.0°C | 3.0% | 0hPa | 2.6V | 00:00:00 | 02:11:02 | 00:00:00 | |
| IW2NTF | 2026-09-04 12:45:46 | 45.29547 | 9.13735 | 132° | 11km/h | 29015m | 5.2m/s | -45.3°C | 3.1% | 0hPa | 2.7V | 08:30:00 | 02:10:55 | 00:00:00 | |
| OE5DRO-10 | 2026-09-04 12:45:46 | 45.29555 | 9.13760 | 48° | 11km/h | 29043m | 6.5m/s | -45.1°C | 3.0% | 0hPa | 2.7V | 00:00:00 | 00:00:00 | 00:00:00 | |
| DK5PH-5 | 2026-09-04 12:45:36 | 45.29553 | 9.13730 | 107° | 7km/h | 28987m | 5.6m/s | -45.4°C | 3.1% | 0hPa | 2.7V | 00:00:00 | 02:10:50 | 00:00:00 | |
| IW2NTF | 2026-09-04 12:45:34 | 45.29549 | 9.13716 | 41° | 16km/h | 28959m | 6.8m/s | -45.5°C | 3.1% | 0hPa | 2.7V | 08:30:00 | 02:10:45 | 00:00:00 | |
| DB0UT-7 | 2026-09-04 12:45:33 | 45.29553 | 9.13723 | 73° | 7km/h | 28970m | 4.9m/s | -45.4°C | 3.2% | 0hPa | 2.6V | 00:00:00 | 02:10:47 | 00:00:00 | |
| S52SK | 2026-09-04 12:45:30 | 45.29549 | 9.13716 | 42° | 16km/h | 28959m | 6.9m/s | 0°C | 0% | 0hPa | 2.6V | 00:00:00 | 00:00:00 | 00:00:00 | |
| OE5DRO-10 | 2026-09-04 12:45:27 | 45.29534 | 9.13704 | 35° | 5km/h | 28936m | 6.2m/s | -45.4°C | 3.2% | 0hPa | 2.6V | 00:00:00 | 00:00:00 | 00:00:00 | |
| IW2NTF | 2026-09-04 12:45:26 | 45.29532 | 9.13699 | 14° | 4km/h | 28902m | 5.2m/s | -45.3°C | 3.2% | 0hPa | 2.6V | 08:30:00 | 02:10:35 | 00:00:00 | |
| HARRO8 | 2026-09-04 12:45:21 | 45.29532 | 9.13699 | 14° | 2km/h | 28902m | 5.2m/s | -45.3°C | 1.0% | -1.0hPa | 2.6V | 00:00:00 | 00:00:00 | 00:00:00 | |
| NBG1-10 | 2026-09-04 12:45:15 | 45.29529 | 9.13686 | 40° | 9km/h | 28869m | 6.5m/s | -45.2°C | 3.1% | 0hPa | 2.6V | 00:00:00 | 02:10:29 | 00:00:00 | |
| IW2NTF | 2026-09-04 12:45:14 | 45.29520 | 9.13680 | 58° | 5km/h | 28846m | 6.2m/s | -45.2°C | 3.1% | 0hPa | 2.6V | 08:30:00 | 02:10:25 | 00:00:00 | |
| OE5DRO-10 | 2026-09-04 12:45:08 | 45.29521 | 9.13675 | 94° | 9km/h | 28829m | 6.4m/s | -45.1°C | 3.1% | 0hPa | 2.7V | 00:00:00 | 00:00:00 | 00:00:00 | |
| IW2NTF | 2026-09-04 12:45:06 | 45.29516 | 9.13660 | 42° | 9km/h | 28789m | 6m/s | -45°C | 3.1% | 0hPa | 2.6V | 08:30:00 | 02:10:15 | 00:00:00 | |
| S52SK | 2026-09-04 12:45:03 | 45.29519 | 9.13667 | 79° | 7km/h | 28805m | 6.4m/s | 0°C | 0% | 0hPa | 2.6V | 00:00:00 | 00:00:00 | 00:00:00 | |
| IW2NTF | 2026-09-04 12:44:54 | 45.29499 | 9.13638 | 29° | 9km/h | 28735m | 5.5m/s | -44.9°C | 3% | 0hPa | 2.6V | 08:30:00 | 02:10:05 | 00:00:00 | |
| HARRO8 | 2026-09-04 12:44:50 | 45.29497 | 9.13637 | 2° | 7km/h | 28730m | 4.9m/s | -44.8°C | 0.9% | -1.0hPa | 2.7V | 00:00:00 | 00:00:00 | 00:00:00 | |
| OE5DRO-10 | 2026-09-04 12:44:49 | 45.29495 | 9.13638 | 341° | 13km/h | 28725m | 5.7m/s | -44.9°C | 3.1% | 0hPa | 2.7V | 00:00:00 | 00:00:00 | 00:00:00 | |
| IW2NTF | 2026-09-04 12:44:46 | 45.29480 | 9.13643 | 15° | 13km/h | 28683m | 5.5m/s | -45.1°C | 3.1% | 0hPa | 2.7V | 08:30:00 | 02:09:55 | 00:00:00 | |
| S52SK | 2026-09-04 12:44:43 | 45.29490 | 9.13644 | 348° | 11km/h | 28699m | 6.0m/s | 0°C | 0% | 0hPa | 2.6V | 00:00:00 | 00:00:00 | 00:00:00 | |
| NBG1-10 | 2026-09-04 12:44:42 | 45.29483 | 9.13644 | 7° | 11km/h | 28688m | 4.2m/s | -45.0°C | 3.0% | 0hPa | 2.6V | 00:00:00 | 02:09:56 | 00:00:00 | |
| S52SK | 2026-09-04 12:44:37 | 45.29474 | 9.13639 | 34° | 5km/h | 28668m | 4.5m/s | 0°C | 0% | 0hPa | 2.6V | 00:00:00 | 00:00:00 | 00:00:00 | |
| IW2NTF | 2026-09-04 12:44:34 | 45.29441 | 9.13650 | 336° | 22km/h | 28629m | 5.2m/s | -45°C | 3% | 0hPa | 2.6V | 08:30:00 | 02:09:45 | 00:00:00 | |
| DB0UT-7 | 2026-09-04 12:44:33 | 45.29453 | 9.13644 | 341° | 13km/h | 28641m | 5.4m/s | -45.0°C | 3.0% | 0hPa | 2.7V | 00:00:00 | 02:09:47 | 00:00:00 | |
| OE5DRO-10 | 2026-09-04 12:44:30 | 45.29437 | 9.13653 | 340° | 13km/h | 28624m | 4.7m/s | -44.9°C | 3.0% | 0hPa | 2.7V | 00:00:00 | 00:00:00 | 00:00:00 | |
| IW2NTF | 2026-09-04 12:44:26 | 45.29410 | 9.13651 | 8° | 9km/h | 28574m | 6.2m/s | -45.1°C | 3.1% | 0hPa | 2.7V | 08:30:00 | 02:09:35 | 00:00:00 | |
| HARRO8 | 2026-09-04 12:44:19 | 45.29403 | 9.13651 | 349° | 18km/h | 28563m | 5.1m/s | -45.0°C | 0.9% | -1.0hPa | 2.7V | 00:00:00 | 00:00:00 | 00:00:00 | |
| S52SK | 2026-09-04 12:44:15 | 45.29385 | 9.13663 | 323° | 16km/h | 28541m | 4.9m/s | 0°C | 0% | 0hPa | 2.7V | 00:00:00 | 00:00:00 | 00:00:00 | |
| IW2NTF | 2026-09-04 12:44:10 | 45.29376 | 9.13665 | 177° | 2km/h | 28496m | 4.7m/s | -45.2°C | 3% | 0hPa | 2.7V | 08:30:00 | 02:09:21 | 00:00:00 | |
| OE5DRO-10 | 2026-09-04 12:44:09 | 45.29374 | 9.13666 | 147° | 9km/h | 28507m | 6.3m/s | -45.0°C | 3.0% | 0hPa | 2.6V | 00:00:00 | 00:00:00 | 00:00:00 | |
| S52SK | 2026-09-04 12:44:08 | 45.29374 | 9.13666 | 148° | 4km/h | 28507m | 6.4m/s | 0°C | 0% | 0hPa | 2.6V | 00:00:00 | 00:00:00 | 00:00:00 | |
| DK5PH-5 | 2026-09-04 12:44:04 | 45.29371 | 9.13667 | 341° | 11km/h | 28479m | 5.1m/s | 0°C | 0% | 0hPa | 2.6V | 00:00:00 | 02:09:18 | 00:00:00 | |
| DB0UT-7 | 2026-09-04 12:44:03 | 45.29368 | 9.13669 | 330° | 11km/h | 28474m | 5.6m/s | -45.3°C | 3.1% | 0hPa | 2.6V | 00:00:00 | 00:00:00 | 00:00:00 | |
| IW2NTF | 2026-09-04 12:44:00 | 45.29353 | 9.13693 | 343° | 5km/h | 28439m | 5.6m/s | -45.4°C | 3% | 0hPa | 2.6V | 08:30:00 | 02:09:11 | 00:00:00 | |
| IW2NTF | 2026-09-04 12:43:51 | 45.29347 | 9.13699 | 332° | 20km/h | 28384m | 4.8m/s | -45.7°C | 3.1% | 0hPa | 2.6V | 08:30:00 | 02:09:01 | 00:00:00 | |
| HARRO8 | 2026-09-04 12:43:48 | 45.29351 | 9.13697 | 340° | 16km/h | 28389m | 5.0m/s | -45.6°C | 0.9% | -1.0hPa | 2.6V | 00:00:00 | 00:00:00 | 00:00:00 | |
| NBG1-10 | 2026-09-04 12:43:41 | 45.29332 | 9.13719 | 2° | 13km/h | 28351m | 5.9m/s | -45.7°C | 3.1% | 0hPa | 2.6V | 00:00:00 | 02:08:55 | 08:30:00 | |
| IW2NTF | 2026-09-04 12:43:40 | 45.29324 | 9.13716 | 342° | 7km/h | 28329m | 5.8m/s | -45.8°C | 3.1% | 0hPa | 2.6V | 08:30:00 | 02:08:51 | 00:00:00 | |
| DK5PH-5 | 2026-09-04 12:43:34 | 45.29317 | 9.13724 | 324° | 15km/h | 28313m | 6.4m/s | 0°C | 0% | 0hPa | 2.7V | 00:00:00 | 02:08:48 | 00:00:00 | |
| DB0UT-7 | 2026-09-04 12:43:33 | 45.29312 | 9.13729 | 329° | 13km/h | 28307m | 5.9m/s | -45.9°C | 3.1% | 0hPa | 2.7V | 00:00:00 | 02:08:47 | 00:00:00 | |
| OE5DRO-10 | 2026-09-04 12:43:31 | 45.29302 | 9.13737 | 327° | 13km/h | 28297m | 4.4m/s | -45.9°C | 3.1% | 0hPa | 2.7V | 00:00:00 | 00:00:00 | 00:00:00 | |
| IW2NTF | 2026-09-04 12:43:30 | 45.29295 | 9.13750 | 23° | 4km/h | 28263m | 5.7m/s | -46.1°C | 3.1% | 0hPa | 2.7V | 08:30:00 | 02:08:39 | 00:00:00 | |
| IW2NTF | 2026-09-04 12:43:19 | 45.29271 | 9.13785 | 318° | 16km/h | 28203m | 6.2m/s | -46.6°C | 3.3% | 0hPa | 2.7V | 08:30:00 | 02:08:28 | 00:00:00 | |
| HARRO8 | 2026-09-04 12:43:17 | 45.29283 | 9.13771 | 312° | 20km/h | 28220m | 6.3m/s | -46.5°C | 1.0% | -1.0hPa | 2.7V | 00:00:00 | 00:00:00 | 00:00:00 | |
| OE5DRO-10 | 2026-09-04 12:43:11 | 45.29267 | 9.13794 | 295° | 13km/h | 28187m | 5.0m/s | -46.6°C | 3.2% | 0hPa | 2.7V | 00:00:00 | 00:00:00 | 08:30:00 | |
| IW2NTF | 2026-09-04 12:43:04 | 45.29258 | 9.13840 | 280° | 15km/h | 28138m | 6m/s | -46.9°C | 3.2% | 0hPa | 2.6V | 08:30:00 | 02:08:16 | 00:00:00 | |
| DB0UT-7 | 2026-09-04 12:43:03 | 45.29258 | 9.13834 | 271° | 13km/h | 28144m | 4.8m/s | -46.7°C | 3.2% | 0hPa | 2.6V | 00:00:00 | 00:00:00 | 00:00:00 | |
| IW2NTF | 2026-09-04 12:42:54 | 45.29259 | 9.13877 | 237° | 13km/h | 28082m | 4.6m/s | -47.2°C | 3.4% | 0hPa | 2.6V | 08:30:00 | 02:08:06 | 00:00:00 | |
| HARRO8 | 2026-09-04 12:42:46 | 45.29270 | 9.13903 | 288° | 5km/h | 28049m | 6.0m/s | -47.2°C | 1.1% | -1.0hPa | 2.6V | 00:00:00 | 00:00:00 | 00:00:00 | |
| IW2NTF | 2026-09-04 12:42:44 | 45.29266 | 9.13914 | 274° | 15km/h | 28026m | 5.3m/s | -47.1°C | 3.3% | 0hPa | 2.6V | 08:30:00 | 02:07:56 | 00:00:00 | |
| IW2NTF | 2026-09-04 12:42:34 | 45.29280 | 9.13967 | 242° | 18km/h | 27972m | 5.3m/s | -47°C | 3.4% | 0hPa | 2.7V | 08:30:00 | 02:07:46 | 00:00:00 | |
| DB0UT-7 | 2026-09-04 12:42:33 | 45.29278 | 9.13960 | 242° | 13km/h | 27978m | 4.9m/s | -46.9°C | 3.4% | 0hPa | 2.7V | 00:00:00 | 02:07:47 | 00:00:00 | |
| OE5DRO-10 | 2026-09-04 12:42:32 | 45.29280 | 9.13967 | 243° | 13km/h | 27972m | 5.3m/s | -47.0°C | 3.4% | 0hPa | 2.7V | 00:00:00 | 00:00:00 | 00:00:00 | |
| NBG1-10 | 2026-09-04 12:42:31 | 45.29282 | 9.13972 | 246° | 11km/h | 27967m | 6.1m/s | -47.0°C | 3.4% | 0hPa | 2.7V | 00:00:00 | 02:07:45 | 00:00:00 | |
| IW2NTF | 2026-09-04 12:42:24 | 45.29305 | 9.14001 | 201° | 11km/h | 27917m | 5.2m/s | -46.4°C | 3.2% | 0hPa | 2.7V | 08:30:00 | 02:07:36 | 00:00:00 | |
| HARRO8 | 2026-09-04 12:42:15 | 45.29318 | 9.14022 | 239° | 5km/h | 27879m | 5.4m/s | -46.4°C | 1.0% | -1.0hPa | 2.7V | 00:00:00 | 00:00:00 | 00:00:00 | |
| IW2NTF | 2026-09-04 12:42:14 | 45.29323 | 9.14027 | 198° | 13km/h | 27863m | 6.3m/s | -46.5°C | 3.2% | 0hPa | 2.7V | 08:30:00 | 02:07:26 | 00:00:00 | |
| OE5DRO-10 | 2026-09-04 12:42:09 | 45.29334 | 9.14029 | 175° | 15km/h | 27847m | 6.4m/s | -46.4°C | 3.1% | 0hPa | 2.6V | 00:00:00 | 00:00:00 | 00:00:00 | |
| IW2NTF | 2026-09-04 12:42:04 | 45.29349 | 9.14030 | 194° | 4km/h | 27809m | 6m/s | -46.8°C | 3.2% | 0hPa | 2.7V | 08:30:00 | 02:07:16 | 00:00:00 | |
| DB0UT-7 | 2026-09-04 12:42:03 | 45.29348 | 9.14029 | 215° | 18km/h | 27814m | 4.5m/s | -46.6°C | 3.2% | 0hPa | 2.6V | 00:00:00 | 00:00:00 | 00:00:00 | |
| NBG1-10 | 2026-09-04 12:41:58 | 45.29353 | 9.14019 | 128° | 18km/h | 27786m | 6.2m/s | -46.9°C | 3.3% | 0hPa | 2.6V | 00:00:00 | 02:07:12 | 00:00:00 | |
| IW2NTF | 2026-09-04 12:41:54 | 45.29377 | 9.13984 | 126° | 24km/h | 27753m | 4.7m/s | -47.2°C | 3.2% | 0hPa | 2.6V | 08:30:00 | 02:07:06 | 00:00:00 | |
| OE5DRO-10 | 2026-09-04 12:41:50 | 45.29384 | 9.13973 | 135° | 20km/h | 27743m | 6.2m/s | -47.2°C | 3.3% | 0hPa | 2.6V | 00:00:00 | 00:00:00 | 00:00:00 | |
| IW2NTF | 2026-09-04 12:41:47 | 45.29393 | 9.13941 | 130° | 20km/h | 27699m | 6.5m/s | -47.2°C | 3.4% | 0hPa | 2.6V | 08:30:00 | 02:06:56 | 00:00:00 | |
| HARRO8 | 2026-09-04 12:41:44 | 45.29389 | 9.13953 | 98° | 15km/h | 27710m | 4.7m/s | -47.1°C | 1.0% | -1.0hPa | 2.6V | 00:00:00 | 00:00:00 | 00:00:00 | |
| DO3MHA-11 | 2026-09-04 12:41:39 | 45.29407 | 9.13925 | 140° | 20km/h | 27683m | 5.5m/s | -47.2°C | 3.4% | 0hPa | 2.6V | 00:00:00 | 02:06:53 | 00:00:00 | |
| IW2NTF | 2026-09-04 12:41:34 | 45.29420 | 9.13878 | 78° | 13km/h | 27644m | 5m/s | -47.4°C | 3.3% | 0hPa | 2.6V | 08:30:00 | 02:06:46 | 00:00:00 | |
| DB0UT-7 | 2026-09-04 12:41:33 | 45.29420 | 9.13882 | 85° | 16km/h | 27649m | 4.7m/s | -47.3°C | 3.4% | 0hPa | 2.6V | 00:00:00 | 02:06:47 | 08:30:00 | |
| OE5DRO-10 | 2026-09-04 12:41:27 | 45.29421 | 9.13851 | 135° | 15km/h | 27617m | 6.5m/s | -47.3°C | 3.2% | 0hPa | 2.6V | 00:00:00 | 00:00:00 | 00:00:00 | |
| NBG1-10 | 2026-09-04 12:41:25 | 45.29430 | 9.13845 | 160° | 16km/h | 27605m | 4.6m/s | -47.3°C | 3.2% | 0hPa | 2.6V | 00:00:00 | 02:06:39 | 00:00:00 | |
| IW2NTF | 2026-09-04 12:41:24 | 45.29442 | 9.13833 | 117° | 18km/h | 27590m | 5.8m/s | -47.2°C | 3.3% | 0hPa | 2.6V | 08:30:00 | 02:06:36 | 00:00:00 | |
| DO3MHA-11 | 2026-09-04 12:41:17 | 45.29438 | 9.13806 | 70° | 16km/h | 27563m | 5.2m/s | -47.4°C | 3.3% | 0hPa | 2.6V | 00:00:00 | 02:06:31 | 00:00:00 | |
| IW2NTF | 2026-09-04 12:41:14 | 45.29439 | 9.13778 | 93° | 24km/h | 27536m | 4.6m/s | -47.7°C | 3.4% | 0hPa | 2.6V | 08:30:00 | 02:06:26 | 00:00:00 | |
| HARRO8 | 2026-09-04 12:41:13 | 45.29438 | 9.13786 | 93° | 20km/h | 27541m | 5.7m/s | -47.6°C | 1.0% | -1.0hPa | 2.7V | 00:00:00 | 00:00:00 | 00:00:00 | |
| IW2NTF | 2026-09-04 12:41:04 | 45.29431 | 9.13722 | 80° | 11km/h | 27482m | 6.2m/s | -47.9°C | 3.4% | 0hPa | 2.7V | 08:30:00 | 02:06:16 | 00:00:00 | |
| DB0UT-7 | 2026-09-04 12:41:03 | 45.29432 | 9.13726 | 68° | 20km/h | 27488m | 4.6m/s | -47.8°C | 3.4% | 0hPa | 2.6V | 00:00:00 | 00:00:00 | 00:00:00 | |
| OE5DRO-10 | 2026-09-04 12:41:00 | 45.29431 | 9.13714 | 99° | 20km/h | 27472m | 4.4m/s | -48.1°C | 3.5% | 0hPa | 2.6V | 00:00:00 | 00:00:00 | 00:00:00 | |
| IW2NTF | 2026-09-04 12:40:52 | 45.29426 | 9.13642 | 78° | 29km/h | 27416m | 5.7m/s | -48.3°C | 3.4% | 0hPa | 2.6V | 08:30:00 | 02:06:04 | 00:00:00 | |
| NBG1-10 | 2026-09-04 12:40:52 | 45.29428 | 9.13662 | 87° | 20km/h | 27428m | 5.5m/s | -48.2°C | 3.4% | 0hPa | 2.6V | 00:00:00 | 02:06:06 | 00:00:00 | |
| IW2NTF | 2026-09-04 12:40:44 | 45.29430 | 9.13576 | 75° | 18km/h | 27362m | 5.7m/s | -48.3°C | 3.4% | 0hPa | 2.6V | 08:30:00 | 02:05:54 | 00:00:00 | |
| HARRO8 | 2026-09-04 12:40:42 | 45.29431 | 9.13582 | 75° | 15km/h | 27367m | 4.8m/s | -48.2°C | 1.1% | -1.0hPa | 2.6V | 00:00:00 | 00:00:00 | 00:00:00 | |
| OE5DRO-10 | 2026-09-04 12:40:40 | 45.29430 | 9.13576 | 76° | 18km/h | 27362m | 5.7m/s | -48.2°C | 3.4% | 0hPa | 2.6V | 00:00:00 | 00:00:00 | 00:00:00 | |
| IW2NTF | 2026-09-04 12:40:34 | 45.29428 | 9.13500 | 120° | 18km/h | 27306m | 5.1m/s | -48.3°C | 3.5% | 0hPa | 2.6V | 08:30:00 | 02:05:44 | 00:00:00 | |
| DB0UT-7 | 2026-09-04 12:40:33 | 45.29424 | 9.13521 | 87° | 20km/h | 27323m | 5.1m/s | -48.3°C | 3.5% | 0hPa | 2.7V | 00:00:00 | 02:05:47 | 00:00:00 | |
| IW2NTF | 2026-09-04 12:40:25 | 45.29425 | 9.13447 | 74° | 24km/h | 27249m | 5.3m/s | -48.7°C | 3.7% | 0hPa | 2.7V | 08:30:00 | 02:05:34 | 00:00:00 | |
| DO3MHA-11 | 2026-09-04 12:40:23 | 45.29428 | 9.13471 | 81° | 22km/h | 27266m | 5.5m/s | -48.7°C | 3.5% | 0hPa | 2.6V | 00:00:00 | 02:05:37 | 00:00:00 | |
| OE5DRO-10 | 2026-09-04 12:40:21 | 45.29426 | 9.13455 | 77° | 24km/h | 27255m | 6.2m/s | -48.7°C | 3.7% | 0hPa | 2.7V | 00:00:00 | 00:00:00 | 00:00:00 | |
| NBG1-10 | 2026-09-04 12:40:19 | 45.29423 | 9.13439 | 81° | 22km/h | 27244m | 4.4m/s | -48.5°C | 3.6% | 0hPa | 2.7V | 00:00:00 | 02:05:33 | 00:00:00 | |
| IW2NTF | 2026-09-04 12:40:14 | 45.29432 | 9.13379 | 97° | 18km/h | 27194m | 6.5m/s | -48.6°C | 3.5% | 0hPa | 2.7V | 08:30:00 | 02:05:24 | 00:00:00 | |
| DO3MHA-11 | 2026-09-04 12:40:13 | 45.29430 | 9.13395 | 102° | 20km/h | 27209m | 5.3m/s | -48.5°C | 3.5% | 0hPa | 2.7V | 00:00:00 | 02:05:27 | 00:00:00 | |
| HARRO8 | 2026-09-04 12:40:11 | 45.29431 | 9.13379 | 97° | 18km/h | 27194m | 6.5m/s | -48.6°C | 1.1% | -1.0hPa | 2.7V | 00:00:00 | 00:00:00 | 00:00:00 | |
| IW2NTF | 2026-09-04 12:40:04 | 45.29436 | 9.13285 | 110° | 24km/h | 27139m | 4.5m/s | -48.5°C | 3.5% | 0hPa | 2.7V | 08:30:00 | 02:05:14 | 00:00:00 | |
| DB0UT-7 | 2026-09-04 12:40:03 | 45.29432 | 9.13311 | 90° | 18km/h | 27155m | 5.2m/s | -48.4°C | 3.5% | 0hPa | 2.6V | 00:00:00 | 00:00:00 | 00:00:00 | |
| OE5DRO-10 | 2026-09-04 12:39:59 | 45.29438 | 9.13278 | 107° | 18km/h | 27134m | 5.5m/s | -48.5°C | 3.5% | 0hPa | 2.7V | 00:00:00 | 00:00:00 | 08:30:00 | |
| IW2NTF | 2026-09-04 12:39:52 | 45.29441 | 9.13223 | 101° | 16km/h | 27084m | 6.1m/s | -48.4°C | 3.5% | 0hPa | 2.6V | 08:30:00 | 02:05:04 | 00:00:00 | |
| DO3MHA-11 | 2026-09-04 12:39:52 | 45.29439 | 9.13234 | 109° | 16km/h | 27095m | 4.5m/s | -48.3°C | 3.5% | 0hPa | 2.6V | 00:00:00 | 02:05:06 | 00:00:00 | |
| NBG1-10 | 2026-09-04 12:39:46 | 45.29445 | 9.13196 | 104° | 16km/h | 27061m | 5.5m/s | -48.5°C | 3.5% | 0hPa | 2.6V | 00:00:00 | 02:05:00 | 00:00:00 | |
| IW2NTF | 2026-09-04 12:39:42 | 45.29443 | 9.13155 | 78° | 15km/h | 27028m | 6.1m/s | -48.6°C | 3.5% | 0hPa | 2.6V | 08:30:00 | 02:04:54 | 00:00:00 | |
| HARRO8 | 2026-09-04 12:39:40 | 45.29443 | 9.13150 | 91° | 15km/h | 27022m | 5.7m/s | -48.6°C | 1.1% | -1.0hPa | 2.7V | 00:00:00 | 00:00:00 | 00:00:00 | |
| DO3MHA-11 | 2026-09-04 12:39:36 | 45.29444 | 9.13134 | 91° | 16km/h | 27006m | 6.6m/s | -48.8°C | 3.6% | 0hPa | 2.7V | 00:00:00 | 02:04:50 | 00:00:00 | |
| DB0UT-7 | 2026-09-04 12:39:33 | 45.29442 | 9.13118 | 87° | 15km/h | 26989m | 5.7m/s | -48.9°C | 3.6% | 0hPa | 2.7V | 00:00:00 | 02:04:47 | 00:00:00 | |
| IW2NTF | 2026-09-04 12:39:32 | 45.29443 | 9.13099 | 91° | 18km/h | 26972m | 4.9m/s | -49°C | 3.5% | 0hPa | 2.7V | 08:30:00 | 02:04:44 | 00:00:00 | |
| IW2NTF | 2026-09-04 12:39:22 | 45.29438 | 9.13055 | 66° | 13km/h | 26913m | 5.2m/s | -48.7°C | 3.5% | 0hPa | 2.7V | 08:30:00 | 02:04:34 | 00:00:00 | |
| DO3MHA-11 | 2026-09-04 12:39:16 | 45.29434 | 9.13031 | 84° | 11km/h | 26892m | 4.4m/s | -48.7°C | 3.6% | 0hPa | 2.6V | 00:00:00 | 02:04:30 | 00:00:00 | |
| IW2NTF | 2026-09-04 12:39:15 | 45.29428 | 9.13005 | 94° | 9km/h | 26857m | 5.7m/s | -49°C | 3.5% | 0hPa | 2.6V | 08:30:00 | 02:04:24 | 00:00:00 | |
| NBG1-10 | 2026-09-04 12:39:12 | 45.29429 | 9.13012 | 63° | 13km/h | 26869m | 5.6m/s | -48.8°C | 3.6% | 0hPa | 2.6V | 00:00:00 | 02:04:26 | 00:00:00 | |
| OE5DRO-10 | 2026-09-04 12:39:10 | 45.29428 | 9.13005 | 95° | 13km/h | 26857m | 5.6m/s | -48.9°C | 3.5% | 0hPa | 2.6V | 00:00:00 | 00:00:00 | 00:00:00 | |
| HARRO8 | 2026-09-04 12:39:09 | 45.29428 | 9.12999 | 81° | 7km/h | 26845m | 6.5m/s | -49.1°C | 1.1% | -1.0hPa | 2.6V | 00:00:00 | 00:00:00 | 00:00:00 | |
| DO3MHA-11 | 2026-09-04 12:39:06 | 45.29427 | 9.12992 | 67° | 16km/h | 26833m | 5.1m/s | -49.2°C | 3.6% | 0hPa | 2.6V | 00:00:00 | 02:04:20 | 08:30:00 | |
| DB0UT-7 | 2026-09-04 12:39:03 | 45.29424 | 9.12975 | 89° | 15km/h | 26816m | 5.3m/s | -49.2°C | 3.6% | 0hPa | 2.6V | 00:00:00 | 00:00:00 | 00:00:00 | |
| IW2NTF | 2026-09-04 12:39:02 | 45.29421 | 9.12956 | 55° | 16km/h | 26799m | 6m/s | -49.3°C | 3.6% | 0hPa | 2.6V | 08:30:00 | 02:04:14 | 00:00:00 | |
| DO3MHA-11 | 2026-09-04 12:38:56 | 45.29410 | 9.12944 | 44° | 13km/h | 26777m | 5.9m/s | -49.3°C | 3.6% | 0hPa | 2.7V | 00:00:00 | 02:04:10 | 00:00:00 | |
| IW2NTF | 2026-09-04 12:38:52 | 45.29398 | 9.12929 | 41° | 15km/h | 26742m | 6.2m/s | -49.4°C | 3.6% | 0hPa | 2.7V | 08:30:00 | 02:04:04 | 00:00:00 | |
| OE5DRO-10 | 2026-09-04 12:38:51 | 45.29401 | 9.12932 | 35° | 16km/h | 26748m | 5.5m/s | -49.3°C | 3.7% | 0hPa | 2.7V | 00:00:00 | 00:00:00 | 00:00:00 | |
| DO3MHA-11 | 2026-09-04 12:38:46 | 45.29387 | 9.12917 | 6° | 15km/h | 26720m | 6.5m/s | -49.3°C | 3.6% | 0hPa | 2.6V | 00:00:00 | 02:04:00 | 00:00:00 | |
| IW2NTF | 2026-09-04 12:38:45 | 45.29368 | 9.12931 | 339° | 9km/h | 26685m | 4.9m/s | -49.3°C | 3.7% | 0hPa | 2.6V | 08:30:00 | 02:03:54 | 00:00:00 | |
| NBG1-10 | 2026-09-04 12:38:39 | 45.29366 | 9.12932 | 349° | 16km/h | 26681m | 5.1m/s | -49.3°C | 3.7% | 0hPa | 2.7V | 00:00:00 | 02:03:53 | 00:00:00 | |
| HARRO8 | 2026-09-04 12:38:38 | 45.29359 | 9.12933 | 351° | 16km/h | 26668m | 6.2m/s | -49.4°C | 1.1% | -1.0hPa | 2.7V | 00:00:00 | 00:00:00 | 00:00:00 | |
| DO3MHA-11 | 2026-09-04 12:38:36 | 45.29354 | 9.12934 | 350° | 20km/h | 26662m | 6.0m/s | -49.2°C | 3.7% | 0hPa | 2.7V | 00:00:00 | 02:03:50 | 00:00:00 | |
| IW2NTF | 2026-09-04 12:38:33 | 45.29317 | 9.12958 | 308° | 20km/h | 26616m | 4.9m/s | -49.3°C | 3.7% | 0hPa | 2.6V | 08:30:00 | 02:03:42 | 00:00:00 | |
| DB0UT-7 | 2026-09-04 12:38:33 | 45.29338 | 9.12939 | 348° | 18km/h | 26644m | 6.0m/s | -49.3°C | 3.6% | 0hPa | 2.6V | 00:00:00 | 02:03:47 | 00:00:00 | |
| OE5DRO-10 | 2026-09-04 12:38:32 | 45.29333 | 9.12941 | 339° | 16km/h | 26639m | 4.6m/s | -49.2°C | 3.7% | 0hPa | 2.6V | 00:00:00 | 00:00:00 | 00:00:00 | |
| DO3MHA-11 | 2026-09-04 12:38:26 | 45.29313 | 9.12969 | 286° | 18km/h | 26604m | 6.6m/s | -49.3°C | 3.7% | 0hPa | 2.6V | 00:00:00 | 02:03:40 | 00:00:00 | |
| IW2NTF | 2026-09-04 12:38:22 | 45.29291 | 9.13018 | 300° | 15km/h | 26554m | 5.7m/s | -49.2°C | 3.7% | 0hPa | 2.6V | 08:30:00 | 02:03:31 | 00:00:00 | |
| DO3MHA-11 | 2026-09-04 12:38:16 | 45.29290 | 9.13022 | 293° | 18km/h | 26549m | 5.3m/s | -49.2°C | 3.8% | 0hPa | 2.6V | 00:00:00 | 02:03:30 | 00:00:00 | |
| OE5DRO-10 | 2026-09-04 12:38:13 | 45.29287 | 9.13031 | 300° | 16km/h | 26531m | 6.1m/s | -49.1°C | 3.7% | 0hPa | 2.6V | 00:00:00 | 00:00:00 | 00:00:00 | |
| IW2NTF | 2026-09-04 12:38:11 | 45.29291 | 9.13076 | 254° | 24km/h | 26489m | 6.5m/s | -49°C | 3.7% | 0hPa | 2.6V | 08:30:00 | 02:03:20 | 00:00:00 | |
| DO3MHA-11 | 2026-09-04 12:38:06 | 45.29291 | 9.13076 | 255° | 18km/h | 26490m | 6.4m/s | -49.0°C | 3.7% | 0hPa | 2.6V | 00:00:00 | 02:03:20 | 00:00:00 | |
| DB0UT-7 | 2026-09-04 12:38:03 | 45.29295 | 9.13096 | 249° | 16km/h | 26473m | 6.8m/s | -48.8°C | 3.7% | 0hPa | 2.7V | 00:00:00 | 00:00:00 | 00:00:00 | |
| IW2NTF | 2026-09-04 12:38:01 | 45.29303 | 9.13129 | 247° | 18km/h | 26431m | 6.4m/s | -48.6°C | 3.6% | 0hPa | 2.7V | 08:30:00 | 02:03:10 | 00:00:00 | |
| DO3MHA-11 | 2026-09-04 12:37:56 | 45.29303 | 9.13129 | 248° | 20km/h | 26431m | 6.3m/s | -48.6°C | 3.6% | 0hPa | 2.6V | 00:00:00 | 02:03:10 | 00:00:00 | |
| OE5DRO-10 | 2026-09-04 12:37:54 | 45.29309 | 9.13141 | 230° | 16km/h | 26419m | 5.6m/s | -48.5°C | 3.6% | 0hPa | 2.6V | 00:00:00 | 00:00:00 | 00:00:00 | |
| IW2NTF | 2026-09-04 12:37:51 | 45.29330 | 9.13188 | 252° | 9km/h | 26373m | 6.3m/s | -48.3°C | 3.6% | 0hPa | 2.7V | 08:30:00 | 02:03:00 | 00:00:00 | |
| DO3MHA-11 | 2026-09-04 12:37:46 | 45.29330 | 9.13188 | 253° | 13km/h | 26373m | 6.3m/s | -48.2°C | 3.6% | 0hPa | 2.6V | 00:00:00 | 02:03:00 | 00:00:00 | |
| IW2NTF | 2026-09-04 12:37:41 | 45.29348 | 9.13229 | 238° | 24km/h | 26316m | 5.1m/s | -48°C | 3.4% | 0hPa | 2.6V | 08:30:00 | 02:02:50 | 00:00:00 | |
| HARRO8 | 2026-09-04 12:37:36 | 45.29351 | 9.13236 | 234° | 22km/h | 26310m | 5.5m/s | -48.0°C | 1.1% | -1.0hPa | 2.7V | 00:00:00 | 00:00:00 | 00:00:00 | |
| OE5DRO-10 | 2026-09-04 12:37:35 | 45.29351 | 9.13236 | 235° | 16km/h | 26311m | 5.4m/s | -48.0°C | 3.5% | 0hPa | 2.7V | 00:00:00 | 00:00:00 | 00:00:00 | |
| DB0UT-7 | 2026-09-04 12:37:33 | 45.29358 | 9.13246 | 217° | 16km/h | 26299m | 5.2m/s | -47.9°C | 3.5% | 0hPa | 2.7V | 00:00:00 | 02:02:47 | 00:00:00 | |
| IW2NTF | 2026-09-04 12:37:31 | 45.29372 | 9.13263 | 218° | 13km/h | 26259m | 4.1m/s | -48°C | 3.4% | 0hPa | 2.7V | 08:30:00 | 02:02:40 | 00:00:00 | |
| DO3MHA-11 | 2026-09-04 12:37:26 | 45.29371 | 9.13263 | 219° | 18km/h | 26260m | 4.1m/s | -48.0°C | 3.4% | 0hPa | 2.7V | 00:00:00 | 02:02:40 | 00:00:00 | |
| IW2NTF | 2026-09-04 12:37:21 | 45.29410 | 9.13304 | 207° | 20km/h | 26205m | 5.7m/s | -48°C | 3.4% | 0hPa | 2.7V | 08:30:00 | 02:02:30 | 00:00:00 | |
| DO3MHA-11 | 2026-09-04 12:37:16 | 45.29410 | 9.13303 | 208° | 16km/h | 26205m | 5.7m/s | -47.9°C | 3.4% | 0hPa | 2.6V | 00:00:00 | 02:02:30 | 00:00:00 | |
| IW2NTF | 2026-09-04 12:37:10 | 45.29450 | 9.13331 | 208° | 16km/h | 26142m | 6.2m/s | -48.1°C | 3.3% | 0hPa | 2.6V | 08:30:00 | 02:02:18 | 00:00:00 | |
| DO3MHA-11 | 2026-09-04 12:37:06 | 45.29444 | 9.13324 | 231° | 13km/h | 26153m | 5.0m/s | -47.9°C | 3.4% | 0hPa | 2.7V | 00:00:00 | 02:02:20 | 00:00:00 | |
| DB0UT-7 | 2026-09-04 12:37:03 | 45.29454 | 9.13333 | 190° | 9km/h | 26137m | 5.3m/s | -48.1°C | 3.3% | 0hPa | 2.6V | 00:00:00 | 00:00:00 | 08:30:00 | |
| NBG1-10 | 2026-09-04 12:37:00 | 45.29465 | 9.13330 | 160° | 7km/h | 26121m | 5.5m/s | -48.2°C | 3.4% | 0hPa | 2.7V | 00:00:00 | 02:02:14 | 00:00:00 | |
| IW2NTF | 2026-09-04 12:36:59 | 45.29477 | 9.13328 | 193° | 11km/h | 26090m | 4.5m/s | -48.6°C | 3.5% | 0hPa | 2.7V | 08:30:00 | 02:02:08 | 00:00:00 | |
| OE5DRO-10 | 2026-09-04 12:36:57 | 45.29470 | 9.13328 | 166° | 9km/h | 26106m | 5.0m/s | -48.3°C | 3.4% | 0hPa | 2.6V | 00:00:00 | 00:00:00 | 08:30:00 | |
| DO3MHA-11 | 2026-09-04 12:36:56 | 45.29472 | 9.13327 | 174° | 7km/h | 26100m | 6.0m/s | -48.4°C | 3.5% | 0hPa | 2.6V | 00:00:00 | 02:02:10 | 00:00:00 | |
| IW2NTF | 2026-09-04 12:36:46 | 45.29481 | 9.13317 | 46° | 15km/h | 26035m | 5.3m/s | -49°C | 3.5% | 0hPa | 2.6V | 08:30:00 | 02:01:58 | 00:00:00 | |
| DO3MHA-11 | 2026-09-04 12:36:46 | 45.29484 | 9.13325 | 81° | 11km/h | 26047m | 5.7m/s | -49.0°C | 3.5% | 0hPa | 2.6V | 00:00:00 | 02:02:00 | 00:00:00 | |
| IW2NTF | 2026-09-04 12:36:39 | 45.29461 | 9.13319 | 30° | 4km/h | 25981m | 5.3m/s | -48.8°C | 3.5% | 0hPa | 2.6V | 08:30:00 | 02:01:48 | 00:00:00 | |
| OE5DRO-10 | 2026-09-04 12:36:38 | 45.29467 | 9.13313 | 327° | 7km/h | 26002m | 4.8m/s | -48.7°C | 3.6% | 0hPa | 2.7V | 00:00:00 | 00:00:00 | 00:00:00 | |
| DO3MHA-11 | 2026-09-04 12:36:36 | 45.29463 | 9.13318 | 320° | 5km/h | 25992m | 5.9m/s | -48.7°C | 3.5% | 0hPa | 2.7V | 00:00:00 | 02:01:50 | 00:00:00 | |
| DB0UT-7 | 2026-09-04 12:36:33 | 45.29460 | 9.13318 | 43° | 9km/h | 25976m | 5.9m/s | -48.9°C | 3.5% | 0hPa | 2.6V | 00:00:00 | 02:01:47 | 00:00:00 | |
| IW2NTF | 2026-09-04 12:36:29 | 45.29451 | 9.13318 | 330° | 13km/h | 25928m | 5m/s | -49°C | 3.6% | 0hPa | 2.6V | 08:30:00 | 02:01:38 | 00:00:00 | |
| NBG1-10 | 2026-09-04 12:36:27 | 45.29454 | 9.13314 | 250° | 11km/h | 25945m | 4.9m/s | -48.8°C | 3.4% | 0hPa | 2.7V | 00:00:00 | 02:01:41 | 00:00:00 | |
| DO3MHA-11 | 2026-09-04 12:36:26 | 45.29454 | 9.13314 | 307° | 9km/h | 25940m | 4.6m/s | -48.9°C | 3.5% | 0hPa | 2.6V | 00:00:00 | 02:01:40 | 00:00:00 | |
| OE5DRO-10 | 2026-09-04 12:36:19 | 45.29439 | 9.13328 | 323° | 11km/h | 25903m | 4.8m/s | -49.4°C | 3.6% | 0hPa | 2.6V | 00:00:00 | 00:00:00 | 00:00:00 | |
| DO3MHA-11 | 2026-09-04 12:36:16 | 45.29435 | 9.13329 | 353° | 13km/h | 25887m | 5.8m/s | -49.6°C | 3.6% | 0hPa | 2.6V | 00:00:00 | 02:01:30 | 00:00:00 | |
| DO3MHA-11 | 2026-09-04 12:36:06 | 45.29408 | 9.13357 | 315° | 11km/h | 25834m | 6.0m/s | -49.5°C | 3.5% | 0hPa | 2.6V | 00:00:00 | 02:01:20 | 08:30:00 | |
| DB0UT-7 | 2026-09-04 12:36:03 | 45.29405 | 9.13364 | 303° | 11km/h | 25818m | 4.8m/s | -49.7°C | 3.6% | 0hPa | 2.7V | 00:00:00 | 00:00:00 | 00:00:00 | |
| HARRO8 | 2026-09-04 12:36:02 | 45.29404 | 9.13366 | 319° | 7km/h | 25813m | 5.7m/s | 0°C | -1.0% | -1.0hPa | 2.7V | 00:00:00 | 00:00:00 | 00:00:00 | |
| IW2NTF | 2026-09-04 12:36:00 | 45.29396 | 9.13385 | 274° | 18km/h | 25786m | 5.3m/s | -50.2°C | 3.7% | 0hPa | 2.7V | 08:30:00 | 02:01:11 | 00:00:00 | |
| OE5DRO-10 | 2026-09-04 12:36:00 | 45.29400 | 9.13371 | 316° | 11km/h | 25803m | 4.3m/s | -49.8°C | 3.6% | 0hPa | 2.6V | 00:00:00 | 00:00:00 | 00:00:00 | |
| DO3MHA-11 | 2026-09-04 12:35:56 | 45.29395 | 9.13392 | 272° | 11km/h | 25782m | 4.4m/s | -50.3°C | 3.7% | 0hPa | 2.6V | 00:00:00 | 02:01:10 | 00:00:00 | |
| IW2NTF | 2026-09-04 12:35:51 | 45.29402 | 9.13419 | 162° | 2km/h | 25730m | 4.2m/s | -50.7°C | 3.8% | 0hPa | 2.6V | 08:30:00 | 02:01:00 | 00:00:00 | |
| DO3MHA-11 | 2026-09-04 12:35:46 | 45.29402 | 9.13419 | 163° | 9km/h | 25730m | 4.1m/s | -50.7°C | 3.8% | 0hPa | 2.6V | 00:00:00 | 02:01:00 | 00:00:00 | |
| OE5DRO-10 | 2026-09-04 12:35:41 | 45.29411 | 9.13428 | 206° | 7km/h | 25706m | 4.4m/s | -50.7°C | 3.9% | 0hPa | 2.6V | 00:00:00 | 00:00:00 | 00:00:00 | |
| IW2NTF | 2026-09-04 12:35:40 | 45.29422 | 9.13430 | 177° | 7km/h | 25674m | 5.5m/s | -50.7°C | 3.9% | 0hPa | 2.6V | 08:30:00 | 02:00:49 | 00:00:00 | |
| DO3MHA-11 | 2026-09-04 12:35:36 | 45.29420 | 9.13430 | 166° | 9km/h | 25680m | 5.6m/s | -50.7°C | 3.9% | 0hPa | 2.6V | 00:00:00 | 02:00:50 | 00:00:00 | |
| DB0UT-7 | 2026-09-04 12:35:33 | 45.29426 | 9.13430 | 185° | 7km/h | 25665m | 4.5m/s | -50.7°C | 3.9% | 0hPa | 2.6V | 00:00:00 | 02:00:47 | 00:00:00 | |
| IW2NTF | 2026-09-04 12:35:30 | 45.29444 | 9.13429 | 147° | 9km/h | 25623m | 6.2m/s | -50.8°C | 3.8% | 0hPa | 2.7V | 08:30:00 | 02:00:39 | 00:00:00 | |
| DO3MHA-11 | 2026-09-04 12:35:26 | 45.29441 | 9.13430 | 169° | 7km/h | 25629m | 4.4m/s | -50.8°C | 3.8% | 0hPa | 2.6V | 00:00:00 | 02:00:40 | 00:00:00 | |
| NBG1-10 | 2026-09-04 12:35:21 | 45.29445 | 9.13419 | 88° | 11km/h | 25603m | 5.3m/s | -50.6°C | 3.9% | 0hPa | 2.6V | 00:00:00 | 02:00:35 | 00:00:00 | |
| IW2NTF | 2026-09-04 12:35:20 | 45.29441 | 9.13408 | 27° | 7km/h | 25572m | 4.7m/s | -51°C | 3.9% | 0hPa | 2.6V | 08:30:00 | 02:00:29 | 00:00:00 | |
| DO3MHA-11 | 2026-09-04 12:35:16 | 45.29443 | 9.13409 | 37° | 5km/h | 25577m | 5.0m/s | -50.9°C | 3.9% | 0hPa | 2.7V | 00:00:00 | 02:00:30 | 00:00:00 | |
| DO3MHA-11 | 2026-09-04 12:35:06 | 45.29430 | 9.13408 | 11° | 11km/h | 25525m | 5.4m/s | -50.7°C | 3.9% | 0hPa | 2.7V | 00:00:00 | 02:00:20 | 00:00:00 | |
| IW2NTF | 2026-09-04 12:35:04 | 45.29422 | 9.13407 | 5° | 9km/h | 25510m | 4.9m/s | -50.7°C | 3.8% | 0hPa | 2.6V | 08:30:00 | 02:00:17 | 00:00:00 | |
| OE5DRO-10 | 2026-09-04 12:35:03 | 45.29422 | 9.13407 | 6° | 16km/h | 25510m | 4.8m/s | -50.7°C | 3.8% | 0hPa | 2.6V | 00:00:00 | 00:00:00 | 00:00:00 | |
| IW2NTF | 2026-09-04 12:34:58 | 45.29388 | 9.13413 | 358° | 26km/h | 25456m | 5.1m/s | -50.8°C | 3.8% | 0hPa | 2.7V | 08:30:00 | 02:00:07 | 00:00:00 | |
| DO3MHA-11 | 2026-09-04 12:34:56 | 45.29403 | 9.13410 | 342° | 22km/h | 25473m | 5.2m/s | -50.6°C | 3.8% | 0hPa | 2.6V | 00:00:00 | 02:00:10 | 00:00:00 | |
| NBG1-10 | 2026-09-04 12:34:48 | 45.29360 | 9.13418 | 352° | 24km/h | 25430m | 5.9m/s | -50.9°C | 3.9% | 0hPa | 2.6V | 00:00:00 | 02:00:02 | 00:00:00 | |
| DO3MHA-11 | 2026-09-04 12:34:46 | 45.29349 | 9.13420 | 354° | 26km/h | 25420m | 4.3m/s | -50.9°C | 3.9% | 0hPa | 2.6V | 00:00:00 | 02:00:00 | 00:00:00 | |
| IW2NTF | 2026-09-04 12:34:44 | 45.29337 | 9.13424 | 340° | 15km/h | 25404m | 4.6m/s | -50.9°C | 3.9% | 0hPa | 2.6V | 08:30:00 | 01:59:57 | 00:00:00 | |
| OE5DRO-10 | 2026-09-04 12:34:44 | 45.29340 | 9.13422 | 346° | 24km/h | 25409m | 5.6m/s | -50.9°C | 3.9% | 0hPa | 2.6V | 00:00:00 | 00:00:00 | 00:00:00 | |
| IW2NTF | 2026-09-04 12:34:38 | 45.29268 | 9.13464 | 326° | 26km/h | 25352m | 5.7m/s | -51°C | 3.9% | 0hPa | 2.6V | 08:30:00 | 01:59:47 | 00:00:00 | |
| DO3MHA-11 | 2026-09-04 12:34:36 | 45.29287 | 9.13446 | 332° | 22km/h | 25368m | 5.2m/s | -50.9°C | 3.8% | 0hPa | 2.7V | 00:00:00 | 01:59:50 | 08:30:00 | |
| DB0UT-7 | 2026-09-04 12:34:33 | 45.29268 | 9.13464 | 327° | 20km/h | 25353m | 5.6m/s | -50.9°C | 3.9% | 0hPa | 2.7V | 00:00:00 | 01:59:47 | 00:00:00 | |
| DO3MHA-11 | 2026-09-04 12:34:26 | 45.29239 | 9.13483 | 332° | 24km/h | 25315m | 5.8m/s | -50.9°C | 3.8% | 0hPa | 2.7V | 00:00:00 | 01:59:40 | 00:00:00 | |
| IW2NTF | 2026-09-04 12:34:24 | 45.29221 | 9.13496 | 329° | 29km/h | 25299m | 5.1m/s | -51.2°C | 3.8% | 0hPa | 2.7V | 08:30:00 | 01:59:37 | 00:00:00 | |
| IW2NTF | 2026-09-04 12:34:18 | 45.29182 | 9.13546 | 298° | 20km/h | 25247m | 4.4m/s | -51.3°C | 4% | 0hPa | 2.6V | 08:30:00 | 01:59:27 | 00:00:00 | |
| DO3MHA-11 | 2026-09-04 12:34:16 | 45.29190 | 9.13530 | 320° | 16km/h | 25263m | 4.7m/s | -51.3°C | 3.9% | 0hPa | 2.6V | 00:00:00 | 01:59:30 | 00:00:00 | |
| NBG1-10 | 2026-09-04 12:34:15 | 45.29187 | 9.13534 | 307° | 15km/h | 25258m | 6.3m/s | -51.3°C | 4.0% | 0hPa | 2.6V | 00:00:00 | 01:59:29 | 00:00:00 | |
| OE5DRO-10 | 2026-09-04 12:34:06 | 45.29164 | 9.13576 | 295° | 13km/h | 25209m | 5.0m/s | -51.3°C | 3.9% | 0hPa | 2.6V | 00:00:00 | 00:00:00 | 08:30:00 | |
| IW2NTF | 2026-09-04 12:34:04 | 45.29159 | 9.13588 | 307° | 15km/h | 25193m | 5.3m/s | -51.4°C | 3.9% | 0hPa | 2.7V | 08:30:00 | 01:59:17 | 00:00:00 | |
| IW2NTF | 2026-09-04 12:33:57 | 45.29161 | 9.13623 | 240° | 7km/h | 25138m | 5.4m/s | -51.5°C | 4% | 0hPa | 2.7V | 08:30:00 | 01:59:07 | 00:00:00 | |
| DO3MHA-11 | 2026-09-04 12:33:56 | 45.29159 | 9.13616 | 252° | 11km/h | 25155m | 5.2m/s | -51.4°C | 4.0% | 0hPa | 2.7V | 00:00:00 | 01:59:10 | 00:00:00 | |
| DO3MHA-11 | 2026-09-04 12:33:46 | 45.29158 | 9.13651 | 253° | 11km/h | 25100m | 4.7m/s | -51.5°C | 4.0% | 0hPa | 2.7V | 00:00:00 | 01:59:00 | 00:00:00 | |
| IW2NTF | 2026-09-04 12:33:44 | 45.29162 | 9.13663 | 255° | 9km/h | 25084m | 5.7m/s | -51.5°C | 4% | 0hPa | 2.7V | 08:30:00 | 01:58:57 | 00:00:00 | |
| NBG1-10 | 2026-09-04 12:33:42 | 45.29162 | 9.13666 | 270° | 7km/h | 25079m | 5.4m/s | -51.6°C | 4.0% | 0hPa | 2.6V | 00:00:00 | 01:58:56 | 00:00:00 | |
| OE5DRO-10 | 2026-09-04 12:33:39 | 45.29163 | 9.13675 | 245° | 7km/h | 25063m | 6.2m/s | -51.6°C | 4.0% | 0hPa | 2.6V | 00:00:00 | 00:00:00 | 00:00:00 | |
| IW2NTF | 2026-09-04 12:33:36 | 45.29167 | 9.13692 | 265° | 5km/h | 25029m | 6.3m/s | -51.6°C | 4% | 0hPa | 2.6V | 08:30:00 | 01:58:47 | 00:00:00 | |
| DO3MHA-11 | 2026-09-04 12:33:36 | 45.29167 | 9.13684 | 256° | 7km/h | 25046m | 6.3m/s | -51.6°C | 4.1% | 0hPa | 2.7V | 00:00:00 | 01:58:50 | 00:00:00 | |
| DB0UT-7 | 2026-09-04 12:33:33 | 45.29167 | 9.13692 | 266° | 7km/h | 25029m | 6.3m/s | -51.5°C | 4.0% | 0hPa | 2.7V | 00:00:00 | 01:58:47 | 00:00:00 | |
| DO3MHA-11 | 2026-09-04 12:33:26 | 45.29162 | 9.13707 | 280° | 5km/h | 24991m | 6.3m/s | -51.6°C | 4.0% | 0hPa | 2.7V | 00:00:00 | 01:58:40 | 00:00:00 | |
| IW2NTF | 2026-09-04 12:33:24 | 45.29165 | 9.13714 | 212° | 7km/h | 24975m | 5.4m/s | -51.5°C | 4% | 0hPa | 2.7V | 08:30:00 | 01:58:37 | 00:00:00 | |
| OE5DRO-10 | 2026-09-04 12:33:20 | 45.29168 | 9.13713 | 145° | 7km/h | 24958m | 4.9m/s | -51.5°C | 4.0% | 0hPa | 2.6V | 00:00:00 | 00:00:00 | 00:00:00 | |
| DO3MHA-11 | 2026-09-04 12:33:16 | 45.29173 | 9.13713 | 186° | 5km/h | 24937m | 5.3m/s | -51.4°C | 4.0% | 0hPa | 2.6V | 00:00:00 | 01:58:30 | 00:00:00 | |
| IW2NTF | 2026-09-04 12:33:14 | 45.29174 | 9.13711 | 97° | 4km/h | 24920m | 5.3m/s | -51.5°C | 3.9% | 0hPa | 2.6V | 08:30:00 | 01:58:27 | 00:00:00 | |
| NBG1-10 | 2026-09-04 12:33:09 | 45.29180 | 9.13708 | 162° | 9km/h | 24898m | 4.8m/s | -51.5°C | 4.0% | 0hPa | 2.7V | 00:00:00 | 01:58:23 | 08:30:00 | |
| IW2NTF | 2026-09-04 12:33:06 | 45.29189 | 9.13694 | 110° | 5km/h | 24864m | 5.2m/s | -51.4°C | 4% | 0hPa | 2.7V | 08:30:00 | 01:58:17 | 00:00:00 | |
| DO3MHA-11 | 2026-09-04 12:33:06 | 45.29186 | 9.13701 | 124° | 9km/h | 24881m | 4.8m/s | -51.4°C | 4.0% | 0hPa | 2.6V | 00:00:00 | 01:58:20 | 08:30:00 | |
| DB0UT-7 | 2026-09-04 12:33:03 | 45.29189 | 9.13693 | 111° | 9km/h | 24864m | 5.1m/s | -51.4°C | 4.0% | 0hPa | 2.6V | 00:00:00 | 00:00:00 | 00:00:00 | |
| OE5DRO-10 | 2026-09-04 12:33:01 | 45.29188 | 9.13689 | 76° | 11km/h | 24853m | 5.9m/s | 0°C | 0% | 0hPa | 2.6V | 00:00:00 | 00:00:00 | 00:00:00 | |
| DO3MHA-11 | 2026-09-04 12:32:56 | 45.29193 | 9.13672 | 153° | 9km/h | 24825m | 5.2m/s | -51.3°C | 4.1% | 0hPa | 2.6V | 00:00:00 | 01:58:10 | 00:00:00 | |
| IW2NTF | 2026-09-04 12:32:55 | 45.29203 | 9.13663 | 134° | 13km/h | 24809m | 4.3m/s | -51.1°C | 4% | 0hPa | 2.6V | 08:30:00 | 01:58:07 | 00:00:00 | |
| IW2NTF | 2026-09-04 12:32:48 | 45.29202 | 9.13642 | 141° | 9km/h | 24756m | 5.7m/s | -51°C | 4% | 0hPa | 2.7V | 08:30:00 | 01:57:57 | 00:00:00 | |
| DO3MHA-11 | 2026-09-04 12:32:46 | 45.29199 | 9.13652 | 81° | 7km/h | 24772m | 4.7m/s | -51.1°C | 4.0% | 0hPa | 2.7V | 00:00:00 | 01:58:00 | 00:00:00 | |
| OE5DRO-10 | 2026-09-04 12:32:42 | 45.29204 | 9.13640 | 158° | 7km/h | 24751m | 5.5m/s | 0°C | 0% | 0hPa | 2.7V | 00:00:00 | 00:00:00 | 00:00:00 | |
| DO3MHA-11 | 2026-09-04 12:32:36 | 45.29207 | 9.13635 | 329° | 7km/h | 24716m | 6.1m/s | -50.7°C | 3.9% | 0hPa | 2.7V | 00:00:00 | 01:57:50 | 00:00:00 | |
| IW2NTF | 2026-09-04 12:32:34 | 45.29201 | 9.13638 | 16° | 9km/h | 24699m | 6.1m/s | -50.7°C | 3.8% | 0hPa | 2.6V | 08:30:00 | 01:57:47 | 00:00:00 | |
| DB0UT-7 | 2026-09-04 12:32:33 | 45.29201 | 9.13638 | 17° | 5km/h | 24700m | 6.1m/s | -50.6°C | 3.8% | 0hPa | 2.6V | 00:00:00 | 01:57:47 | 08:30:00 | |
| DO3MHA-11 | 2026-09-04 12:32:26 | 45.29203 | 9.13625 | 150° | 5km/h | 24663m | 6.0m/s | -50.4°C | 3.9% | 0hPa | 2.7V | 00:00:00 | 01:57:40 | 00:00:00 | |
| IW2NTF | 2026-09-04 12:32:24 | 45.29199 | 9.13620 | 342° | 5km/h | 24635m | 6.2m/s | -50.8°C | 3.9% | 0hPa | 2.7V | 08:30:00 | 01:57:35 | 00:00:00 | |
| OE5DRO-10 | 2026-09-04 12:32:23 | 45.29202 | 9.13621 | 38° | 5km/h | 24646m | 5.0m/s | 0°C | 0% | 0hPa | 2.6V | 00:00:00 | 00:00:00 | 00:00:00 | |
| NBG1-10 | 2026-09-04 12:32:20 | 45.29197 | 9.13621 | 316° | 5km/h | 24629m | 5.3m/s | -50.8°C | 3.9% | 0hPa | 2.6V | 00:00:00 | 01:57:34 | 00:00:00 | |
| DO3MHA-11 | 2026-09-04 12:32:16 | 45.29194 | 9.13623 | 105° | 5km/h | 24607m | 5.0m/s | -50.8°C | 3.9% | 0hPa | 2.6V | 00:00:00 | 01:57:30 | 00:00:00 | |
| IW2NTF | 2026-09-04 12:32:12 | 45.29198 | 9.13619 | 74° | 5km/h | 24578m | 5.6m/s | -50.5°C | 3.8% | 0hPa | 2.6V | 08:30:00 | 01:57:25 | 00:00:00 | |
| DO3MHA-11 | 2026-09-04 12:32:06 | 45.29193 | 9.13619 | 305° | 7km/h | 24552m | 5.3m/s | -50.4°C | 3.8% | 0hPa | 2.6V | 00:00:00 | 01:57:20 | 00:00:00 | |
| IW2NTF | 2026-09-04 12:32:04 | 45.29193 | 9.13627 | 204° | 9km/h | 24524m | 5.9m/s | -50.6°C | 3.8% | 0hPa | 2.6V | 08:30:00 | 01:57:15 | 00:00:00 | |
| OE5DRO-10 | 2026-09-04 12:32:04 | 45.29191 | 9.13623 | 307° | 7km/h | 24540m | 5.3m/s | 0°C | 0% | 0hPa | 2.6V | 00:00:00 | 00:00:00 | 00:00:00 | |
| DB0UT-7 | 2026-09-04 12:32:03 | 45.29191 | 9.13625 | 265° | 9km/h | 24535m | 4.4m/s | -50.5°C | 3.8% | 0hPa | 2.6V | 00:00:00 | 00:00:00 | 00:00:00 | |
| DO3MHA-11 | 2026-09-04 12:31:56 | 45.29200 | 9.13622 | 98° | 7km/h | 24496m | 5.6m/s | -50.4°C | 3.9% | 0hPa | 2.6V | 00:00:00 | 01:57:10 | 00:00:00 | |
| IW2NTF | 2026-09-04 12:31:54 | 45.29196 | 9.13626 | 318° | 9km/h | 24467m | 5m/s | -50.5°C | 3.8% | 0hPa | 2.6V | 08:30:00 | 01:57:05 | 00:00:00 | |
| HARRO8 | 2026-09-04 12:31:54 | 45.29200 | 9.13621 | 311° | 2km/h | 24484m | 5.3m/s | 0°C | -1.0% | -1.0hPa | 2.7V | 00:00:00 | 00:00:00 | 00:00:00 | |
| DO3MHA-11 | 2026-09-04 12:31:46 | 45.29205 | 9.13636 | 185° | 13km/h | 24441m | 5.3m/s | -50.4°C | 3.8% | 0hPa | 2.7V | 00:00:00 | 01:57:00 | 00:00:00 | |
| OE5DRO-10 | 2026-09-04 12:31:45 | 45.29209 | 9.13636 | 173° | 11km/h | 24435m | 6.0m/s | 0°C | 0% | 0hPa | 2.7V | 00:00:00 | 00:00:00 | 00:00:00 | |
| IW2NTF | 2026-09-04 12:31:42 | 45.29225 | 9.13627 | 159° | 11km/h | 24414m | 5.4m/s | -50.4°C | 3.9% | 0hPa | 2.7V | 08:30:00 | 01:56:55 | 00:00:00 | |
| DO3MHA-11 | 2026-09-04 12:31:36 | 45.29224 | 9.13629 | 332° | 15km/h | 24387m | 4.4m/s | -50.4°C | 3.7% | 0hPa | 2.7V | 00:00:00 | 01:56:50 | 08:30:00 | |
| IW2NTF | 2026-09-04 12:31:34 | 45.29233 | 9.13643 | 196° | 18km/h | 24361m | 6m/s | -50.3°C | 3.7% | 0hPa | 2.7V | 08:30:00 | 01:56:45 | 00:00:00 | |
| DB0UT-7 | 2026-09-04 12:31:33 | 45.29225 | 9.13637 | 222° | 9km/h | 24372m | 4.7m/s | -50.3°C | 3.7% | 0hPa | 2.6V | 00:00:00 | 01:56:47 | 00:00:00 | |
| DO3MHA-11 | 2026-09-04 12:31:26 | 45.29251 | 9.13640 | 175° | 7km/h | 24336m | 5.4m/s | -50.3°C | 3.7% | 0hPa | 2.6V | 00:00:00 | 01:56:40 | 00:00:00 | |
| IW2NTF | 2026-09-04 12:31:24 | 45.29255 | 9.13643 | 342° | 4km/h | 24310m | 4.7m/s | -50.6°C | 3.7% | 0hPa | 2.6V | 08:30:00 | 01:56:35 | 00:00:00 | |
| DO3MHA-11 | 2026-09-04 12:31:16 | 45.29255 | 9.13657 | 236° | 9km/h | 24285m | 5.7m/s | -51.0°C | 3.8% | 0hPa | 2.6V | 00:00:00 | 01:56:30 | 00:00:00 | |
| IW2NTF | 2026-09-04 12:31:14 | 45.29266 | 9.13657 | 173° | 9km/h | 24257m | 5.1m/s | -51°C | 3.9% | 0hPa | 2.6V | 08:30:00 | 01:56:25 | 00:00:00 | |
| NBG1-10 | 2026-09-04 12:31:13 | 45.29261 | 9.13659 | 168° | 9km/h | 24268m | 4.9m/s | -51.0°C | 3.9% | 0hPa | 2.7V | 00:00:00 | 01:56:27 | 00:00:00 | |
| DO3MHA-11 | 2026-09-04 12:31:06 | 45.29271 | 9.13651 | 128° | 7km/h | 24231m | 4.8m/s | -51.1°C | 3.9% | 0hPa | 2.6V | 00:00:00 | 01:56:20 | 00:00:00 | |
| IW2NTF | 2026-09-04 12:31:04 | 45.29280 | 9.13654 | 163° | 13km/h | 24204m | 4.9m/s | -51.1°C | 3.9% | 0hPa | 2.6V | 08:30:00 | 01:56:15 | 00:00:00 | |
| DB0UT-7 | 2026-09-04 12:31:03 | 45.29275 | 9.13653 | 202° | 9km/h | 24215m | 5.0m/s | -51.1°C | 3.9% | 0hPa | 2.7V | 00:00:00 | 00:00:00 | 00:00:00 | |
| DO3MHA-11 | 2026-09-04 12:30:56 | 45.29287 | 9.13643 | 69° | 9km/h | 24179m | 5.7m/s | -51.2°C | 3.9% | 0hPa | 2.7V | 00:00:00 | 01:56:10 | 00:00:00 | |
| IW2NTF | 2026-09-04 12:30:54 | 45.29277 | 9.13630 | 342° | 7km/h | 24152m | 5.5m/s | -51.2°C | 3.8% | 0hPa | 2.7V | 08:30:00 | 01:56:05 | 00:00:00 | |
| IW2NTF | 2026-09-04 12:30:44 | 45.29266 | 9.13637 | 42° | 11km/h | 24100m | 4.2m/s | -51.3°C | 3.9% | 0hPa | 2.7V | 08:30:00 | 01:55:55 | 00:00:00 | |
| DO3MHA-11 | 2026-09-04 12:30:36 | 45.29253 | 9.13640 | 314° | 11km/h | 24075m | 5.6m/s | -51.8°C | 3.9% | 0hPa | 2.7V | 00:00:00 | 01:55:50 | 00:00:00 | |
| IW2NTF | 2026-09-04 12:30:34 | 45.29247 | 9.13661 | 265° | 15km/h | 24048m | 5.8m/s | -52°C | 4% | 0hPa | 2.7V | 08:30:00 | 01:55:45 | 00:00:00 | |
| NBG1-10 | 2026-09-04 12:30:34 | 45.29249 | 9.13647 | 300° | 11km/h | 24065m | 4.5m/s | -51.9°C | 3.9% | 0hPa | 2.6V | 00:00:00 | 01:55:48 | 00:00:00 | |
| DB0UT-7 | 2026-09-04 12:30:33 | 45.29247 | 9.13651 | 286° | 11km/h | 24060m | 4.8m/s | -52.0°C | 3.9% | 0hPa | 2.6V | 00:00:00 | 01:55:47 | 00:00:00 | |
| DO3MHA-11 | 2026-09-04 12:30:26 | 45.29246 | 9.13676 | 334° | 15km/h | 24024m | 4.4m/s | -52.1°C | 4.2% | 0hPa | 2.6V | 00:00:00 | 01:55:40 | 00:00:00 | |
| IW2NTF | 2026-09-04 12:30:23 | 45.29236 | 9.13696 | 284° | 16km/h | 23999m | 5.3m/s | -52.3°C | 4.1% | 0hPa | 2.6V | 08:30:00 | 01:55:35 | 00:00:00 | |
| DO3MHA-11 | 2026-09-04 12:30:16 | 45.29243 | 9.13725 | 238° | 7km/h | 23974m | 4.1m/s | -52.0°C | 4.1% | 0hPa | 2.6V | 00:00:00 | 01:55:30 | 00:00:00 | |
| IW2NTF | 2026-09-04 12:30:12 | 45.29253 | 9.13739 | 108° | 2km/h | 23949m | 4.8m/s | -52.2°C | 4.1% | 0hPa | 2.6V | 08:30:00 | 01:55:25 | 00:00:00 | |
| DO3MHA-11 | 2026-09-04 12:30:06 | 45.29252 | 9.13745 | 220° | 13km/h | 23925m | 5.6m/s | -51.9°C | 4.0% | 0hPa | 2.6V | 00:00:00 | 01:55:20 | 08:30:00 | |
| IW2NTF | 2026-09-04 12:30:05 | 45.29271 | 9.13756 | 197° | 16km/h | 23895m | 4.5m/s | -52°C | 4.1% | 0hPa | 2.6V | 08:30:00 | 01:55:14 | 00:00:00 | |
| DO3MHA-11 | 2026-09-04 12:29:56 | 45.29283 | 9.13753 | 150° | 11km/h | 23876m | 5.5m/s | -52.1°C | 4.0% | 0hPa | 2.6V | 00:00:00 | 01:55:10 | 00:00:00 | |
| IW2NTF | 2026-09-04 12:29:55 | 45.29295 | 9.13745 | 142° | 16km/h | 23847m | 4.5m/s | -52.2°C | 4.1% | 0hPa | 2.6V | 08:30:00 | 01:55:04 | 00:00:00 | |
| DO3MHA-11 | 2026-09-04 12:29:46 | 45.29306 | 9.13732 | 142° | 20km/h | 23828m | 4.1m/s | -52.2°C | 4.2% | 0hPa | 2.7V | 00:00:00 | 01:55:00 | 00:00:00 | |
| IW2NTF | 2026-09-04 12:29:44 | 45.29335 | 9.13702 | 146° | 20km/h | 23792m | 4.8m/s | -52.3°C | 4% | 0hPa | 2.7V | 08:30:00 | 01:54:53 | 00:00:00 | |
| DO3MHA-11 | 2026-09-04 12:29:36 | 45.29348 | 9.13686 | 132° | 24km/h | 23777m | 4.8m/s | -52.3°C | 4.0% | 0hPa | 2.6V | 00:00:00 | 01:54:50 | 00:00:00 | |
| IW2NTF | 2026-09-04 12:29:33 | 45.29369 | 9.13631 | 118° | 26km/h | 23741m | 5.5m/s | -52.3°C | 4.2% | 0hPa | 2.7V | 08:30:00 | 01:54:43 | 00:00:00 | |
| DO3MHA-11 | 2026-09-04 12:29:26 | 45.29376 | 9.13609 | 116° | 22km/h | 23728m | 4.9m/s | -52.4°C | 4.2% | 0hPa | 2.6V | 00:00:00 | 01:54:40 | 00:00:00 | |
| NBG1-10 | 2026-09-04 12:29:24 | 45.29382 | 9.13593 | 117° | 22km/h | 23718m | 3.9m/s | -52.3°C | 4.1% | 0hPa | 2.6V | 00:00:00 | 01:54:38 | 00:00:00 | |
| IW2NTF | 2026-09-04 12:29:20 | 45.29391 | 9.13559 | 99° | 16km/h | 23695m | 4.3m/s | -52.4°C | 4.1% | 0hPa | 2.6V | 08:30:00 | 01:54:33 | 00:00:00 | |
| DO3MHA-11 | 2026-09-04 12:29:16 | 45.29394 | 9.13536 | 98° | 24km/h | 23681m | 4.4m/s | -52.4°C | 4.1% | 0hPa | 2.6V | 00:00:00 | 01:54:30 | 00:00:00 | |
| IW2NTF | 2026-09-04 12:29:11 | 45.29395 | 9.13475 | 94° | 22km/h | 23646m | 3.9m/s | -52.4°C | 4.1% | 0hPa | 2.6V | 08:30:00 | 01:54:23 | 00:00:00 | |
| DO3MHA-11 | 2026-09-04 12:29:06 | 45.29393 | 9.13454 | 77° | 22km/h | 23631m | 4.2m/s | -52.4°C | 4.1% | 0hPa | 2.7V | 00:00:00 | 01:54:20 | 00:00:00 | |
| IW2NTF | 2026-09-04 12:29:05 | 45.29383 | 9.13401 | 71° | 20km/h | 23596m | 4.9m/s | -52.5°C | 4.2% | 0hPa | 2.6V | 08:30:00 | 01:54:13 | 00:00:00 | |
| DB0UT-7 | 2026-09-04 12:29:03 | 45.29390 | 9.13431 | 79° | 18km/h | 23617m | 4.1m/s | -52.5°C | 4.2% | 0hPa | 2.7V | 00:00:00 | 00:00:00 | 00:00:00 | |
| DO3MHA-11 | 2026-09-04 12:28:56 | 45.29380 | 9.13380 | 79° | 18km/h | 23581m | 4.5m/s | -52.4°C | 4.1% | 0hPa | 2.7V | 00:00:00 | 01:54:10 | 00:00:00 | |
| IW2NTF | 2026-09-04 12:28:55 | 45.29370 | 9.13337 | 65° | 22km/h | 23544m | 5.6m/s | -52.3°C | 4% | 0hPa | 2.7V | 08:30:00 | 01:54:03 | 00:00:00 | |
| NBG1-10 | 2026-09-04 12:28:50 | 45.29372 | 9.13344 | 73° | 16km/h | 23550m | 4.9m/s | -52.3°C | 4.0% | 0hPa | 2.6V | 00:00:00 | 01:54:04 | 00:00:00 | |
| IW2NTF | 2026-09-04 12:28:45 | 45.29344 | 9.13288 | 46° | 13km/h | 23494m | 5.6m/s | -52.6°C | 4.1% | 0hPa | 2.6V | 08:30:00 | 01:53:53 | 00:00:00 | |
| DO3MHA-11 | 2026-09-04 12:28:35 | 45.29333 | 9.13269 | 44° | 18km/h | 23473m | 5.8m/s | -52.9°C | 4.2% | 0hPa | 2.6V | 00:00:00 | 01:53:49 | 08:30:00 | |
| IW2NTF | 2026-09-04 12:28:33 | 45.29314 | 9.13239 | 48° | 15km/h | 23444m | 4.2m/s | -53.1°C | 4.2% | 0hPa | 2.6V | 08:30:00 | 01:53:43 | 00:00:00 | |
| DB0UT-7 | 2026-09-04 12:28:33 | 45.29325 | 9.13259 | 41° | 15km/h | 23464m | 4.4m/s | -52.9°C | 4.1% | 0hPa | 2.7V | 00:00:00 | 01:53:47 | 00:00:00 | |
| DO3MHA-11 | 2026-09-04 12:28:25 | 45.29300 | 9.13235 | 354° | 15km/h | 23422m | 5.6m/s | -53.0°C | 4.3% | 0hPa | 2.7V | 00:00:00 | 01:53:39 | 00:00:00 | |
| IW2NTF | 2026-09-04 12:28:22 | 45.29275 | 9.13233 | 16° | 15km/h | 23391m | 4.5m/s | -53.1°C | 4.3% | 0hPa | 2.7V | 08:30:00 | 01:53:33 | 00:00:00 | |
| NBG1-10 | 2026-09-04 12:28:17 | 45.29270 | 9.13228 | 56° | 7km/h | 23381m | 4.9m/s | -52.9°C | 4.2% | 0hPa | 2.7V | 00:00:00 | 01:53:31 | 00:00:00 | |
| DO3MHA-11 | 2026-09-04 12:28:15 | 45.29268 | 9.13222 | 53° | 11km/h | 23372m | 5.1m/s | -53.0°C | 4.2% | 0hPa | 2.7V | 00:00:00 | 01:53:29 | 00:00:00 | |
| IW2NTF | 2026-09-04 12:28:12 | 45.29252 | 9.13226 | 0° | 11km/h | 23340m | 5.1m/s | -53°C | 4.1% | 0hPa | 2.7V | 08:30:00 | 01:53:23 | 00:00:00 | |
| DO3MHA-11 | 2026-09-04 12:28:05 | 45.29240 | 9.13225 | 7° | 11km/h | 23321m | 4.3m/s | -53.2°C | 4.2% | 0hPa | 2.6V | 00:00:00 | 01:53:19 | 00:00:00 | |
| IW2NTF | 2026-09-04 12:28:04 | 45.29225 | 9.13214 | 2° | 11km/h | 23290m | 5.3m/s | -53.2°C | 4.3% | 0hPa | 2.6V | 08:30:00 | 01:53:13 | 00:00:00 | |
| DB0UT-7 | 2026-09-04 12:28:03 | 45.29234 | 9.13222 | 35° | 7km/h | 23310m | 5.8m/s | -53.1°C | 4.3% | 0hPa | 2.7V | 00:00:00 | 00:00:00 | 08:30:00 | |
| DO3MHA-11 | 2026-09-04 12:27:55 | 45.29218 | 9.13219 | 310° | 5km/h | 23270m | 5.0m/s | -53.5°C | 4.3% | 0hPa | 2.7V | 00:00:00 | 01:53:09 | 00:00:00 | |
| IW2NTF | 2026-09-04 12:27:52 | 45.29211 | 9.13222 | 80° | 5km/h | 23238m | 5m/s | -53.8°C | 4.4% | 0hPa | 2.7V | 08:30:00 | 01:53:03 | 00:00:00 | |
| DO3MHA-11 | 2026-09-04 12:27:45 | 45.29208 | 9.13220 | 327° | 4km/h | 23218m | 4.8m/s | -53.5°C | 4.4% | 0hPa | 2.7V | 00:00:00 | 01:52:59 | 00:00:00 | |
| IW2NTF | 2026-09-04 12:27:40 | 45.29205 | 9.13228 | 324° | 5km/h | 23188m | 5.5m/s | -53.5°C | 4.3% | 0hPa | 2.7V | 08:30:00 | 01:52:53 | 00:00:00 | |
| DO3MHA-11 | 2026-09-04 12:27:35 | 45.29203 | 9.13225 | 107° | 7km/h | 23167m | 4.6m/s | -53.4°C | 4.3% | 0hPa | 2.6V | 00:00:00 | 01:52:49 | 00:00:00 | |
| IW2NTF | 2026-09-04 12:27:33 | 45.29200 | 9.13209 | 52° | 7km/h | 23136m | 6m/s | -53.5°C | 4.3% | 0hPa | 2.7V | 08:30:00 | 01:52:43 | 00:00:00 | |
| DB0UT-7 | 2026-09-04 12:27:33 | 45.29204 | 9.13219 | 95° | 9km/h | 23157m | 5.6m/s | -53.4°C | 4.3% | 0hPa | 2.6V | 00:00:00 | 01:52:47 | 00:00:00 | |
| DO3MHA-11 | 2026-09-04 12:27:25 | 45.29198 | 9.13203 | 326° | 9km/h | 23115m | 5.9m/s | -53.5°C | 4.4% | 0hPa | 2.6V | 00:00:00 | 01:52:39 | 00:00:00 | |
| IW2NTF | 2026-09-04 12:27:21 | 45.29198 | 9.13195 | 82° | 15km/h | 23085m | 5.6m/s | -53.5°C | 4.3% | 0hPa | 2.6V | 08:30:00 | 01:52:33 | 00:00:00 | |
| DO3MHA-11 | 2026-09-04 12:27:15 | 45.29192 | 9.13174 | 71° | 11km/h | 23065m | 5.6m/s | -53.4°C | 4.3% | 0hPa | 2.7V | 00:00:00 | 01:52:29 | 00:00:00 | |
| IW2NTF | 2026-09-04 12:27:12 | 45.29192 | 9.13151 | 89° | 9km/h | 23033m | 4m/s | -53.5°C | 4.3% | 0hPa | 2.7V | 08:30:00 | 01:52:23 | 00:00:00 | |
| NBG1-10 | 2026-09-04 12:27:11 | 45.29192 | 9.13156 | 90° | 11km/h | 23043m | 5.6m/s | -53.5°C | 4.3% | 0hPa | 2.7V | 00:00:00 | 01:52:25 | 08:30:00 | |
| DO3MHA-11 | 2026-09-04 12:27:05 | 45.29194 | 9.13132 | 94° | 18km/h | 23014m | 5.8m/s | -53.5°C | 4.5% | 0hPa | 2.6V | 00:00:00 | 01:52:19 | 08:30:00 | |
| IW2NTF | 2026-09-04 12:27:04 | 45.29189 | 9.13094 | 73° | 16km/h | 22983m | 4.7m/s | -53.6°C | 4.4% | 0hPa | 2.6V | 08:30:00 | 01:52:13 | 00:00:00 | |
| DB0UT-7 | 2026-09-04 12:27:03 | 45.29193 | 9.13121 | 76° | 18km/h | 23003m | 4.5m/s | -53.5°C | 4.4% | 0hPa | 2.6V | 00:00:00 | 00:00:00 | 00:00:00 | |
| IW2NTF | 2026-09-04 12:26:54 | 45.29165 | 9.13046 | 56° | 16km/h | 22932m | 5.9m/s | -53.5°C | 4.3% | 0hPa | 2.6V | 08:30:00 | 01:52:03 | 00:00:00 | |
| DO3MHA-11 | 2026-09-04 12:26:54 | 45.29178 | 9.13070 | 60° | 16km/h | 22958m | 4.9m/s | -53.5°C | 4.3% | 0hPa | 2.7V | 00:00:00 | 01:52:08 | 00:00:00 | |
| DO3MHA-11 | 2026-09-04 12:26:44 | 45.29151 | 9.13024 | 35° | 20km/h | 22907m | 4.3m/s | -53.3°C | 4.4% | 0hPa | 2.7V | 00:00:00 | 01:51:58 | 00:00:00 | |
| IW2NTF | 2026-09-04 12:26:40 | 45.29117 | 9.12985 | 53° | 16km/h | 22861m | 4.5m/s | -53.2°C | 4.3% | 0hPa | 2.7V | 08:30:00 | 01:51:49 | 00:00:00 | |
| DO3MHA-11 | 2026-09-04 12:26:34 | 45.29114 | 9.12981 | 48° | 18km/h | 22857m | 5.7m/s | -53.2°C | 4.3% | 0hPa | 2.7V | 00:00:00 | 01:51:48 | 00:00:00 | |
| DB0UT-7 | 2026-09-04 12:26:33 | 45.29112 | 9.12979 | 27° | 22km/h | 22851m | 5.1m/s | -53.2°C | 4.3% | 0hPa | 2.7V | 00:00:00 | 01:51:47 | 00:00:00 | |
| IW2NTF | 2026-09-04 12:26:26 | 45.29079 | 9.12968 | 5° | 26km/h | 22811m | 4.7m/s | -52.9°C | 4.1% | 0hPa | 2.6V | 08:30:00 | 01:51:39 | 00:00:00 | |
| DO3MHA-11 | 2026-09-04 12:26:24 | 45.29072 | 9.12967 | 10° | 22km/h | 22807m | 3.9m/s | -52.9°C | 4.1% | 0hPa | 2.7V | 00:00:00 | 01:51:38 | 00:00:00 | |
| IW2NTF | 2026-09-04 12:26:20 | 45.29024 | 9.12954 | 0° | 22km/h | 22761m | 4m/s | -53.4°C | 4.3% | 0hPa | 2.7V | 08:30:00 | 01:51:29 | 00:00:00 | |
| DO3MHA-11 | 2026-09-04 12:26:14 | 45.29018 | 9.12954 | 357° | 24km/h | 22758m | 4.4m/s | -53.3°C | 4.3% | 0hPa | 2.6V | 00:00:00 | 01:51:28 | 00:00:00 | |
| IW2NTF | 2026-09-04 12:26:06 | 45.28965 | 9.12952 | 353° | 22km/h | 22716m | 4.6m/s | -53.3°C | 4.3% | 0hPa | 2.6V | 08:30:00 | 01:51:19 | 00:00:00 | |
| DO3MHA-11 | 2026-09-04 12:26:04 | 45.28959 | 9.12953 | 353° | 24km/h | 22711m | 4.2m/s | -53.3°C | 4.2% | 0hPa | 2.7V | 00:00:00 | 01:51:18 | 00:00:00 | |
| DB0UT-7 | 2026-09-04 12:26:03 | 45.28953 | 9.12954 | 356° | 18km/h | 22707m | 4.4m/s | -53.3°C | 4.3% | 0hPa | 2.6V | 00:00:00 | 00:00:00 | 00:00:00 | |
| IW2NTF | 2026-09-04 12:25:59 | 45.28908 | 9.12955 | 342° | 20km/h | 22668m | 4.7m/s | -53.3°C | 4.3% | 0hPa | 2.6V | 08:30:00 | 01:51:09 | 00:00:00 | |
| DO3MHA-11 | 2026-09-04 12:25:54 | 45.28903 | 9.12956 | 349° | 18km/h | 22664m | 5.4m/s | -53.3°C | 4.3% | 0hPa | 2.7V | 00:00:00 | 01:51:08 | 00:00:00 | |
| IW2NTF | 2026-09-04 12:25:46 | 45.28863 | 9.12958 | 358° | 20km/h | 22620m | 4.3m/s | -53.5°C | 4.3% | 0hPa | 2.7V | 08:30:00 | 01:50:59 | 00:00:00 | |
| DO3MHA-11 | 2026-09-04 12:25:44 | 45.28858 | 9.12958 | 349° | 15km/h | 22616m | 5.7m/s | -53.3°C | 4.2% | 0hPa | 2.7V | 00:00:00 | 01:50:58 | 00:00:00 | |
| IW2NTF | 2026-09-04 12:25:39 | 45.28824 | 9.12981 | 357° | 15km/h | 22561m | 5.1m/s | -53.5°C | 4.3% | 0hPa | 2.7V | 08:30:00 | 01:50:47 | 00:00:00 | |
| DO3MHA-11 | 2026-09-04 12:25:34 | 45.28827 | 9.12980 | 346° | 13km/h | 22567m | 5.4m/s | -53.5°C | 4.3% | 0hPa | 2.7V | 00:00:00 | 01:50:48 | 08:30:00 | |
| DB0UT-7 | 2026-09-04 12:25:33 | 45.28824 | 9.12981 | 358° | 11km/h | 22562m | 5.1m/s | -53.5°C | 4.3% | 0hPa | 2.7V | 00:00:00 | 01:50:47 | 00:00:00 | |
| IW2NTF | 2026-09-04 12:25:26 | 45.28791 | 9.13009 | 310° | 13km/h | 22513m | 5m/s | -53.7°C | 4.4% | 0hPa | 2.7V | 08:30:00 | 01:50:37 | 00:00:00 | |
| DO3MHA-11 | 2026-09-04 12:25:20 | 45.28785 | 9.13015 | 351° | 7km/h | 22499m | 5.7m/s | -53.6°C | 4.3% | 0hPa | 2.6V | 00:00:00 | 01:50:34 | 00:00:00 | |
| IW2NTF | 2026-09-04 12:25:16 | 45.28775 | 9.13024 | 296° | 7km/h | 22463m | 4m/s | -53.7°C | 4.4% | 0hPa | 2.6V | 08:30:00 | 01:50:27 | 00:00:00 | |
| DO3MHA-11 | 2026-09-04 12:25:10 | 45.28772 | 9.13034 | 295° | 7km/h | 22448m | 4.4m/s | -53.7°C | 4.4% | 0hPa | 2.7V | 00:00:00 | 01:50:24 | 00:00:00 | |
| IW2NTF | 2026-09-04 12:25:04 | 45.28761 | 9.13044 | 326° | 9km/h | 22414m | 4.4m/s | -53.8°C | 4.3% | 0hPa | 2.7V | 08:30:00 | 01:50:17 | 00:00:00 | |
| DB0UT-7 | 2026-09-04 12:25:03 | 45.28761 | 9.13044 | 327° | 13km/h | 22414m | 4.3m/s | -53.7°C | 4.3% | 0hPa | 2.7V | 00:00:00 | 00:00:00 | 00:00:00 | |
| DO3MHA-11 | 2026-09-04 12:25:00 | 45.28755 | 9.13047 | 352° | 11km/h | 22399m | 4.8m/s | -53.8°C | 4.3% | 0hPa | 2.6V | 00:00:00 | 01:50:14 | 00:00:00 | |
| IW2NTF | 2026-09-04 12:24:58 | 45.28737 | 9.13055 | 355° | 13km/h | 22363m | 5.5m/s | -53.9°C | 4.3% | 0hPa | 2.6V | 08:30:00 | 01:50:07 | 00:00:00 | |
| IW2NTF | 2026-09-04 12:24:48 | 45.28708 | 9.13049 | 359° | 15km/h | 22311m | 4.9m/s | -54.3°C | 4.6% | 0hPa | 2.6V | 08:30:00 | 01:49:57 | 00:00:00 | |
| DO3MHA-11 | 2026-09-04 12:24:39 | 45.28691 | 9.13054 | 341° | 20km/h | 22291m | 4.2m/s | -54.2°C | 4.5% | 0hPa | 2.7V | 00:00:00 | 01:49:53 | 00:00:00 | |
| IW2NTF | 2026-09-04 12:24:38 | 45.28662 | 9.13047 | 11° | 26km/h | 22261m | 5.5m/s | -54.1°C | 4.4% | 0hPa | 2.7V | 08:30:00 | 01:49:47 | 00:00:00 | |
| DB0UT-7 | 2026-09-04 12:24:33 | 45.28662 | 9.13047 | 12° | 13km/h | 22261m | 5.4m/s | -54.1°C | 4.4% | 0hPa | 2.6V | 00:00:00 | 01:49:47 | 00:00:00 | |
| DO3MHA-11 | 2026-09-04 12:24:29 | 45.28640 | 9.13046 | 357° | 13km/h | 22243m | 5.2m/s | -54.0°C | 4.5% | 0hPa | 2.6V | 00:00:00 | 01:49:43 | 00:00:00 | |
| IW2NTF | 2026-09-04 12:24:27 | 45.28621 | 9.13050 | 2° | 11km/h | 22213m | 6.2m/s | -53.9°C | 4.4% | 0hPa | 2.6V | 08:30:00 | 01:49:37 | 00:00:00 | |
| DO3MHA-11 | 2026-09-04 12:24:18 | 45.28604 | 9.13048 | 352° | 9km/h | 22187m | 3.7m/s | -53.9°C | 4.3% | 0hPa | 2.7V | 00:00:00 | 01:49:32 | 00:00:00 | |
| IW2NTF | 2026-09-04 12:24:17 | 45.28592 | 9.13058 | 312° | 11km/h | 22161m | 5.5m/s | -53.9°C | 4.4% | 0hPa | 2.7V | 08:30:00 | 01:49:27 | 00:00:00 | |
| DO3MHA-11 | 2026-09-04 12:24:08 | 45.28588 | 9.13067 | 306° | 5km/h | 22136m | 4.1m/s | -53.7°C | 4.3% | 0hPa | 2.6V | 00:00:00 | 01:49:22 | 00:00:00 | |
| IW2NTF | 2026-09-04 12:24:07 | 45.28579 | 9.13074 | 348° | 2km/h | 22107m | 4.9m/s | -53.9°C | 4.3% | 0hPa | 2.6V | 08:30:00 | 01:49:16 | 00:00:00 | |
| DB0UT-7 | 2026-09-04 12:24:03 | 45.28579 | 9.13073 | 335° | 4km/h | 22112m | 5.1m/s | -53.9°C | 4.2% | 0hPa | 2.6V | 00:00:00 | 00:00:00 | 00:00:00 | |
| DO3MHA-11 | 2026-09-04 12:23:58 | 45.28579 | 9.13074 | 282° | 5km/h | 22087m | 4.6m/s | -53.7°C | 4.3% | 0hPa | 2.6V | 00:00:00 | 01:49:12 | 08:30:00 | |
| DO3MHA-11 | 2026-09-04 12:23:48 | 45.28586 | 9.13089 | 230° | 5km/h | 22037m | 4.5m/s | -54.1°C | 4.3% | 0hPa | 2.7V | 00:00:00 | 01:49:02 | 00:00:00 | |
| IW2NTF | 2026-09-04 12:23:40 | 45.28595 | 9.13100 | 261° | 2km/h | 21973m | 4.7m/s | -54.8°C | 4.5% | 0hPa | 2.7V | 08:30:00 | 01:48:49 | 00:00:00 | |
| DO3MHA-11 | 2026-09-04 12:23:38 | 45.28595 | 9.13098 | 298° | 4km/h | 21988m | 4.2m/s | -54.6°C | 4.4% | 0hPa | 2.6V | 00:00:00 | 01:48:52 | 00:00:00 | |
| DB0UT-7 | 2026-09-04 12:23:33 | 45.28594 | 9.13103 | 294° | 5km/h | 21963m | 5.9m/s | -54.8°C | 4.6% | 0hPa | 2.6V | 00:00:00 | 01:48:47 | 08:30:00 | |
| NBG1-10 | 2026-09-04 12:23:30 | 45.28593 | 9.13105 | 90° | 7km/h | 21948m | 5.8m/s | -55.0°C | 4.7% | 0hPa | 2.7V | 00:00:00 | 01:48:44 | 00:00:00 | |
| DO3MHA-11 | 2026-09-04 12:23:28 | 45.28594 | 9.13102 | 109° | 7km/h | 21938m | 4.1m/s | -54.9°C | 4.8% | 0hPa | 2.6V | 00:00:00 | 01:48:42 | 00:00:00 | |
| IW2NTF | 2026-09-04 12:23:27 | 45.28594 | 9.13095 | 79° | 7km/h | 21923m | 4.5m/s | -54.9°C | 4.7% | 0hPa | 2.7V | 08:30:00 | 01:48:39 | 00:00:00 | |
| IW2NTF | 2026-09-04 12:23:20 | 45.28584 | 9.13085 | 17° | 5km/h | 21874m | 4.4m/s | -54.5°C | 4.5% | 0hPa | 2.6V | 08:30:00 | 01:48:29 | 00:00:00 | |
| DO3MHA-11 | 2026-09-04 12:23:18 | 45.28589 | 9.13084 | 346° | 5km/h | 21889m | 4.1m/s | -54.6°C | 4.5% | 0hPa | 2.6V | 00:00:00 | 01:48:32 | 00:00:00 | |
| DO3MHA-11 | 2026-09-04 12:23:08 | 45.28577 | 9.13079 | 25° | 7km/h | 21840m | 5.1m/s | -54.3°C | 4.6% | 0hPa | 2.6V | 00:00:00 | 01:48:22 | 00:00:00 | |
| IW2NTF | 2026-09-04 12:23:08 | 45.28573 | 9.13083 | 315° | 9km/h | 21825m | 4.1m/s | -54.2°C | 4.6% | 0hPa | 2.6V | 08:30:00 | 01:48:19 | 00:00:00 | |
| DB0UT-7 | 2026-09-04 12:23:03 | 45.28569 | 9.13086 | 331° | 9km/h | 21815m | 5.5m/s | -54.2°C | 4.5% | 0hPa | 2.6V | 00:00:00 | 00:00:00 | 00:00:00 | |
| IW2NTF | 2026-09-04 12:23:00 | 45.28556 | 9.13085 | 355° | 5km/h | 21776m | 4.2m/s | -54.2°C | 4.4% | 0hPa | 2.6V | 08:30:00 | 01:48:09 | 00:00:00 | |
| DO3MHA-11 | 2026-09-04 12:22:58 | 45.28561 | 9.13087 | 11° | 11km/h | 21790m | 4.5m/s | -54.1°C | 4.3% | 0hPa | 2.7V | 00:00:00 | 01:48:12 | 00:00:00 | |
| NBG1-10 | 2026-09-04 12:22:57 | 45.28559 | 9.13086 | 24° | 9km/h | 21785m | 5.6m/s | -54.1°C | 4.4% | 0hPa | 2.7V | 00:00:00 | 01:48:11 | 00:00:00 | |
| IW2NTF | 2026-09-04 12:22:49 | 45.28538 | 9.13120 | 329° | 4km/h | 21722m | 5.9m/s | -54°C | 4.5% | 0hPa | 2.7V | 08:30:00 | 01:47:58 | 00:00:00 | |
| DO3MHA-11 | 2026-09-04 12:22:48 | 45.28544 | 9.13108 | 306° | 7km/h | 21741m | 5.4m/s | -54.1°C | 4.4% | 0hPa | 2.6V | 00:00:00 | 01:48:02 | 00:00:00 | |
| DO3MHA-11 | 2026-09-04 12:22:38 | 45.28536 | 9.13127 | 274° | 13km/h | 21694m | 4.5m/s | -54.1°C | 4.4% | 0hPa | 2.6V | 00:00:00 | 01:47:52 | 00:00:00 | |
| IW2NTF | 2026-09-04 12:22:35 | 45.28539 | 9.13146 | 254° | 15km/h | 21674m | 4.8m/s | -54.1°C | 4.4% | 0hPa | 2.6V | 08:30:00 | 01:47:48 | 00:00:00 | |
| DB0UT-7 | 2026-09-04 12:22:33 | 45.28539 | 9.13151 | 262° | 11km/h | 21669m | 5.4m/s | -54.0°C | 4.4% | 0hPa | 2.6V | 00:00:00 | 01:47:47 | 00:00:00 | |
| IW2NTF | 2026-09-04 12:22:29 | 45.28529 | 9.13171 | 300° | 16km/h | 21628m | 3.7m/s | -54°C | 4.4% | 0hPa | 2.6V | 08:30:00 | 01:47:38 | 00:00:00 | |
| DO3MHA-11 | 2026-09-04 12:22:28 | 45.28537 | 9.13164 | 18° | 11km/h | 21646m | 3.8m/s | -54.0°C | 4.4% | 0hPa | 2.6V | 00:00:00 | 01:47:42 | 08:30:00 | |
| DO3MHA-11 | 2026-09-04 12:22:18 | 45.28526 | 9.13198 | 294° | 9km/h | 21602m | 4.3m/s | -53.9°C | 4.3% | 0hPa | 2.7V | 00:00:00 | 01:47:32 | 00:00:00 | |
| IW2NTF | 2026-09-04 12:22:15 | 45.28521 | 9.13196 | 44° | 9km/h | 21583m | 3.2m/s | -53.9°C | 4.3% | 0hPa | 2.7V | 08:30:00 | 01:47:28 | 00:00:00 | |
| IW2NTF | 2026-09-04 12:22:09 | 45.28500 | 9.13217 | 332° | 11km/h | 21538m | 5.1m/s | -54.5°C | 4.5% | 0hPa | 2.6V | 08:30:00 | 01:47:18 | 00:00:00 | |
| DO3MHA-11 | 2026-09-04 12:22:07 | 45.28507 | 9.13210 | 311° | 9km/h | 21552m | 4.4m/s | -54.3°C | 4.5% | 0hPa | 2.6V | 00:00:00 | 01:47:21 | 00:00:00 | |
| DB0UT-7 | 2026-09-04 12:22:03 | 45.28498 | 9.13218 | 341° | 7km/h | 21534m | 3.7m/s | -54.4°C | 4.6% | 0hPa | 2.6V | 00:00:00 | 00:00:00 | 00:00:00 | |
| DO3MHA-11 | 2026-09-04 12:21:57 | 45.28486 | 9.13215 | 348° | 11km/h | 21506m | 4.6m/s | -54.3°C | 4.4% | 0hPa | 2.6V | 00:00:00 | 01:47:11 | 00:00:00 | |
| IW2NTF | 2026-09-04 12:21:53 | 45.28471 | 9.13223 | 328° | 15km/h | 21478m | 4.2m/s | -54°C | 4.4% | 0hPa | 2.6V | 08:30:00 | 01:47:05 | 00:00:00 | |
| NBG1-10 | 2026-09-04 12:21:51 | 45.28470 | 9.13223 | 329° | 7km/h | 21478m | 4.1m/s | -54.0°C | 4.4% | 0hPa | 2.6V | 00:00:00 | 01:47:05 | 00:00:00 | |
| DO3MHA-11 | 2026-09-04 12:21:47 | 45.28463 | 9.13228 | 54° | 2km/h | 21460m | 4.5m/s | -54.1°C | 4.5% | 0hPa | 2.7V | 00:00:00 | 01:47:01 | 00:00:00 | |
| IW2NTF | 2026-09-04 12:21:43 | 45.28465 | 9.13231 | 249° | 0km/h | 21430m | 5.4m/s | -54.5°C | 4.4% | 0hPa | 2.7V | 08:30:00 | 01:46:55 | 00:00:00 | |
| DO3MHA-11 | 2026-09-04 12:21:37 | 45.28462 | 9.13233 | 300° | 7km/h | 21412m | 4.0m/s | -54.4°C | 4.4% | 0hPa | 2.6V | 00:00:00 | 01:46:51 | 00:00:00 | |
| IW2NTF | 2026-09-04 12:21:35 | 45.28475 | 9.13225 | 197° | 5km/h | 21375m | 4.5m/s | -54.5°C | 4.5% | 0hPa | 2.6V | 08:30:00 | 01:46:43 | 00:00:00 | |
| DB0UT-7 | 2026-09-04 12:21:33 | 45.28467 | 9.13230 | 142° | 15km/h | 21393m | 4.1m/s | -54.5°C | 4.4% | 0hPa | 2.7V | 00:00:00 | 01:46:47 | 00:00:00 | |
| DO3MHA-11 | 2026-09-04 12:21:27 | 45.28478 | 9.13226 | 203° | 13km/h | 21366m | 5.5m/s | -54.5°C | 4.5% | 0hPa | 2.7V | 00:00:00 | 01:46:41 | 00:00:00 | |
| IW2NTF | 2026-09-04 12:21:23 | 45.28501 | 9.13235 | 180° | 18km/h | 21328m | 3.9m/s | -54.9°C | 4.5% | 0hPa | 2.7V | 08:30:00 | 01:46:33 | 00:00:00 | |
| NBG1-10 | 2026-09-04 12:21:18 | 45.28505 | 9.13235 | 186° | 15km/h | 21324m | 5.4m/s | -54.8°C | 4.6% | 0hPa | 2.7V | 00:00:00 | 01:46:32 | 00:00:00 | |
| DO3MHA-11 | 2026-09-04 12:21:17 | 45.28510 | 9.13236 | 193° | 16km/h | 21319m | 4.8m/s | -54.7°C | 4.6% | 0hPa | 2.7V | 00:00:00 | 01:46:31 | 00:00:00 | |
| IW2NTF | 2026-09-04 12:21:13 | 45.28540 | 9.13249 | 190° | 18km/h | 21281m | 5.2m/s | -54.6°C | 4.5% | 0hPa | 2.7V | 08:30:00 | 01:46:23 | 00:00:00 | |
| DO3MHA-11 | 2026-09-04 12:21:06 | 45.28556 | 9.13250 | 184° | 11km/h | 21267m | 5.1m/s | -54.5°C | 4.4% | 0hPa | 2.6V | 00:00:00 | 01:46:20 | 00:00:00 | |
| IW2NTF | 2026-09-04 12:21:03 | 45.28576 | 9.13250 | 172° | 2km/h | 21233m | 5m/s | -54.6°C | 4.3% | 0hPa | 2.6V | 08:30:00 | 01:46:13 | 00:00:00 | |
| DB0UT-7 | 2026-09-04 12:21:03 | 45.28569 | 9.13252 | 180° | 13km/h | 21253m | 5.7m/s | -54.5°C | 4.2% | 0hPa | 2.7V | 00:00:00 | 00:00:00 | 00:00:00 | |
| DO3MHA-11 | 2026-09-04 12:20:56 | 45.28580 | 9.13247 | 151° | 16km/h | 21221m | 5.1m/s | -54.8°C | 4.5% | 0hPa | 2.7V | 00:00:00 | 01:46:10 | 08:30:00 | |
| IW2NTF | 2026-09-04 12:20:53 | 45.28610 | 9.13230 | 148° | 16km/h | 21188m | 5.4m/s | -55.1°C | 4.5% | 0hPa | 2.7V | 08:30:00 | 01:46:03 | 00:00:00 | |
| DO3MHA-11 | 2026-09-04 12:20:46 | 45.28618 | 9.13219 | 128° | 9km/h | 21174m | 5.5m/s | -55.2°C | 4.4% | 0hPa | 2.7V | 00:00:00 | 01:46:00 | 00:00:00 | |
| NBG1-10 | 2026-09-04 12:20:45 | 45.28619 | 9.13217 | 132° | 11km/h | 21169m | 4.8m/s | -55.2°C | 4.4% | 0hPa | 2.7V | 00:00:00 | 01:45:59 | 00:00:00 | |
| IW2NTF | 2026-09-04 12:20:43 | 45.28630 | 9.13205 | 183° | 9km/h | 21141m | 5m/s | -55.4°C | 4.5% | 0hPa | 2.7V | 08:30:00 | 01:45:53 | 00:00:00 | |
| DO3MHA-11 | 2026-09-04 12:20:36 | 45.28640 | 9.13206 | 187° | 13km/h | 21126m | 4.2m/s | -55.5°C | 4.6% | 0hPa | 2.6V | 00:00:00 | 01:45:50 | 00:00:00 | |
| IW2NTF | 2026-09-04 12:20:34 | 45.28665 | 9.13211 | 155° | 9km/h | 21093m | 4.2m/s | -55.8°C | 4.7% | 0hPa | 2.6V | 08:30:00 | 01:45:43 | 00:00:00 | |
| DB0UT-7 | 2026-09-04 12:20:33 | 45.28651 | 9.13211 | 201° | 11km/h | 21112m | 4.0m/s | -55.9°C | 4.8% | 0hPa | 2.7V | 00:00:00 | 01:45:47 | 00:00:00 | |
| DO3MHA-11 | 2026-09-04 12:20:26 | 45.28669 | 9.13211 | 226° | 9km/h | 21079m | 4.0m/s | -56.0°C | 4.7% | 0hPa | 2.7V | 00:00:00 | 01:45:40 | 00:00:00 | |
| IW2NTF | 2026-09-04 12:20:23 | 45.28683 | 9.13207 | 132° | 9km/h | 21047m | 4.5m/s | -56.3°C | 4.9% | 0hPa | 2.7V | 08:30:00 | 01:45:33 | 00:00:00 | |
| DO3MHA-11 | 2026-09-04 12:20:16 | 45.28688 | 9.13197 | 125° | 13km/h | 21033m | 4.7m/s | -56.2°C | 4.9% | 0hPa | 2.7V | 00:00:00 | 01:45:30 | 00:00:00 | |
| IW2NTF | 2026-09-04 12:20:12 | 45.28699 | 9.13166 | 114° | 15km/h | 21001m | 3.5m/s | -56.2°C | 4.9% | 0hPa | 2.7V | 08:30:00 | 01:45:23 | 00:00:00 | |
| NBG1-10 | 2026-09-04 12:20:12 | 45.28695 | 9.13180 | 111° | 9km/h | 21014m | 4.1m/s | -56.2°C | 4.9% | 0hPa | 2.6V | 00:00:00 | 01:45:26 | 08:30:00 | |
| DO3MHA-11 | 2026-09-04 12:20:06 | 45.28702 | 9.13154 | 92° | 11km/h | 20986m | 4.7m/s | -56.0°C | 4.9% | 0hPa | 2.6V | 00:00:00 | 01:45:20 | 00:00:00 | |
| DB0UT-7 | 2026-09-04 12:20:03 | 45.28703 | 9.13145 | 103° | 7km/h | 20972m | 4.0m/s | -55.9°C | 4.9% | 0hPa | 2.6V | 00:00:00 | 00:00:00 | 00:00:00 | |
| IW2NTF | 2026-09-04 12:20:02 | 45.28704 | 9.13133 | 105° | 11km/h | 20952m | 5.6m/s | -55.9°C | 4.9% | 0hPa | 2.6V | 08:30:00 | 01:45:13 | 00:00:00 | |
| DO3MHA-11 | 2026-09-04 12:19:56 | 45.28706 | 9.13118 | 89° | 5km/h | 20938m | 5.4m/s | -55.6°C | 4.8% | 0hPa | 2.7V | 00:00:00 | 01:45:10 | 00:00:00 | |
| IW2NTF | 2026-09-04 12:19:52 | 45.28706 | 9.13104 | 220° | 2km/h | 20904m | 4.6m/s | -55.5°C | 4.7% | 0hPa | 2.7V | 08:30:00 | 01:45:03 | 00:00:00 | |
| DO3MHA-11 | 2026-09-04 12:19:46 | 45.28708 | 9.13102 | 115° | 5km/h | 20890m | 4.7m/s | -55.4°C | 4.7% | 0hPa | 2.6V | 00:00:00 | 01:45:00 | 00:00:00 | |
| IW2NTF | 2026-09-04 12:19:42 | 45.28707 | 9.13087 | 167° | 4km/h | 20857m | 4.5m/s | -55.3°C | 4.7% | 0hPa | 2.6V | 08:30:00 | 01:44:53 | 00:00:00 | |
| NBG1-10 | 2026-09-04 12:19:39 | 45.28707 | 9.13087 | 168° | 7km/h | 20857m | 4.5m/s | -55.3°C | 4.7% | 0hPa | 2.6V | 00:00:00 | 01:44:53 | 00:00:00 | |
| DO3MHA-11 | 2026-09-04 12:19:36 | 45.28708 | 9.13089 | 274° | 4km/h | 20843m | 4.4m/s | -55.2°C | 4.7% | 0hPa | 2.6V | 00:00:00 | 01:44:50 | 00:00:00 | |
| IW2NTF | 2026-09-04 12:19:34 | 45.28703 | 9.13092 | 354° | 7km/h | 20811m | 4m/s | -55.4°C | 4.8% | 0hPa | 2.6V | 08:30:00 | 01:44:43 | 00:00:00 | |
| DB0UT-7 | 2026-09-04 12:19:33 | 45.28708 | 9.13091 | 29° | 9km/h | 20829m | 4.5m/s | -55.3°C | 4.6% | 0hPa | 2.7V | 00:00:00 | 01:44:47 | 00:00:00 | |
| DO3MHA-11 | 2026-09-04 12:19:26 | 45.28699 | 9.13092 | 347° | 7km/h | 20797m | 4.1m/s | -55.2°C | 4.8% | 0hPa | 2.7V | 00:00:00 | 01:44:40 | 08:30:00 | |
| IW2NTF | 2026-09-04 12:19:24 | 45.28692 | 9.13105 | 312° | 4km/h | 20764m | 4.2m/s | -55.2°C | 4.6% | 0hPa | 2.7V | 08:30:00 | 01:44:33 | 00:00:00 | |
| DO3MHA-11 | 2026-09-04 12:19:16 | 45.28688 | 9.13108 | 322° | 13km/h | 20751m | 4.1m/s | -55.1°C | 4.6% | 0hPa | 2.6V | 00:00:00 | 01:44:30 | 00:00:00 | |
| IW2NTF | 2026-09-04 12:19:12 | 45.28689 | 9.13136 | 261° | 16km/h | 20718m | 5.3m/s | -54.9°C | 4.6% | 0hPa | 2.6V | 08:30:00 | 01:44:23 | 00:00:00 | |
| NBG1-10 | 2026-09-04 12:19:06 | 45.28691 | 9.13152 | 271° | 16km/h | 20704m | 4.9m/s | -54.7°C | 4.5% | 0hPa | 2.7V | 00:00:00 | 01:44:20 | 00:00:00 | |
| IW2NTF | 2026-09-04 12:19:03 | 45.28685 | 9.13177 | 273° | 16km/h | 20666m | 5m/s | -54.7°C | 4.2% | 0hPa | 2.7V | 08:30:00 | 01:44:12 | 00:00:00 | |
| DO3MHA-11 | 2026-09-04 12:18:56 | 45.28686 | 9.13191 | 256° | 18km/h | 20658m | 5.1m/s | -54.6°C | 4.3% | 0hPa | 2.6V | 00:00:00 | 01:44:10 | 00:00:00 | |
| IW2NTF | 2026-09-04 12:18:52 | 45.28698 | 9.13246 | 259° | 9km/h | 20620m | 5.1m/s | -55.2°C | 4.6% | 0hPa | 2.7V | 08:30:00 | 01:44:02 | 00:00:00 | |
| DO3MHA-11 | 2026-09-04 12:18:46 | 45.28699 | 9.13251 | 264° | 18km/h | 20612m | 4.2m/s | -55.5°C | 4.7% | 0hPa | 2.6V | 00:00:00 | 01:44:00 | 00:00:00 | |
| IW2NTF | 2026-09-04 12:18:41 | 45.28718 | 9.13286 | 224° | 29km/h | 20575m | 4.9m/s | -55.8°C | 4.6% | 0hPa | 2.6V | 08:30:00 | 01:43:52 | 00:00:00 | |
| DO3MHA-11 | 2026-09-04 12:18:36 | 45.28728 | 9.13299 | 223° | 13km/h | 20566m | 4.2m/s | -55.8°C | 4.6% | 0hPa | 2.7V | 00:00:00 | 01:43:50 | 00:00:00 | |
| DB0UT-7 | 2026-09-04 12:18:33 | 45.28741 | 9.13310 | 195° | 13km/h | 20554m | 3.7m/s | -55.9°C | 4.8% | 0hPa | 2.7V | 00:00:00 | 01:43:47 | 00:00:00 | |
| IW2NTF | 2026-09-04 12:18:31 | 45.28751 | 9.13311 | 168° | 7km/h | 20529m | 4.6m/s | -56°C | 4.8% | 0hPa | 2.7V | 08:30:00 | 01:43:42 | 00:00:00 | |
| DO3MHA-11 | 2026-09-04 12:18:26 | 45.28755 | 9.13312 | 209° | 13km/h | 20521m | 5.1m/s | -56.0°C | 4.7% | 0hPa | 2.7V | 00:00:00 | 01:43:40 | 00:00:00 | |
| IW2NTF | 2026-09-04 12:18:21 | 45.28783 | 9.13328 | 159° | 15km/h | 20479m | 5.5m/s | -56.4°C | 4.8% | 0hPa | 2.6V | 08:30:00 | 01:43:31 | 00:00:00 | |
| DO3MHA-11 | 2026-09-04 12:18:16 | 45.28787 | 9.13325 | 149° | 13km/h | 20474m | 4.1m/s | -56.3°C | 4.8% | 0hPa | 2.7V | 00:00:00 | 01:43:30 | 00:00:00 | |
| IW2NTF | 2026-09-04 12:18:11 | 45.28811 | 9.13335 | 212° | 15km/h | 20434m | 4.8m/s | -56.7°C | 4.9% | 0hPa | 2.7V | 08:30:00 | 01:43:21 | 00:00:00 | |
| DO3MHA-11 | 2026-09-04 12:18:06 | 45.28814 | 9.13337 | 212° | 11km/h | 20430m | 4.7m/s | -56.7°C | 5.0% | 0hPa | 2.6V | 00:00:00 | 01:43:20 | 00:00:00 | |
| DB0UT-7 | 2026-09-04 12:18:03 | 45.28821 | 9.13341 | 188° | 13km/h | 20416m | 5.1m/s | -56.6°C | 4.9% | 0hPa | 2.6V | 00:00:00 | 00:00:00 | 00:00:00 | |
| IW2NTF | 2026-09-04 12:18:01 | 45.28836 | 9.13344 | 188° | 13km/h | 20388m | 5.2m/s | -56.7°C | 4.9% | 0hPa | 2.6V | 08:30:00 | 01:43:11 | 00:00:00 | |
| NBG1-10 | 2026-09-04 12:18:00 | 45.28829 | 9.13342 | 186° | 13km/h | 20402m | 4.7m/s | -56.6°C | 4.9% | 0hPa | 2.6V | 00:00:00 | 01:43:14 | 00:00:00 | |
| DO3MHA-11 | 2026-09-04 12:17:56 | 45.28840 | 9.13345 | 189° | 15km/h | 20383m | 4.8m/s | -56.6°C | 4.9% | 0hPa | 2.6V | 00:00:00 | 01:43:10 | 08:30:00 | |
| IW2NTF | 2026-09-04 12:17:49 | 45.28875 | 9.13352 | 171° | 7km/h | 20340m | 4.2m/s | -56.8°C | 4.9% | 0hPa | 2.6V | 08:30:00 | 01:43:01 | 00:00:00 | |
| DO3MHA-11 | 2026-09-04 12:17:46 | 45.28877 | 9.13351 | 164° | 11km/h | 20336m | 4.7m/s | -56.7°C | 4.9% | 0hPa | 2.7V | 00:00:00 | 01:43:00 | 00:00:00 | |
| IW2NTF | 2026-09-04 12:17:39 | 45.28901 | 9.13341 | 172° | 15km/h | 20294m | 4.2m/s | -56.8°C | 4.9% | 0hPa | 2.7V | 08:30:00 | 01:42:51 | 00:00:00 | |
| DO3MHA-11 | 2026-09-04 12:17:36 | 45.28905 | 9.13341 | 177° | 15km/h | 20290m | 4.5m/s | -56.8°C | 4.9% | 0hPa | 2.6V | 00:00:00 | 01:42:50 | 00:00:00 | |
| DB0UT-7 | 2026-09-04 12:17:33 | 45.28915 | 9.13341 | 181° | 15km/h | 20276m | 4.0m/s | -56.8°C | 4.9% | 0hPa | 2.6V | 00:00:00 | 01:42:47 | 00:00:00 | |
| IW2NTF | 2026-09-04 12:17:29 | 45.28938 | 9.13336 | 166° | 11km/h | 20247m | 4m/s | -57.3°C | 5% | 0hPa | 2.6V | 08:30:00 | 01:42:41 | 00:00:00 | |
| DO3MHA-11 | 2026-09-04 12:17:26 | 45.28940 | 9.13335 | 161° | 13km/h | 20243m | 4.6m/s | -57.2°C | 5.0% | 0hPa | 2.6V | 00:00:00 | 01:42:40 | 00:00:00 | |
| NBG1-10 | 2026-09-04 12:17:21 | 45.28954 | 9.13326 | 161° | 15km/h | 20219m | 4.6m/s | -56.9°C | 5.0% | 0hPa | 2.7V | 00:00:00 | 01:42:35 | 00:00:00 | |
| IW2NTF | 2026-09-04 12:17:19 | 45.28968 | 9.13317 | 152° | 18km/h | 20199m | 5m/s | -57.1°C | 5.1% | 0hPa | 2.7V | 08:30:00 | 01:42:31 | 00:00:00 | |
| DO3MHA-11 | 2026-09-04 12:17:16 | 45.28972 | 9.13314 | 146° | 18km/h | 20195m | 5.0m/s | -57.0°C | 5.1% | 0hPa | 2.6V | 00:00:00 | 01:42:30 | 00:00:00 | |
| IW2NTF | 2026-09-04 12:17:09 | 45.29001 | 9.13273 | 138° | 13km/h | 20152m | 5.1m/s | -56.8°C | 5% | 0hPa | 2.6V | 08:30:00 | 01:42:21 | 00:00:00 | |
| DO3MHA-11 | 2026-09-04 12:17:05 | 45.29006 | 9.13267 | 147° | 11km/h | 20143m | 4.3m/s | -56.7°C | 5.0% | 0hPa | 2.7V | 00:00:00 | 01:42:19 | 00:00:00 | |
| DB0UT-7 | 2026-09-04 12:17:03 | 45.29011 | 9.13263 | 144° | 11km/h | 20133m | 4.3m/s | -56.7°C | 5.0% | 0hPa | 2.7V | 00:00:00 | 00:00:00 | 00:00:00 | |
| IW2NTF | 2026-09-04 12:16:59 | 45.29025 | 9.13250 | 118° | 11km/h | 20104m | 4.8m/s | -56.6°C | 5% | 0hPa | 2.7V | 08:30:00 | 01:42:11 | 00:00:00 | |
| DO3MHA-11 | 2026-09-04 12:16:55 | 45.29027 | 9.13242 | 113° | 13km/h | 20096m | 4.6m/s | -56.5°C | 4.9% | 0hPa | 2.7V | 00:00:00 | 01:42:09 | 00:00:00 | |
| IW2NTF | 2026-09-04 12:16:49 | 45.29045 | 9.13218 | 157° | 9km/h | 20057m | 4.5m/s | -56.2°C | 4.9% | 0hPa | 2.6V | 08:30:00 | 01:42:01 | 00:00:00 | |
| NBG1-10 | 2026-09-04 12:16:48 | 45.29043 | 9.13219 | 156° | 7km/h | 20062m | 5.7m/s | -56.2°C | 4.9% | 0hPa | 2.7V | 00:00:00 | 01:42:02 | 00:00:00 | |
| DO3MHA-11 | 2026-09-04 12:16:45 | 45.29049 | 9.13215 | 125° | 9km/h | 20048m | 5.7m/s | -56.1°C | 4.8% | 0hPa | 2.6V | 00:00:00 | 01:41:59 | 00:00:00 | |
| IW2NTF | 2026-09-04 12:16:39 | 45.29058 | 9.13191 | 105° | 9km/h | 20010m | 4.2m/s | -56°C | 4.8% | 0hPa | 2.6V | 08:30:00 | 01:41:51 | 00:00:00 | |
| DO3MHA-11 | 2026-09-04 12:16:35 | 45.29060 | 9.13186 | 127° | 4km/h | 20001m | 5.2m/s | -55.9°C | 4.8% | 0hPa | 2.7V | 00:00:00 | 01:41:49 | 00:00:00 | |
| DB0UT-7 | 2026-09-04 12:16:33 | 45.29062 | 9.13184 | 160° | 5km/h | 19992m | 4.3m/s | -55.9°C | 4.8% | 0hPa | 2.7V | 00:00:00 | 01:41:47 | 00:00:00 | |
| IW2NTF | 2026-09-04 12:16:29 | 45.29066 | 9.13182 | 196° | 5km/h | 19963m | 4.5m/s | -55.9°C | 4.8% | 0hPa | 2.7V | 08:30:00 | 01:41:41 | 00:00:00 | |
| DO3MHA-11 | 2026-09-04 12:16:25 | 45.29069 | 9.13183 | 168° | 7km/h | 19954m | 5.4m/s | -55.8°C | 4.7% | 0hPa | 2.6V | 00:00:00 | 01:41:39 | 08:30:00 | |
| IW2NTF | 2026-09-04 12:16:19 | 45.29080 | 9.13172 | 104° | 7km/h | 19917m | 3.9m/s | -55.8°C | 4.7% | 0hPa | 2.6V | 08:30:00 | 01:41:31 | 00:00:00 | |
| DO3MHA-11 | 2026-09-04 12:16:15 | 45.29081 | 9.13168 | 110° | 4km/h | 19909m | 5.3m/s | -55.8°C | 4.7% | 0hPa | 2.7V | 00:00:00 | 01:41:29 | 00:00:00 | |
| IW2NTF | 2026-09-04 12:16:08 | 45.29081 | 9.13160 | 165° | 2km/h | 19871m | 4.3m/s | -56.2°C | 4.9% | 0hPa | 2.7V | 08:30:00 | 01:41:21 | 00:00:00 | |
| DO3MHA-11 | 2026-09-04 12:16:05 | 45.29082 | 9.13158 | 105° | 9km/h | 19863m | 5.1m/s | -56.2°C | 4.9% | 0hPa | 2.6V | 00:00:00 | 01:41:19 | 00:00:00 | |
| IW2NTF | 2026-09-04 12:16:03 | 45.29084 | 9.13133 | 93° | 9km/h | 19825m | 4.3m/s | -56.1°C | 4.8% | 0hPa | 2.6V | 08:30:00 | 01:41:11 | 00:00:00 | |
| DO3MHA-11 | 2026-09-04 12:15:55 | 45.29085 | 9.13127 | 120° | 9km/h | 19816m | 4.0m/s | -55.9°C | 4.8% | 0hPa | 2.6V | 00:00:00 | 01:41:09 | 00:00:00 | |
| IW2NTF | 2026-09-04 12:15:52 | 45.29092 | 9.13102 | 126° | 11km/h | 19779m | 4.1m/s | -55.7°C | 4.7% | 0hPa | 2.7V | 08:30:00 | 01:41:01 | 00:00:00 | |
| DO3MHA-11 | 2026-09-04 12:15:45 | 45.29093 | 9.13095 | 103° | 7km/h | 19769m | 4.5m/s | -55.7°C | 4.6% | 0hPa | 2.6V | 00:00:00 | 01:40:59 | 00:00:00 | |
| IW2NTF | 2026-09-04 12:15:42 | 45.29095 | 9.13078 | 137° | 7km/h | 19732m | 4.9m/s | -56°C | 4.8% | 0hPa | 2.6V | 08:30:00 | 01:40:51 | 00:00:00 | |
| NBG1-10 | 2026-09-04 12:15:42 | 45.29095 | 9.13087 | 99° | 16km/h | 19756m | 4.1m/s | -55.8°C | 4.7% | 0hPa | 2.6V | 00:00:00 | 01:40:56 | 00:00:00 | |
| DO3MHA-11 | 2026-09-04 12:15:35 | 45.29099 | 9.13073 | 138° | 13km/h | 19725m | 4.2m/s | -55.9°C | 4.8% | 0hPa | 2.6V | 00:00:00 | 01:40:49 | 00:00:00 | |
| DB0UT-7 | 2026-09-04 12:15:33 | 45.29103 | 9.13067 | 114° | 15km/h | 19715m | 3.9m/s | -55.9°C | 4.8% | 0hPa | 2.6V | 00:00:00 | 01:40:47 | 00:00:00 | |
| IW2NTF | 2026-09-04 12:15:32 | 45.29112 | 9.13050 | 132° | 11km/h | 19689m | 5.3m/s | -56.1°C | 4.7% | 0hPa | 2.6V | 08:30:00 | 01:40:41 | 00:00:00 | |
| IW2NTF | 2026-09-04 12:15:22 | 45.29141 | 9.13027 | 170° | 15km/h | 19644m | 5.2m/s | -56°C | 4.7% | 0hPa | 2.7V | 08:30:00 | 01:40:31 | 00:00:00 | |
| DO3MHA-11 | 2026-09-04 12:15:20 | 45.29132 | 9.13031 | 157° | 15km/h | 19657m | 4.9m/s | -56.0°C | 4.7% | 0hPa | 2.6V | 00:00:00 | 01:40:34 | 00:00:00 | |
| IW2NTF | 2026-09-04 12:15:12 | 45.29176 | 9.13003 | 139° | 15km/h | 19599m | 4.4m/s | -56.4°C | 4.7% | 0hPa | 2.6V | 08:30:00 | 01:40:21 | 00:00:00 | |
| DO3MHA-11 | 2026-09-04 12:15:10 | 45.29166 | 9.13014 | 144° | 16km/h | 19613m | 4.2m/s | -56.1°C | 4.8% | 0hPa | 2.6V | 00:00:00 | 01:40:24 | 00:00:00 | |
| DO3MHA-11 | 2026-09-04 12:15:00 | 45.29201 | 9.12982 | 147° | 22km/h | 19568m | 5.0m/s | -56.4°C | 4.7% | 0hPa | 2.6V | 00:00:00 | 01:40:14 | 00:00:00 | |
| IW2NTF | 2026-09-04 12:14:57 | 45.29220 | 9.12949 | 110° | 24km/h | 19543m | 4.1m/s | -56.4°C | 4.6% | 0hPa | 2.6V | 08:30:00 | 01:40:09 | 00:00:00 | |
| NBG1-10 | 2026-09-04 12:14:53 | 45.29224 | 9.12932 | 114° | 26km/h | 19534m | 5.7m/s | -56.4°C | 4.5% | 0hPa | 2.6V | 00:00:00 | 01:40:07 | 08:30:00 | |
| IW2NTF | 2026-09-04 12:14:51 | 45.29247 | 9.12875 | 117° | 22km/h | 19496m | 5.1m/s | -57.6°C | 5% | 0hPa | 2.6V | 08:30:00 | 01:39:59 | 00:00:00 | |
| DO3MHA-11 | 2026-09-04 12:14:51 | 45.29232 | 9.12908 | 117° | 24km/h | 19520m | 5.1m/s | -56.9°C | 4.7% | 0hPa | 2.7V | 00:00:00 | 01:40:04 | 08:30:00 | |
| DO3MHA-11 | 2026-09-04 12:14:40 | 45.29255 | 9.12827 | 97° | 33km/h | 19474m | 3.3m/s | -57.9°C | 5.1% | 0hPa | 2.7V | 00:00:00 | 01:39:54 | 00:00:00 | |
| IW2NTF | 2026-09-04 12:14:37 | 45.29256 | 9.12771 | 93° | 27km/h | 19453m | 4.8m/s | -58°C | 5.1% | 0hPa | 2.7V | 08:30:00 | 01:39:49 | 00:00:00 | |
| DB0UT-7 | 2026-09-04 12:14:33 | 45.29258 | 9.12751 | 100° | 20km/h | 19443m | 4.1m/s | -57.9°C | 5.1% | 0hPa | 2.6V | 00:00:00 | 01:39:47 | 08:30:00 | |
| IW2NTF | 2026-09-04 12:14:30 | 45.29265 | 9.12688 | 92° | 20km/h | 19407m | 4.9m/s | -58.1°C | 5% | 0hPa | 2.6V | 08:30:00 | 01:39:39 | 00:00:00 | |
| DO3MHA-11 | 2026-09-04 12:14:30 | 45.29260 | 9.12727 | 96° | 20km/h | 19429m | 3.8m/s | -57.9°C | 5.0% | 0hPa | 2.7V | 00:00:00 | 01:39:44 | 00:00:00 | |
| IW2NTF | 2026-09-04 12:14:20 | 45.29269 | 9.12622 | 124° | 18km/h | 19362m | 3.9m/s | -58.9°C | 5.3% | 0hPa | 2.7V | 08:30:00 | 01:39:29 | 00:00:00 | |
| NBG1-10 | 2026-09-04 12:14:20 | 45.29264 | 9.12651 | 89° | 20km/h | 19384m | 4.7m/s | -58.3°C | 5.1% | 0hPa | 2.6V | 00:00:00 | 01:39:34 | 00:00:00 | |
| DO3MHA-11 | 2026-09-04 12:14:17 | 45.29265 | 9.12634 | 108° | 20km/h | 19371m | 4.9m/s | -58.6°C | 5.2% | 0hPa | 2.6V | 00:00:00 | 01:39:31 | 00:00:00 | |
| IW2NTF | 2026-09-04 12:14:10 | 45.29295 | 9.12558 | 102° | 22km/h | 19316m | 4.4m/s | -59.1°C | 5.4% | 0hPa | 2.6V | 08:30:00 | 01:39:19 | 00:00:00 | |
| DO3MHA-11 | 2026-09-04 12:14:07 | 45.29292 | 9.12574 | 110° | 20km/h | 19326m | 5.3m/s | -59.1°C | 5.5% | 0hPa | 2.7V | 00:00:00 | 01:39:21 | 00:00:00 | |
| DB0UT-7 | 2026-09-04 12:14:03 | 45.29297 | 9.12542 | 102° | 20km/h | 19307m | 4.0m/s | -59.0°C | 5.4% | 0hPa | 2.7V | 00:00:00 | 00:00:00 | 00:00:00 | |
| IW2NTF | 2026-09-04 12:14:00 | 45.29308 | 9.12490 | 91° | 22km/h | 19271m | 4.7m/s | -58.9°C | 5.4% | 0hPa | 2.7V | 08:30:00 | 01:39:09 | 00:00:00 | |
| DO3MHA-11 | 2026-09-04 12:13:57 | 45.29307 | 9.12504 | 106° | 20km/h | 19280m | 4.7m/s | -58.9°C | 5.4% | 0hPa | 2.6V | 00:00:00 | 01:39:11 | 00:00:00 | |
| IW2NTF | 2026-09-04 12:13:50 | 45.29307 | 9.12410 | 92° | 18km/h | 19227m | 4.8m/s | -58.8°C | 5.4% | 0hPa | 2.6V | 08:30:00 | 01:38:59 | 00:00:00 | |
| NBG1-10 | 2026-09-04 12:13:47 | 45.29307 | 9.12423 | 90° | 20km/h | 19236m | 3.4m/s | -58.8°C | 5.4% | 0hPa | 2.6V | 00:00:00 | 01:39:01 | 00:00:00 | |
| IW2NTF | 2026-09-04 12:13:40 | 45.29302 | 9.12353 | 74° | 20km/h | 19183m | 4.3m/s | -58.7°C | 5.3% | 0hPa | 2.6V | 08:30:00 | 01:38:49 | 00:00:00 | |
| DO3MHA-11 | 2026-09-04 12:13:37 | 45.29303 | 9.12366 | 86° | 22km/h | 19193m | 4.3m/s | -58.7°C | 5.3% | 0hPa | 2.7V | 00:00:00 | 01:38:51 | 00:00:00 | |
| IW2NTF | 2026-09-04 12:13:30 | 45.29287 | 9.12277 | 75° | 20km/h | 19138m | 4.5m/s | -58.5°C | 5.2% | 0hPa | 2.7V | 08:30:00 | 01:38:39 | 00:00:00 | |
| DO3MHA-11 | 2026-09-04 12:13:26 | 45.29288 | 9.12283 | 74° | 20km/h | 19143m | 5.1m/s | -58.4°C | 5.3% | 0hPa | 2.7V | 00:00:00 | 01:38:40 | 00:00:00 | |
| IW2NTF | 2026-09-04 12:13:18 | 45.29260 | 9.12194 | 56° | 20km/h | 19084m | 3.8m/s | -59°C | 5.5% | 0hPa | 2.7V | 08:30:00 | 01:38:27 | 00:00:00 | |
| DO3MHA-11 | 2026-09-04 12:13:16 | 45.29269 | 9.12213 | 59° | 20km/h | 19097m | 3.9m/s | -58.9°C | 5.4% | 0hPa | 2.6V | 00:00:00 | 01:38:30 | 08:30:00 | |
| NBG1-10 | 2026-09-04 12:13:14 | 45.29263 | 9.12200 | 60° | 16km/h | 19088m | 4.7m/s | -58.9°C | 5.5% | 0hPa | 2.6V | 00:00:00 | 01:38:28 | 00:00:00 | |
| IW2NTF | 2026-09-04 12:13:05 | 45.29231 | 9.12139 | 48° | 20km/h | 19038m | 5.2m/s | -58.8°C | 5.3% | 0hPa | 2.6V | 08:30:00 | 01:38:17 | 00:00:00 | |
| DB0UT-7 | 2026-09-04 12:13:03 | 45.29231 | 9.12139 | 49° | 13km/h | 19038m | 5.1m/s | -58.8°C | 5.3% | 0hPa | 2.6V | 00:00:00 | 00:00:00 | 00:00:00 | |
| IW2NTF | 2026-09-04 12:12:58 | 45.29199 | 9.12107 | 25° | 13km/h | 18991m | 3.1m/s | -58.6°C | 5.4% | 0hPa | 2.6V | 08:30:00 | 01:38:07 | 00:00:00 | |
| DO3MHA-11 | 2026-09-04 12:12:49 | 45.29186 | 9.12093 | 36° | 15km/h | 18973m | 5.3m/s | -58.5°C | 5.3% | 0hPa | 2.7V | 00:00:00 | 01:38:03 | 00:00:00 | |
| IW2NTF | 2026-09-04 12:12:45 | 45.29166 | 9.12079 | 18° | 11km/h | 18947m | 3.7m/s | -58.3°C | 5.3% | 0hPa | 2.7V | 08:30:00 | 01:37:57 | 00:00:00 | |
| NBG1-10 | 2026-09-04 12:12:41 | 45.29160 | 9.12078 | 352° | 11km/h | 18938m | 3.9m/s | -58.3°C | 5.4% | 0hPa | 2.6V | 00:00:00 | 01:37:55 | 00:00:00 | |
| DO3MHA-11 | 2026-09-04 12:12:39 | 45.29155 | 9.12080 | 358° | 9km/h | 18931m | 4.9m/s | -58.3°C | 5.4% | 0hPa | 2.6V | 00:00:00 | 01:37:53 | 00:00:00 | |
| IW2NTF | 2026-09-04 12:12:38 | 45.29146 | 9.12072 | 18° | 9km/h | 18902m | 3.5m/s | -58.4°C | 5.4% | 0hPa | 2.6V | 08:30:00 | 01:37:47 | 00:00:00 | |
| DB0UT-7 | 2026-09-04 12:12:33 | 45.29146 | 9.12071 | 19° | 13km/h | 18903m | 3.4m/s | -58.4°C | 5.4% | 0hPa | 2.7V | 00:00:00 | 01:37:47 | 00:00:00 | |
| DO3MHA-11 | 2026-09-04 12:12:29 | 45.29136 | 9.12062 | 47° | 11km/h | 18885m | 4.6m/s | -58.3°C | 5.3% | 0hPa | 2.7V | 00:00:00 | 01:37:43 | 00:00:00 | |
| IW2NTF | 2026-09-04 12:12:25 | 45.29134 | 9.12041 | 114° | 11km/h | 18858m | 5.3m/s | -58°C | 5.1% | 0hPa | 2.7V | 08:30:00 | 01:37:37 | 00:00:00 | |
| IW2NTF | 2026-09-04 12:12:19 | 45.29134 | 9.12000 | 93° | 20km/h | 18813m | 4.3m/s | -58°C | 5.2% | 0hPa | 2.6V | 08:30:00 | 01:37:27 | 00:00:00 | |
| DO3MHA-11 | 2026-09-04 12:12:09 | 45.29137 | 9.11976 | 114° | 15km/h | 18796m | 4.1m/s | -57.9°C | 5.1% | 0hPa | 2.7V | 00:00:00 | 01:37:23 | 00:00:00 | |
| NBG1-10 | 2026-09-04 12:12:08 | 45.29138 | 9.11971 | 122° | 27km/h | 18792m | 5.6m/s | -57.9°C | 5.1% | 0hPa | 2.7V | 00:00:00 | 01:37:22 | 00:00:00 | |
| IW2NTF | 2026-09-04 12:12:05 | 45.29147 | 9.11953 | 100° | 11km/h | 18769m | 3.5m/s | -58.1°C | 4.9% | 0hPa | 2.7V | 08:30:00 | 01:37:17 | 00:00:00 | |
| DB0UT-7 | 2026-09-04 12:12:03 | 45.29147 | 9.11953 | 101° | 26km/h | 18769m | 3.5m/s | -58.1°C | 4.9% | 0hPa | 2.6V | 00:00:00 | 00:00:00 | 00:00:00 | |
| DO3MHA-11 | 2026-09-04 12:11:59 | 45.29153 | 9.11929 | 123° | 22km/h | 18752m | 3.8m/s | -58.4°C | 5.0% | 0hPa | 2.6V | 00:00:00 | 01:37:13 | 00:00:00 | |
| IW2NTF | 2026-09-04 12:11:58 | 45.29172 | 9.11891 | 113° | 20km/h | 18727m | 4.2m/s | -58.9°C | 5.3% | 0hPa | 2.6V | 08:30:00 | 01:37:07 | 00:00:00 | |
| DO3MHA-11 | 2026-09-04 12:11:49 | 45.29181 | 9.11865 | 119° | 33km/h | 18711m | 3.2m/s | -59.1°C | 5.5% | 0hPa | 2.7V | 00:00:00 | 01:37:03 | 00:00:00 | |
| IW2NTF | 2026-09-04 12:11:45 | 45.29208 | 9.11808 | 130° | 35km/h | 18686m | 3.8m/s | -59.2°C | 5.5% | 0hPa | 2.7V | 08:30:00 | 01:36:57 | 00:00:00 | |
| DO3MHA-11 | 2026-09-04 12:11:39 | 45.29230 | 9.11768 | 130° | 29km/h | 18669m | 3.8m/s | -59.2°C | 5.5% | 0hPa | 2.6V | 00:00:00 | 01:36:53 | 00:00:00 | |
| IW2NTF | 2026-09-04 12:11:38 | 45.29256 | 9.11719 | 114° | 29km/h | 18643m | 4.3m/s | -59.5°C | 5.6% | 0hPa | 2.6V | 08:30:00 | 01:36:47 | 00:00:00 | |
| DB0UT-7 | 2026-09-04 12:11:33 | 45.29256 | 9.11719 | 115° | 26km/h | 18644m | 4.3m/s | -59.5°C | 5.6% | 0hPa | 2.6V | 00:00:00 | 01:36:47 | 00:00:00 | |
| DO3MHA-11 | 2026-09-04 12:11:29 | 45.29270 | 9.11679 | 115° | 26km/h | 18626m | 4.8m/s | -59.3°C | 5.6% | 0hPa | 2.7V | 00:00:00 | 01:36:43 | 08:30:00 | |
| IW2NTF | 2026-09-04 12:11:25 | 45.29286 | 9.11625 | 110° | 22km/h | 18600m | 4.8m/s | -59.1°C | 5.6% | 0hPa | 2.7V | 08:30:00 | 01:36:37 | 00:00:00 | |
| DO3MHA-11 | 2026-09-04 12:11:19 | 45.29293 | 9.11594 | 117° | 24km/h | 18582m | 4.7m/s | -59.1°C | 5.5% | 0hPa | 2.6V | 00:00:00 | 01:36:33 | 00:00:00 | |
| IW2NTF | 2026-09-04 12:11:18 | 45.29305 | 9.11548 | 111° | 22km/h | 18555m | 5m/s | -59°C | 5.5% | 0hPa | 2.6V | 08:30:00 | 01:36:27 | 00:00:00 | |
| DO3MHA-11 | 2026-09-04 12:11:09 | 45.29313 | 9.11517 | 108° | 24km/h | 18536m | 3.8m/s | -58.9°C | 5.4% | 0hPa | 2.6V | 00:00:00 | 01:36:23 | 00:00:00 | |
| IW2NTF | 2026-09-04 12:11:04 | 45.29329 | 9.11473 | 108° | 26km/h | 18510m | 4.7m/s | -59°C | 5.5% | 0hPa | 2.6V | 08:30:00 | 01:36:17 | 00:00:00 | |
| DB0UT-7 | 2026-09-04 12:11:03 | 45.29329 | 9.11473 | 109° | 26km/h | 18510m | 4.6m/s | -58.9°C | 5.5% | 0hPa | 2.7V | 00:00:00 | 00:00:00 | 00:00:00 | |
| IW2NTF | 2026-09-04 12:10:59 | 45.29351 | 9.11396 | 117° | 24km/h | 18464m | 4m/s | -59°C | 5.5% | 0hPa | 2.7V | 08:30:00 | 01:36:07 | 00:00:00 | |
| DO3MHA-11 | 2026-09-04 12:10:49 | 45.29360 | 9.11366 | 115° | 26km/h | 18445m | 5.6m/s | -58.9°C | 5.5% | 0hPa | 2.6V | 00:00:00 | 01:36:03 | 00:00:00 | |
| IW2NTF | 2026-09-04 12:10:48 | 45.29375 | 9.11320 | 110° | 26km/h | 18416m | 5.5m/s | -58.9°C | 5.3% | 0hPa | 2.6V | 08:30:00 | 01:35:57 | 00:00:00 | |
| DO3MHA-11 | 2026-09-04 12:10:39 | 45.29385 | 9.11280 | 108° | 26km/h | 18397m | 4.1m/s | -59.1°C | 5.5% | 0hPa | 2.7V | 00:00:00 | 01:35:53 | 00:00:00 | |
| IW2NTF | 2026-09-04 12:10:33 | 45.29405 | 9.11227 | 124° | 20km/h | 18370m | 4.3m/s | -59.3°C | 5.6% | 0hPa | 2.7V | 08:30:00 | 01:35:47 | 00:00:00 | |
| DB0UT-7 | 2026-09-04 12:10:33 | 45.29405 | 9.11227 | 125° | 31km/h | 18370m | 4.3m/s | -59.2°C | 5.6% | 0hPa | 2.6V | 00:00:00 | 01:35:47 | 00:00:00 | |
| DO3MHA-11 | 2026-09-04 12:10:29 | 45.29419 | 9.11200 | 126° | 31km/h | 18352m | 4.2m/s | -59.3°C | 5.4% | 0hPa | 2.6V | 00:00:00 | 01:35:43 | 00:00:00 | |
| IW2NTF | 2026-09-04 12:10:28 | 45.29440 | 9.11137 | 116° | 35km/h | 18323m | 4.5m/s | -59.4°C | 5.8% | 0hPa | 2.6V | 08:30:00 | 01:35:37 | 00:00:00 | |
| DO3MHA-11 | 2026-09-04 12:10:19 | 45.29455 | 9.11099 | 125° | 31km/h | 18304m | 5.2m/s | -59.3°C | 5.6% | 0hPa | 2.7V | 00:00:00 | 01:35:33 | 00:00:00 | |
| IW2NTF | 2026-09-04 12:10:18 | 45.29476 | 9.11044 | 110° | 33km/h | 18277m | 5.2m/s | -59.5°C | 5.6% | 0hPa | 2.7V | 08:30:00 | 01:35:27 | 00:00:00 | |
| DO3MHA-11 | 2026-09-04 12:10:09 | 45.29488 | 9.10995 | 105° | 31km/h | 18260m | 4.8m/s | -59.4°C | 5.6% | 0hPa | 2.6V | 00:00:00 | 01:35:23 | 00:00:00 | |
| NBG1-10 | 2026-09-04 12:10:08 | 45.29490 | 9.10984 | 104° | 29km/h | 18256m | 4.2m/s | -59.4°C | 5.6% | 0hPa | 2.6V | 00:00:00 | 01:35:22 | 00:00:00 | |
| IW2NTF | 2026-09-04 12:10:04 | 45.29502 | 9.10928 | 105° | 29km/h | 18233m | 5m/s | -59.6°C | 5.7% | 0hPa | 2.6V | 08:30:00 | 01:35:17 | 00:00:00 | |
| DB0UT-7 | 2026-09-04 12:10:03 | 45.29502 | 9.10928 | 106° | 29km/h | 18233m | 5.0m/s | -59.5°C | 5.7% | 0hPa | 2.6V | 00:00:00 | 00:00:00 | 08:30:00 | |
| DO3MHA-11 | 2026-09-04 12:09:59 | 45.29509 | 9.10888 | 104° | 29km/h | 18216m | 3.9m/s | -59.4°C | 5.8% | 0hPa | 2.7V | 00:00:00 | 01:35:13 | 08:30:00 | |
| IW2NTF | 2026-09-04 12:09:58 | 45.29517 | 9.10825 | 99° | 31km/h | 18189m | 3.9m/s | -59.7°C | 5.8% | 0hPa | 2.7V | 08:30:00 | 01:35:07 | 00:00:00 | |
| DO3MHA-11 | 2026-09-04 12:09:49 | 45.29518 | 9.10782 | 92° | 31km/h | 18172m | 5.0m/s | -59.6°C | 5.7% | 0hPa | 2.6V | 00:00:00 | 01:35:03 | 00:00:00 | |
| IW2NTF | 2026-09-04 12:09:48 | 45.29520 | 9.10716 | 95° | 29km/h | 18146m | 5.1m/s | -59.3°C | 5.6% | 0hPa | 2.6V | 08:30:00 | 01:34:57 | 00:00:00 | |
| DO3MHA-11 | 2026-09-04 12:09:39 | 45.29524 | 9.10675 | 99° | 27km/h | 18128m | 3.9m/s | -59.2°C | 5.7% | 0hPa | 2.7V | 00:00:00 | 01:34:53 | 00:00:00 | |
| IW2NTF | 2026-09-04 12:09:37 | 45.29536 | 9.10595 | 103° | 27km/h | 18092m | 4.2m/s | -59.4°C | 5.4% | 0hPa | 2.7V | 08:30:00 | 01:34:45 | 00:00:00 | |
| NBG1-10 | 2026-09-04 12:09:35 | 45.29531 | 9.10635 | 105° | 27km/h | 18111m | 4.8m/s | -59.5°C | 5.6% | 0hPa | 2.6V | 00:00:00 | 01:34:49 | 00:00:00 | |
| DB0UT-7 | 2026-09-04 12:09:33 | 45.29534 | 9.10615 | 98° | 27km/h | 18102m | 4.3m/s | -59.4°C | 5.6% | 0hPa | 2.6V | 00:00:00 | 01:34:47 | 00:00:00 | |
| DO3MHA-11 | 2026-09-04 12:09:29 | 45.29540 | 9.10577 | 103° | 26km/h | 18085m | 4.7m/s | -59.6°C | 5.6% | 0hPa | 2.6V | 00:00:00 | 01:34:43 | 00:00:00 | |
| IW2NTF | 2026-09-04 12:09:26 | 45.29561 | 9.10513 | 120° | 24km/h | 18049m | 3.9m/s | -59.7°C | 5.8% | 0hPa | 2.6V | 08:30:00 | 01:34:35 | 00:00:00 | |
| DO3MHA-11 | 2026-09-04 12:09:19 | 45.29567 | 9.10497 | 115° | 29km/h | 18041m | 3.7m/s | -59.6°C | 6.0% | 0hPa | 2.7V | 00:00:00 | 01:34:33 | 00:00:00 | |
| IW2NTF | 2026-09-04 12:09:14 | 45.29580 | 9.10416 | 103° | 27km/h | 18006m | 4.5m/s | -59.9°C | 5.7% | 0hPa | 2.7V | 08:30:00 | 01:34:25 | 00:00:00 | |
| DO3MHA-11 | 2026-09-04 12:09:09 | 45.29586 | 9.10389 | 115° | 31km/h | 17993m | 4.3m/s | -59.7°C | 6.0% | 0hPa | 2.6V | 00:00:00 | 01:34:22 | 00:00:00 | |
| IW2NTF | 2026-09-04 12:09:03 | 45.29604 | 9.10320 | 115° | 33km/h | 17965m | 4m/s | -59.8°C | 5.8% | 0hPa | 2.6V | 08:30:00 | 01:34:15 | 00:00:00 | |
| DB0UT-7 | 2026-09-04 12:09:03 | 45.29599 | 9.10341 | 107° | 35km/h | 17974m | 3.5m/s | -59.7°C | 5.8% | 0hPa | 2.7V | 00:00:00 | 00:00:00 | 00:00:00 | |
| NBG1-10 | 2026-09-04 12:09:02 | 45.29601 | 9.10331 | 111° | 35km/h | 17969m | 5.0m/s | -59.8°C | 5.8% | 0hPa | 2.7V | 00:00:00 | 01:34:16 | 00:00:00 | |
| DO3MHA-11 | 2026-09-04 12:08:58 | 45.29615 | 9.10288 | 115° | 35km/h | 17952m | 4.0m/s | -59.8°C | 5.9% | 0hPa | 2.7V | 00:00:00 | 01:34:12 | 00:00:00 | |
| IW2NTF | 2026-09-04 12:08:53 | 45.29641 | 9.10212 | 112° | 35km/h | 17923m | 4.3m/s | -59.8°C | 5.8% | 0hPa | 2.7V | 08:30:00 | 01:34:05 | 00:00:00 | |
| DO3MHA-11 | 2026-09-04 12:08:48 | 45.29652 | 9.10178 | 117° | 35km/h | 17912m | 4.0m/s | -59.8°C | 5.8% | 0hPa | 2.6V | 00:00:00 | 01:34:02 | 00:00:00 | |
| IW2NTF | 2026-09-04 12:08:45 | 45.29672 | 9.10099 | 101° | 35km/h | 17881m | 4.1m/s | -59.6°C | 5.6% | 0hPa | 2.6V | 08:30:00 | 01:33:55 | 00:00:00 | |
| DO3MHA-11 | 2026-09-04 12:08:37 | 45.29681 | 9.10049 | 109° | 37km/h | 17865m | 3.9m/s | -59.4°C | 5.5% | 0hPa | 2.7V | 00:00:00 | 01:33:51 | 00:00:00 | |
| IW2NTF | 2026-09-04 12:08:34 | 45.29694 | 9.09974 | 104° | 38km/h | 17840m | 4.5m/s | -60°C | 5.9% | 0hPa | 2.7V | 08:30:00 | 01:33:45 | 00:00:00 | |
| DB0UT-7 | 2026-09-04 12:08:33 | 45.29690 | 9.10001 | 103° | 35km/h | 17849m | 4.5m/s | -59.7°C | 5.7% | 0hPa | 2.6V | 00:00:00 | 01:33:47 | 00:00:00 | |
| NBG1-10 | 2026-09-04 12:08:29 | 45.29699 | 9.09949 | 106° | 31km/h | 17831m | 4.1m/s | -60.2°C | 6.1% | 0hPa | 2.6V | 00:00:00 | 01:33:43 | 08:30:00 | |
| DO3MHA-11 | 2026-09-04 12:08:27 | 45.29705 | 9.09923 | 107° | 37km/h | 17822m | 4.6m/s | -60.3°C | 6.0% | 0hPa | 2.6V | 00:00:00 | 01:33:41 | 08:30:00 | |
| IW2NTF | 2026-09-04 12:08:26 | 45.29721 | 9.09835 | 102° | 46km/h | 17794m | 3.9m/s | -60.5°C | 6% | 0hPa | 2.6V | 08:30:00 | 01:33:35 | 00:00:00 | |
| IW2NTF | 2026-09-04 12:08:14 | 45.29736 | 9.09724 | 89° | 26km/h | 17745m | 4.2m/s | -60.1°C | 6% | 0hPa | 2.7V | 08:30:00 | 01:33:25 | 00:00:00 | |
| DO3MHA-11 | 2026-09-04 12:08:11 | 45.29736 | 9.09724 | 90° | 24km/h | 17745m | 4.1m/s | -60.1°C | 6.0% | 0hPa | 2.6V | 00:00:00 | 01:33:25 | 00:00:00 | |
| IW2NTF | 2026-09-04 12:08:03 | 45.29737 | 9.09633 | 72° | 24km/h | 17702m | 3.8m/s | -59.9°C | 6% | 0hPa | 2.6V | 08:30:00 | 01:33:15 | 00:00:00 | |
| DB0UT-7 | 2026-09-04 12:08:03 | 45.29740 | 9.09649 | 87° | 18km/h | 17712m | 5.7m/s | -59.9°C | 6.1% | 0hPa | 2.6V | 00:00:00 | 00:00:00 | 00:00:00 | |
| NBG1-10 | 2026-09-04 12:07:56 | 45.29732 | 9.09594 | 85° | 16km/h | 17681m | 4.6m/s | -59.6°C | 6.0% | 0hPa | 2.6V | 00:00:00 | 01:33:10 | 00:00:00 | |
| DO3MHA-11 | 2026-09-04 12:07:53 | 45.29731 | 9.09569 | 93° | 18km/h | 17667m | 4.4m/s | -59.5°C | 5.9% | 0hPa | 2.6V | 00:00:00 | 01:33:07 | 00:00:00 | |
| IW2NTF | 2026-09-04 12:07:53 | 45.29731 | 9.09555 | 86° | 20km/h | 17659m | 4.9m/s | -59.6°C | 5.9% | 0hPa | 2.7V | 08:30:00 | 01:33:05 | 00:00:00 | |
| IW2NTF | 2026-09-04 12:07:42 | 45.29725 | 9.09496 | 94° | 13km/h | 17613m | 4.5m/s | -59.4°C | 5.8% | 0hPa | 2.6V | 08:30:00 | 01:32:55 | 00:00:00 | |
| IW2NTF | 2026-09-04 12:07:36 | 45.29721 | 9.09443 | 69° | 13km/h | 17569m | 4.6m/s | -59.4°C | 5.8% | 0hPa | 2.7V | 08:30:00 | 01:32:45 | 00:00:00 | |
| DO3MHA-11 | 2026-09-04 12:07:33 | 45.29724 | 9.09453 | 74° | 15km/h | 17578m | 4.7m/s | -59.2°C | 5.9% | 0hPa | 2.7V | 00:00:00 | 01:32:47 | 00:00:00 | |
| IW2NTF | 2026-09-04 12:07:23 | 45.29733 | 9.09376 | 115° | 13km/h | 17506m | 4.2m/s | -59.1°C | 6% | 0hPa | 2.7V | 08:30:00 | 01:32:31 | 00:00:00 | |
| DO3MHA-11 | 2026-09-04 12:07:23 | 45.29724 | 9.09406 | 120° | 15km/h | 17534m | 4.3m/s | -59.0°C | 5.7% | 0hPa | 2.6V | 00:00:00 | 01:32:37 | 00:00:00 | |
| DO3MHA-11 | 2026-09-04 12:07:13 | 45.29736 | 9.09357 | 95° | 11km/h | 17488m | 5.1m/s | -59.1°C | 5.7% | 0hPa | 2.6V | 00:00:00 | 01:32:27 | 00:00:00 | |
| IW2NTF | 2026-09-04 12:07:11 | 45.29735 | 9.09331 | 98° | 9km/h | 17457m | 3.7m/s | -59°C | 5.7% | 0hPa | 2.7V | 08:30:00 | 01:32:20 | 00:00:00 | |
| DO3MHA-11 | 2026-09-04 12:07:03 | 45.29738 | 9.09319 | 120° | 15km/h | 17444m | 3.9m/s | -59.0°C | 5.9% | 0hPa | 2.6V | 00:00:00 | 01:32:17 | 00:00:00 | |
| IW2NTF | 2026-09-04 12:07:00 | 45.29757 | 9.09287 | 115° | 11km/h | 17408m | 4.1m/s | -59.3°C | 5.7% | 0hPa | 2.6V | 08:30:00 | 01:32:09 | 00:00:00 | |
| DO3MHA-11 | 2026-09-04 12:06:53 | 45.29758 | 9.09280 | 84° | 16km/h | 17400m | 5.3m/s | -59.4°C | 5.6% | 0hPa | 2.6V | 00:00:00 | 01:32:07 | 00:00:00 | |
| NBG1-10 | 2026-09-04 12:06:50 | 45.29757 | 9.09268 | 102° | 24km/h | 17387m | 4.9m/s | -59.4°C | 5.6% | 0hPa | 2.6V | 00:00:00 | 01:32:04 | 00:00:00 | |
| IW2NTF | 2026-09-04 12:06:47 | 45.29772 | 9.09248 | 137° | 24km/h | 17364m | 4m/s | -60°C | 6.2% | 0hPa | 2.7V | 08:30:00 | 01:31:59 | 00:00:00 | |
| DO3MHA-11 | 2026-09-04 12:06:43 | 45.29781 | 9.09237 | 141° | 20km/h | 17356m | 4.7m/s | -60.1°C | 6.2% | 0hPa | 2.6V | 00:00:00 | 01:31:57 | 08:30:00 | |
| IW2NTF | 2026-09-04 12:06:36 | 45.29803 | 9.09193 | 118° | 20km/h | 17322m | 4.5m/s | -60.9°C | 6.4% | 0hPa | 2.6V | 08:30:00 | 01:31:49 | 00:00:00 | |
| DB0UT-7 | 2026-09-04 12:06:33 | 45.29809 | 9.09180 | 121° | 35km/h | 17315m | 3.5m/s | -60.8°C | 6.4% | 0hPa | 2.7V | 00:00:00 | 01:31:47 | 00:00:00 | |
| IW2NTF | 2026-09-04 12:06:30 | 45.29838 | 9.09118 | 128° | 29km/h | 17281m | 3.9m/s | -61°C | 6.7% | 0hPa | 2.7V | 08:30:00 | 01:31:39 | 00:00:00 | |
| DO3MHA-11 | 2026-09-04 12:06:23 | 45.29848 | 9.09101 | 132° | 37km/h | 17272m | 4.8m/s | -61.2°C | 6.8% | 0hPa | 2.6V | 00:00:00 | 01:31:37 | 00:00:00 | |
| IW2NTF | 2026-09-04 12:06:18 | 45.29900 | 9.09026 | 134° | 38km/h | 17236m | 4.8m/s | -61°C | 6.6% | 0hPa | 2.6V | 08:30:00 | 01:31:29 | 00:00:00 | |
| NBG1-10 | 2026-09-04 12:06:17 | 45.29886 | 9.09046 | 134° | 40km/h | 17245m | 4.5m/s | -61.0°C | 6.6% | 0hPa | 2.7V | 00:00:00 | 01:31:31 | 00:00:00 | |
| DO3MHA-11 | 2026-09-04 12:06:13 | 45.29913 | 9.09006 | 133° | 42km/h | 17228m | 4.9m/s | -61.0°C | 6.6% | 0hPa | 2.7V | 00:00:00 | 01:31:27 | 00:00:00 | |
| IW2NTF | 2026-09-04 12:06:10 | 45.29958 | 9.08912 | 120° | 49km/h | 17194m | 3.9m/s | -60.9°C | 6.8% | 0hPa | 2.7V | 08:30:00 | 01:31:19 | 00:00:00 | |
| DO3MHA-11 | 2026-09-04 12:06:03 | 45.29972 | 9.08883 | 128° | 38km/h | 17186m | 4.3m/s | -61.0°C | 6.9% | 0hPa | 2.6V | 00:00:00 | 01:31:17 | 00:00:00 | |
| IW2NTF | 2026-09-04 12:05:56 | 45.30017 | 9.08792 | 124° | 38km/h | 17152m | 4m/s | -61.4°C | 7% | 0hPa | 2.6V | 08:30:00 | 01:31:09 | 00:00:00 | |
| DO3MHA-11 | 2026-09-04 12:05:53 | 45.30027 | 9.08769 | 116° | 44km/h | 17144m | 4.2m/s | -61.2°C | 6.9% | 0hPa | 2.7V | 00:00:00 | 01:31:07 | 00:00:00 | |
| IW2NTF | 2026-09-04 12:05:50 | 45.30062 | 9.08659 | 116° | 49km/h | 17108m | 5.3m/s | -61.4°C | 7.1% | 0hPa | 2.7V | 08:30:00 | 01:30:59 | 00:00:00 | |
| NBG1-10 | 2026-09-04 12:05:44 | 45.30068 | 9.08643 | 120° | 51km/h | 17103m | 4.5m/s | -61.3°C | 7.0% | 0hPa | 2.7V | 00:00:00 | 01:30:58 | 00:00:00 | |
| DO3MHA-11 | 2026-09-04 12:05:43 | 45.30075 | 9.08627 | 121° | 49km/h | 17099m | 3.6m/s | -61.3°C | 7.0% | 0hPa | 2.7V | 00:00:00 | 01:30:57 | 00:00:00 | |
| IW2NTF | 2026-09-04 12:05:39 | 45.30118 | 9.08497 | 107° | 46km/h | 17064m | 3.3m/s | -61.2°C | 7.2% | 0hPa | 2.6V | 08:30:00 | 01:30:49 | 00:00:00 | |
| DO3MHA-11 | 2026-09-04 12:05:33 | 45.30126 | 9.08467 | 113° | 49km/h | 17055m | 4.4m/s | -61.2°C | 7.3% | 0hPa | 2.6V | 00:00:00 | 01:30:47 | 00:00:00 | |
| IW2NTF | 2026-09-04 12:05:30 | 45.30165 | 9.08328 | 108° | 49km/h | 17021m | 5.1m/s | -61.4°C | 7.1% | 0hPa | 2.6V | 08:30:00 | 01:30:39 | 00:00:00 | |
| DO3MHA-11 | 2026-09-04 12:05:20 | 45.30177 | 9.08246 | 100° | 55km/h | 17000m | 4.1m/s | -61.2°C | 7.2% | 0hPa | 2.7V | 00:00:00 | 01:30:34 | 00:00:00 | |
| IW2NTF | 2026-09-04 12:05:19 | 45.30193 | 9.08151 | 110° | 57km/h | 16979m | 3.6m/s | -61°C | 7% | 0hPa | 2.7V | 08:30:00 | 01:30:29 | 00:00:00 | |
| NBG1-10 | 2026-09-04 12:05:11 | 45.30210 | 9.08075 | 102° | 46km/h | 16963m | 3.9m/s | 0°C | 0% | 0hPa | 2.7V | 00:00:00 | 01:30:25 | 00:00:00 | |
| DO3MHA-11 | 2026-09-04 12:05:10 | 45.30213 | 9.08055 | 102° | 49km/h | 16959m | 4.1m/s | -61.3°C | 7.0% | 0hPa | 2.7V | 00:00:00 | 01:30:24 | 08:30:00 | |
| IW2NTF | 2026-09-04 12:05:07 | 45.30231 | 9.07965 | 107° | 47km/h | 16935m | 4.4m/s | -61.4°C | 7.3% | 0hPa | 2.6V | 08:30:00 | 01:30:19 | 00:00:00 | |
| DB0UT-7 | 2026-09-04 12:05:03 | 45.30238 | 9.07934 | 111° | 42km/h | 16926m | 5.6m/s | -61.4°C | 7.5% | 0hPa | 2.7V | 00:00:00 | 00:00:00 | 00:00:00 | |
| IW2NTF | 2026-09-04 12:05:00 | 45.30272 | 9.07803 | 110° | 49km/h | 16890m | 3.1m/s | -61.7°C | 7.3% | 0hPa | 2.7V | 08:30:00 | 01:30:09 | 00:00:00 | |
| DO3MHA-11 | 2026-09-04 12:05:00 | 45.30251 | 9.07888 | 111° | 47km/h | 16913m | 5.4m/s | -61.5°C | 7.3% | 0hPa | 2.6V | 00:00:00 | 01:30:14 | 00:00:00 | |
| DO3MHA-11 | 2026-09-04 12:04:50 | 45.30288 | 9.07727 | 110° | 38km/h | 16867m | 5.5m/s | -61.7°C | 7.3% | 0hPa | 2.6V | 00:00:00 | 01:30:04 | 00:00:00 | |
| IW2NTF | 2026-09-04 12:04:49 | 45.30307 | 9.07661 | 113° | 38km/h | 16843m | 4.9m/s | -61.8°C | 7.3% | 0hPa | 2.6V | 08:30:00 | 01:29:59 | 00:00:00 | |
| IW2NTF | 2026-09-04 12:04:40 | 45.30340 | 9.07544 | 101° | 35km/h | 16801m | 3.8m/s | -62.3°C | 7.7% | 0hPa | 2.7V | 08:30:00 | 01:29:49 | 00:00:00 | |
| DO3MHA-11 | 2026-09-04 12:04:40 | 45.30325 | 9.07599 | 113° | 35km/h | 16822m | 3.8m/s | -62.0°C | 7.6% | 0hPa | 2.7V | 00:00:00 | 01:29:54 | 00:00:00 | |
| NBG1-10 | 2026-09-04 12:04:38 | 45.30332 | 9.07578 | 116° | 33km/h | 16814m | 3.3m/s | 0°C | 0% | 0hPa | 2.6V | 00:00:00 | 01:29:52 | 00:00:00 | |
| DB0UT-7 | 2026-09-04 12:04:33 | 45.30344 | 9.07519 | 104° | 31km/h | 16794m | 4.4m/s | -62.2°C | 7.8% | 0hPa | 2.6V | 00:00:00 | 01:29:47 | 00:00:00 | |
| IW2NTF | 2026-09-04 12:04:30 | 45.30366 | 9.07427 | 116° | 33km/h | 16762m | 3.8m/s | -62.2°C | 7.7% | 0hPa | 2.6V | 08:30:00 | 01:29:39 | 00:00:00 | |
| DO3MHA-11 | 2026-09-04 12:04:30 | 45.30351 | 9.07483 | 106° | 31km/h | 16783m | 4.5m/s | -62.3°C | 7.8% | 0hPa | 2.6V | 00:00:00 | 01:29:44 | 00:00:00 | |
| IW2NTF | 2026-09-04 12:04:19 | 45.30403 | 9.07333 | 121° | 33km/h | 16719m | 4.1m/s | -62.2°C | 7.5% | 0hPa | 2.6V | 08:30:00 | 01:29:29 | 00:00:00 | |
| IW2NTF | 2026-09-04 12:04:10 | 45.30444 | 9.07239 | 117° | 29km/h | 16678m | 3.7m/s | -63.4°C | 8.5% | 0hPa | 2.7V | 08:30:00 | 01:29:19 | 00:00:00 | |
| DO3MHA-11 | 2026-09-04 12:04:09 | 45.30429 | 9.07274 | 128° | 33km/h | 16694m | 3.3m/s | -62.7°C | 8.1% | 0hPa | 2.6V | 00:00:00 | 01:29:23 | 00:00:00 | |
| NBG1-10 | 2026-09-04 12:04:05 | 45.30444 | 9.07239 | 118° | 35km/h | 16678m | 3.6m/s | 0°C | 0% | 0hPa | 2.6V | 00:00:00 | 01:29:19 | 00:00:00 | |
| DB0UT-7 | 2026-09-04 12:04:03 | 45.30453 | 9.07220 | 123° | 33km/h | 16670m | 3.8m/s | -63.4°C | 8.5% | 0hPa | 2.6V | 00:00:00 | 00:00:00 | 00:00:00 | |
| IW2NTF | 2026-09-04 12:03:59 | 45.30496 | 9.07124 | 135° | 37km/h | 16638m | 3.5m/s | -63.5°C | 8.4% | 0hPa | 2.6V | 08:30:00 | 01:29:09 | 00:00:00 | |
| DO3MHA-11 | 2026-09-04 12:03:59 | 45.30472 | 9.07170 | 118° | 35km/h | 16654m | 3.1m/s | -63.5°C | 8.5% | 0hPa | 2.7V | 00:00:00 | 01:29:13 | 00:00:00 | |
| IW2NTF | 2026-09-04 12:03:49 | 45.30540 | 9.07037 | 122° | 29km/h | 16594m | 4.1m/s | -63.3°C | 8.3% | 0hPa | 2.7V | 08:30:00 | 01:28:59 | 00:00:00 | |
| DO3MHA-11 | 2026-09-04 12:03:49 | 45.30527 | 9.07075 | 120° | 29km/h | 16613m | 5.1m/s | -63.3°C | 8.4% | 0hPa | 2.6V | 00:00:00 | 01:29:03 | 00:00:00 | |
| IW2NTF | 2026-09-04 12:03:39 | 45.30584 | 9.06946 | 114° | 31km/h | 16551m | 4.8m/s | -63°C | 8.4% | 0hPa | 2.6V | 08:30:00 | 01:28:49 | 00:00:00 | |
| DO3MHA-11 | 2026-09-04 12:03:39 | 45.30567 | 9.06984 | 131° | 29km/h | 16569m | 4.0m/s | -63.0°C | 8.3% | 0hPa | 2.7V | 00:00:00 | 01:28:53 | 08:30:00 | |
| DB0UT-7 | 2026-09-04 12:03:33 | 45.30589 | 9.06927 | 113° | 31km/h | 16542m | 3.9m/s | -62.8°C | 8.3% | 0hPa | 2.7V | 00:00:00 | 01:28:47 | 00:00:00 | |
| NBG1-10 | 2026-09-04 12:03:32 | 45.30592 | 9.06918 | 111° | 29km/h | 16538m | 3.9m/s | 0°C | 0% | 0hPa | 2.7V | 00:00:00 | 01:28:46 | 00:00:00 | |
| IW2NTF | 2026-09-04 12:03:29 | 45.30615 | 9.06853 | 124° | 33km/h | 16508m | 5.1m/s | -62.7°C | 7.9% | 0hPa | 2.7V | 08:30:00 | 01:28:39 | 00:00:00 | |
| DO3MHA-11 | 2026-09-04 12:03:29 | 45.30599 | 9.06890 | 113° | 31km/h | 16526m | 3.9m/s | -62.7°C | 7.9% | 0hPa | 2.6V | 00:00:00 | 01:28:43 | 00:00:00 | |
| IW2NTF | 2026-09-04 12:03:19 | 45.30655 | 9.06748 | 116° | 33km/h | 16464m | 4.9m/s | -62.3°C | 8.1% | 0hPa | 2.6V | 08:30:00 | 01:28:29 | 00:00:00 | |
| DO3MHA-11 | 2026-09-04 12:03:19 | 45.30639 | 9.06791 | 118° | 33km/h | 16483m | 4.7m/s | -62.4°C | 8.2% | 0hPa | 2.6V | 00:00:00 | 01:28:33 | 00:00:00 | |
| IW2NTF | 2026-09-04 12:03:09 | 45.30690 | 9.06640 | 114° | 33km/h | 16417m | 4.4m/s | -62°C | 7.7% | 0hPa | 2.6V | 08:30:00 | 01:28:19 | 00:00:00 | |
| DO3MHA-11 | 2026-09-04 12:03:09 | 45.30676 | 9.06684 | 113° | 33km/h | 16436m | 5.0m/s | -62.1°C | 7.8% | 0hPa | 2.7V | 00:00:00 | 01:28:23 | 00:00:00 | |
| DB0UT-7 | 2026-09-04 12:03:03 | 45.30696 | 9.06619 | 114° | 33km/h | 16408m | 3.9m/s | -61.8°C | 7.8% | 0hPa | 2.7V | 00:00:00 | 00:00:00 | 00:00:00 | |
| IW2NTF | 2026-09-04 12:02:59 | 45.30719 | 9.06525 | 106° | 38km/h | 16370m | 3.9m/s | -61.5°C | 7.7% | 0hPa | 2.7V | 08:30:00 | 01:28:09 | 00:00:00 | |
| DO3MHA-11 | 2026-09-04 12:02:59 | 45.30709 | 9.06576 | 110° | 35km/h | 16389m | 5.1m/s | -61.6°C | 7.7% | 0hPa | 2.6V | 00:00:00 | 01:28:13 | 00:00:00 | |
| IW2NTF | 2026-09-04 12:02:49 | 45.30747 | 9.06400 | 103° | 37km/h | 16319m | 5.9m/s | -61.1°C | 7.5% | 0hPa | 2.6V | 08:30:00 | 01:27:58 | 00:00:00 | |
| DO3MHA-11 | 2026-09-04 12:02:49 | 45.30733 | 9.06458 | 110° | 35km/h | 16343m | 4.7m/s | -61.3°C | 7.7% | 0hPa | 2.7V | 00:00:00 | 01:28:03 | 00:00:00 | |
| IW2NTF | 2026-09-04 12:02:39 | 45.30762 | 9.06283 | 97° | 29km/h | 16270m | 3.8m/s | -61°C | 7.6% | 0hPa | 2.7V | 08:30:00 | 01:27:48 | 00:00:00 | |
| DB0UT-7 | 2026-09-04 12:02:33 | 45.30762 | 9.06272 | 95° | 31km/h | 16266m | 5.7m/s | -60.9°C | 7.6% | 0hPa | 2.6V | 00:00:00 | 01:27:47 | 00:00:00 | |
| IW2NTF | 2026-09-04 12:02:29 | 45.30768 | 9.06153 | 98° | 31km/h | 16222m | 4.1m/s | -60.8°C | 7.3% | 0hPa | 2.6V | 08:30:00 | 01:27:38 | 00:00:00 | |
| DO3MHA-11 | 2026-09-04 12:02:29 | 45.30763 | 9.06221 | 93° | 35km/h | 16246m | 4.2m/s | -60.7°C | 7.3% | 0hPa | 2.7V | 00:00:00 | 01:27:43 | 00:00:00 | |
| DO3MHA-11 | 2026-09-04 12:02:19 | 45.30774 | 9.06098 | 105° | 29km/h | 16196m | 4.6m/s | -60.6°C | 7.4% | 0hPa | 2.7V | 00:00:00 | 01:27:33 | 00:00:00 | |
| IW2NTF | 2026-09-04 12:02:18 | 45.30776 | 9.06043 | 83° | 27km/h | 16172m | 3.8m/s | -61.1°C | 7.6% | 0hPa | 2.7V | 08:30:00 | 01:27:28 | 00:00:00 | |
| IW2NTF | 2026-09-04 12:02:09 | 45.30790 | 9.05948 | 103° | 20km/h | 16125m | 5m/s | -61.3°C | 7.7% | 0hPa | 2.6V | 08:30:00 | 01:27:18 | 00:00:00 | |
| DO3MHA-11 | 2026-09-04 12:02:09 | 45.30781 | 9.05994 | 106° | 22km/h | 16149m | 4.8m/s | -61.1°C | 7.6% | 0hPa | 2.6V | 00:00:00 | 01:27:23 | 08:30:00 | |
| DB0UT-7 | 2026-09-04 12:02:03 | 45.30791 | 9.05941 | 97° | 20km/h | 16121m | 4.8m/s | -61.3°C | 7.8% | 0hPa | 2.8V | 00:00:00 | 00:00:00 | 00:00:00 | |
| IW2NTF | 2026-09-04 12:01:59 | 45.30801 | 9.05883 | 119° | 22km/h | 16079m | 4.2m/s | -61.1°C | 7.4% | 0hPa | 2.8V | 08:30:00 | 01:27:08 | 00:00:00 | |
| DO3MHA-11 | 2026-09-04 12:01:59 | 45.30792 | 9.05917 | 103° | 22km/h | 16102m | 4.2m/s | -61.2°C | 7.7% | 0hPa | 2.6V | 00:00:00 | 01:27:13 | 00:00:00 | |
| DO3MHA-11 | 2026-09-04 12:01:49 | 45.30815 | 9.05849 | 127° | 20km/h | 16056m | 4.3m/s | -61.2°C | 7.8% | 0hPa | 2.6V | 00:00:00 | 01:27:03 | 00:00:00 | |
| IW2NTF | 2026-09-04 12:01:47 | 45.30832 | 9.05805 | 119° | 18km/h | 16024m | 4m/s | -61.2°C | 7.8% | 0hPa | 2.6V | 08:30:00 | 01:26:56 | 00:00:00 | |
| DO3MHA-11 | 2026-09-04 12:01:39 | 45.30839 | 9.05786 | 120° | 26km/h | 16011m | 4.4m/s | -61.4°C | 7.9% | 0hPa | 2.7V | 00:00:00 | 01:26:53 | 00:00:00 | |
| IW2NTF | 2026-09-04 12:01:33 | 45.30870 | 9.05736 | 130° | 29km/h | 15979m | 4.6m/s | -61.4°C | 8.1% | 0hPa | 2.8V | 08:30:00 | 01:26:46 | 00:00:00 | |
| DB0UT-7 | 2026-09-04 12:01:33 | 45.30865 | 9.05744 | 132° | 29km/h | 15984m | 4.0m/s | -61.3°C | 8.0% | 0hPa | 2.6V | 00:00:00 | 01:26:47 | 00:00:00 | |
| DO3MHA-11 | 2026-09-04 12:01:29 | 45.30882 | 9.05714 | 125° | 27km/h | 15966m | 4.2m/s | -61.3°C | 8.1% | 0hPa | 2.6V | 00:00:00 | 01:26:43 | 00:00:00 | |
| IW2NTF | 2026-09-04 12:01:23 | 45.30907 | 9.05656 | 123° | 29km/h | 15934m | 4.8m/s | -61.5°C | 8.5% | 0hPa | 2.6V | 08:30:00 | 01:26:36 | 00:00:00 | |
| DO3MHA-11 | 2026-09-04 12:01:19 | 45.30919 | 9.05630 | 126° | 29km/h | 15921m | 4.3m/s | -61.4°C | 8.4% | 0hPa | 2.8V | 00:00:00 | 01:26:33 | 00:00:00 | |
| IW2NTF | 2026-09-04 12:01:13 | 45.30945 | 9.05567 | 123° | 27km/h | 15890m | 3.4m/s | -61.4°C | 8.4% | 0hPa | 2.8V | 08:30:00 | 01:26:26 | 00:00:00 | |
| DO3MHA-11 | 2026-09-04 12:01:09 | 45.30958 | 9.05539 | 122° | 37km/h | 15878m | 3.9m/s | -61.3°C | 8.5% | 0hPa | 2.6V | 00:00:00 | 01:26:23 | 00:00:00 | |
| IW2NTF | 2026-09-04 12:01:07 | 45.30983 | 9.05455 | 111° | 37km/h | 15848m | 3.6m/s | -61.3°C | 8.8% | 0hPa | 2.6V | 08:30:00 | 01:26:16 | 00:00:00 | |
| DB0UT-7 | 2026-09-04 12:01:03 | 45.30979 | 9.05467 | 112° | 35km/h | 15852m | 4.4m/s | -61.2°C | 8.7% | 0hPa | 2.7V | 00:00:00 | 00:00:00 | 08:30:00 | |
| DO3MHA-11 | 2026-09-04 12:00:59 | 45.30992 | 9.05420 | 116° | 37km/h | 15834m | 5.1m/s | -61.2°C | 8.7% | 0hPa | 2.6V | 00:00:00 | 01:26:13 | 00:00:00 | |
| IW2NTF | 2026-09-04 12:00:53 | 45.31018 | 9.05338 | 109° | 38km/h | 15803m | 3.3m/s | -61.1°C | 8.8% | 0hPa | 2.6V | 08:30:00 | 01:26:06 | 00:00:00 | |
| DO3MHA-11 | 2026-09-04 12:00:49 | 45.31026 | 9.05300 | 106° | 33km/h | 15791m | 3.8m/s | -61.0°C | 8.9% | 0hPa | 2.7V | 00:00:00 | 01:26:03 | 00:00:00 | |
| IW2NTF | 2026-09-04 12:00:43 | 45.31049 | 9.05221 | 115° | 33km/h | 15762m | 4.8m/s | -61.2°C | 9.3% | 0hPa | 2.7V | 08:30:00 | 01:25:56 | 00:00:00 | |
| DO3MHA-11 | 2026-09-04 12:00:37 | 45.31068 | 9.05172 | 118° | 31km/h | 15741m | 4.4m/s | -61.3°C | 9.2% | 0hPa | 2.7V | 00:00:00 | 01:25:51 | 08:30:00 | |
| IW2NTF | 2026-09-04 12:00:33 | 45.31088 | 9.05123 | 121° | 31km/h | 15719m | 4m/s | -61.6°C | 9.5% | 0hPa | 2.6V | 08:30:00 | 01:25:46 | 00:00:00 | |
| DB0UT-7 | 2026-09-04 12:00:33 | 45.31084 | 9.05132 | 120° | 37km/h | 15724m | 4.4m/s | -61.5°C | 9.5% | 0hPa | 2.8V | 00:00:00 | 01:25:47 | 00:00:00 | |
| DO3MHA-11 | 2026-09-04 12:00:27 | 45.31111 | 9.05081 | 133° | 33km/h | 15698m | 3.4m/s | -61.7°C | 9.8% | 0hPa | 2.8V | 00:00:00 | 01:25:41 | 00:00:00 | |
| IW2NTF | 2026-09-04 12:00:24 | 45.31139 | 9.05038 | 129° | 33km/h | 15677m | 4.5m/s | -62.3°C | 10.4% | 0hPa | 2.8V | 08:30:00 | 01:25:36 | 00:00:00 | |
| DO3MHA-11 | 2026-09-04 12:00:17 | 45.31169 | 9.04992 | 137° | 42km/h | 15656m | 4.7m/s | -62.3°C | 10.8% | 0hPa | 2.6V | 00:00:00 | 01:25:31 | 00:00:00 | |
| IW2NTF | 2026-09-04 12:00:13 | 45.31207 | 9.04940 | 134° | 44km/h | 15634m | 4.1m/s | -62.4°C | 11.3% | 0hPa | 2.6V | 08:30:00 | 01:25:26 | 00:00:00 | |
| DO3MHA-11 | 2026-09-04 12:00:07 | 45.31242 | 9.04882 | 132° | 47km/h | 15614m | 3.4m/s | -62.3°C | 11.3% | 0hPa | 2.7V | 00:00:00 | 01:25:21 | 00:00:00 | |
| IW2NTF | 2026-09-04 12:00:02 | 45.31278 | 9.04820 | 126° | 47km/h | 15594m | 4.5m/s | -62.6°C | 11.6% | 0hPa | 2.8V | 08:30:00 | 01:25:16 | 00:00:00 | |
| DO3MHA-11 | 2026-09-04 11:59:57 | 45.31312 | 9.04745 | 120° | 47km/h | 15575m | 4.4m/s | -62.7°C | 12.2% | 0hPa | 2.6V | 00:00:00 | 01:25:11 | 00:00:00 | |
| IW2NTF | 2026-09-04 11:59:53 | 45.31343 | 9.04671 | 118° | 46km/h | 15556m | 3.4m/s | -62.7°C | 12.4% | 0hPa | 2.6V | 08:30:00 | 01:25:06 | 00:00:00 | |
| IW2NTF | 2026-09-04 11:59:47 | 45.31403 | 9.04516 | 118° | 49km/h | 15517m | 4.3m/s | -63.2°C | 13% | 0hPa | 2.6V | 08:30:00 | 01:24:56 | 00:00:00 | |
| DO3MHA-11 | 2026-09-04 11:59:47 | 45.31372 | 9.04595 | 119° | 49km/h | 15537m | 4.1m/s | -63.0°C | 12.6% | 0hPa | 2.7V | 00:00:00 | 01:25:01 | 00:00:00 | |
| DO3MHA-11 | 2026-09-04 11:59:37 | 45.31434 | 9.04442 | 125° | 47km/h | 15498m | 4.7m/s | -63.2°C | 13.4% | 0hPa | 2.7V | 00:00:00 | 01:24:51 | 00:00:00 | |
| IW2NTF | 2026-09-04 11:59:32 | 45.31470 | 9.04373 | 125° | 47km/h | 15479m | 4.3m/s | -63.4°C | 13.6% | 0hPa | 2.8V | 08:30:00 | 01:24:46 | 00:00:00 | |
| IW2NTF | 2026-09-04 11:59:27 | 45.31561 | 9.04213 | 131° | 46km/h | 15434m | 4.5m/s | -63.8°C | 14.3% | 0hPa | 2.6V | 08:30:00 | 01:24:34 | 00:00:00 | |
| DO3MHA-11 | 2026-09-04 11:59:26 | 45.31513 | 9.04290 | 129° | 46km/h | 15457m | 3.5m/s | -63.6°C | 14.2% | 0hPa | 2.8V | 00:00:00 | 01:24:40 | 00:00:00 | |
| DO3MHA-11 | 2026-09-04 11:59:16 | 45.31589 | 9.04164 | 133° | 47km/h | 15418m | 3.7m/s | -63.7°C | 14.5% | 0hPa | 2.8V | 00:00:00 | 01:24:30 | 00:00:00 | |
| IW2NTF | 2026-09-04 11:59:10 | 45.31638 | 9.04092 | 134° | 49km/h | 15393m | 4.6m/s | -64.2°C | 15.4% | 0hPa | 2.8V | 08:30:00 | 01:24:24 | 00:00:00 | |
| IW2NTF | 2026-09-04 11:59:03 | 45.31720 | 9.03959 | 136° | 51km/h | 15355m | 4m/s | -64.6°C | 16.6% | 0hPa | 2.8V | 08:30:00 | 01:24:14 | 00:00:00 | |
| DB0UT-7 | 2026-09-04 11:59:03 | 45.31695 | 9.03997 | 127° | 51km/h | 15367m | 3.1m/s | -64.6°C | 16.4% | 0hPa | 2.6V | 00:00:00 | 00:00:00 | 00:00:00 | |
| DO3MHA-11 | 2026-09-04 11:58:56 | 45.31759 | 9.03907 | 134° | 53km/h | 15340m | 3.8m/s | -64.8°C | 17.2% | 0hPa | 2.6V | 00:00:00 | 01:24:10 | 00:00:00 | |
| IW2NTF | 2026-09-04 11:58:55 | 45.31813 | 9.03817 | 127° | 51km/h | 15316m | 2.9m/s | -64.9°C | 17.4% | 0hPa | 2.6V | 08:30:00 | 01:24:04 | 00:00:00 | |
| DO3MHA-11 | 2026-09-04 11:58:45 | 45.31857 | 9.03749 | 135° | 51km/h | 15298m | 4.8m/s | -64.9°C | 17.8% | 0hPa | 2.8V | 00:00:00 | 01:23:59 | 00:00:00 | |
| IW2NTF | 2026-09-04 11:58:40 | 45.31900 | 9.03683 | 129° | 51km/h | 15277m | 4.4m/s | -64.9°C | 18.6% | 0hPa | 2.8V | 08:30:00 | 01:23:54 | 00:00:00 | |
| DO3MHA-11 | 2026-09-04 11:58:35 | 45.31940 | 9.03611 | 133° | 51km/h | 15257m | 3.4m/s | -64.9°C | 18.9% | 0hPa | 2.7V | 00:00:00 | 01:23:49 | 00:00:00 | |
| DB0UT-7 | 2026-09-04 11:58:33 | 45.31957 | 9.03585 | 135° | 47km/h | 15249m | 4.3m/s | -64.9°C | 18.3% | 0hPa | 2.6V | 00:00:00 | 01:23:47 | 00:00:00 | |
| IW2NTF | 2026-09-04 11:58:30 | 45.31983 | 9.03548 | 134° | 51km/h | 15236m | 4.7m/s | -65°C | 18.3% | 0hPa | 2.6V | 08:30:00 | 01:23:44 | 00:00:00 | |
| DO3MHA-11 | 2026-09-04 11:58:25 | 45.32028 | 9.03482 | 133° | 47km/h | 15215m | 4.8m/s | -65.2°C | 20.1% | 0hPa | 2.8V | 00:00:00 | 01:23:39 | 00:00:00 | |
| IW2NTF | 2026-09-04 11:58:20 | 45.32069 | 9.03419 | 134° | 46km/h | 15194m | 4.6m/s | -65.5°C | 21.7% | 0hPa | 2.8V | 08:30:00 | 01:23:34 | 00:00:00 | |
| DO3MHA-11 | 2026-09-04 11:58:15 | 45.32114 | 9.03362 | 140° | 47km/h | 15173m | 4.2m/s | -65.6°C | 22.0% | 0hPa | 2.8V | 00:00:00 | 01:23:29 | 00:00:00 | |
| IW2NTF | 2026-09-04 11:58:10 | 45.32175 | 9.03276 | 131° | 47km/h | 15143m | 3.6m/s | -65.6°C | 22.1% | 0hPa | 2.8V | 08:30:00 | 01:23:22 | 00:00:00 | |
| DO3MHA-11 | 2026-09-04 11:58:05 | 45.32199 | 9.03240 | 138° | 49km/h | 15131m | 4.1m/s | -65.5°C | 22.6% | 0hPa | 2.6V | 00:00:00 | 01:23:19 | 00:00:00 | |
| DB0UT-7 | 2026-09-04 11:58:03 | 45.32216 | 9.03219 | 139° | 49km/h | 15122m | 4.5m/s | -65.5°C | 22.8% | 0hPa | 2.7V | 00:00:00 | 00:00:00 | 00:00:00 | |
| IW2NTF | 2026-09-04 11:58:00 | 45.32255 | 9.03175 | 142° | 53km/h | 15104m | 4.8m/s | -65.7°C | 24.5% | 0hPa | 2.6V | 08:30:00 | 01:23:13 | 00:00:00 | |
| DO3MHA-11 | 2026-09-04 11:57:55 | 45.32298 | 9.03126 | 144° | 47km/h | 15087m | 4.4m/s | -65.6°C | 25.2% | 0hPa | 2.6V | 00:00:00 | 01:23:09 | 00:00:00 | |
| IW2NTF | 2026-09-04 11:57:50 | 45.32363 | 9.03050 | 137° | 44km/h | 15056m | 4m/s | -65.7°C | 25.2% | 0hPa | 2.6V | 08:30:00 | 01:23:02 | 00:00:00 | |
| DO3MHA-11 | 2026-09-04 11:57:45 | 45.32388 | 9.03016 | 139° | 47km/h | 15043m | 5.2m/s | -65.6°C | 25.6% | 0hPa | 2.8V | 00:00:00 | 01:22:59 | 00:00:00 | |
| IW2NTF | 2026-09-04 11:57:40 | 45.32450 | 9.02940 | 140° | 47km/h | 15010m | 3m/s | -65.7°C | 27% | 0hPa | 2.8V | 08:30:00 | 01:22:52 | 00:00:00 | |
| DO3MHA-11 | 2026-09-04 11:57:35 | 45.32479 | 9.02905 | 140° | 53km/h | 14998m | 3.7m/s | -65.7°C | 27.5% | 0hPa | 2.6V | 00:00:00 | 01:22:49 | 08:30:00 | |
| DB0UT-7 | 2026-09-04 11:57:33 | 45.32499 | 9.02882 | 141° | 58km/h | 14989m | 3.8m/s | -65.8°C | 28.1% | 0hPa | 2.8V | 00:00:00 | 01:22:47 | 00:00:00 | |
| IW2NTF | 2026-09-04 11:57:30 | 45.32545 | 9.02815 | 129° | 53km/h | 14964m | 5.2m/s | -66.2°C | 30% | 0hPa | 2.8V | 08:30:00 | 01:22:42 | 00:00:00 | |
| DO3MHA-11 | 2026-09-04 11:57:25 | 45.32571 | 9.02768 | 126° | 60km/h | 14950m | 5.6m/s | -66.2°C | 30.1% | 0hPa | 2.6V | 00:00:00 | 01:22:39 | 00:00:00 | |
| IW2NTF | 2026-09-04 11:57:20 | 45.32639 | 9.02649 | 129° | 62km/h | 14916m | 4.7m/s | -66.3°C | 30% | 0hPa | 2.6V | 08:30:00 | 01:22:32 | 00:00:00 | |
| DO3MHA-11 | 2026-09-04 11:57:15 | 45.32669 | 9.02600 | 131° | 60km/h | 14903m | 5.2m/s | -66.3°C | 29.6% | 0hPa | 2.6V | 00:00:00 | 01:22:29 | 00:00:00 | |
| IW2NTF | 2026-09-04 11:57:12 | 45.32745 | 9.02495 | 136° | 66km/h | 14871m | 4.6m/s | -66.2°C | 29.7% | 0hPa | 2.6V | 08:30:00 | 01:22:22 | 00:00:00 | |
| DO3MHA-11 | 2026-09-04 11:57:05 | 45.32780 | 9.02448 | 139° | 66km/h | 14859m | 4.5m/s | -66.1°C | 30.8% | 0hPa | 2.7V | 00:00:00 | 01:22:19 | 00:00:00 | |
| DB0UT-7 | 2026-09-04 11:57:03 | 45.32805 | 9.02418 | 139° | 68km/h | 14850m | 4.9m/s | -66.2°C | 31.2% | 0hPa | 2.6V | 00:00:00 | 00:00:00 | 00:00:00 | |
| IW2NTF | 2026-09-04 11:57:01 | 45.32881 | 9.02329 | 140° | 69km/h | 14821m | 4.5m/s | -66.3°C | 32.2% | 0hPa | 2.6V | 08:30:00 | 01:22:11 | 00:00:00 | |
| DO3MHA-11 | 2026-09-04 11:56:55 | 45.32908 | 9.02297 | 142° | 69km/h | 14813m | 4.9m/s | -66.4°C | 32.3% | 0hPa | 2.8V | 00:00:00 | 01:22:09 | 00:00:00 | |
| IW2NTF | 2026-09-04 11:56:51 | 45.33012 | 9.02167 | 136° | 73km/h | 14779m | 5.4m/s | -66.5°C | 33% | 0hPa | 2.8V | 08:30:00 | 01:22:01 | 00:00:00 | |
| DO3MHA-11 | 2026-09-04 11:56:45 | 45.33038 | 9.02130 | 135° | 68km/h | 14770m | 4.2m/s | -66.4°C | 33.9% | 0hPa | 2.8V | 00:00:00 | 01:21:59 | 00:00:00 | |
| IW2NTF | 2026-09-04 11:56:40 | 45.33127 | 9.01983 | 130° | 68km/h | 14735m | 3.8m/s | -66.2°C | 33.9% | 0hPa | 2.8V | 08:30:00 | 01:21:51 | 00:00:00 | |
| DO3MHA-11 | 2026-09-04 11:56:35 | 45.33149 | 9.01945 | 130° | 66km/h | 14726m | 3.8m/s | -66.1°C | 33.1% | 0hPa | 2.6V | 00:00:00 | 01:21:49 | 00:00:00 | |
| DB0UT-7 | 2026-09-04 11:56:33 | 45.33173 | 9.01906 | 132° | 60km/h | 14717m | 5.6m/s | -66.1°C | 32.7% | 0hPa | 2.6V | 00:00:00 | 01:21:47 | 08:30:00 | |
| IW2NTF | 2026-09-04 11:56:31 | 45.33237 | 9.01794 | 125° | 60km/h | 14692m | 5m/s | -66°C | 34.4% | 0hPa | 2.6V | 08:30:00 | 01:21:41 | 00:00:00 | |
| DO3MHA-11 | 2026-09-04 11:56:25 | 45.33254 | 9.01761 | 129° | 60km/h | 14684m | 3.1m/s | -65.8°C | 34.5% | 0hPa | 2.6V | 00:00:00 | 01:21:39 | 00:00:00 | |
| IW2NTF | 2026-09-04 11:56:21 | 45.33333 | 9.01625 | 128° | 60km/h | 14649m | 5.3m/s | -65.8°C | 35% | 0hPa | 2.6V | 08:30:00 | 01:21:31 | 00:00:00 | |
| DO3MHA-11 | 2026-09-04 11:56:15 | 45.33351 | 9.01591 | 127° | 55km/h | 14640m | 4.2m/s | -65.7°C | 35.3% | 0hPa | 2.6V | 00:00:00 | 01:21:29 | 00:00:00 | |
| IW2NTF | 2026-09-04 11:56:12 | 45.33417 | 9.01463 | 125° | 51km/h | 14606m | 3.4m/s | -65.8°C | 36.7% | 0hPa | 2.6V | 08:30:00 | 01:21:21 | 00:00:00 | |
| DO3MHA-11 | 2026-09-04 11:56:05 | 45.33432 | 9.01431 | 123° | 49km/h | 14598m | 4.3m/s | -65.7°C | 37.1% | 0hPa | 2.7V | 00:00:00 | 01:21:19 | 08:30:00 | |
| DB0UT-7 | 2026-09-04 11:56:03 | 45.33447 | 9.01398 | 125° | 49km/h | 14591m | 3.7m/s | -65.6°C | 36.9% | 0hPa | 2.6V | 00:00:00 | 00:00:00 | 00:00:00 | |
| IW2NTF | 2026-09-04 11:56:01 | 45.33493 | 9.01296 | 119° | 46km/h | 14563m | 4.5m/s | -65.9°C | 37.9% | 0hPa | 2.6V | 08:30:00 | 01:21:10 | 00:00:00 | |
| DO3MHA-11 | 2026-09-04 11:55:55 | 45.33499 | 9.01282 | 121° | 49km/h | 14559m | 4.1m/s | -65.9°C | 38.6% | 0hPa | 2.6V | 00:00:00 | 01:21:09 | 00:00:00 | |
| IW2NTF | 2026-09-04 11:55:46 | 45.33552 | 9.01142 | 115° | 49km/h | 14523m | 4.4m/s | -66.2°C | 42.9% | 0hPa | 2.6V | 08:30:00 | 01:21:00 | 00:00:00 | |
| DO3MHA-11 | 2026-09-04 11:55:45 | 45.33557 | 9.01127 | 117° | 47km/h | 14519m | 4.3m/s | -66.4°C | 43.9% | 0hPa | 2.8V | 00:00:00 | 01:20:59 | 00:00:00 | |
| IW2NTF | 2026-09-04 11:55:38 | 45.33616 | 9.00937 | 116° | 49km/h | 14471m | 3.4m/s | -67°C | 51.1% | 0hPa | 2.8V | 08:30:00 | 01:20:47 | 00:00:00 | |
| DO3MHA-11 | 2026-09-04 11:55:35 | 45.33605 | 9.00969 | 115° | 49km/h | 14479m | 4.8m/s | -66.9°C | 50.0% | 0hPa | 2.6V | 00:00:00 | 01:20:49 | 00:00:00 | |
| DB0UT-7 | 2026-09-04 11:55:33 | 45.33616 | 9.00937 | 117° | 46km/h | 14471m | 3.4m/s | -67.0°C | 51.1% | 0hPa | 2.6V | 00:00:00 | 01:20:47 | 00:00:00 | |
| DO3MHA-11 | 2026-09-04 11:55:25 | 45.33660 | 9.00813 | 120° | 46km/h | 14438m | 3.3m/s | -67.1°C | 53.9% | 0hPa | 2.6V | 00:00:00 | 01:20:39 | 00:00:00 | |
| IW2NTF | 2026-09-04 11:55:23 | 45.33683 | 9.00756 | 118° | 46km/h | 14420m | 3.7m/s | -67.2°C | 54% | 0hPa | 2.6V | 08:30:00 | 01:20:35 | 00:00:00 | |
| DO3MHA-11 | 2026-09-04 11:55:15 | 45.33719 | 9.00674 | 127° | 44km/h | 14397m | 3.9m/s | -67.1°C | 54.1% | 0hPa | 2.6V | 00:00:00 | 01:20:29 | 00:00:00 | |
| IW2NTF | 2026-09-04 11:55:11 | 45.33747 | 9.00625 | 128° | 46km/h | 14379m | 4m/s | -67.1°C | 55.6% | 0hPa | 2.6V | 08:30:00 | 01:20:25 | 00:00:00 | |
| IW2NTF | 2026-09-04 11:55:06 | 45.33817 | 9.00503 | 126° | 44km/h | 14340m | 3.7m/s | -67.8°C | 55.4% | 0hPa | 2.6V | 08:30:00 | 01:20:15 | 00:00:00 | |
| DO3MHA-11 | 2026-09-04 11:55:05 | 45.33789 | 9.00554 | 130° | 46km/h | 14356m | 4.4m/s | -67.6°C | 58.1% | 0hPa | 2.6V | 00:00:00 | 01:20:19 | 00:00:00 | |
| DB0UT-7 | 2026-09-04 11:55:03 | 45.33803 | 9.00529 | 129° | 53km/h | 14349m | 3.9m/s | -67.7°C | 56.7% | 0hPa | 2.7V | 00:00:00 | 00:00:00 | 00:00:00 | |
| DO3MHA-11 | 2026-09-04 11:54:55 | 45.33859 | 9.00420 | 130° | 55km/h | 14315m | 4.8m/s | -67.8°C | 55.0% | 0hPa | 2.8V | 00:00:00 | 01:20:09 | 00:00:00 | |
| IW2NTF | 2026-09-04 11:54:51 | 45.33897 | 9.00367 | 138° | 55km/h | 14297m | 3.6m/s | -68°C | 57.8% | 0hPa | 2.8V | 08:30:00 | 01:20:05 | 00:00:00 | |
| DO3MHA-11 | 2026-09-04 11:54:45 | 45.33954 | 9.00280 | 131° | 55km/h | 14272m | 4.7m/s | -67.7°C | 57.4% | 0hPa | 2.8V | 00:00:00 | 01:19:59 | 00:00:00 | |
| IW2NTF | 2026-09-04 11:54:43 | 45.33991 | 9.00223 | 134° | 53km/h | 14255m | 4.5m/s | -67.6°C | 57.2% | 0hPa | 2.8V | 08:30:00 | 01:19:55 | 00:00:00 | |
| DO3MHA-11 | 2026-09-04 11:54:35 | 45.34049 | 9.00140 | 139° | 57km/h | 14225m | 4.6m/s | -67.4°C | 56.0% | 0hPa | 2.7V | 00:00:00 | 01:19:49 | 08:30:00 | |
| IW2NTF | 2026-09-04 11:54:31 | 45.34089 | 9.00085 | 137° | 57km/h | 14206m | 5.6m/s | -67.3°C | 55.6% | 0hPa | 2.8V | 08:30:00 | 01:19:45 | 00:00:00 | |
| DO3MHA-11 | 2026-09-04 11:54:25 | 45.34148 | 8.99991 | 127° | 62km/h | 14178m | 4.2m/s | -67.2°C | 54.9% | 0hPa | 2.6V | 00:00:00 | 01:19:39 | 00:00:00 | |
| IW2NTF | 2026-09-04 11:54:21 | 45.34187 | 8.99925 | 130° | 62km/h | 14159m | 5.1m/s | -67.1°C | 52.8% | 0hPa | 2.6V | 08:30:00 | 01:19:35 | 00:00:00 | |
| DO3MHA-11 | 2026-09-04 11:54:15 | 45.34248 | 8.99816 | 126° | 66km/h | 14132m | 4.3m/s | -67.0°C | 53.7% | 0hPa | 2.6V | 00:00:00 | 01:19:29 | 00:00:00 | |
| IW2NTF | 2026-09-04 11:54:11 | 45.34288 | 8.99738 | 127° | 68km/h | 14115m | 3.7m/s | -67.3°C | 52.9% | 0hPa | 2.6V | 08:30:00 | 01:19:25 | 00:00:00 | |
| DO3MHA-11 | 2026-09-04 11:54:05 | 45.34347 | 8.99627 | 127° | 62km/h | 14090m | 4.4m/s | -67.4°C | 52.6% | 0hPa | 2.6V | 00:00:00 | 01:19:19 | 00:00:00 | |
| IW2NTF | 2026-09-04 11:54:01 | 45.34382 | 8.99554 | 126° | 60km/h | 14074m | 4.2m/s | -67.3°C | 53.8% | 0hPa | 2.6V | 08:30:00 | 01:19:15 | 00:00:00 | |
| DO3MHA-11 | 2026-09-04 11:53:55 | 45.34440 | 8.99450 | 131° | 58km/h | 14049m | 4.1m/s | -67.2°C | 52.5% | 0hPa | 2.8V | 00:00:00 | 01:19:09 | 00:00:00 | |
| IW2NTF | 2026-09-04 11:53:52 | 45.34478 | 8.99383 | 130° | 58km/h | 14031m | 4.9m/s | -67.1°C | 52.9% | 0hPa | 2.8V | 08:30:00 | 01:19:05 | 00:00:00 | |
| DO3MHA-11 | 2026-09-04 11:53:45 | 45.34536 | 8.99292 | 135° | 57km/h | 14004m | 4.0m/s | -67.0°C | 51.6% | 0hPa | 2.6V | 00:00:00 | 01:18:59 | 00:00:00 | |
| IW2NTF | 2026-09-04 11:53:41 | 45.34574 | 8.99232 | 130° | 57km/h | 13988m | 4.8m/s | -67°C | 52.1% | 0hPa | 2.6V | 08:30:00 | 01:18:55 | 00:00:00 | |
| DO3MHA-11 | 2026-09-04 11:53:35 | 45.34629 | 8.99135 | 131° | 57km/h | 13961m | 3.9m/s | -66.8°C | 55.0% | 0hPa | 2.6V | 00:00:00 | 01:18:49 | 00:00:00 | |
| IW2NTF | 2026-09-04 11:53:31 | 45.34669 | 8.99072 | 133° | 57km/h | 13944m | 4.9m/s | -67°C | 54.1% | 0hPa | 2.8V | 08:30:00 | 01:18:45 | 00:00:00 | |
| DO3MHA-11 | 2026-09-04 11:53:25 | 45.34727 | 8.98984 | 134° | 55km/h | 13919m | 3.9m/s | -66.8°C | 51.6% | 0hPa | 2.8V | 00:00:00 | 01:18:39 | 00:00:00 | |
| IW2NTF | 2026-09-04 11:53:21 | 45.34764 | 8.98927 | 134° | 55km/h | 13902m | 4.5m/s | -66.7°C | 52.5% | 0hPa | 2.8V | 08:30:00 | 01:18:35 | 00:00:00 | |
| DO3MHA-11 | 2026-09-04 11:53:15 | 45.34823 | 8.98842 | 137° | 53km/h | 13877m | 3.5m/s | -66.4°C | 51.7% | 0hPa | 2.6V | 00:00:00 | 01:18:29 | 00:00:00 | |
| IW2NTF | 2026-09-04 11:53:11 | 45.34862 | 8.98789 | 138° | 51km/h | 13859m | 4.1m/s | -66.5°C | 52.6% | 0hPa | 2.6V | 08:30:00 | 01:18:25 | 00:00:00 | |
| IW2NTF | 2026-09-04 11:53:06 | 45.34963 | 8.98658 | 136° | 53km/h | 13818m | 5.1m/s | -66.3°C | 51.7% | 0hPa | 2.8V | 08:30:00 | 01:18:15 | 00:00:00 | |
| DO3MHA-11 | 2026-09-04 11:53:05 | 45.34923 | 8.98711 | 140° | 53km/h | 13835m | 4.0m/s | -66.3°C | 52.6% | 0hPa | 2.6V | 00:00:00 | 01:18:19 | 08:30:00 | |
| DB0UT-7 | 2026-09-04 11:53:03 | 45.34943 | 8.98684 | 137° | 53km/h | 13826m | 4.1m/s | -66.3°C | 52.2% | 0hPa | 2.8V | 00:00:00 | 00:00:00 | 00:00:00 | |
| DO3MHA-11 | 2026-09-04 11:52:55 | 45.35022 | 8.98582 | 142° | 51km/h | 13793m | 4.0m/s | -66.1°C | 52.2% | 0hPa | 2.8V | 00:00:00 | 01:18:09 | 00:00:00 | |
| IW2NTF | 2026-09-04 11:52:51 | 45.35062 | 8.98536 | 140° | 51km/h | 13776m | 3.7m/s | -66°C | 52.5% | 0hPa | 2.8V | 08:30:00 | 01:18:05 | 00:00:00 | |
| IW2NTF | 2026-09-04 11:52:46 | 45.35165 | 8.98423 | 141° | 53km/h | 13733m | 3.8m/s | -65.6°C | 50.1% | 0hPa | 2.6V | 08:30:00 | 01:17:55 | 00:00:00 | |
| DO3MHA-11 | 2026-09-04 11:52:45 | 45.35123 | 8.98468 | 144° | 53km/h | 13751m | 4.9m/s | -65.7°C | 49.3% | 0hPa | 2.8V | 00:00:00 | 01:17:59 | 00:00:00 | |
| IW2NTF | 2026-09-04 11:52:31 | 45.35277 | 8.98311 | 143° | 53km/h | 13690m | 3.1m/s | -65.3°C | 51.3% | 0hPa | 2.8V | 08:30:00 | 01:17:45 | 00:00:00 | |
| IW2NTF | 2026-09-04 11:52:26 | 45.35384 | 8.98201 | 142° | 55km/h | 13648m | 3.5m/s | -65°C | 49.7% | 0hPa | 2.8V | 08:30:00 | 01:17:35 | 00:00:00 | |
| DO3MHA-11 | 2026-09-04 11:52:25 | 45.35340 | 8.98245 | 144° | 55km/h | 13665m | 5.1m/s | 0°C | 0% | 0hPa | 2.7V | 00:00:00 | 01:17:39 | 00:00:00 | |
| DO3MHA-11 | 2026-09-04 11:52:15 | 45.35454 | 8.98129 | 144° | 58km/h | 13625m | 3.5m/s | 0°C | 0% | 0hPa | 2.7V | 00:00:00 | 01:17:29 | 00:00:00 | |
| IW2NTF | 2026-09-04 11:52:11 | 45.35502 | 8.98082 | 143° | 58km/h | 13607m | 4.4m/s | -64.5°C | 49.9% | 0hPa | 2.7V | 08:30:00 | 01:17:25 | 00:00:00 | |
| IW2NTF | 2026-09-04 11:52:06 | 45.35621 | 8.97953 | 142° | 60km/h | 13562m | 4.2m/s | -64.8°C | 52.1% | 0hPa | 2.8V | 08:30:00 | 01:17:15 | 00:00:00 | |
| DO3MHA-11 | 2026-09-04 11:52:05 | 45.35573 | 8.98005 | 143° | 62km/h | 13580m | 4.3m/s | 0°C | 0% | 0hPa | 2.7V | 00:00:00 | 01:17:19 | 00:00:00 | |
| DB0UT-7 | 2026-09-04 11:52:03 | 45.35597 | 8.97979 | 144° | 64km/h | 13572m | 4.3m/s | -64.7°C | 51.8% | 0hPa | 2.7V | 00:00:00 | 00:00:00 | 08:30:00 | |
| IW2NTF | 2026-09-04 11:51:56 | 45.35749 | 8.97805 | 137° | 68km/h | 13519m | 3.2m/s | -64.6°C | 50.7% | 0hPa | 2.7V | 08:30:00 | 01:17:05 | 00:00:00 | |
| DO3MHA-11 | 2026-09-04 11:51:55 | 45.35697 | 8.97869 | 140° | 66km/h | 13537m | 4.2m/s | 0°C | 0% | 0hPa | 2.6V | 00:00:00 | 01:17:09 | 00:00:00 | |
| DO3MHA-11 | 2026-09-04 11:51:45 | 45.35823 | 8.97718 | 142° | 60km/h | 13493m | 5.0m/s | 0°C | 0% | 0hPa | 2.6V | 00:00:00 | 01:16:59 | 00:00:00 | |
| IW2NTF | 2026-09-04 11:51:41 | 45.35873 | 8.97661 | 141° | 62km/h | 13476m | 4.1m/s | -64.4°C | 52.3% | 0hPa | 2.6V | 08:30:00 | 01:16:55 | 00:00:00 | |
| IW2NTF | 2026-09-04 11:51:36 | 45.35999 | 8.97522 | 141° | 60km/h | 13433m | 4m/s | -64.1°C | 51% | 0hPa | 2.8V | 08:30:00 | 01:16:45 | 00:00:00 | |
| DB0UT-7 | 2026-09-04 11:51:33 | 45.35974 | 8.97550 | 143° | 60km/h | 13441m | 3.6m/s | -64.1°C | 51.5% | 0hPa | 2.7V | 00:00:00 | 01:16:47 | 00:00:00 | |
| IW2NTF | 2026-09-04 11:51:21 | 45.36119 | 8.97381 | 140° | 62km/h | 13390m | 5.2m/s | -63.7°C | 50.4% | 0hPa | 2.7V | 08:30:00 | 01:16:35 | 00:00:00 | |
| IW2NTF | 2026-09-04 11:51:16 | 45.36239 | 8.97259 | 144° | 58km/h | 13348m | 3.7m/s | -63.4°C | 50.9% | 0hPa | 2.7V | 08:30:00 | 01:16:25 | 00:00:00 | |
| DO3MHA-11 | 2026-09-04 11:51:09 | 45.36262 | 8.97233 | 141° | 58km/h | 13339m | 4.2m/s | 0°C | 0% | 0hPa | 2.8V | 00:00:00 | 01:16:23 | 00:00:00 | |
| IW2NTF | 2026-09-04 11:51:01 | 45.36360 | 8.97132 | 146° | 58km/h | 13306m | 4.4m/s | -63.1°C | 49.6% | 0hPa | 2.8V | 08:30:00 | 01:16:15 | 00:00:00 | |
| IW2NTF | 2026-09-04 11:50:56 | 45.36477 | 8.97016 | 146° | 57km/h | 13265m | 4m/s | -63°C | 51.6% | 0hPa | 2.8V | 08:30:00 | 01:16:05 | 00:00:00 | |
| IW2NTF | 2026-09-04 11:50:42 | 45.36591 | 8.96904 | 147° | 53km/h | 13225m | 4.6m/s | -63°C | 50% | 0hPa | 2.8V | 08:30:00 | 01:15:55 | 00:00:00 | |
| IW2NTF | 2026-09-04 11:50:31 | 45.36708 | 8.96796 | 145° | 57km/h | 13184m | 4.5m/s | -62.6°C | 51.1% | 0hPa | 2.8V | 08:30:00 | 01:15:45 | 00:00:00 | |
| IW2NTF | 2026-09-04 11:50:21 | 45.36826 | 8.96683 | 143° | 55km/h | 13144m | 3.5m/s | -62.4°C | 50.8% | 0hPa | 2.8V | 08:30:00 | 01:15:35 | 00:00:00 | |
| IW2NTF | 2026-09-04 11:50:11 | 45.36963 | 8.96562 | 148° | 58km/h | 13098m | 4.9m/s | -62°C | 49.8% | 0hPa | 2.8V | 08:30:00 | 01:15:24 | 00:00:00 | |
| DB0UT-7 | 2026-09-04 11:50:03 | 45.37051 | 8.96477 | 146° | 60km/h | 13069m | 3.8m/s | -61.8°C | 49.0% | 0hPa | 2.8V | 00:00:00 | 00:00:00 | 00:00:00 | |
| IW2NTF | 2026-09-04 11:50:01 | 45.37089 | 8.96442 | 148° | 60km/h | 13057m | 4.2m/s | -61.7°C | 47.7% | 0hPa | 2.8V | 08:30:00 | 01:15:14 | 00:00:00 | |
| IW2NTF | 2026-09-04 11:49:51 | 45.37218 | 8.96327 | 145° | 60km/h | 13017m | 3.5m/s | -61.3°C | 49.2% | 0hPa | 2.8V | 08:30:00 | 01:15:04 | 00:00:00 | |
| IW2NTF | 2026-09-04 11:49:41 | 45.37351 | 8.96219 | 151° | 58km/h | 12977m | 4.1m/s | -61.2°C | 47.8% | 0hPa | 2.7V | 08:30:00 | 01:14:54 | 00:00:00 | |
| DB0UT-7 | 2026-09-04 11:49:33 | 45.37445 | 8.96136 | 149° | 60km/h | 12949m | 4.6m/s | -60.9°C | 49.2% | 0hPa | 2.8V | 00:00:00 | 01:14:47 | 00:00:00 | |
| IW2NTF | 2026-09-04 11:49:31 | 45.37487 | 8.96101 | 148° | 62km/h | 12936m | 4.5m/s | -61°C | 48.5% | 0hPa | 2.8V | 08:30:00 | 01:14:44 | 00:00:00 | |
| IW2NTF | 2026-09-04 11:49:21 | 45.37619 | 8.95982 | 147° | 66km/h | 12897m | 4.1m/s | -60.7°C | 46.2% | 0hPa | 2.8V | 08:30:00 | 01:14:34 | 00:00:00 | |
| IW2NTF | 2026-09-04 11:49:11 | 45.37751 | 8.95870 | 151° | 58km/h | 12855m | 3.8m/s | -60.4°C | 46.8% | 0hPa | 2.7V | 08:30:00 | 01:14:24 | 00:00:00 | |
| IW2NTF | 2026-09-04 11:49:01 | 45.37884 | 8.95761 | 151° | 57km/h | 12814m | 4.4m/s | -60°C | 44.2% | 0hPa | 2.7V | 08:30:00 | 01:14:14 | 00:00:00 | |
| IW2NTF | 2026-09-04 11:48:51 | 45.38030 | 8.95653 | 152° | 60km/h | 12769m | 3.9m/s | -59.5°C | 43.1% | 0hPa | 2.8V | 08:30:00 | 01:14:03 | 00:00:00 | |
| IW2NTF | 2026-09-04 11:48:41 | 45.38166 | 8.95549 | 149° | 60km/h | 12730m | 4.4m/s | -59.2°C | 41.9% | 0hPa | 2.7V | 08:30:00 | 01:13:53 | 00:00:00 | |
| DB0UT-7 | 2026-09-04 11:48:40 | 45.38153 | 8.95559 | 153° | 58km/h | 12734m | 3.5m/s | -59.2°C | 42.0% | 0hPa | 2.7V | 00:00:00 | 00:00:00 | 00:00:00 | |
| IW2NTF | 2026-09-04 11:48:31 | 45.38297 | 8.95447 | 157° | 60km/h | 12689m | 3.5m/s | -58.8°C | 39.8% | 0hPa | 2.8V | 08:30:00 | 01:13:43 | 00:00:00 | |
| IW2NTF | 2026-09-04 11:48:21 | 45.38432 | 8.95341 | 150° | 55km/h | 12650m | 5.1m/s | -58.4°C | 40.8% | 0hPa | 2.7V | 08:30:00 | 01:13:33 | 00:00:00 | |
| IW2NTF | 2026-09-04 11:48:11 | 45.38560 | 8.95238 | 146° | 62km/h | 12606m | 3.3m/s | -58.1°C | 40.1% | 0hPa | 2.8V | 08:30:00 | 01:13:23 | 00:00:00 | |
| DB0UT-7 | 2026-09-04 11:48:10 | 45.38547 | 8.95250 | 147° | 57km/h | 12610m | 4.6m/s | 0°C | 0% | 0hPa | 2.7V | 00:00:00 | 01:13:24 | 00:00:00 | |
| IW2NTF | 2026-09-04 11:48:01 | 45.38687 | 8.95143 | 157° | 53km/h | 12566m | 3.8m/s | -58°C | 42.3% | 0hPa | 2.7V | 08:30:00 | 01:13:13 | 00:00:00 | |
| IW2NTF | 2026-09-04 11:47:52 | 45.38842 | 8.95037 | 152° | 51km/h | 12520m | 4.5m/s | -57.7°C | 43.9% | 0hPa | 2.8V | 08:30:00 | 01:13:01 | 00:00:00 | |
| IW2NTF | 2026-09-04 11:47:41 | 45.38960 | 8.94941 | 151° | 57km/h | 12481m | 4.3m/s | -57.6°C | 43.8% | 0hPa | 2.7V | 08:30:00 | 01:12:51 | 00:00:00 | |
| IW2NTF | 2026-09-04 11:47:31 | 45.39076 | 8.94851 | 155° | 47km/h | 12442m | 4.8m/s | -57.4°C | 42.8% | 0hPa | 2.7V | 08:30:00 | 01:12:41 | 00:00:00 | |
| IW2NTF | 2026-09-04 11:47:20 | 45.39217 | 8.94750 | 152° | 51km/h | 12396m | 4.2m/s | -57°C | 43.1% | 0hPa | 2.7V | 08:30:00 | 01:12:29 | 00:00:00 | |
| IW2NTF | 2026-09-04 11:47:12 | 45.39338 | 8.94658 | 149° | 53km/h | 12358m | 4m/s | -56.7°C | 41.2% | 0hPa | 2.8V | 08:30:00 | 01:12:19 | 00:00:00 | |
| DB0UT-7 | 2026-09-04 11:47:06 | 45.39326 | 8.94668 | 151° | 51km/h | 12362m | 4.3m/s | 0°C | 0% | 0hPa | 2.8V | 00:00:00 | 00:00:00 | 00:00:00 | |
| IW2NTF | 2026-09-04 11:47:00 | 45.39454 | 8.94568 | 152° | 53km/h | 12318m | 4.5m/s | -56.3°C | 40.2% | 0hPa | 2.8V | 08:30:00 | 01:12:09 | 00:00:00 | |
| IW2NTF | 2026-09-04 11:46:50 | 45.39563 | 8.94481 | 150° | 49km/h | 12278m | 4m/s | -56°C | 38.9% | 0hPa | 2.8V | 08:30:00 | 01:11:59 | 00:00:00 | |
| IW2NTF | 2026-09-04 11:46:40 | 45.39676 | 8.94393 | 150° | 47km/h | 12238m | 4m/s | -55.7°C | 39.4% | 0hPa | 2.8V | 08:30:00 | 01:11:49 | 00:00:00 | |
| DB0UT-7 | 2026-09-04 11:46:36 | 45.39665 | 8.94401 | 151° | 49km/h | 12243m | 4.2m/s | 0°C | 0% | 0hPa | 2.8V | 00:00:00 | 01:11:50 | 00:00:00 | |
| IW2NTF | 2026-09-04 11:46:30 | 45.39783 | 8.94301 | 150° | 51km/h | 12197m | 3.2m/s | -55.5°C | 40.2% | 0hPa | 2.8V | 08:30:00 | 01:11:39 | 00:00:00 | |
| IW2NTF | 2026-09-04 11:46:18 | 45.39913 | 8.94179 | 147° | 57km/h | 12147m | 4.1m/s | -55°C | 39.8% | 0hPa | 2.8V | 08:30:00 | 01:11:27 | 00:00:00 | |
| IW2NTF | 2026-09-04 11:46:04 | 45.40022 | 8.94071 | 142° | 53km/h | 12107m | 4.7m/s | -54.6°C | 39.2% | 0hPa | 2.8V | 08:30:00 | 01:11:17 | 00:00:00 | |
| IW2NTF | 2026-09-04 11:45:58 | 45.40134 | 8.93956 | 142° | 53km/h | 12064m | 4.8m/s | -54.2°C | 37.5% | 0hPa | 2.8V | 08:30:00 | 01:11:07 | 00:00:00 | |
| IW2NTF | 2026-09-04 11:45:44 | 45.40250 | 8.93839 | 140° | 55km/h | 12022m | 4.5m/s | -53.9°C | 36.2% | 0hPa | 2.8V | 08:30:00 | 01:10:57 | 00:00:00 | |
| IW2NTF | 2026-09-04 11:45:38 | 45.40357 | 8.93722 | 144° | 58km/h | 11983m | 3.5m/s | -53.5°C | 32.1% | 0hPa | 2.8V | 08:30:00 | 01:10:47 | 00:00:00 | |
| IW2NTF | 2026-09-04 11:45:25 | 45.40475 | 8.93593 | 140° | 57km/h | 11944m | 4.1m/s | -53.2°C | 31.8% | 0hPa | 2.7V | 08:30:00 | 01:10:37 | 00:00:00 | |
| IW2NTF | 2026-09-04 11:45:18 | 45.40585 | 8.93460 | 141° | 60km/h | 11904m | 3.4m/s | -52.9°C | 30.8% | 0hPa | 2.8V | 08:30:00 | 01:10:27 | 00:00:00 | |
| IW2NTF | 2026-09-04 11:45:04 | 45.40700 | 8.93328 | 141° | 58km/h | 11866m | 4.1m/s | -52.5°C | 30.4% | 0hPa | 2.8V | 08:30:00 | 01:10:17 | 00:00:00 | |
| IW2NTF | 2026-09-04 11:44:58 | 45.40815 | 8.93191 | 140° | 60km/h | 11826m | 3.4m/s | -52.1°C | 30.2% | 0hPa | 2.8V | 08:30:00 | 01:10:07 | 00:00:00 | |
| IW2NTF | 2026-09-04 11:44:44 | 45.40926 | 8.93054 | 140° | 66km/h | 11787m | 4.1m/s | -51.8°C | 29.8% | 0hPa | 2.9V | 08:30:00 | 01:09:57 | 00:00:00 | |
| IW2NTF | 2026-09-04 11:44:38 | 45.41042 | 8.92912 | 139° | 58km/h | 11750m | 3.7m/s | -51.4°C | 28.8% | 0hPa | 2.9V | 08:30:00 | 01:09:47 | 00:00:00 | |
| IW2NTF | 2026-09-04 11:44:21 | 45.41208 | 8.92705 | 138° | 60km/h | 11699m | 4.6m/s | -50.9°C | 29.8% | 0hPa | 2.8V | 08:30:00 | 01:09:33 | 00:00:00 | |
| IW2NTF | 2026-09-04 11:44:11 | 45.41326 | 8.92558 | 134° | 62km/h | 11661m | 4.8m/s | -50.7°C | 30.4% | 0hPa | 2.9V | 08:30:00 | 01:09:23 | 00:00:00 | |
| IW2NTF | 2026-09-04 11:44:01 | 45.41439 | 8.92416 | 141° | 60km/h | 11626m | 3m/s | -50.4°C | 29.2% | 0hPa | 2.7V | 08:30:00 | 01:09:13 | 00:00:00 | |
| IW2NTF | 2026-09-04 11:43:51 | 45.41554 | 8.92271 | 140° | 58km/h | 11589m | 2.6m/s | -50°C | 28.7% | 0hPa | 2.7V | 08:30:00 | 01:09:03 | 00:00:00 | |
| IW2NTF | 2026-09-04 11:43:41 | 45.41668 | 8.92134 | 141° | 64km/h | 11553m | 3.3m/s | -49.9°C | 28.5% | 0hPa | 2.8V | 08:30:00 | 01:08:53 | 00:00:00 | |
| IW2NTF | 2026-09-04 11:43:31 | 45.41782 | 8.92002 | 145° | 60km/h | 11516m | 2.9m/s | -49.6°C | 28.8% | 0hPa | 2.9V | 08:30:00 | 01:08:43 | 00:00:00 | |
| IW2NTF | 2026-09-04 11:43:21 | 45.41897 | 8.91864 | 139° | 55km/h | 11480m | 3.8m/s | -49.4°C | 28.1% | 0hPa | 2.9V | 08:30:00 | 01:08:33 | 00:00:00 | |
| IW2NTF | 2026-09-04 11:43:11 | 45.42010 | 8.91727 | 137° | 60km/h | 11444m | 4m/s | -49.1°C | 27.6% | 0hPa | 2.7V | 08:30:00 | 01:08:23 | 00:00:00 | |
| IW2NTF | 2026-09-04 11:43:01 | 45.42118 | 8.91587 | 140° | 58km/h | 11406m | 3.2m/s | -48.8°C | 27.3% | 0hPa | 2.9V | 08:30:00 | 01:08:13 | 00:00:00 | |
| IW2NTF | 2026-09-04 11:42:51 | 45.42224 | 8.91443 | 137° | 55km/h | 11368m | 3m/s | -48.5°C | 28.1% | 0hPa | 2.9V | 08:30:00 | 01:08:03 | 00:00:00 | |
| IW2NTF | 2026-09-04 11:42:41 | 45.42336 | 8.91298 | 139° | 60km/h | 11330m | 3.2m/s | -48.3°C | 28.5% | 0hPa | 2.9V | 08:30:00 | 01:07:53 | 00:00:00 | |
| IW2NTF | 2026-09-04 11:42:31 | 45.42445 | 8.91157 | 136° | 60km/h | 11295m | 4.1m/s | -48.1°C | 28.1% | 0hPa | 2.7V | 08:30:00 | 01:07:43 | 00:00:00 | |
| IW2NTF | 2026-09-04 11:42:21 | 45.42557 | 8.91018 | 134° | 62km/h | 11257m | 3.3m/s | -47.7°C | 27.5% | 0hPa | 2.9V | 08:30:00 | 01:07:33 | 00:00:00 | |
| IW2NTF | 2026-09-04 11:42:11 | 45.42680 | 8.90854 | 135° | 58km/h | 11216m | 3.8m/s | -47.3°C | 26.8% | 0hPa | 2.9V | 08:30:00 | 01:07:22 | 00:00:00 | |
| IW2NTF | 2026-09-04 11:42:01 | 45.42788 | 8.90703 | 134° | 58km/h | 11179m | 3.7m/s | -47.1°C | 25.8% | 0hPa | 2.9V | 08:30:00 | 01:07:12 | 00:00:00 | |
| IW2NTF | 2026-09-04 11:41:51 | 45.42898 | 8.90545 | 137° | 62km/h | 11143m | 3.4m/s | -46.7°C | 25.3% | 0hPa | 2.7V | 08:30:00 | 01:07:02 | 00:00:00 | |
| IW2NTF | 2026-09-04 11:41:41 | 45.43006 | 8.90387 | 133° | 62km/h | 11105m | 4.1m/s | -46.3°C | 24.5% | 0hPa | 2.9V | 08:30:00 | 01:06:52 | 00:00:00 | |
| IW2NTF | 2026-09-04 11:41:31 | 45.43114 | 8.90230 | 135° | 64km/h | 11068m | 4.3m/s | -46°C | 24.4% | 0hPa | 2.9V | 08:30:00 | 01:06:42 | 00:00:00 | |
| IW2NTF | 2026-09-04 11:41:21 | 45.43229 | 8.90072 | 137° | 64km/h | 11029m | 4.6m/s | -45.7°C | 23.2% | 0hPa | 2.9V | 08:30:00 | 01:06:32 | 00:00:00 | |
| IW2NTF | 2026-09-04 11:41:11 | 45.43339 | 8.89909 | 132° | 60km/h | 10990m | 3.4m/s | -45.3°C | 23.8% | 0hPa | 2.9V | 08:30:00 | 01:06:22 | 00:00:00 | |
| IW2NTF | 2026-09-04 11:41:01 | 45.43451 | 8.89758 | 133° | 64km/h | 10949m | 3.5m/s | -45°C | 22.3% | 0hPa | 2.7V | 08:30:00 | 01:06:12 | 00:00:00 | |
| IW2NTF | 2026-09-04 11:40:51 | 45.43560 | 8.89609 | 140° | 60km/h | 10909m | 3m/s | -44.6°C | 22.6% | 0hPa | 2.9V | 08:30:00 | 01:06:02 | 00:00:00 | |
| IW2NTF | 2026-09-04 11:40:41 | 45.43672 | 8.89459 | 144° | 62km/h | 10859m | 4.6m/s | -44.2°C | 21.7% | 0hPa | 2.9V | 08:30:00 | 01:05:52 | 00:00:00 | |
| IW2NTF | 2026-09-04 11:40:31 | 45.43780 | 8.89341 | 138° | 58km/h | 10807m | 4.6m/s | -43.7°C | 20.3% | 0hPa | 2.9V | 08:30:00 | 01:05:42 | 00:00:00 | |
| IW2NTF | 2026-09-04 11:40:21 | 45.43892 | 8.89216 | 141° | 57km/h | 10762m | 4.3m/s | -43.3°C | 19.7% | 0hPa | 2.9V | 08:30:00 | 01:05:32 | 00:00:00 | |
| IW2NTF | 2026-09-04 11:40:11 | 45.44000 | 8.89095 | 143° | 57km/h | 10723m | 3.7m/s | -43°C | 18.5% | 0hPa | 2.7V | 08:30:00 | 01:05:22 | 00:00:00 | |
| IW2NTF | 2026-09-04 11:39:59 | 45.44109 | 8.88972 | 141° | 55km/h | 10682m | 4.5m/s | -42.6°C | 17.9% | 0hPa | 2.9V | 08:30:00 | 01:05:12 | 00:00:00 | |
| IW2NTF | 2026-09-04 11:39:49 | 45.44217 | 8.88854 | 141° | 53km/h | 10642m | 3.3m/s | -42.3°C | 18.1% | 0hPa | 2.7V | 08:30:00 | 01:05:02 | 00:00:00 | |
| IW2NTF | 2026-09-04 11:39:39 | 45.44324 | 8.88726 | 138° | 57km/h | 10600m | 4.4m/s | -41.9°C | 17.3% | 0hPa | 2.9V | 08:30:00 | 01:04:52 | 00:00:00 | |
| IW2NTF | 2026-09-04 11:39:29 | 45.44432 | 8.88600 | 142° | 55km/h | 10560m | 4.1m/s | -41.6°C | 17.7% | 0hPa | 2.7V | 08:30:00 | 01:04:42 | 00:00:00 | |
| IW2NTF | 2026-09-04 11:39:20 | 45.44538 | 8.88475 | 142° | 51km/h | 10517m | 4.8m/s | -41.3°C | 17.3% | 0hPa | 2.9V | 08:30:00 | 01:04:32 | 00:00:00 | |
| IW2NTF | 2026-09-04 11:39:09 | 45.44638 | 8.88347 | 137° | 55km/h | 10474m | 4.3m/s | -41°C | 17.1% | 0hPa | 2.7V | 08:30:00 | 01:04:22 | 00:00:00 | |
| IW2NTF | 2026-09-04 11:38:59 | 45.44753 | 8.88196 | 134° | 55km/h | 10428m | 4.5m/s | -40.7°C | 16.7% | 0hPa | 2.9V | 08:30:00 | 01:04:11 | 00:00:00 | |
| IW2NTF | 2026-09-04 11:38:49 | 45.44876 | 8.88024 | 135° | 62km/h | 10377m | 4.8m/s | -40.3°C | 16.2% | 0hPa | 2.9V | 08:30:00 | 01:03:59 | 00:00:00 | |
| IW2NTF | 2026-09-04 11:38:39 | 45.44977 | 8.87873 | 133° | 55km/h | 10335m | 2.6m/s | -39.9°C | 16.1% | 0hPa | 2.9V | 08:30:00 | 01:03:49 | 00:00:00 | |
| IW2NTF | 2026-09-04 11:38:29 | 45.45077 | 8.87728 | 131° | 57km/h | 10289m | 4.7m/s | -39.5°C | 15.4% | 0hPa | 2.7V | 08:30:00 | 01:03:39 | 00:00:00 | |
| IW2NTF | 2026-09-04 11:38:19 | 45.45183 | 8.87571 | 133° | 60km/h | 10242m | 4.9m/s | -39.1°C | 15.5% | 0hPa | 2.9V | 08:30:00 | 01:03:29 | 00:00:00 | |
| IW2NTF | 2026-09-04 11:38:09 | 45.45279 | 8.87419 | 136° | 58km/h | 10198m | 4.2m/s | -38.7°C | 15.2% | 0hPa | 2.7V | 08:30:00 | 01:03:19 | 00:00:00 | |
| IW2NTF | 2026-09-04 11:37:59 | 45.45382 | 8.87266 | 131° | 53km/h | 10153m | 4.5m/s | -38.4°C | 14.8% | 0hPa | 2.9V | 08:30:00 | 01:03:09 | 00:00:00 | |
| IW2NTF | 2026-09-04 11:37:49 | 45.45477 | 8.87116 | 130° | 60km/h | 10110m | 3.6m/s | -37.9°C | 14.6% | 0hPa | 2.9V | 08:30:00 | 01:02:59 | 00:00:00 | |
| IW2NTF | 2026-09-04 11:37:35 | 45.45588 | 8.86929 | 129° | 60km/h | 10057m | 4.7m/s | -37.6°C | 14% | 0hPa | 2.9V | 08:30:00 | 01:02:47 | 00:00:00 | |
| IW2NTF | 2026-09-04 11:37:28 | 45.45684 | 8.86777 | 132° | 58km/h | 10014m | 3.7m/s | -37.1°C | 14.1% | 0hPa | 2.9V | 08:30:00 | 01:02:37 | 00:00:00 | |
| IW2NTF | 2026-09-04 11:37:18 | 45.45778 | 8.86621 | 127° | 57km/h | 9970m | 3.8m/s | -36.8°C | 13.7% | 0hPa | 2.7V | 08:30:00 | 01:02:27 | 00:00:00 | |
| IW2NTF | 2026-09-04 11:37:08 | 45.45866 | 8.86467 | 130° | 57km/h | 9927m | 3.7m/s | -36.5°C | 13.5% | 0hPa | 2.9V | 08:30:00 | 01:02:17 | 00:00:00 | |
| IW2NTF | 2026-09-04 11:36:57 | 45.45967 | 8.86296 | 125° | 62km/h | 9880m | 4m/s | -36.1°C | 13.8% | 0hPa | 2.9V | 08:30:00 | 01:02:06 | 00:00:00 | |
| IW2NTF | 2026-09-04 11:36:47 | 45.46053 | 8.86123 | 130° | 58km/h | 9838m | 4.3m/s | -35.8°C | 14.7% | 0hPa | 2.8V | 08:30:00 | 01:01:56 | 00:00:00 | |
| IW2NTF | 2026-09-04 11:36:37 | 45.46141 | 8.85958 | 122° | 58km/h | 9795m | 3.7m/s | -35.5°C | 14.9% | 0hPa | 2.9V | 08:30:00 | 01:01:46 | 00:00:00 | |
| IW2NTF | 2026-09-04 11:36:27 | 45.46226 | 8.85779 | 122° | 58km/h | 9753m | 3.9m/s | -35.1°C | 14.4% | 0hPa | 2.9V | 08:30:00 | 01:01:36 | 00:00:00 | |
| IW2NTF | 2026-09-04 11:36:17 | 45.46309 | 8.85606 | 123° | 60km/h | 9712m | 4.4m/s | -34.9°C | 13.8% | 0hPa | 2.7V | 08:30:00 | 01:01:26 | 00:00:00 | |
| IW2NTF | 2026-09-04 11:36:07 | 45.46392 | 8.85435 | 127° | 58km/h | 9671m | 3.8m/s | -34.5°C | 13.4% | 0hPa | 2.9V | 08:30:00 | 01:01:16 | 00:00:00 | |
| IW2NTF | 2026-09-04 11:35:57 | 45.46476 | 8.85259 | 125° | 57km/h | 9629m | 3.8m/s | -34.1°C | 13.1% | 0hPa | 2.9V | 08:30:00 | 01:01:06 | 00:00:00 | |
| IW2NTF | 2026-09-04 11:35:50 | 45.46588 | 8.85022 | 124° | 57km/h | 9572m | 4.4m/s | -33.5°C | 12.7% | 0hPa | 2.9V | 08:30:00 | 01:00:52 | 00:00:00 | |
| IW2NTF | 2026-09-04 11:35:40 | 45.46634 | 8.84923 | 122° | 55km/h | 9548m | 4.3m/s | -33.3°C | 12.4% | 0hPa | 2.8V | 08:30:00 | 01:00:46 | 00:00:00 | |
| IW2NTF | 2026-09-04 11:35:28 | 45.46717 | 8.84760 | 125° | 53km/h | 9510m | 4m/s | -32.9°C | 12% | 0hPa | 2.9V | 08:30:00 | 01:00:36 | 00:00:00 | |
| IW2NTF | 2026-09-04 11:35:17 | 45.46794 | 8.84593 | 121° | 55km/h | 9473m | 3.4m/s | -32.7°C | 11.5% | 0hPa | 2.9V | 08:30:00 | 01:00:26 | 00:00:00 | |
| IW2NTF | 2026-09-04 11:35:03 | 45.46876 | 8.84427 | 123° | 55km/h | 9435m | 3.2m/s | -32.3°C | 10.9% | 0hPa | 2.8V | 08:30:00 | 01:00:16 | 00:00:00 | |
| IW2NTF | 2026-09-04 11:34:53 | 45.46959 | 8.84259 | 126° | 57km/h | 9397m | 4m/s | -32°C | 10.3% | 0hPa | 2.9V | 08:30:00 | 01:00:06 | 00:00:00 | |
| IW2NTF | 2026-09-04 11:34:43 | 45.47042 | 8.84100 | 126° | 55km/h | 9358m | 4.4m/s | -31.8°C | 10.2% | 0hPa | 2.9V | 08:30:00 | 00:59:56 | 00:00:00 | |
| IW2NTF | 2026-09-04 11:34:33 | 45.47141 | 8.83932 | 126° | 55km/h | 9315m | 3.6m/s | -31.6°C | 10.9% | 0hPa | 2.9V | 08:30:00 | 00:59:45 | 00:00:00 | |
| IW2NTF | 2026-09-04 11:34:23 | 45.47245 | 8.83762 | 133° | 51km/h | 9267m | 2.9m/s | -31.4°C | 14.3% | 0hPa | 2.9V | 08:30:00 | 00:59:33 | 00:00:00 | |
| IW2NTF | 2026-09-04 11:34:13 | 45.47324 | 8.83634 | 136° | 53km/h | 9232m | 3.5m/s | -31.1°C | 13.8% | 0hPa | 2.9V | 08:30:00 | 00:59:24 | 00:00:00 | |
| IW2NTF | 2026-09-04 11:34:04 | 45.47417 | 8.83492 | 127° | 53km/h | 9195m | 3.8m/s | -30.9°C | 14.2% | 0hPa | 2.9V | 08:30:00 | 00:59:14 | 00:00:00 | |
| IW2NTF | 2026-09-04 11:33:55 | 45.47502 | 8.83352 | 131° | 57km/h | 9154m | 4.2m/s | -30.9°C | 16.3% | 0hPa | 2.9V | 08:30:00 | 00:59:04 | 00:00:00 | |
| IW2NTF | 2026-09-04 11:33:45 | 45.47596 | 8.83191 | 130° | 57km/h | 9115m | 4.9m/s | -30.8°C | 18.5% | 0hPa | 2.8V | 08:30:00 | 00:58:54 | 00:00:00 | |
| IW2NTF | 2026-09-04 11:33:35 | 45.47679 | 8.83035 | 127° | 51km/h | 9078m | 3.7m/s | -30.5°C | 18.1% | 0hPa | 2.8V | 08:30:00 | 00:58:44 | 00:00:00 | |
| IW2NTF | 2026-09-04 11:33:24 | 45.47760 | 8.82883 | 125° | 53km/h | 9043m | 3.3m/s | -30.1°C | 18.2% | 0hPa | 2.9V | 08:30:00 | 00:58:34 | 00:00:00 | |
| IW2NTF | 2026-09-04 11:33:14 | 45.47845 | 8.82734 | 128° | 57km/h | 9007m | 2.6m/s | -29.9°C | 18.1% | 0hPa | 2.9V | 08:30:00 | 00:58:24 | 00:00:00 | |
| IW2NTF | 2026-09-04 11:33:01 | 45.47925 | 8.82584 | 131° | 53km/h | 8970m | 3.6m/s | -29.6°C | 17.3% | 0hPa | 2.9V | 08:30:00 | 00:58:14 | 00:00:00 | |
| IW2NTF | 2026-09-04 11:32:51 | 45.48009 | 8.82446 | 129° | 49km/h | 8934m | 4m/s | -29.4°C | 17.6% | 0hPa | 2.9V | 08:30:00 | 00:58:04 | 00:00:00 | |
| IW2NTF | 2026-09-04 11:32:41 | 45.48090 | 8.82317 | 134° | 46km/h | 8896m | 3.7m/s | -29.1°C | 17% | 0hPa | 2.9V | 08:30:00 | 00:57:54 | 00:00:00 | |
| IW2NTF | 2026-09-04 11:32:32 | 45.48169 | 8.82193 | 131° | 44km/h | 8857m | 3.7m/s | -28.7°C | 16.9% | 0hPa | 2.9V | 08:30:00 | 00:57:44 | 00:00:00 | |
| IW2NTF | 2026-09-04 11:32:21 | 45.48247 | 8.82071 | 135° | 47km/h | 8818m | 3.7m/s | -28.4°C | 16.7% | 0hPa | 2.9V | 08:30:00 | 00:57:34 | 00:00:00 | |
| IW2NTF | 2026-09-04 11:32:11 | 45.48326 | 8.81956 | 134° | 42km/h | 8779m | 4.2m/s | -28.1°C | 17.5% | 0hPa | 2.9V | 08:30:00 | 00:57:24 | 00:00:00 | |
| IW2NTF | 2026-09-04 11:32:01 | 45.48404 | 8.81849 | 134° | 46km/h | 8741m | 4.5m/s | -28°C | 18.3% | 0hPa | 2.9V | 08:30:00 | 00:57:14 | 00:00:00 | |
| IW2NTF | 2026-09-04 11:31:51 | 45.48490 | 8.81731 | 139° | 49km/h | 8703m | 3.2m/s | -27.7°C | 18.5% | 0hPa | 2.9V | 08:30:00 | 00:57:04 | 00:00:00 | |
| IW2NTF | 2026-09-04 11:31:41 | 45.48574 | 8.81628 | 140° | 42km/h | 8667m | 3.8m/s | -27.4°C | 18% | 0hPa | 2.9V | 08:30:00 | 00:56:54 | 00:00:00 | |
| IW2NTF | 2026-09-04 11:31:31 | 45.48662 | 8.81523 | 147° | 44km/h | 8629m | 3.4m/s | -27.1°C | 17.1% | 0hPa | 2.8V | 08:30:00 | 00:56:44 | 00:00:00 | |
| IW2NTF | 2026-09-04 11:31:21 | 45.48746 | 8.81423 | 135° | 46km/h | 8592m | 3.4m/s | -26.7°C | 16.8% | 0hPa | 2.8V | 08:30:00 | 00:56:34 | 00:00:00 | |
| IW2NTF | 2026-09-04 11:31:12 | 45.48829 | 8.81324 | 139° | 40km/h | 8554m | 3.2m/s | -26.3°C | 16.2% | 0hPa | 2.8V | 08:30:00 | 00:56:24 | 00:00:00 | |
| IW2NTF | 2026-09-04 11:31:01 | 45.48923 | 8.81199 | 133° | 40km/h | 8509m | 2.9m/s | -25.9°C | 15.2% | 0hPa | 2.9V | 08:30:00 | 00:56:12 | 00:00:00 | |
| IW2NTF | 2026-09-04 11:30:51 | 45.49000 | 8.81085 | 134° | 44km/h | 8471m | 3.4m/s | -25.7°C | 15.4% | 0hPa | 2.9V | 08:30:00 | 00:56:02 | 00:00:00 | |
| IW2NTF | 2026-09-04 11:30:41 | 45.49082 | 8.80965 | 132° | 46km/h | 8430m | 4.3m/s | -25.3°C | 15.9% | 0hPa | 2.9V | 08:30:00 | 00:55:51 | 00:00:00 | |
| IW2NTF | 2026-09-04 11:30:31 | 45.49157 | 8.80850 | 137° | 42km/h | 8392m | 3.2m/s | -25°C | 16.2% | 0hPa | 2.8V | 08:30:00 | 00:55:41 | 00:00:00 | |
| IW2NTF | 2026-09-04 11:30:21 | 45.49233 | 8.80740 | 138° | 42km/h | 8356m | 4.5m/s | -24.7°C | 16% | 0hPa | 2.9V | 08:30:00 | 00:55:31 | 00:00:00 | |
| IW2NTF | 2026-09-04 11:30:12 | 45.49309 | 8.80641 | 137° | 40km/h | 8320m | 4.4m/s | -24.3°C | 15.4% | 0hPa | 2.9V | 08:30:00 | 00:55:21 | 00:00:00 | |
| IW2NTF | 2026-09-04 11:30:01 | 45.49386 | 8.80536 | 133° | 40km/h | 8282m | 3.7m/s | -24°C | 14.8% | 0hPa | 2.9V | 08:30:00 | 00:55:11 | 00:00:00 | |
| IW2NTF | 2026-09-04 11:29:51 | 45.49461 | 8.80429 | 130° | 42km/h | 8243m | 4m/s | -23.7°C | 14.4% | 0hPa | 3V | 08:30:00 | 00:55:01 | 00:00:00 | |
| IW2NTF | 2026-09-04 11:29:41 | 45.49534 | 8.80317 | 137° | 44km/h | 8205m | 3.4m/s | -23.4°C | 15.1% | 0hPa | 2.9V | 08:30:00 | 00:54:51 | 00:00:00 | |
| IW2NTF | 2026-09-04 11:29:31 | 45.49602 | 8.80212 | 131° | 42km/h | 8166m | 3.7m/s | -23.2°C | 15.4% | 0hPa | 2.8V | 08:30:00 | 00:54:41 | 00:00:00 | |
| IW2NTF | 2026-09-04 11:29:21 | 45.49678 | 8.80107 | 137° | 35km/h | 8127m | 3.9m/s | -22.9°C | 14.6% | 0hPa | 3V | 08:30:00 | 00:54:31 | 00:00:00 | |
| IW2NTF | 2026-09-04 11:29:11 | 45.49746 | 8.80001 | 137° | 38km/h | 8088m | 3.5m/s | -22.5°C | 14.4% | 0hPa | 2.9V | 08:30:00 | 00:54:21 | 00:00:00 | |
| IW2NTF | 2026-09-04 11:29:01 | 45.49817 | 8.79893 | 134° | 42km/h | 8049m | 3.9m/s | -22.2°C | 14.4% | 0hPa | 3V | 08:30:00 | 00:54:11 | 00:00:00 | |
| IW2NTF | 2026-09-04 11:28:51 | 45.49887 | 8.79785 | 135° | 37km/h | 8008m | 6.4m/s | -21.8°C | 14.8% | 0hPa | 2.9V | 08:30:00 | 00:54:01 | 00:00:00 | |
| IW2NTF | 2026-09-04 11:28:41 | 45.49961 | 8.79683 | 131° | 44km/h | 7964m | 3.9m/s | -21.5°C | 15% | 0hPa | 3V | 08:30:00 | 00:53:51 | 00:00:00 | |
| IW2NTF | 2026-09-04 11:28:31 | 45.50039 | 8.79583 | 133° | 38km/h | 7923m | 4.7m/s | -21.2°C | 14.7% | 0hPa | 3V | 08:30:00 | 00:53:41 | 00:00:00 | |
| IW2NTF | 2026-09-04 11:28:22 | 45.50111 | 8.79477 | 147° | 38km/h | 7882m | 4.6m/s | -20.8°C | 14.3% | 0hPa | 3V | 08:30:00 | 00:53:31 | 00:00:00 | |
| IW2NTF | 2026-09-04 11:28:11 | 45.50187 | 8.79377 | 140° | 44km/h | 7845m | 4.1m/s | -20.6°C | 14.6% | 0hPa | 3V | 08:30:00 | 00:53:21 | 00:00:00 | |
| IW2NTF | 2026-09-04 11:27:59 | 45.50270 | 8.79272 | 130° | 42km/h | 7798m | 4.2m/s | -20.3°C | 14% | 0hPa | 3V | 08:30:00 | 00:53:11 | 00:00:00 | |
| IW2NTF | 2026-09-04 11:27:49 | 45.50346 | 8.79170 | 146° | 42km/h | 7756m | 3m/s | -19.9°C | 13.5% | 0hPa | 3V | 08:30:00 | 00:53:01 | 00:00:00 | |
| IW2NTF | 2026-09-04 11:27:39 | 45.50415 | 8.79058 | 131° | 44km/h | 7704m | 3.6m/s | -19.7°C | 14.5% | 0hPa | 2.8V | 08:30:00 | 00:52:51 | 00:00:00 | |
| IW2NTF | 2026-09-04 11:27:29 | 45.50489 | 8.78950 | 130° | 38km/h | 7656m | 4.8m/s | -19.3°C | 14.1% | 0hPa | 3V | 08:30:00 | 00:52:41 | 00:00:00 | |
| IW2NTF | 2026-09-04 11:27:19 | 45.50562 | 8.78849 | 137° | 37km/h | 7614m | 3.7m/s | -18.9°C | 13.7% | 0hPa | 3V | 08:30:00 | 00:52:31 | 00:00:00 | |
| IW2NTF | 2026-09-04 11:27:09 | 45.50630 | 8.78740 | 132° | 42km/h | 7575m | 5.5m/s | -18.5°C | 13.3% | 0hPa | 3V | 08:30:00 | 00:52:21 | 00:00:00 | |
| IW2NTF | 2026-09-04 11:26:59 | 45.50706 | 8.78627 | 132° | 40km/h | 7532m | 4m/s | -18.6°C | 13.5% | 0hPa | 3V | 08:30:00 | 00:52:11 | 00:00:00 | |
| IW2NTF | 2026-09-04 11:26:49 | 45.50785 | 8.78514 | 128° | 47km/h | 7492m | 4.5m/s | -18.3°C | 13.3% | 0hPa | 2.8V | 08:30:00 | 00:52:01 | 00:00:00 | |
| IW2NTF | 2026-09-04 11:26:39 | 45.50857 | 8.78397 | 132° | 46km/h | 7451m | 4.4m/s | -17.9°C | 13.2% | 0hPa | 3V | 08:30:00 | 00:51:51 | 00:00:00 | |
| IW2NTF | 2026-09-04 11:26:29 | 45.50937 | 8.78276 | 137° | 46km/h | 7409m | 4m/s | -17.6°C | 13.3% | 0hPa | 3V | 08:30:00 | 00:51:41 | 00:00:00 | |
| IW2NTF | 2026-09-04 11:26:19 | 45.51016 | 8.78155 | 134° | 44km/h | 7369m | 4.1m/s | -17.4°C | 13.8% | 0hPa | 3V | 08:30:00 | 00:51:31 | 00:00:00 | |
| IW2NTF | 2026-09-04 11:26:12 | 45.51097 | 8.78039 | 135° | 47km/h | 7332m | 4.3m/s | -17.3°C | 14.5% | 0hPa | 3V | 08:30:00 | 00:51:21 | 00:00:00 | |
| IW2NTF | 2026-09-04 11:26:02 | 45.51180 | 8.77916 | 132° | 47km/h | 7294m | 4.4m/s | -17.1°C | 14.8% | 0hPa | 3V | 08:30:00 | 00:51:11 | 00:00:00 | |
| IW2NTF | 2026-09-04 11:25:52 | 45.51257 | 8.77790 | 129° | 42km/h | 7257m | 4.5m/s | -17°C | 15.1% | 0hPa | 3V | 08:30:00 | 00:51:01 | 00:00:00 | |
| IW2NTF | 2026-09-04 11:25:42 | 45.51328 | 8.77667 | 126° | 42km/h | 7220m | 4.2m/s | -16.7°C | 15.3% | 0hPa | 3V | 08:30:00 | 00:50:51 | 00:00:00 | |
| IW2NTF | 2026-09-04 11:25:32 | 45.51392 | 8.77547 | 129° | 46km/h | 7182m | 4.2m/s | -16.4°C | 15% | 0hPa | 3V | 08:30:00 | 00:50:41 | 00:00:00 | |
| IW2NTF | 2026-09-04 11:25:22 | 45.51454 | 8.77419 | 128° | 42km/h | 7144m | 3.1m/s | -16.4°C | 16.3% | 0hPa | 3V | 08:30:00 | 00:50:31 | 00:00:00 | |
| IW2NTF | 2026-09-04 11:25:12 | 45.51522 | 8.77283 | 126° | 46km/h | 7106m | 4.5m/s | -16.1°C | 15.5% | 0hPa | 3V | 08:30:00 | 00:50:21 | 00:00:00 | |
| IW2NTF | 2026-09-04 11:25:03 | 45.51593 | 8.77156 | 126° | 44km/h | 7072m | 3m/s | -15.9°C | 16.2% | 0hPa | 3V | 08:30:00 | 00:50:11 | 00:00:00 | |
| IW2NTF | 2026-09-04 11:24:52 | 45.51658 | 8.77029 | 129° | 42km/h | 7037m | 3.5m/s | -15.7°C | 15.7% | 0hPa | 3V | 08:30:00 | 00:50:01 | 00:00:00 | |
| IW2NTF | 2026-09-04 11:24:42 | 45.51722 | 8.76897 | 123° | 47km/h | 7004m | 3.3m/s | -15.5°C | 15.3% | 0hPa | 3V | 08:30:00 | 00:49:51 | 00:00:00 | |
| IW2NTF | 2026-09-04 11:24:32 | 45.51792 | 8.76764 | 123° | 47km/h | 6967m | 4m/s | -15.3°C | 14.5% | 0hPa | 3V | 08:30:00 | 00:49:41 | 00:00:00 | |
| IW2NTF | 2026-09-04 11:24:22 | 45.51854 | 8.76624 | 128° | 44km/h | 6929m | 4m/s | -15.1°C | 15.3% | 0hPa | 3V | 08:30:00 | 00:49:31 | 00:00:00 | |
| IW2NTF | 2026-09-04 11:24:12 | 45.51923 | 8.76492 | 126° | 44km/h | 6889m | 3.8m/s | -14.9°C | 15.7% | 0hPa | 3V | 08:30:00 | 00:49:21 | 00:00:00 | |
| IW2NTF | 2026-09-04 11:24:02 | 45.51992 | 8.76351 | 129° | 51km/h | 6851m | 3.7m/s | -15°C | 21.2% | 0hPa | 3V | 08:30:00 | 00:49:11 | 00:00:00 | |
| IW2NTF | 2026-09-04 11:23:52 | 45.52070 | 8.76213 | 128° | 51km/h | 6814m | 4.4m/s | -14.9°C | 27.3% | 0hPa | 3V | 08:30:00 | 00:49:01 | 00:00:00 | |
| IW2NTF | 2026-09-04 11:23:42 | 45.52160 | 8.76078 | 142° | 49km/h | 6771m | 4.8m/s | -14.8°C | 31.4% | 0hPa | 3V | 08:30:00 | 00:48:51 | 00:00:00 | |
| IW2NTF | 2026-09-04 11:23:30 | 45.52280 | 8.75941 | 145° | 49km/h | 6711m | 3.6m/s | -14.4°C | 31.4% | 0hPa | 3V | 08:30:00 | 00:48:39 | 00:00:00 | |
| IW2NTF | 2026-09-04 11:23:20 | 45.52372 | 8.75818 | 131° | 53km/h | 6663m | 2.9m/s | -14.1°C | 31.8% | 0hPa | 3V | 08:30:00 | 00:48:29 | 00:00:00 | |
| IW2NTF | 2026-09-04 11:23:10 | 45.52448 | 8.75706 | 124° | 46km/h | 6621m | 6.1m/s | -13.9°C | 34.2% | 0hPa | 3V | 08:30:00 | 00:48:19 | 00:00:00 | |
| IW2NTF | 2026-09-04 11:23:00 | 45.52534 | 8.75580 | 142° | 47km/h | 6572m | 3.8m/s | -13.7°C | 38.8% | 0hPa | 2.8V | 08:30:00 | 00:48:09 | 00:00:00 | |
| IW2NTF | 2026-09-04 11:22:50 | 45.52613 | 8.75471 | 139° | 47km/h | 6523m | 5.6m/s | -13.4°C | 40.5% | 0hPa | 3V | 08:30:00 | 00:47:59 | 00:00:00 | |
| IW2NTF | 2026-09-04 11:22:40 | 45.52697 | 8.75342 | 132° | 44km/h | 6475m | 2.7m/s | -13°C | 41.7% | 0hPa | 3V | 08:30:00 | 00:47:49 | 00:00:00 | |
| IW2NTF | 2026-09-04 11:22:31 | 45.52773 | 8.75229 | 137° | 53km/h | 6430m | 6.8m/s | -12.7°C | 44.3% | 0hPa | 3V | 08:30:00 | 00:47:39 | 00:00:00 | |
| IW2NTF | 2026-09-04 11:22:20 | 45.52859 | 8.75118 | 142° | 38km/h | 6378m | 5.7m/s | -12.3°C | 44.4% | 0hPa | 3V | 08:30:00 | 00:47:29 | 00:00:00 | |
| IW2NTF | 2026-09-04 11:22:10 | 45.52931 | 8.74993 | 133° | 42km/h | 6332m | 3.8m/s | -11.9°C | 43.1% | 0hPa | 3V | 08:30:00 | 00:47:19 | 00:00:00 | |
| IW2NTF | 2026-09-04 11:22:00 | 45.53001 | 8.74876 | 130° | 49km/h | 6289m | 4.1m/s | -11.5°C | 42.1% | 0hPa | 3V | 08:30:00 | 00:47:09 | 00:00:00 | |
| IW2NTF | 2026-09-04 11:21:50 | 45.53066 | 8.74745 | 124° | 42km/h | 6252m | 4.4m/s | -11.2°C | 41.5% | 0hPa | 3V | 08:30:00 | 00:46:59 | 00:00:00 | |
| IW2NTF | 2026-09-04 11:21:40 | 45.53135 | 8.74620 | 120° | 42km/h | 6215m | 2.9m/s | -10.9°C | 40.1% | 0hPa | 3V | 08:30:00 | 00:46:49 | 00:00:00 | |
| IW2NTF | 2026-09-04 11:21:30 | 45.53199 | 8.74483 | 128° | 46km/h | 6179m | 4.9m/s | -10.6°C | 38.4% | 0hPa | 3V | 08:30:00 | 00:46:39 | 00:00:00 | |
| IW2NTF | 2026-09-04 11:21:20 | 45.53260 | 8.74366 | 125° | 44km/h | 6128m | 6.1m/s | -10.4°C | 43.2% | 0hPa | 3V | 08:30:00 | 00:46:29 | 00:00:00 | |
| IW2NTF | 2026-09-04 11:21:10 | 45.53319 | 8.74247 | 124° | 44km/h | 6086m | 3.7m/s | -10.1°C | 41.3% | 0hPa | 3V | 08:30:00 | 00:46:19 | 00:00:00 | |
| IW2NTF | 2026-09-04 11:21:00 | 45.53382 | 8.74122 | 130° | 26km/h | 6046m | 4.3m/s | -9.9°C | 44.2% | 0hPa | 3V | 08:30:00 | 00:46:09 | 00:00:00 | |
| IW2NTF | 2026-09-04 11:20:50 | 45.53431 | 8.74032 | 130° | 40km/h | 5990m | 6.1m/s | -9.6°C | 45.5% | 0hPa | 3V | 08:30:00 | 00:45:59 | 00:00:00 | |
| IW2NTF | 2026-09-04 11:20:39 | 45.53481 | 8.73922 | 112° | 27km/h | 5933m | 4.4m/s | -9.2°C | 45.7% | 0hPa | 3V | 08:30:00 | 00:45:48 | 00:00:00 | |
| IW2NTF | 2026-09-04 11:20:25 | 45.53523 | 8.73830 | 119° | 40km/h | 5875m | 5.7m/s | -8.8°C | 39.9% | 0hPa | 3V | 08:30:00 | 00:45:38 | 00:00:00 | |
| IW2NTF | 2026-09-04 11:20:14 | 45.53575 | 8.73715 | 123° | 35km/h | 5824m | 3.4m/s | -8.3°C | 39.1% | 0hPa | 3V | 08:30:00 | 00:45:28 | 00:00:00 | |
| IW2NTF | 2026-09-04 11:20:04 | 45.53615 | 8.73600 | 112° | 26km/h | 5771m | 3.5m/s | -7.9°C | 39.3% | 0hPa | 3V | 08:30:00 | 00:45:18 | 00:00:00 | |
| IW2NTF | 2026-09-04 11:19:59 | 45.53646 | 8.73495 | 110° | 35km/h | 5722m | 7.1m/s | -7.5°C | 38.7% | 0hPa | 3V | 08:30:00 | 00:45:08 | 00:00:00 | |
| IW2NTF | 2026-09-04 11:19:49 | 45.53679 | 8.73382 | 103° | 33km/h | 5678m | 3m/s | -7.2°C | 37.4% | 0hPa | 3V | 08:30:00 | 00:44:58 | 00:00:00 | |
| IW2NTF | 2026-09-04 11:19:39 | 45.53712 | 8.73252 | 124° | 42km/h | 5636m | 4.3m/s | -6.9°C | 41.1% | 0hPa | 3V | 08:30:00 | 00:44:48 | 00:00:00 | |
| IW2NTF | 2026-09-04 11:19:29 | 45.53748 | 8.73151 | 99° | 33km/h | 5579m | 7m/s | -6.6°C | 40.8% | 0hPa | 3V | 08:30:00 | 00:44:38 | 00:00:00 | |
| IW2NTF | 2026-09-04 11:19:19 | 45.53773 | 8.73026 | 112° | 33km/h | 5535m | 4.6m/s | -6.1°C | 40.6% | 0hPa | 3V | 08:30:00 | 00:44:28 | 00:00:00 | |
| IW2NTF | 2026-09-04 11:19:09 | 45.53801 | 8.72900 | 92° | 35km/h | 5497m | 3.9m/s | -5.8°C | 40.9% | 0hPa | 3V | 08:30:00 | 00:44:18 | 00:00:00 | |
| IW2NTF | 2026-09-04 11:18:58 | 45.53826 | 8.72767 | 104° | 38km/h | 5443m | 4.9m/s | -5.4°C | 41.6% | 0hPa | 3V | 08:30:00 | 00:44:07 | 00:00:00 | |
| IW2NTF | 2026-09-04 11:18:48 | 45.53857 | 8.72641 | 107° | 37km/h | 5402m | 3.3m/s | -5.2°C | 41.7% | 0hPa | 3V | 08:30:00 | 00:43:57 | 00:00:00 | |
| IW2NTF | 2026-09-04 11:18:38 | 45.53882 | 8.72501 | 109° | 31km/h | 5358m | 5.2m/s | -5°C | 42.1% | 0hPa | 3V | 08:30:00 | 00:43:47 | 00:00:00 | |
| IW2NTF | 2026-09-04 11:18:28 | 45.53909 | 8.72386 | 102° | 38km/h | 5314m | 4.5m/s | -4.8°C | 43.6% | 0hPa | 3V | 08:30:00 | 00:43:37 | 00:00:00 | |
| IW2NTF | 2026-09-04 11:18:18 | 45.53942 | 8.72248 | 114° | 27km/h | 5279m | 3.5m/s | -4.5°C | 44.2% | 0hPa | 3V | 08:30:00 | 00:43:27 | 00:00:00 | |
| IW2NTF | 2026-09-04 11:18:08 | 45.53954 | 8.72142 | 104° | 40km/h | 5233m | 5.7m/s | -4.2°C | 43.5% | 0hPa | 3V | 08:30:00 | 00:43:17 | 00:00:00 | |
| IW2NTF | 2026-09-04 11:17:58 | 45.53977 | 8.72021 | 105° | 27km/h | 5188m | 5.2m/s | -3.8°C | 38.9% | 0hPa | 3V | 08:30:00 | 00:43:07 | 00:00:00 | |
| IW2NTF | 2026-09-04 11:17:48 | 45.53989 | 8.71895 | 100° | 42km/h | 5149m | 4.2m/s | -3.6°C | 40.4% | 0hPa | 3V | 08:30:00 | 00:42:57 | 00:00:00 | |
| IW2NTF | 2026-09-04 11:17:38 | 45.54005 | 8.71767 | 106° | 31km/h | 5094m | 6.2m/s | -3.1°C | 43.1% | 0hPa | 3V | 08:30:00 | 00:42:47 | 00:00:00 | |
| IW2NTF | 2026-09-04 11:17:28 | 45.54022 | 8.71649 | 108° | 29km/h | 5045m | 4.8m/s | -2.7°C | 42.4% | 0hPa | 3V | 08:30:00 | 00:42:37 | 00:00:00 | |
| IW2NTF | 2026-09-04 11:17:18 | 45.54042 | 8.71539 | 100° | 26km/h | 4997m | 4.5m/s | -2.2°C | 36.4% | 0hPa | 3V | 08:30:00 | 00:42:27 | 00:00:00 | |
| IW2NTF | 2026-09-04 11:17:11 | 45.54059 | 8.71486 | 112° | 24km/h | 4970m | 4.7m/s | -2°C | 34.7% | 0hPa | 3V | 08:30:00 | 00:42:21 | 00:00:00 | |
| IW2NTF | 2026-09-04 11:17:06 | 45.54058 | 8.71431 | 91° | 35km/h | 4944m | 3m/s | -1.7°C | 33.6% | 0hPa | 3V | 08:30:00 | 00:42:15 | 00:00:00 | |
| IW2NTF | 2026-09-04 11:17:00 | 45.54070 | 8.71353 | 108° | 33km/h | 4916m | 5.7m/s | -1.4°C | 32.6% | 0hPa | 3V | 08:30:00 | 00:42:09 | 00:00:00 | |
| IW2NTF | 2026-09-04 11:16:54 | 45.54087 | 8.71296 | 109° | 35km/h | 4880m | 5.4m/s | -1.1°C | 31.6% | 0hPa | 3V | 08:30:00 | 00:42:03 | 00:00:00 | |
| IW2NTF | 2026-09-04 11:16:48 | 45.54099 | 8.71219 | 100° | 33km/h | 4849m | 6.1m/s | -0.9°C | 30.4% | 0hPa | 3V | 08:30:00 | 00:41:57 | 00:00:00 | |
| IW2NTF | 2026-09-04 11:16:41 | 45.54107 | 8.71169 | 103° | 20km/h | 4819m | 5.8m/s | -0.7°C | 30.5% | 0hPa | 3V | 08:30:00 | 00:41:51 | 00:00:00 | |
| IW2NTF | 2026-09-04 11:16:36 | 45.54109 | 8.71104 | 87° | 38km/h | 4789m | 5.5m/s | -0.5°C | 32.7% | 0hPa | 3V | 08:30:00 | 00:41:45 | 00:00:00 | |
| IW2NTF | 2026-09-04 11:16:30 | 45.54107 | 8.71029 | 91° | 31km/h | 4756m | 5.2m/s | -0.2°C | 32.8% | 0hPa | 3V | 08:30:00 | 00:41:39 | 00:00:00 | |
| IW2NTF | 2026-09-04 11:16:24 | 45.54111 | 8.70974 | 89° | 20km/h | 4726m | 5.7m/s | 0°C | 32.3% | 0hPa | 3V | 08:30:00 | 00:41:33 | 00:00:00 | |
| IW2NTF | 2026-09-04 11:16:18 | 45.54116 | 8.70923 | 115° | 24km/h | 4697m | 6.4m/s | 0.3°C | 31.9% | 0hPa | 3V | 08:30:00 | 00:41:27 | 00:00:00 | |
| IW2NTF | 2026-09-04 11:16:11 | 45.54113 | 8.70890 | 69° | 18km/h | 4662m | 5m/s | 0.6°C | 31.1% | 0hPa | 3V | 08:30:00 | 00:41:21 | 00:00:00 | |
| IW2NTF | 2026-09-04 11:16:06 | 45.54119 | 8.70825 | 104° | 33km/h | 4629m | 5.2m/s | 0.9°C | 30.5% | 0hPa | 3V | 08:30:00 | 00:41:15 | 00:00:00 | |
| IW2NTF | 2026-09-04 11:15:58 | 45.54120 | 8.70764 | 95° | 18km/h | 4587m | 3.6m/s | 1.2°C | 31.1% | 0hPa | 3V | 08:30:00 | 00:41:07 | 00:00:00 | |
| IW2NTF | 2026-09-04 11:15:51 | 45.54122 | 8.70728 | 100° | 22km/h | 4560m | 3.2m/s | 1.5°C | 31.4% | 0hPa | 3V | 08:30:00 | 00:41:01 | 00:00:00 | |
| IW2NTF | 2026-09-04 11:15:41 | 45.54126 | 8.70684 | 108° | 18km/h | 4533m | 4.6m/s | 1.7°C | 31.4% | 0hPa | 3V | 08:30:00 | 00:40:55 | 00:00:00 | |
| IW2NTF | 2026-09-04 11:15:41 | 45.54135 | 8.70657 | 128° | 11km/h | 4510m | 4m/s | 1.9°C | 32% | 0hPa | 3V | 08:30:00 | 00:40:50 | 00:00:00 | |
| IW2NTF | 2026-09-04 11:15:35 | 45.54148 | 8.70630 | 98° | 22km/h | 4482m | 4.8m/s | 2.1°C | 32.7% | 0hPa | 3V | 08:30:00 | 00:40:44 | 00:00:00 | |
| IW2NTF | 2026-09-04 11:15:29 | 45.54149 | 8.70588 | 97° | 20km/h | 4451m | 4.9m/s | 2.4°C | 32% | 0hPa | 3V | 08:30:00 | 00:40:38 | 00:00:00 | |
| IW2NTF | 2026-09-04 11:15:23 | 45.54153 | 8.70560 | 152° | 9km/h | 4426m | 4m/s | 2.6°C | 33.4% | 0hPa | 3V | 08:30:00 | 00:40:32 | 00:00:00 | |
| IW2NTF | 2026-09-04 11:15:17 | 45.54167 | 8.70522 | 100° | 33km/h | 4399m | 6m/s | 2.8°C | 33.8% | 0hPa | 3V | 08:30:00 | 00:40:26 | 00:00:00 | |
| IW2NTF | 2026-09-04 11:15:11 | 45.54176 | 8.70471 | 115° | 13km/h | 4364m | 4.9m/s | 3°C | 31.4% | 0hPa | 3V | 08:30:00 | 00:40:20 | 00:00:00 | |
| IW2NTF | 2026-09-04 11:15:05 | 45.54187 | 8.70443 | 98° | 18km/h | 4339m | 3.9m/s | 3.2°C | 30.5% | 0hPa | 3V | 08:30:00 | 00:40:14 | 00:00:00 | |
| IW2NTF | 2026-09-04 11:14:59 | 45.54195 | 8.70405 | 106° | 18km/h | 4315m | 4.8m/s | 3.4°C | 30.1% | 0hPa | 3V | 08:30:00 | 00:40:08 | 00:00:00 | |
| IW2NTF | 2026-09-04 11:14:53 | 45.54209 | 8.70363 | 135° | 13km/h | 4292m | 4.2m/s | 3.7°C | 28.4% | 0hPa | 3V | 08:30:00 | 00:40:02 | 00:00:00 | |
| IW2NTF | 2026-09-04 11:14:47 | 45.54211 | 8.70350 | 144° | 7km/h | 4271m | 4.3m/s | 3.9°C | 27.9% | 0hPa | 3V | 08:30:00 | 00:39:56 | 00:00:00 | |
| IW2NTF | 2026-09-04 11:14:41 | 45.54228 | 8.70320 | 102° | 27km/h | 4242m | 6m/s | 4.1°C | 26.8% | 0hPa | 3V | 08:30:00 | 00:39:50 | 00:00:00 | |
| IW2NTF | 2026-09-04 11:14:35 | 45.54233 | 8.70262 | 106° | 22km/h | 4214m | 4.9m/s | 4.4°C | 24.4% | 0hPa | 3V | 08:30:00 | 00:39:44 | 00:00:00 | |
| IW2NTF | 2026-09-04 11:14:29 | 45.54237 | 8.70237 | 63° | 11km/h | 4187m | 4m/s | 4.7°C | 23.5% | 0hPa | 3V | 08:30:00 | 00:39:38 | 00:00:00 | |
| IW2NTF | 2026-09-04 11:14:23 | 45.54240 | 8.70215 | 140° | 20km/h | 4162m | 5.2m/s | 5°C | 23.5% | 0hPa | 3V | 08:30:00 | 00:39:32 | 00:00:00 | |
| IW2NTF | 2026-09-04 11:14:17 | 45.54256 | 8.70198 | 121° | 2km/h | 4137m | 4.5m/s | 5.2°C | 23.1% | 0hPa | 3V | 08:30:00 | 00:39:26 | 00:00:00 | |
| IW2NTF | 2026-09-04 11:14:11 | 45.54259 | 8.70188 | 138° | 15km/h | 4110m | 4.6m/s | 5.4°C | 22% | 0hPa | 3V | 08:30:00 | 00:39:20 | 00:00:00 | |
| IW2NTF | 2026-09-04 11:14:05 | 45.54277 | 8.70153 | 92° | 27km/h | 4082m | 4.9m/s | 5.5°C | 19.5% | 0hPa | 3V | 08:30:00 | 00:39:14 | 00:00:00 | |
| IW2NTF | 2026-09-04 11:13:59 | 45.54261 | 8.70097 | 61° | 24km/h | 4045m | 7m/s | 5.8°C | 19.3% | 0hPa | 3V | 08:30:00 | 00:39:08 | 00:00:00 | |
| IW2NTF | 2026-09-04 11:13:53 | 45.54253 | 8.70053 | 92° | 20km/h | 4010m | 3.9m/s | 6°C | 20.2% | 0hPa | 3V | 08:30:00 | 00:39:02 | 00:00:00 | |
| IW2NTF | 2026-09-04 11:13:47 | 45.54245 | 8.70007 | 49° | 20km/h | 3985m | 3.2m/s | 6.2°C | 20.3% | 0hPa | 3V | 08:30:00 | 00:38:56 | 00:00:00 | |
| IW2NTF | 2026-09-04 11:13:41 | 45.54226 | 8.69955 | 82° | 29km/h | 3961m | 4.4m/s | 6.3°C | 20.3% | 0hPa | 3V | 08:30:00 | 00:38:50 | 00:00:00 | |
| IW2NTF | 2026-09-04 11:13:35 | 45.54214 | 8.69915 | 37° | 18km/h | 3930m | 5m/s | 6.6°C | 20.2% | 0hPa | 3V | 08:30:00 | 00:38:44 | 00:00:00 | |
| IW2NTF | 2026-09-04 11:13:27 | 45.54187 | 8.69864 | 77° | 27km/h | 3894m | 5.3m/s | 6.9°C | 20.2% | 0hPa | 3V | 08:30:00 | 00:38:36 | 00:00:00 | |
| IW2NTF | 2026-09-04 11:13:21 | 45.54170 | 8.69815 | 37° | 22km/h | 3869m | 5.7m/s | 7.1°C | 20% | 0hPa | 3V | 08:30:00 | 00:38:30 | 00:00:00 | |
| IW2NTF | 2026-09-04 11:13:15 | 45.54144 | 8.69780 | 70° | 24km/h | 3830m | 5.8m/s | 7.4°C | 19.9% | 0hPa | 3V | 08:30:00 | 00:38:24 | 00:00:00 | |
| IW2NTF | 2026-09-04 11:13:09 | 45.54136 | 8.69745 | 36° | 15km/h | 3798m | 4m/s | 7.7°C | 19.6% | 0hPa | 3V | 08:30:00 | 00:38:18 | 00:00:00 | |
| IW2NTF | 2026-09-04 11:13:03 | 45.54118 | 8.69724 | 49° | 16km/h | 3772m | 4.9m/s | 7.9°C | 19.4% | 0hPa | 3V | 08:30:00 | 00:38:12 | 00:00:00 | |
| IW2NTF | 2026-09-04 11:12:58 | 45.54107 | 8.69682 | 74° | 27km/h | 3749m | 2.9m/s | 8.1°C | 19.3% | 0hPa | 3V | 08:30:00 | 00:38:06 | 00:00:00 | |
| IW2NTF | 2026-09-04 11:12:51 | 45.54088 | 8.69650 | 13° | 16km/h | 3723m | 5.8m/s | 8.3°C | 19.3% | 0hPa | 3V | 08:30:00 | 00:38:00 | 00:00:00 | |
| IW2NTF | 2026-09-04 11:12:45 | 45.54073 | 8.69640 | 42° | 5km/h | 3692m | 6.9m/s | 8.6°C | 19% | 0hPa | 3V | 08:30:00 | 00:37:54 | 00:00:00 | |
| IW2NTF | 2026-09-04 11:12:39 | 45.54063 | 8.69625 | 51° | 16km/h | 3664m | 4m/s | 8.9°C | 18.9% | 0hPa | 3V | 08:30:00 | 00:37:48 | 00:00:00 | |
| IW2NTF | 2026-09-04 11:12:33 | 45.54051 | 8.69603 | 58° | 11km/h | 3641m | 4.1m/s | 9.2°C | 18.6% | 0hPa | 3V | 08:30:00 | 00:37:42 | 00:00:00 | |
| IW2NTF | 2026-09-04 11:12:27 | 45.54044 | 8.69565 | 82° | 26km/h | 3620m | 2.8m/s | 9.3°C | 18.4% | 0hPa | 3V | 08:30:00 | 00:37:36 | 00:00:00 | |
| IW2NTF | 2026-09-04 11:12:20 | 45.54048 | 8.69517 | 107° | 22km/h | 3599m | 5m/s | 9.5°C | 18.5% | 0hPa | 3V | 08:30:00 | 00:37:30 | 00:00:00 | |
| IW2NTF | 2026-09-04 11:12:15 | 45.54042 | 8.69471 | 39° | 20km/h | 3572m | 4.2m/s | 9.8°C | 18.3% | 0hPa | 3V | 08:30:00 | 00:37:24 | 00:00:00 | |
| IW2NTF | 2026-09-04 11:12:09 | 45.54030 | 8.69463 | 134° | 5km/h | 3542m | 6.3m/s | 10.1°C | 18.2% | 0hPa | 3V | 08:30:00 | 00:37:18 | 00:00:00 | |
| IW2NTF | 2026-09-04 11:12:03 | 45.54031 | 8.69452 | 39° | 9km/h | 3512m | 5.2m/s | 10.3°C | 18.3% | 0hPa | 3V | 08:30:00 | 00:37:12 | 00:00:00 | |
| IW2NTF | 2026-09-04 11:11:57 | 45.54017 | 8.69430 | 58° | 16km/h | 3484m | 3.5m/s | 10.4°C | 18.7% | 0hPa | 3V | 08:30:00 | 00:37:06 | 00:00:00 | |
| IW2NTF | 2026-09-04 11:11:51 | 45.54018 | 8.69387 | 92° | 22km/h | 3461m | 2.5m/s | 10.4°C | 20.5% | 0hPa | 3V | 08:30:00 | 00:37:00 | 00:00:00 | |
| IW2NTF | 2026-09-04 11:11:45 | 45.54007 | 8.69340 | 55° | 22km/h | 3431m | 4.7m/s | 10.7°C | 20.9% | 0hPa | 3V | 08:30:00 | 00:36:54 | 00:00:00 | |
| IW2NTF | 2026-09-04 11:11:39 | 45.53998 | 8.69327 | 349° | 9km/h | 3394m | 5.6m/s | 10.7°C | 22.7% | 0hPa | 3V | 08:30:00 | 00:36:48 | 00:00:00 | |
| IW2NTF | 2026-09-04 11:11:33 | 45.53978 | 8.69323 | 19° | 13km/h | 3369m | 4.2m/s | 10.6°C | 23.5% | 0hPa | 3V | 08:30:00 | 00:36:42 | 00:00:00 | |
| IW2NTF | 2026-09-04 11:11:28 | 45.53955 | 8.69298 | 44° | 27km/h | 3349m | 2.7m/s | 10.7°C | 23.7% | 0hPa | 3V | 08:30:00 | 00:36:36 | 00:00:00 | |
| IW2NTF | 2026-09-04 11:11:20 | 45.53936 | 8.69275 | 3° | 7km/h | 3324m | 5.3m/s | 10.9°C | 23.4% | 0hPa | 3V | 08:30:00 | 00:36:30 | 00:00:00 | |
| IW2NTF | 2026-09-04 11:11:10 | 45.53926 | 8.69272 | 28° | 15km/h | 3299m | 4.8m/s | 11°C | 23.3% | 0hPa | 3V | 08:30:00 | 00:36:24 | 00:00:00 | |
| IW2NTF | 2026-09-04 11:11:10 | 45.53912 | 8.69243 | 88° | 18km/h | 3274m | 5m/s | 11.2°C | 23.3% | 0hPa | 3V | 08:30:00 | 00:36:19 | 00:00:00 | |
| IW2NTF | 2026-09-04 11:11:04 | 45.53909 | 8.69228 | 14° | 9km/h | 3246m | 3.8m/s | 11.4°C | 23.1% | 0hPa | 3V | 08:30:00 | 00:36:13 | 00:00:00 | |
| IW2NTF | 2026-09-04 11:10:58 | 45.53897 | 8.69219 | 32° | 11km/h | 3210m | 6.7m/s | 11.3°C | 24.4% | 0hPa | 3V | 08:30:00 | 00:36:07 | 00:00:00 | |
| IW2NTF | 2026-09-04 11:10:52 | 45.53889 | 8.69185 | 92° | 26km/h | 3176m | 5.5m/s | 11.5°C | 25% | 0hPa | 3V | 08:30:00 | 00:36:01 | 00:00:00 | |
| IW2NTF | 2026-09-04 11:10:46 | 45.53885 | 8.69140 | 70° | 18km/h | 3147m | 3.6m/s | 11.6°C | 25.2% | 0hPa | 3V | 08:30:00 | 00:35:55 | 00:00:00 | |
| IW2NTF | 2026-09-04 11:10:40 | 45.53883 | 8.69112 | 100° | 11km/h | 3121m | 3.9m/s | 11.7°C | 25.5% | 0hPa | 3V | 08:30:00 | 00:35:49 | 00:00:00 | |
| IW2NTF | 2026-09-04 11:10:34 | 45.53886 | 8.69081 | 80° | 18km/h | 3088m | 4.5m/s | 11.8°C | 26.6% | 0hPa | 3V | 08:30:00 | 00:35:43 | 00:00:00 | |
| IW2NTF | 2026-09-04 11:10:28 | 45.53887 | 8.69030 | 101° | 26km/h | 3063m | 4.9m/s | 12°C | 27.1% | 0hPa | 3V | 08:30:00 | 00:35:37 | 00:00:00 | |
| IW2NTF | 2026-09-04 11:10:22 | 45.53895 | 8.68983 | 116° | 18km/h | 3039m | 4.5m/s | 12°C | 28.3% | 0hPa | 3V | 08:30:00 | 00:35:31 | 00:00:00 | |
| IW2NTF | 2026-09-04 11:10:16 | 45.53906 | 8.68956 | 116° | 18km/h | 3021m | 3.5m/s | 12°C | 28.8% | 0hPa | 3V | 08:30:00 | 00:35:25 | 00:00:00 | |
| IW2NTF | 2026-09-04 11:10:10 | 45.53910 | 8.68905 | 95° | 31km/h | 2986m | 4.4m/s | 12°C | 29.7% | 0hPa | 3V | 08:30:00 | 00:35:19 | 00:00:00 | |
| IW2NTF | 2026-09-04 11:10:04 | 45.53924 | 8.68845 | 105° | 27km/h | 2957m | 3m/s | 12.2°C | 29.8% | 0hPa | 3V | 08:30:00 | 00:35:13 | 00:00:00 | |
| IW2NTF | 2026-09-04 11:09:58 | 45.53933 | 8.68797 | 96° | 24km/h | 2929m | 3.6m/s | 12.3°C | 30.3% | 0hPa | 3V | 08:30:00 | 00:35:07 | 00:00:00 | |
| IW2NTF | 2026-09-04 11:09:52 | 45.53929 | 8.68754 | 81° | 16km/h | 2907m | 2.5m/s | 12.5°C | 30% | 0hPa | 3V | 08:30:00 | 00:35:01 | 00:00:00 | |
| IW2NTF | 2026-09-04 11:09:46 | 45.53936 | 8.68714 | 101° | 29km/h | 2876m | 5m/s | 12.6°C | 30.5% | 0hPa | 3V | 08:30:00 | 00:34:55 | 00:00:00 | |
| IW2NTF | 2026-09-04 11:09:40 | 45.53942 | 8.68673 | 109° | 15km/h | 2848m | 4.9m/s | 12.8°C | 30.5% | 0hPa | 3V | 08:30:00 | 00:34:49 | 00:00:00 | |
| IW2NTF | 2026-09-04 11:09:32 | 45.53960 | 8.68615 | 102° | 18km/h | 2808m | 3.7m/s | 13.2°C | 29.2% | 0hPa | 3V | 08:30:00 | 00:34:41 | 00:00:00 | |
| IW2NTF | 2026-09-04 11:09:26 | 45.53965 | 8.68571 | 106° | 22km/h | 2779m | 4.3m/s | 13.3°C | 29.5% | 0hPa | 3V | 08:30:00 | 00:34:35 | 00:00:00 | |
| IW2NTF | 2026-09-04 11:09:21 | 45.53973 | 8.68534 | 114° | 15km/h | 2753m | 3.4m/s | 13.5°C | 29.5% | 0hPa | 3V | 08:30:00 | 00:34:29 | 00:00:00 | |
| IW2NTF | 2026-09-04 11:09:14 | 45.53992 | 8.68505 | 128° | 22km/h | 2732m | 4.2m/s | 13.6°C | 29.4% | 0hPa | 3V | 08:30:00 | 00:34:23 | 00:00:00 | |
| IW2NTF | 2026-09-04 11:09:08 | 45.54002 | 8.68476 | 96° | 9km/h | 2695m | 6.5m/s | 13.6°C | 30.8% | 0hPa | 3V | 08:30:00 | 00:34:17 | 00:00:00 | |
| IW2NTF | 2026-09-04 11:09:02 | 45.54005 | 8.68444 | 108° | 22km/h | 2667m | 3.7m/s | 13.6°C | 33.6% | 0hPa | 3V | 08:30:00 | 00:34:11 | 00:00:00 | |
| IW2NTF | 2026-09-04 11:08:57 | 45.54011 | 8.68401 | 97° | 16km/h | 2640m | 6.8m/s | 13.8°C | 33.2% | 0hPa | 3V | 08:30:00 | 00:34:05 | 00:00:00 | |
| IW2NTF | 2026-09-04 11:08:51 | 45.54013 | 8.68364 | 99° | 15km/h | 2611m | 3.6m/s | 14°C | 32.8% | 0hPa | 3V | 08:30:00 | 00:33:59 | 00:00:00 | |
| IW2NTF | 2026-09-04 11:08:44 | 45.54020 | 8.68325 | 91° | 15km/h | 2587m | 4.1m/s | 14.2°C | 32.4% | 0hPa | 3V | 08:30:00 | 00:33:53 | 00:00:00 | |
| IW2NTF | 2026-09-04 11:08:38 | 45.54016 | 8.68304 | 107° | 5km/h | 2565m | 4.7m/s | 14.4°C | 32.2% | 0hPa | 3V | 08:30:00 | 00:33:47 | 00:00:00 | |
| IW2NTF | 2026-09-04 11:08:32 | 45.54021 | 8.68274 | 106° | 15km/h | 2536m | 5m/s | 14.6°C | 31.9% | 0hPa | 3V | 08:30:00 | 00:33:41 | 00:00:00 | |
| IW2NTF | 2026-09-04 11:08:26 | 45.54026 | 8.68240 | 109° | 11km/h | 2511m | 3.4m/s | 14.7°C | 31.9% | 0hPa | 3V | 08:30:00 | 00:33:35 | 00:00:00 | |
| IW2NTF | 2026-09-04 11:08:19 | 45.54028 | 8.68219 | 89° | 5km/h | 2490m | 3.5m/s | 14.7°C | 33.2% | 0hPa | 3V | 08:30:00 | 00:33:29 | 00:00:00 | |
| IW2NTF | 2026-09-04 11:08:14 | 45.54034 | 8.68194 | 96° | 18km/h | 2462m | 6.1m/s | 14.7°C | 37.4% | 0hPa | 3V | 08:30:00 | 00:33:23 | 00:00:00 | |
| IW2NTF | 2026-09-04 11:08:08 | 45.54036 | 8.68150 | 92° | 15km/h | 2431m | 4.3m/s | 14.9°C | 40.1% | 0hPa | 3V | 08:30:00 | 00:33:17 | 00:00:00 | |
| IW2NTF | 2026-09-04 11:08:02 | 45.54028 | 8.68115 | 98° | 20km/h | 2403m | 6.4m/s | 14.9°C | 41.4% | 0hPa | 3V | 08:30:00 | 00:33:11 | 00:00:00 | |
| IW2NTF | 2026-09-04 11:07:56 | 45.54036 | 8.68064 | 88° | 22km/h | 2366m | 5.3m/s | 15.1°C | 40% | 0hPa | 3V | 08:30:00 | 00:33:05 | 00:00:00 | |
| IW2NTF | 2026-09-04 11:07:49 | 45.54023 | 8.68016 | 67° | 22km/h | 2332m | 4.4m/s | 15.4°C | 38.7% | 0hPa | 3V | 08:30:00 | 00:32:59 | 00:00:00 | |
| IW2NTF | 2026-09-04 11:07:44 | 45.54008 | 8.67971 | 70° | 26km/h | 2306m | 3.1m/s | 15.6°C | 38.3% | 0hPa | 3V | 08:30:00 | 00:32:53 | 00:00:00 | |
| IW2NTF | 2026-09-04 11:07:38 | 45.53999 | 8.67926 | 90° | 22km/h | 2285m | 3m/s | 15.8°C | 38.6% | 0hPa | 3V | 08:30:00 | 00:32:47 | 00:00:00 | |
| IW2NTF | 2026-09-04 11:07:32 | 45.53999 | 8.67885 | 63° | 16km/h | 2262m | 5.8m/s | 16°C | 38.7% | 0hPa | 3V | 08:30:00 | 00:32:41 | 00:00:00 | |
| IW2NTF | 2026-09-04 11:07:27 | 45.53970 | 8.67844 | 52° | 27km/h | 2233m | 3.3m/s | 16.2°C | 39.2% | 0hPa | 3V | 08:30:00 | 00:32:35 | 00:00:00 | |
| IW2NTF | 2026-09-04 11:07:20 | 45.53951 | 8.67809 | 50° | 22km/h | 2200m | 4.3m/s | 16.5°C | 39.1% | 0hPa | 3V | 08:30:00 | 00:32:29 | 00:00:00 | |
| IW2NTF | 2026-09-04 11:07:14 | 45.53929 | 8.67773 | 56° | 24km/h | 2174m | 3.2m/s | 16.7°C | 39.3% | 0hPa | 3V | 08:30:00 | 00:32:23 | 00:00:00 | |
| IW2NTF | 2026-09-04 11:07:08 | 45.53905 | 8.67733 | 44° | 26km/h | 2151m | 3.5m/s | 17°C | 34.7% | 0hPa | 3V | 08:30:00 | 00:32:17 | 00:00:00 | |
| IW2NTF | 2026-09-04 11:07:02 | 45.53884 | 8.67696 | 64° | 22km/h | 2129m | 4.6m/s | 17.2°C | 27.7% | 0hPa | 3V | 08:30:00 | 00:32:11 | 00:00:00 | |
| IW2NTF | 2026-09-04 11:06:56 | 45.53871 | 8.67639 | 59° | 33km/h | 2106m | 4.3m/s | 17.4°C | 25.8% | 0hPa | 3V | 08:30:00 | 00:32:05 | 00:00:00 | |
| IW2NTF | 2026-09-04 11:06:50 | 45.53835 | 8.67596 | 35° | 27km/h | 2074m | 5.9m/s | 17.6°C | 27.4% | 0hPa | 3V | 08:30:00 | 00:31:59 | 00:00:00 | |
| IW2NTF | 2026-09-04 11:06:44 | 45.53812 | 8.67560 | 53° | 22km/h | 2042m | 4.4m/s | 17.8°C | 29.8% | 0hPa | 3V | 08:30:00 | 00:31:53 | 00:00:00 | |
| IW2NTF | 2026-09-04 11:06:38 | 45.53785 | 8.67516 | 58° | 27km/h | 2017m | 3.4m/s | 17.9°C | 32.7% | 0hPa | 3V | 08:30:00 | 00:31:47 | 00:00:00 | |
| IW2NTF | 2026-09-04 11:06:32 | 45.53765 | 8.67469 | 58° | 22km/h | 1997m | 3.7m/s | 18°C | 30.5% | 0hPa | 3V | 08:30:00 | 00:31:41 | 00:00:00 | |
| IW2NTF | 2026-09-04 11:06:26 | 45.53759 | 8.67456 | 56° | 20km/h | 1990m | 3.8m/s | 18°C | 30.4% | 0hPa | 3V | 08:30:00 | 00:31:39 | 00:00:00 | |
| IW2NTF | 2026-09-04 11:06:26 | 45.53753 | 8.67444 | 44° | 20km/h | 1983m | 3.6m/s | 18°C | 30.8% | 0hPa | 3V | 08:30:00 | 00:31:37 | 00:00:00 | |
| IW2NTF | 2026-09-04 11:06:26 | 45.53744 | 8.67436 | 30° | 22km/h | 1976m | 3.6m/s | 18°C | 31.8% | 0hPa | 3V | 08:30:00 | 00:31:35 | 00:00:00 | |
| IW2NTF | 2026-09-04 11:06:20 | 45.53735 | 8.67428 | 33° | 22km/h | 1970m | 3m/s | 18°C | 32.6% | 0hPa | 3V | 08:30:00 | 00:31:33 | 00:00:00 | |
| IW2NTF | 2026-09-04 11:06:20 | 45.53725 | 8.67417 | 48° | 29km/h | 1963m | 4.3m/s | 18°C | 33.2% | 0hPa | 3V | 08:30:00 | 00:31:31 | 00:00:00 | |
| IW2NTF | 2026-09-04 11:06:20 | 45.53717 | 8.67398 | 60° | 31km/h | 1954m | 4.3m/s | 17.9°C | 35.1% | 0hPa | 3V | 08:30:00 | 00:31:29 | 00:00:00 | |
| IW2NTF | 2026-09-04 11:06:14 | 45.53710 | 8.67379 | 65° | 24km/h | 1944m | 4.6m/s | 17.9°C | 37.1% | 0hPa | 3V | 08:30:00 | 00:31:27 | 00:00:00 | |
| IW2NTF | 2026-09-04 11:06:14 | 45.53704 | 8.67368 | 43° | 16km/h | 1935m | 5.9m/s | 17.8°C | 40% | 0hPa | 3V | 08:30:00 | 00:31:25 | 00:00:00 | |
| IW2NTF | 2026-09-04 11:06:14 | 45.53697 | 8.67361 | 28° | 18km/h | 1922m | 6.8m/s | 17.8°C | 42% | 0hPa | 3V | 08:30:00 | 00:31:23 | 00:00:00 | |
| IW2NTF | 2026-09-04 11:06:08 | 45.53689 | 8.67353 | 48° | 20km/h | 1909m | 6m/s | 17.9°C | 42.1% | 0hPa | 3V | 08:30:00 | 00:31:21 | 00:00:00 | |
| IW2NTF | 2026-09-04 11:06:08 | 45.53684 | 8.67340 | 65° | 22km/h | 1897m | 6.8m/s | 18°C | 41.9% | 0hPa | 3V | 08:30:00 | 00:31:19 | 00:00:00 | |
| IW2NTF | 2026-09-04 11:06:08 | 45.53679 | 8.67325 | 60° | 24km/h | 1885m | 5.1m/s | 18.1°C | 41.9% | 0hPa | 3V | 08:30:00 | 00:31:17 | 00:00:00 | |
| IW2NTF | 2026-09-04 11:06:02 | 45.53672 | 8.67312 | 53° | 22km/h | 1877m | 3.7m/s | 18.1°C | 41.9% | 0hPa | 3V | 08:30:00 | 00:31:15 | 00:00:00 | |
| IW2NTF | 2026-09-04 11:06:02 | 45.53666 | 8.67300 | 53° | 18km/h | 1867m | 4.7m/s | 18.2°C | 41.8% | 0hPa | 3V | 08:30:00 | 00:31:13 | 00:00:00 | |
| IW2NTF | 2026-09-04 11:06:02 | 45.53661 | 8.67290 | 52° | 15km/h | 1859m | 5m/s | 18.2°C | 42.4% | 0hPa | 3V | 08:30:00 | 00:31:11 | 00:00:00 | |
| IW2NTF | 2026-09-04 11:05:55 | 45.53658 | 8.67286 | 29° | 7km/h | 1851m | 3.2m/s | 18.3°C | 43.1% | 0hPa | 3V | 08:30:00 | 00:31:09 | 00:00:00 | |
| IW2NTF | 2026-09-04 11:05:55 | 45.53655 | 8.67284 | 85° | 5km/h | 1843m | 3.5m/s | 18.3°C | 43.7% | 0hPa | 3V | 08:30:00 | 00:31:07 | 00:00:00 | |
| IW2NTF | 2026-09-04 11:05:55 | 45.53656 | 8.67279 | 121° | 11km/h | 1837m | 4.2m/s | 18.3°C | 44.7% | 0hPa | 3V | 08:30:00 | 00:31:05 | 00:00:00 | |
| IW2NTF | 2026-09-04 11:05:50 | 45.53659 | 8.67270 | 110° | 18km/h | 1828m | 4.2m/s | 18.3°C | 45.9% | 0hPa | 3V | 08:30:00 | 00:31:03 | 00:00:00 | |
| IW2NTF | 2026-09-04 11:05:50 | 45.53661 | 8.67256 | 86° | 20km/h | 1821m | 4.1m/s | 18.4°C | 46.7% | 0hPa | 3V | 08:30:00 | 00:31:01 | 00:00:00 | |
| IW2NTF | 2026-09-04 11:05:50 | 45.53658 | 8.67243 | 60° | 20km/h | 1812m | 5.2m/s | 18.4°C | 47.7% | 0hPa | 3V | 08:30:00 | 00:30:59 | 00:00:00 | |
| IW2NTF | 2026-09-04 11:05:44 | 45.53651 | 8.67233 | 39° | 18km/h | 1801m | 5.3m/s | 18.5°C | 47.9% | 0hPa | 3V | 08:30:00 | 00:30:57 | 00:00:00 | |
| IW2NTF | 2026-09-04 11:05:44 | 45.53645 | 8.67225 | 43° | 15km/h | 1791m | 4.3m/s | 18.6°C | 46.2% | 0hPa | 3V | 08:30:00 | 00:30:55 | 00:00:00 | |
| IW2NTF | 2026-09-04 11:05:44 | 45.53640 | 8.67218 | 51° | 15km/h | 1782m | 5.9m/s | 18.7°C | 43.6% | 0hPa | 3V | 08:30:00 | 00:30:53 | 00:00:00 | |
| IW2NTF | 2026-09-04 11:05:37 | 45.53636 | 8.67208 | 66° | 16km/h | 1771m | 4.5m/s | 18.9°C | 41.7% | 0hPa | 3V | 08:30:00 | 00:30:51 | 00:00:00 | |
| IW2NTF | 2026-09-04 11:05:37 | 45.53633 | 8.67198 | 78° | 15km/h | 1761m | 4.8m/s | 19°C | 40% | 0hPa | 3V | 08:30:00 | 00:30:49 | 00:00:00 | |
| IW2NTF | 2026-09-04 11:05:37 | 45.53625 | 8.67126 | 82° | 13km/h | 1709m | 3.8m/s | 19.4°C | 36% | 0hPa | 3V | 08:30:00 | 00:30:35 | 00:00:00 | |
| IW2NTF | 2026-09-04 11:05:29 | 45.53625 | 8.67115 | 92° | 20km/h | 1703m | 4.2m/s | 19.3°C | 36.6% | 0hPa | 3V | 08:30:00 | 00:30:33 | 00:00:00 | |
| IW2NTF | 2026-09-04 11:05:29 | 45.53625 | 8.67100 | 95° | 24km/h | 1696m | 3.3m/s | 19.1°C | 38.1% | 0hPa | 3V | 08:30:00 | 00:30:31 | 00:00:00 | |
| IW2NTF | 2026-09-04 11:05:29 | 45.53625 | 8.67048 | 35° | 16km/h | 1663m | 6.5m/s | 19°C | 43.1% | 0hPa | 3V | 08:30:00 | 00:30:23 | 00:00:00 | |
| IW2NTF | 2026-09-04 11:05:12 | 45.53618 | 8.67041 | 38° | 18km/h | 1648m | 7.7m/s | 19.1°C | 43.6% | 0hPa | 3V | 08:30:00 | 00:30:21 | 00:00:00 | |
| IW2NTF | 2026-09-04 11:05:12 | 45.53612 | 8.67032 | 54° | 16km/h | 1634m | 6.3m/s | 19.1°C | 42.8% | 0hPa | 3V | 08:30:00 | 00:30:19 | 00:00:00 | |
| IW2NTF | 2026-09-04 11:05:12 | 45.53609 | 8.67022 | 80° | 15km/h | 1622m | 5.3m/s | 19.2°C | 42.4% | 0hPa | 3V | 08:30:00 | 00:30:17 | 00:00:00 | |
| IW2NTF | 2026-09-04 11:05:01 | 45.53608 | 8.67012 | 84° | 15km/h | 1612m | 5.4m/s | 19.2°C | 42.7% | 0hPa | 3V | 08:30:00 | 00:30:15 | 00:00:00 | |
| IW2NTF | 2026-09-04 11:05:01 | 45.53607 | 8.67002 | 84° | 15km/h | 1604m | 3.7m/s | 19.2°C | 42.8% | 0hPa | 3V | 08:30:00 | 00:30:13 | 00:00:00 | |
| IW2NTF | 2026-09-04 11:05:01 | 45.53608 | 8.66991 | 102° | 15km/h | 1595m | 3.8m/s | 19.2°C | 44.7% | 0hPa | 3V | 08:30:00 | 00:30:11 | 00:00:00 | |
| IW2NTF | 2026-09-04 11:04:56 | 45.53609 | 8.66981 | 86° | 13km/h | 1589m | 3.7m/s | 19.2°C | 47.1% | 0hPa | 3V | 08:30:00 | 00:30:09 | 00:00:00 | |
| IW2NTF | 2026-09-04 11:04:56 | 45.53605 | 8.66973 | 42° | 18km/h | 1582m | 2.9m/s | 19.2°C | 48.3% | 0hPa | 3V | 08:30:00 | 00:30:07 | 00:00:00 | |
| IW2NTF | 2026-09-04 11:04:56 | 45.53597 | 8.66963 | 35° | 24km/h | 1575m | 4m/s | 19.2°C | 49% | 0hPa | 3V | 08:30:00 | 00:30:05 | 00:00:00 | |
| IW2NTF | 2026-09-04 11:04:50 | 45.53588 | 8.66952 | 47° | 27km/h | 1569m | 3.1m/s | 19.2°C | 50.3% | 0hPa | 3V | 08:30:00 | 00:30:03 | 00:00:00 | |
| IW2NTF | 2026-09-04 11:04:50 | 45.53580 | 8.66936 | 55° | 27km/h | 1562m | 4.2m/s | 19.2°C | 49.5% | 0hPa | 3V | 08:30:00 | 00:30:01 | 00:00:00 | |
| IW2NTF | 2026-09-04 11:04:50 | 45.53574 | 8.66922 | 68° | 20km/h | 1553m | 3.9m/s | 19.3°C | 47.6% | 0hPa | 3V | 08:30:00 | 00:29:59 | 00:00:00 | |
| IW2NTF | 2026-09-04 11:04:43 | 45.53571 | 8.66911 | 71° | 13km/h | 1544m | 4.6m/s | 19.4°C | 47.1% | 0hPa | 3V | 08:30:00 | 00:29:57 | 00:00:00 | |
| IW2NTF | 2026-09-04 11:04:43 | 45.53565 | 8.66901 | 31° | 18km/h | 1528m | 4m/s | 19.6°C | 46.4% | 0hPa | 3V | 08:30:00 | 00:29:54 | 00:00:00 | |
| IW2NTF | 2026-09-04 11:04:43 | 45.53557 | 8.66891 | 55° | 24km/h | 1520m | 4.2m/s | 19.6°C | 45% | 0hPa | 3V | 08:30:00 | 00:29:52 | 00:00:00 | |
| IW2NTF | 2026-09-04 11:04:37 | 45.53551 | 8.66875 | 70° | 26km/h | 1510m | 5.5m/s | 19.7°C | 44.7% | 0hPa | 3V | 08:30:00 | 00:29:50 | 00:00:00 | |
| IW2NTF | 2026-09-04 11:04:37 | 45.53548 | 8.66858 | 74° | 24km/h | 1498m | 6.1m/s | 19.8°C | 44.5% | 0hPa | 3V | 08:30:00 | 00:29:48 | 00:00:00 | |
| IW2NTF | 2026-09-04 11:04:37 | 45.53545 | 8.66845 | 67° | 18km/h | 1487m | 6m/s | 19.9°C | 44.4% | 0hPa | 3V | 08:30:00 | 00:29:46 | 00:00:00 | |
| IW2NTF | 2026-09-04 11:04:30 | 45.53542 | 8.66833 | 64° | 18km/h | 1474m | 6.6m/s | 20°C | 44.3% | 0hPa | 3V | 08:30:00 | 00:29:44 | 00:00:00 | |
| IW2NTF | 2026-09-04 11:04:30 | 45.53537 | 8.66822 | 50° | 20km/h | 1464m | 3.9m/s | 20.1°C | 44% | 0hPa | 3V | 08:30:00 | 00:29:42 | 00:00:00 | |
| IW2NTF | 2026-09-04 11:04:30 | 45.53524 | 8.66807 | 23° | 20km/h | 1451m | 4.7m/s | 20.1°C | 45.3% | 0hPa | 3V | 08:30:00 | 00:29:39 | 00:00:00 | |
| IW2NTF | 2026-09-04 11:04:24 | 45.53512 | 8.66802 | 9° | 13km/h | 1440m | 4.3m/s | 20.2°C | 45.6% | 0hPa | 3V | 08:30:00 | 00:29:36 | 00:00:00 | |
| IW2NTF | 2026-09-04 11:04:24 | 45.53505 | 8.66800 | 13° | 15km/h | 1432m | 3.8m/s | 20.2°C | 46.2% | 0hPa | 3V | 08:30:00 | 00:29:34 | 00:00:00 | |
| IW2NTF | 2026-09-04 11:04:24 | 45.53497 | 8.66797 | 16° | 18km/h | 1423m | 5.6m/s | 20.2°C | 49.4% | 0hPa | 3V | 08:30:00 | 00:29:32 | 00:00:00 | |
| IW2NTF | 2026-09-04 11:04:17 | 45.53489 | 8.66792 | 23° | 16km/h | 1413m | 4.5m/s | 20.3°C | 49.7% | 0hPa | 3V | 08:30:00 | 00:29:30 | 00:00:00 | |
| IW2NTF | 2026-09-04 11:04:17 | 45.53481 | 8.66790 | 6° | 13km/h | 1405m | 4.2m/s | 20.3°C | 48.8% | 0hPa | 3V | 08:30:00 | 00:29:28 | 00:00:00 | |
| IW2NTF | 2026-09-04 11:04:17 | 45.53475 | 8.66789 | 8° | 9km/h | 1398m | 3.5m/s | 20.4°C | 48.9% | 0hPa | 3V | 08:30:00 | 00:29:26 | 00:00:00 | |
| IW2NTF | 2026-09-04 11:04:11 | 45.53469 | 8.66790 | 352° | 18km/h | 1390m | 3.9m/s | 20.4°C | 49.5% | 0hPa | 3V | 08:30:00 | 00:29:24 | 00:00:00 | |
| IW2NTF | 2026-09-04 11:04:11 | 45.53458 | 8.66789 | 9° | 24km/h | 1384m | 3.4m/s | 20.5°C | 48.1% | 0hPa | 3V | 08:30:00 | 00:29:22 | 00:00:00 | |
| IW2NTF | 2026-09-04 11:04:06 | 45.53446 | 8.66783 | 21° | 27km/h | 1375m | 4.4m/s | 20.6°C | 48.3% | 0hPa | 3V | 08:30:00 | 00:29:20 | 00:00:00 | |
| IW2NTF | 2026-09-04 11:04:06 | 45.53433 | 8.66774 | 28° | 27km/h | 1366m | 4m/s | 20.6°C | 48.6% | 0hPa | 3V | 08:30:00 | 00:29:18 | 00:00:00 | |
| IW2NTF | 2026-09-04 11:04:06 | 45.53408 | 8.66754 | 27° | 27km/h | 1349m | 4.4m/s | 20.7°C | 49.8% | 0hPa | 3V | 08:30:00 | 00:29:14 | 00:00:00 | |
| IW2NTF | 2026-09-04 11:04:00 | 45.53397 | 8.66745 | 34° | 22km/h | 1339m | 5.2m/s | 20.8°C | 49.7% | 0hPa | 3V | 08:30:00 | 00:29:12 | 00:00:00 | |
| IW2NTF | 2026-09-04 11:04:00 | 45.53389 | 8.66735 | 44° | 20km/h | 1328m | 6.4m/s | 20.9°C | 49.4% | 0hPa | 3V | 08:30:00 | 00:29:10 | 00:00:00 | |
| IW2NTF | 2026-09-04 11:04:00 | 45.53382 | 8.66725 | 48° | 22km/h | 1316m | 5.1m/s | 21°C | 48.6% | 0hPa | 3V | 08:30:00 | 00:29:08 | 00:00:00 | |
| IW2NTF | 2026-09-04 11:03:53 | 45.53374 | 8.66714 | 37° | 24km/h | 1306m | 4.9m/s | 21.1°C | 48% | 0hPa | 3V | 08:30:00 | 00:29:06 | 00:00:00 | |
| IW2NTF | 2026-09-04 11:03:53 | 45.53364 | 8.66704 | 29° | 20km/h | 1297m | 3.6m/s | 21.1°C | 47.7% | 0hPa | 3V | 08:30:00 | 00:29:04 | 00:00:00 | |
| IW2NTF | 2026-09-04 11:03:53 | 45.53357 | 8.66697 | 29° | 16km/h | 1290m | 3.5m/s | 21.2°C | 47.4% | 0hPa | 3V | 08:30:00 | 00:29:02 | 00:00:00 | |
| IW2NTF | 2026-09-04 11:03:47 | 45.53349 | 8.66695 | 359° | 15km/h | 1284m | 2.3m/s | 21.2°C | 47.4% | 0hPa | 3V | 08:30:00 | 00:29:00 | 00:00:00 | |
| IW2NTF | 2026-09-04 11:03:47 | 45.53339 | 8.66695 | 5° | 24km/h | 1278m | 2.6m/s | 21.3°C | 47.2% | 0hPa | 3V | 08:30:00 | 00:28:58 | 00:00:00 | |
| IW2NTF | 2026-09-04 11:03:47 | 45.53327 | 8.66693 | 8° | 22km/h | 1273m | 2.9m/s | 21.3°C | 47% | 0hPa | 3V | 08:30:00 | 00:28:56 | 00:00:00 | |
| IW2NTF | 2026-09-04 11:03:41 | 45.53316 | 8.66691 | 2° | 22km/h | 1267m | 4.3m/s | 21.4°C | 46.8% | 0hPa | 3V | 08:30:00 | 00:28:54 | 00:00:00 | |
| IW2NTF | 2026-09-04 11:03:41 | 45.53306 | 8.66691 | 1° | 16km/h | 1259m | 4.3m/s | 21.4°C | 46.4% | 0hPa | 3V | 00:00:00 | 00:28:52 | 00:00:00 | |
| IW2NTF | 2026-09-04 11:03:41 | 45.53299 | 8.66691 | 1° | 9km/h | 1250m | 4.7m/s | 21.4°C | 46.7% | 0hPa | 3V | 00:00:00 | 00:28:50 | 00:00:00 | |
| IW2NTF | 2026-09-04 11:03:35 | 45.53296 | 8.66689 | 45° | 7km/h | 1241m | 4.5m/s | 21.5°C | 46.4% | 0hPa | 3V | 00:00:00 | 00:28:48 | 00:00:00 | |
| IW2NTF | 2026-09-04 11:03:35 | 45.53292 | 8.66681 | 63° | 18km/h | 1233m | 3.7m/s | 21.6°C | 47.2% | 0hPa | 3V | 00:00:00 | 00:28:46 | 00:00:00 | |
| IW2NTF | 2026-09-04 11:03:35 | 45.53287 | 8.66669 | 56° | 22km/h | 1224m | 4.5m/s | 21.6°C | 47.1% | 0hPa | 3V | 00:00:00 | 00:28:44 | 00:00:00 | |
| IW2NTF | 2026-09-04 11:03:30 | 45.53282 | 8.66657 | 64° | 16km/h | 1216m | 4m/s | 21.7°C | 47.2% | 0hPa | 3V | 00:00:00 | 00:28:42 | 00:00:00 | |
| IW2NTF | 2026-09-04 11:03:30 | 45.53280 | 8.66649 | 86° | 7km/h | 1209m | 2.9m/s | 21.8°C | 46.7% | 0hPa | 3V | 00:00:00 | 00:28:40 | 00:00:00 | |
| IW2NTF | 2026-09-04 11:03:30 | 45.53281 | 8.66644 | 99° | 9km/h | 1203m | 3.4m/s | 21.8°C | 46.5% | 0hPa | 3V | 00:00:00 | 00:28:38 | 00:00:00 | |
| IW2NTF | 2026-09-04 11:03:23 | 45.53281 | 8.66638 | 104° | 9km/h | 1196m | 4m/s | 21.9°C | 46.2% | 0hPa | 3V | 00:00:00 | 00:28:36 | 00:00:00 | |
| IW2NTF | 2026-09-04 11:03:23 | 45.53282 | 8.66630 | 105° | 11km/h | 1189m | 4m/s | 21.9°C | 46.5% | 0hPa | 3V | 00:00:00 | 00:28:34 | 00:00:00 | |
| IW2NTF | 2026-09-04 11:03:23 | 45.53283 | 8.66623 | 105° | 9km/h | 1181m | 4m/s | 22°C | 45.8% | 0hPa | 3V | 00:00:00 | 00:28:32 | 00:00:00 | |
| IW2NTF | 2026-09-04 11:03:17 | 45.53283 | 8.66618 | 77° | 5km/h | 1173m | 4.5m/s | 22.1°C | 45.4% | 0hPa | 3V | 00:00:00 | 00:28:30 | 00:00:00 | |
| IW2NTF | 2026-09-04 11:03:17 | 45.53281 | 8.66615 | 9° | 7km/h | 1165m | 4m/s | 22.1°C | 45.3% | 0hPa | 3V | 00:00:00 | 00:28:28 | 00:00:00 | |
| IW2NTF | 2026-09-04 11:03:17 | 45.53276 | 8.66614 | 18° | 16km/h | 1157m | 3.7m/s | 22.2°C | 45.3% | 0hPa | 3V | 00:00:00 | 00:28:26 | 00:00:00 | |
| IW2NTF | 2026-09-04 11:03:11 | 45.53267 | 8.66608 | 35° | 24km/h | 1151m | 2.7m/s | 22.2°C | 45.7% | 0hPa | 3V | 00:00:00 | 00:28:24 | 00:00:00 | |
| IW2NTF | 2026-09-04 11:03:11 | 45.53260 | 8.66595 | 60° | 22km/h | 1144m | 3.5m/s | 22.2°C | 0% | 0hPa | 3V | 00:00:00 | 00:28:22 | 00:00:00 | |
| IW2NTF | 2026-09-04 11:03:11 | 45.53257 | 8.66581 | 89° | 16km/h | 1136m | 4.7m/s | 22.2°C | 0% | 0hPa | 3V | 00:00:00 | 00:28:20 | 00:00:00 | |
| IW2NTF | 2026-09-04 11:03:05 | 45.53258 | 8.66572 | 98° | 9km/h | 1127m | 4.2m/s | 22.2°C | 0% | 0hPa | 3V | 00:00:00 | 00:28:18 | 00:00:00 | |
| IW2NTF | 2026-09-04 11:03:05 | 45.53257 | 8.66568 | 34° | 5km/h | 1119m | 3.7m/s | 22.2°C | 0% | 0hPa | 3V | 00:00:00 | 00:28:16 | 00:00:00 | |
| IW2NTF | 2026-09-04 11:03:05 | 45.53253 | 8.66566 | 9° | 13km/h | 1112m | 3.7m/s | 22°C | 0% | 0hPa | 3V | 00:00:00 | 00:28:14 | 00:00:00 | |
| IW2NTF | 2026-09-04 11:02:59 | 45.53245 | 8.66561 | 33° | 20km/h | 1105m | 3.4m/s | 21.9°C | 0% | 0hPa | 3V | 00:00:00 | 00:28:12 | 00:00:00 | |
| IW2NTF | 2026-09-04 11:02:59 | 45.53237 | 8.66550 | 61° | 22km/h | 1098m | 3.7m/s | 21.9°C | 0% | 0hPa | 3V | 00:00:00 | 00:28:10 | 00:00:00 | |
| IW2NTF | 2026-09-04 11:02:59 | 45.53234 | 8.66536 | 81° | 16km/h | 1089m | 4.7m/s | 0°C | 0% | 0hPa | 3V | 00:00:00 | 00:28:08 | 00:00:00 | |
| IW2NTF | 2026-09-04 11:02:53 | 45.53233 | 8.66529 | 68° | 4km/h | 1080m | 4.4m/s | 0°C | 0% | 0hPa | 3V | 00:00:00 | 00:28:06 | 00:00:00 | |
| IW2NTF | 2026-09-04 11:02:53 | 45.53231 | 8.66528 | 0° | 9km/h | 1072m | 3.3m/s | 0°C | 0% | 0hPa | 3V | 00:00:00 | 00:28:04 | 00:00:00 | |
| IW2NTF | 2026-09-04 11:02:53 | 45.53225 | 8.66526 | 15° | 15km/h | 1064m | 4.7m/s | 0°C | 0% | 0hPa | 3V | 00:00:00 | 00:28:02 | 00:00:00 | |
| IW2NTF | 2026-09-04 11:02:48 | 45.53220 | 8.66521 | 59° | 11km/h | 1056m | 4.7m/s | 0°C | 0% | 0hPa | 3V | 00:00:00 | 00:28:00 | 00:00:00 | |
| IW2NTF | 2026-09-04 11:02:48 | 45.53219 | 8.66516 | 122° | 4km/h | 1043m | 6.7m/s | 0°C | 0% | 0hPa | 3V | 00:00:00 | 00:27:58 | 00:00:00 | |
| IW2NTF | 2026-09-04 11:02:48 | 45.53220 | 8.66516 | 289° | 4km/h | 1032m | 6.4m/s | 0°C | 0% | 0hPa | 3V | 00:00:00 | 00:27:56 | 00:00:00 | |
| IW2NTF | 2026-09-04 11:02:41 | 45.53216 | 8.66519 | 349° | 15km/h | 1021m | 4.1m/s | 0°C | 0% | 0hPa | 3V | 00:00:00 | 00:27:54 | 00:00:00 | |
| IW2NTF | 2026-09-04 11:02:41 | 45.53209 | 8.66518 | 26° | 16km/h | 1013m | 3.4m/s | 0°C | 0% | 0hPa | 3V | 00:00:00 | 00:27:52 | 00:00:00 | |
| IW2NTF | 2026-09-04 11:02:41 | 45.53203 | 8.66510 | 68° | 11km/h | 1005m | 5.8m/s | 0°C | 0% | 0hPa | 3V | 00:00:00 | 00:27:50 | 00:00:00 | |
| IW2NTF | 2026-09-04 11:02:36 | 45.53204 | 8.66505 | 158° | 2km/h | 995m | 3.7m/s | 0°C | 0% | 0hPa | 3V | 00:00:00 | 00:27:48 | 00:00:00 | |
| IW2NTF | 2026-09-04 11:02:36 | 45.53204 | 8.66507 | 293° | 5km/h | 986m | 4.7m/s | 0°C | 0% | 0hPa | 3V | 00:00:00 | 00:27:46 | 00:00:00 | |
| IW2NTF | 2026-09-04 11:02:36 | 45.53200 | 8.66509 | 1° | 13km/h | 977m | 5m/s | 0°C | 0% | 0hPa | 3V | 00:00:00 | 00:27:44 | 00:00:00 | |
| IW2NTF | 2026-09-04 11:02:30 | 45.53194 | 8.66505 | 42° | 13km/h | 968m | 4.1m/s | 0°C | 0% | 0hPa | 3V | 00:00:00 | 00:27:42 | 00:00:00 | |
| IW2NTF | 2026-09-04 11:02:30 | 45.53192 | 8.66501 | 52° | 2km/h | 959m | 4.2m/s | 0°C | 0% | 0hPa | 3V | 00:00:00 | 00:27:40 | 00:00:00 | |
| IW2NTF | 2026-09-04 11:02:30 | 45.53191 | 8.66505 | 280° | 13km/h | 950m | 4.4m/s | 0°C | 0% | 0hPa | 3V | 00:00:00 | 00:27:38 | 00:00:00 | |
| IW2NTF | 2026-09-04 11:02:23 | 45.53187 | 8.66516 | 312° | 20km/h | 942m | 3.9m/s | 0°C | 0% | 0hPa | 3V | 00:00:00 | 00:27:36 | 00:00:00 | |
| IW2NTF | 2026-09-04 11:02:23 | 45.53178 | 8.66525 | 338° | 22km/h | 934m | 5.2m/s | 0°C | 0% | 0hPa | 3V | 00:00:00 | 00:27:34 | 00:00:00 | |
| IW2NTF | 2026-09-04 11:02:23 | 45.53167 | 8.66526 | 10° | 20km/h | 925m | 4.7m/s | 0°C | 0% | 0hPa | 3V | 00:00:00 | 00:27:32 | 00:00:00 | |
| IW2NTF | 2026-09-04 11:02:17 | 45.53160 | 8.66521 | 67° | 9km/h | 915m | 4.6m/s | 0°C | 0% | 0hPa | 3V | 00:00:00 | 00:27:30 | 00:00:00 | |
| IW2NTF | 2026-09-04 11:02:17 | 45.53161 | 8.66516 | 162° | 7km/h | 906m | 5.5m/s | 0°C | 0% | 0hPa | 3V | 00:00:00 | 00:27:28 | 00:00:00 | |
| IW2NTF | 2026-09-04 11:02:17 | 45.53163 | 8.66517 | 306° | 4km/h | 897m | 4.5m/s | 0°C | 0% | 0hPa | 3V | 00:00:00 | 00:27:26 | 00:00:00 | |
| IW2NTF | 2026-09-04 11:02:12 | 45.53158 | 8.66518 | 8° | 15km/h | 885m | 6.3m/s | 0°C | 0% | 0hPa | 3V | 00:00:00 | 00:27:24 | 00:00:00 | |
| IW2NTF | 2026-09-04 11:02:12 | 45.53149 | 8.66514 | 31° | 22km/h | 874m | 4.9m/s | 0°C | 0% | 0hPa | 3V | 00:00:00 | 00:27:22 | 00:00:00 | |
| IW2NTF | 2026-09-04 11:02:12 | 45.53143 | 8.66506 | 62° | 9km/h | 865m | 4m/s | 0°C | 0% | 0hPa | 3V | 00:00:00 | 00:27:20 | 00:00:00 | |
| IW2NTF | 2026-09-04 11:02:05 | 45.53142 | 8.66502 | 247° | 0km/h | 854m | 6m/s | 0°C | 0% | 0hPa | 3V | 00:00:00 | 00:27:18 | 00:00:00 | |
| IW2NTF | 2026-09-04 11:02:05 | 45.53139 | 8.66507 | 310° | 16km/h | 842m | 5.3m/s | 0°C | 0% | 0hPa | 3V | 00:00:00 | 00:27:16 | 00:00:00 | |
| IW2NTF | 2026-09-04 11:02:05 | 45.53131 | 8.66515 | 342° | 18km/h | 831m | 5.2m/s | 0°C | 0% | 0hPa | 3V | 00:00:00 | 00:27:14 | 00:00:00 | |
| IW2NTF | 2026-09-04 11:02:00 | 45.53124 | 8.66517 | 346° | 11km/h | 821m | 5.8m/s | 0°C | 0% | 0hPa | 3V | 00:00:00 | 00:27:12 | 00:00:00 | |
| IW2NTF | 2026-09-04 11:02:00 | 45.53121 | 8.66522 | 288° | 13km/h | 810m | 5m/s | 0°C | 0% | 0hPa | 3V | 00:00:00 | 00:27:10 | 00:00:00 | |
| IW2NTF | 2026-09-04 11:02:00 | 45.53117 | 8.66534 | 302° | 22km/h | 797m | 5.9m/s | 0°C | 0% | 0hPa | 3V | 00:00:00 | 00:27:08 | 00:00:00 |